<?xml version="1.0" encoding="UTF-8" standalone="no" ?>
<gpx xmlns="http://www.topografix.com/GPX/1/1" xmlns:xsi="http://www.w3.org/2001/XMLSchema-instance" xsi:schemaLocation="http://www.topografix.com/GPX/1/1 http://www.topografix.com/GPX/1/1/gpx.xsd" version="1.1" creator="VisuGPX - https://www.visugpx.com">
  <metadata>
    <name>St Pierre -La Motte Servolex </name>
    <desc><![CDATA[Tracé au départ de St Pierre jusqu\'au Crinière d\'Ange Club Équestre ]]></desc>
  </metadata>
  <trk>
    <name><![CDATA[St Pierre -La Motte Servolex _1]]></name>
    <trkseg>
      <trkpt lat="45.62631" lon="5.7265">
        <ele>670</ele>
        <time>2015-11-07T09:35:44Z</time>
      </trkpt>
      <trkpt lat="45.62631" lon="5.72653">
        <ele>670</ele>
        <time>2015-11-07T09:35:50Z</time>
      </trkpt>
      <trkpt lat="45.62631" lon="5.72652">
        <ele>670</ele>
        <time>2015-11-07T09:36:04Z</time>
      </trkpt>
      <trkpt lat="45.62631" lon="5.72652">
        <ele>670</ele>
        <time>2015-11-07T09:36:10Z</time>
      </trkpt>
      <trkpt lat="45.62631" lon="5.72653">
        <ele>670</ele>
        <time>2015-11-07T09:36:34Z</time>
      </trkpt>
      <trkpt lat="45.62631" lon="5.72652">
        <ele>670</ele>
        <time>2015-11-07T09:36:40Z</time>
      </trkpt>
      <trkpt lat="45.62632" lon="5.72652">
        <ele>670</ele>
        <time>2015-11-07T09:36:49Z</time>
      </trkpt>
      <trkpt lat="45.62632" lon="5.72652">
        <ele>670</ele>
        <time>2015-11-07T09:36:54Z</time>
      </trkpt>
      <trkpt lat="45.62635" lon="5.72653">
        <ele>670</ele>
        <time>2015-11-07T09:37:04Z</time>
      </trkpt>
      <trkpt lat="45.62635" lon="5.72653">
        <ele>670</ele>
        <time>2015-11-07T09:37:09Z</time>
      </trkpt>
      <trkpt lat="45.62635" lon="5.72653">
        <ele>670</ele>
        <time>2015-11-07T09:37:19Z</time>
      </trkpt>
      <trkpt lat="45.62635" lon="5.72653">
        <ele>670</ele>
        <time>2015-11-07T09:37:25Z</time>
      </trkpt>
      <trkpt lat="45.62635" lon="5.72653">
        <ele>670</ele>
        <time>2015-11-07T09:37:39Z</time>
      </trkpt>
      <trkpt lat="45.62635" lon="5.72653">
        <ele>670</ele>
        <time>2015-11-07T09:37:44Z</time>
      </trkpt>
      <trkpt lat="45.62635" lon="5.72653">
        <ele>670</ele>
        <time>2015-11-07T09:37:54Z</time>
      </trkpt>
      <trkpt lat="45.62635" lon="5.72653">
        <ele>670</ele>
        <time>2015-11-07T09:37:59Z</time>
      </trkpt>
      <trkpt lat="45.62635" lon="5.72653">
        <ele>670</ele>
        <time>2015-11-07T09:38:09Z</time>
      </trkpt>
      <trkpt lat="45.62635" lon="5.72653">
        <ele>670</ele>
        <time>2015-11-07T09:38:14Z</time>
      </trkpt>
      <trkpt lat="45.62635" lon="5.72653">
        <ele>670</ele>
        <time>2015-11-07T09:38:24Z</time>
      </trkpt>
      <trkpt lat="45.62635" lon="5.72653">
        <ele>670</ele>
        <time>2015-11-07T09:38:29Z</time>
      </trkpt>
      <trkpt lat="45.62635" lon="5.72653">
        <ele>670</ele>
        <time>2015-11-07T09:38:39Z</time>
      </trkpt>
      <trkpt lat="45.62635" lon="5.72653">
        <ele>670</ele>
        <time>2015-11-07T09:38:44Z</time>
      </trkpt>
      <trkpt lat="45.62635" lon="5.72653">
        <ele>670</ele>
        <time>2015-11-07T09:38:54Z</time>
      </trkpt>
      <trkpt lat="45.62635" lon="5.72653">
        <ele>670</ele>
        <time>2015-11-07T09:39:00Z</time>
      </trkpt>
      <trkpt lat="45.62633" lon="5.72642">
        <ele>671.41955187713</ele>
        <time>2015-11-07T09:39:09Z</time>
      </trkpt>
      <trkpt lat="45.62635" lon="5.72636">
        <ele>671.41955187713</ele>
        <time>2015-11-07T09:39:14Z</time>
      </trkpt>
      <trkpt lat="45.62648" lon="5.72626">
        <ele>676.72298090403</ele>
        <time>2015-11-07T09:39:30Z</time>
      </trkpt>
      <trkpt lat="45.62651" lon="5.72623">
        <ele>676.72298090403</ele>
        <time>2015-11-07T09:39:35Z</time>
      </trkpt>
      <trkpt lat="45.62656" lon="5.72619">
        <ele>680.63727903697</ele>
        <time>2015-11-07T09:39:45Z</time>
      </trkpt>
      <trkpt lat="45.62654" lon="5.72619">
        <ele>680.63727903697</ele>
        <time>2015-11-07T09:39:49Z</time>
      </trkpt>
      <trkpt lat="45.62654" lon="5.72619">
        <ele>680.63727903697</ele>
        <time>2015-11-07T09:40:00Z</time>
      </trkpt>
      <trkpt lat="45.62654" lon="5.72619">
        <ele>680.63727903697</ele>
        <time>2015-11-07T09:40:05Z</time>
      </trkpt>
      <trkpt lat="45.62654" lon="5.72619">
        <ele>680.63727903697</ele>
        <time>2015-11-07T09:40:15Z</time>
      </trkpt>
      <trkpt lat="45.62654" lon="5.72619">
        <ele>680.63727903697</ele>
        <time>2015-11-07T09:40:20Z</time>
      </trkpt>
      <trkpt lat="45.62649" lon="5.72615">
        <ele>680.63727903697</ele>
        <time>2015-11-07T09:40:29Z</time>
      </trkpt>
      <trkpt lat="45.62643" lon="5.72616">
        <ele>683.14862926383</ele>
        <time>2015-11-07T09:40:35Z</time>
      </trkpt>
      <trkpt lat="45.62624" lon="5.72617">
        <ele>685.68760179769</ele>
        <time>2015-11-07T09:40:49Z</time>
      </trkpt>
      <trkpt lat="45.62618" lon="5.72618">
        <ele>685.68760179769</ele>
        <time>2015-11-07T09:40:54Z</time>
      </trkpt>
      <trkpt lat="45.62605" lon="5.72619">
        <ele>687.94462445725</ele>
        <time>2015-11-07T09:41:04Z</time>
      </trkpt>
      <trkpt lat="45.62599" lon="5.72621">
        <ele>687.94462445725</ele>
        <time>2015-11-07T09:41:09Z</time>
      </trkpt>
      <trkpt lat="45.62586" lon="5.72623">
        <ele>690.01085710282</ele>
        <time>2015-11-07T09:41:19Z</time>
      </trkpt>
      <trkpt lat="45.62579" lon="5.72624">
        <ele>690.01085710282</ele>
        <time>2015-11-07T09:41:24Z</time>
      </trkpt>
      <trkpt lat="45.62568" lon="5.72628">
        <ele>691.6274547328</ele>
        <time>2015-11-07T09:41:34Z</time>
      </trkpt>
      <trkpt lat="45.62562" lon="5.72627">
        <ele>691.6274547328</ele>
        <time>2015-11-07T09:41:39Z</time>
      </trkpt>
      <trkpt lat="45.62556" lon="5.72624">
        <ele>692.78405759928</ele>
        <time>2015-11-07T09:41:49Z</time>
      </trkpt>
      <trkpt lat="45.62557" lon="5.72619">
        <ele>692.78405759928</ele>
        <time>2015-11-07T09:41:54Z</time>
      </trkpt>
      <trkpt lat="45.62563" lon="5.72613">
        <ele>693.27487587347</ele>
        <time>2015-11-07T09:42:05Z</time>
      </trkpt>
      <trkpt lat="45.62564" lon="5.72615">
        <ele>693.27487587347</ele>
        <time>2015-11-07T09:42:09Z</time>
      </trkpt>
      <trkpt lat="45.6257" lon="5.72609">
        <ele>693.27487587347</ele>
        <time>2015-11-07T09:42:19Z</time>
      </trkpt>
      <trkpt lat="45.62573" lon="5.72609">
        <ele>693.80176224413</ele>
        <time>2015-11-07T09:42:25Z</time>
      </trkpt>
      <trkpt lat="45.62575" lon="5.72609">
        <ele>693.80176224413</ele>
        <time>2015-11-07T09:42:35Z</time>
      </trkpt>
      <trkpt lat="45.62575" lon="5.72608">
        <ele>693.80176224413</ele>
        <time>2015-11-07T09:42:39Z</time>
      </trkpt>
      <trkpt lat="45.62575" lon="5.72608">
        <ele>693.80176224413</ele>
        <time>2015-11-07T09:42:54Z</time>
      </trkpt>
      <trkpt lat="45.62575" lon="5.72608">
        <ele>693.80176224413</ele>
        <time>2015-11-07T09:42:59Z</time>
      </trkpt>
      <trkpt lat="45.62578" lon="5.72609">
        <ele>693.80176224413</ele>
        <time>2015-11-07T09:43:09Z</time>
      </trkpt>
      <trkpt lat="45.62579" lon="5.72609">
        <ele>693.80176224413</ele>
        <time>2015-11-07T09:43:14Z</time>
      </trkpt>
      <trkpt lat="45.62579" lon="5.72608">
        <ele>693.80176224413</ele>
        <time>2015-11-07T09:43:24Z</time>
      </trkpt>
      <trkpt lat="45.62579" lon="5.72609">
        <ele>693.80176224413</ele>
        <time>2015-11-07T09:43:30Z</time>
      </trkpt>
      <trkpt lat="45.6258" lon="5.72609">
        <ele>693.80176224413</ele>
        <time>2015-11-07T09:43:39Z</time>
      </trkpt>
      <trkpt lat="45.6258" lon="5.72609">
        <ele>693.80176224413</ele>
        <time>2015-11-07T09:43:44Z</time>
      </trkpt>
      <trkpt lat="45.62581" lon="5.72608">
        <ele>693.80176224413</ele>
        <time>2015-11-07T09:43:54Z</time>
      </trkpt>
      <trkpt lat="45.62581" lon="5.72608">
        <ele>694.95584995424</ele>
        <time>2015-11-07T09:43:59Z</time>
      </trkpt>
      <trkpt lat="45.62581" lon="5.72608">
        <ele>694.95584995424</ele>
        <time>2015-11-07T09:44:09Z</time>
      </trkpt>
      <trkpt lat="45.62581" lon="5.72609">
        <ele>694.95584995424</ele>
        <time>2015-11-07T09:44:14Z</time>
      </trkpt>
      <trkpt lat="45.6258" lon="5.72611">
        <ele>694.95584995424</ele>
        <time>2015-11-07T09:44:24Z</time>
      </trkpt>
      <trkpt lat="45.62579" lon="5.72611">
        <ele>694.95584995424</ele>
        <time>2015-11-07T09:44:29Z</time>
      </trkpt>
      <trkpt lat="45.62579" lon="5.72607">
        <ele>694.95584995424</ele>
        <time>2015-11-07T09:44:39Z</time>
      </trkpt>
      <trkpt lat="45.62579" lon="5.72606">
        <ele>694.95584995424</ele>
        <time>2015-11-07T09:44:44Z</time>
      </trkpt>
      <trkpt lat="45.6258" lon="5.72605">
        <ele>694.95584995424</ele>
        <time>2015-11-07T09:44:54Z</time>
      </trkpt>
      <trkpt lat="45.6258" lon="5.72605">
        <ele>694.95584995424</ele>
        <time>2015-11-07T09:44:59Z</time>
      </trkpt>
      <trkpt lat="45.6258" lon="5.72606">
        <ele>694.95584995424</ele>
        <time>2015-11-07T09:45:09Z</time>
      </trkpt>
      <trkpt lat="45.62582" lon="5.72606">
        <ele>695.69385014577</ele>
        <time>2015-11-07T09:45:14Z</time>
      </trkpt>
      <trkpt lat="45.62583" lon="5.72602">
        <ele>695.69385014577</ele>
        <time>2015-11-07T09:45:29Z</time>
      </trkpt>
      <trkpt lat="45.62586" lon="5.72601">
        <ele>695.69385014577</ele>
        <time>2015-11-07T09:45:34Z</time>
      </trkpt>
      <trkpt lat="45.62587" lon="5.726">
        <ele>695.69385014577</ele>
        <time>2015-11-07T09:45:44Z</time>
      </trkpt>
      <trkpt lat="45.62587" lon="5.726">
        <ele>695.69385014577</ele>
        <time>2015-11-07T09:45:50Z</time>
      </trkpt>
      <trkpt lat="45.62587" lon="5.726">
        <ele>695.69385014577</ele>
        <time>2015-11-07T09:45:59Z</time>
      </trkpt>
      <trkpt lat="45.62588" lon="5.726">
        <ele>695.69385014577</ele>
        <time>2015-11-07T09:46:04Z</time>
      </trkpt>
      <trkpt lat="45.6259" lon="5.72602">
        <ele>696.01855427399</ele>
        <time>2015-11-07T09:46:15Z</time>
      </trkpt>
      <trkpt lat="45.62591" lon="5.72602">
        <ele>696.01855427399</ele>
        <time>2015-11-07T09:46:19Z</time>
      </trkpt>
      <trkpt lat="45.62591" lon="5.72603">
        <ele>696.01855427399</ele>
        <time>2015-11-07T09:46:29Z</time>
      </trkpt>
      <trkpt lat="45.62593" lon="5.72601">
        <ele>696.01855427399</ele>
        <time>2015-11-07T09:46:34Z</time>
      </trkpt>
      <trkpt lat="45.626" lon="5.72593">
        <ele>695.59054726715</ele>
        <time>2015-11-07T09:46:44Z</time>
      </trkpt>
      <trkpt lat="45.62604" lon="5.72589">
        <ele>695.59054726715</ele>
        <time>2015-11-07T09:46:49Z</time>
      </trkpt>
      <trkpt lat="45.62611" lon="5.7258">
        <ele>695.24954442514</ele>
        <time>2015-11-07T09:47:00Z</time>
      </trkpt>
      <trkpt lat="45.62616" lon="5.72575">
        <ele>695.24954442514</ele>
        <time>2015-11-07T09:47:04Z</time>
      </trkpt>
      <trkpt lat="45.62624" lon="5.72565">
        <ele>694.22173644167</ele>
        <time>2015-11-07T09:47:14Z</time>
      </trkpt>
      <trkpt lat="45.6263" lon="5.72562">
        <ele>694.22173644167</ele>
        <time>2015-11-07T09:47:19Z</time>
      </trkpt>
      <trkpt lat="45.62637" lon="5.72551">
        <ele>693.88930083669</ele>
        <time>2015-11-07T09:47:30Z</time>
      </trkpt>
      <trkpt lat="45.62641" lon="5.72546">
        <ele>693.88930083669</ele>
        <time>2015-11-07T09:47:35Z</time>
      </trkpt>
      <trkpt lat="45.62658" lon="5.72534">
        <ele>694.1494958988</ele>
        <time>2015-11-07T09:47:49Z</time>
      </trkpt>
      <trkpt lat="45.62664" lon="5.7253">
        <ele>694.1494958988</ele>
        <time>2015-11-07T09:47:54Z</time>
      </trkpt>
      <trkpt lat="45.62668" lon="5.7253">
        <ele>694.41514668597</ele>
        <time>2015-11-07T09:48:04Z</time>
      </trkpt>
      <trkpt lat="45.62671" lon="5.72528">
        <ele>694.41514668597</ele>
        <time>2015-11-07T09:48:10Z</time>
      </trkpt>
      <trkpt lat="45.62681" lon="5.72518">
        <ele>695.52982337874</ele>
        <time>2015-11-07T09:48:19Z</time>
      </trkpt>
      <trkpt lat="45.62683" lon="5.72513">
        <ele>695.52982337874</ele>
        <time>2015-11-07T09:48:24Z</time>
      </trkpt>
      <trkpt lat="45.62696" lon="5.72501">
        <ele>696.53295602275</ele>
        <time>2015-11-07T09:48:34Z</time>
      </trkpt>
      <trkpt lat="45.62701" lon="5.72495">
        <ele>696.53295602275</ele>
        <time>2015-11-07T09:48:39Z</time>
      </trkpt>
      <trkpt lat="45.6271" lon="5.72486">
        <ele>697.14030712977</ele>
        <time>2015-11-07T09:48:50Z</time>
      </trkpt>
      <trkpt lat="45.62713" lon="5.72482">
        <ele>697.14030712977</ele>
        <time>2015-11-07T09:48:54Z</time>
      </trkpt>
      <trkpt lat="45.62734" lon="5.72471">
        <ele>697.13254467274</ele>
        <time>2015-11-07T09:49:09Z</time>
      </trkpt>
      <trkpt lat="45.62739" lon="5.72466">
        <ele>697.13254467274</ele>
        <time>2015-11-07T09:49:15Z</time>
      </trkpt>
      <trkpt lat="45.62756" lon="5.72459">
        <ele>696.49105857562</ele>
        <time>2015-11-07T09:49:24Z</time>
      </trkpt>
      <trkpt lat="45.62762" lon="5.72454">
        <ele>696.49105857562</ele>
        <time>2015-11-07T09:49:29Z</time>
      </trkpt>
      <trkpt lat="45.62776" lon="5.72447">
        <ele>696.03223551426</ele>
        <time>2015-11-07T09:49:39Z</time>
      </trkpt>
      <trkpt lat="45.62778" lon="5.72442">
        <ele>696.03223551426</ele>
        <time>2015-11-07T09:49:45Z</time>
      </trkpt>
      <trkpt lat="45.62791" lon="5.72434">
        <ele>695.43825239441</ele>
        <time>2015-11-07T09:49:54Z</time>
      </trkpt>
      <trkpt lat="45.62795" lon="5.72431">
        <ele>695.43825239441</ele>
        <time>2015-11-07T09:49:59Z</time>
      </trkpt>
      <trkpt lat="45.62806" lon="5.72424">
        <ele>695.46935194181</ele>
        <time>2015-11-07T09:50:10Z</time>
      </trkpt>
      <trkpt lat="45.6281" lon="5.7242">
        <ele>695.46935194181</ele>
        <time>2015-11-07T09:50:14Z</time>
      </trkpt>
      <trkpt lat="45.62824" lon="5.72409">
        <ele>695.43593718095</ele>
        <time>2015-11-07T09:50:24Z</time>
      </trkpt>
      <trkpt lat="45.62831" lon="5.72398">
        <ele>695.63499090077</ele>
        <time>2015-11-07T09:50:29Z</time>
      </trkpt>
      <trkpt lat="45.62844" lon="5.72377">
        <ele>696.36578268813</ele>
        <time>2015-11-07T09:50:39Z</time>
      </trkpt>
      <trkpt lat="45.62852" lon="5.72368">
        <ele>697.1560382928</ele>
        <time>2015-11-07T09:50:44Z</time>
      </trkpt>
      <trkpt lat="45.6287" lon="5.72355">
        <ele>697.37611494059</ele>
        <time>2015-11-07T09:50:54Z</time>
      </trkpt>
      <trkpt lat="45.6288" lon="5.72347">
        <ele>697.44057384599</ele>
        <time>2015-11-07T09:50:59Z</time>
      </trkpt>
      <trkpt lat="45.62894" lon="5.72339">
        <ele>697.48569764813</ele>
        <time>2015-11-07T09:51:09Z</time>
      </trkpt>
      <trkpt lat="45.62899" lon="5.72335">
        <ele>697.48569764813</ele>
        <time>2015-11-07T09:51:14Z</time>
      </trkpt>
      <trkpt lat="45.62916" lon="5.72331">
        <ele>697.28972932878</ele>
        <time>2015-11-07T09:51:29Z</time>
      </trkpt>
      <trkpt lat="45.62918" lon="5.72331">
        <ele>697.28972932878</ele>
        <time>2015-11-07T09:51:34Z</time>
      </trkpt>
      <trkpt lat="45.62927" lon="5.72331">
        <ele>697.06675027429</ele>
        <time>2015-11-07T09:51:44Z</time>
      </trkpt>
      <trkpt lat="45.62933" lon="5.72331">
        <ele>697.06675027429</ele>
        <time>2015-11-07T09:51:49Z</time>
      </trkpt>
      <trkpt lat="45.62943" lon="5.72328">
        <ele>695.10580743984</ele>
        <time>2015-11-07T09:51:59Z</time>
      </trkpt>
      <trkpt lat="45.62947" lon="5.72331">
        <ele>695.10580743984</ele>
        <time>2015-11-07T09:52:04Z</time>
      </trkpt>
      <trkpt lat="45.62962" lon="5.72331">
        <ele>691.61414827721</ele>
        <time>2015-11-07T09:52:14Z</time>
      </trkpt>
      <trkpt lat="45.62967" lon="5.7233">
        <ele>691.61414827721</ele>
        <time>2015-11-07T09:52:20Z</time>
      </trkpt>
      <trkpt lat="45.62976" lon="5.7233">
        <ele>688.43207716046</ele>
        <time>2015-11-07T09:52:30Z</time>
      </trkpt>
      <trkpt lat="45.62981" lon="5.72326">
        <ele>688.43207716046</ele>
        <time>2015-11-07T09:52:34Z</time>
      </trkpt>
      <trkpt lat="45.62994" lon="5.72323">
        <ele>685.49987684275</ele>
        <time>2015-11-07T09:52:44Z</time>
      </trkpt>
      <trkpt lat="45.62999" lon="5.7232">
        <ele>685.49987684275</ele>
        <time>2015-11-07T09:52:50Z</time>
      </trkpt>
      <trkpt lat="45.63011" lon="5.72309">
        <ele>682.57112664474</ele>
        <time>2015-11-07T09:52:59Z</time>
      </trkpt>
      <trkpt lat="45.63018" lon="5.72306">
        <ele>682.57112664474</ele>
        <time>2015-11-07T09:53:05Z</time>
      </trkpt>
      <trkpt lat="45.63036" lon="5.72301">
        <ele>679.01629797986</ele>
        <time>2015-11-07T09:53:19Z</time>
      </trkpt>
      <trkpt lat="45.63042" lon="5.72302">
        <ele>679.01629797986</ele>
        <time>2015-11-07T09:53:24Z</time>
      </trkpt>
      <trkpt lat="45.63054" lon="5.72296">
        <ele>674.67001631883</ele>
        <time>2015-11-07T09:53:34Z</time>
      </trkpt>
      <trkpt lat="45.6306" lon="5.72292">
        <ele>674.67001631883</ele>
        <time>2015-11-07T09:53:39Z</time>
      </trkpt>
      <trkpt lat="45.63073" lon="5.72288">
        <ele>670.52215816671</ele>
        <time>2015-11-07T09:53:50Z</time>
      </trkpt>
      <trkpt lat="45.63079" lon="5.72284">
        <ele>670.52215816671</ele>
        <time>2015-11-07T09:53:54Z</time>
      </trkpt>
      <trkpt lat="45.63098" lon="5.72279">
        <ele>666.55111746902</ele>
        <time>2015-11-07T09:54:04Z</time>
      </trkpt>
      <trkpt lat="45.63108" lon="5.7228">
        <ele>663.36275623615</ele>
        <time>2015-11-07T09:54:09Z</time>
      </trkpt>
      <trkpt lat="45.63129" lon="5.72285">
        <ele>660.64897632831</ele>
        <time>2015-11-07T09:54:20Z</time>
      </trkpt>
      <trkpt lat="45.63139" lon="5.72284">
        <ele>658.1326570636</ele>
        <time>2015-11-07T09:54:24Z</time>
      </trkpt>
      <trkpt lat="45.63158" lon="5.72285">
        <ele>656.20135020112</ele>
        <time>2015-11-07T09:54:34Z</time>
      </trkpt>
      <trkpt lat="45.63162" lon="5.72286">
        <ele>656.20135020112</ele>
        <time>2015-11-07T09:54:39Z</time>
      </trkpt>
      <trkpt lat="45.63173" lon="5.72286">
        <ele>654.35115036266</ele>
        <time>2015-11-07T09:54:49Z</time>
      </trkpt>
      <trkpt lat="45.63182" lon="5.72288">
        <ele>654.35115036266</ele>
        <time>2015-11-07T09:54:54Z</time>
      </trkpt>
      <trkpt lat="45.63192" lon="5.72289">
        <ele>652.44572098675</ele>
        <time>2015-11-07T09:55:04Z</time>
      </trkpt>
      <trkpt lat="45.63199" lon="5.72287">
        <ele>652.44572098675</ele>
        <time>2015-11-07T09:55:09Z</time>
      </trkpt>
      <trkpt lat="45.63211" lon="5.72287">
        <ele>650.69087316664</ele>
        <time>2015-11-07T09:55:19Z</time>
      </trkpt>
      <trkpt lat="45.63217" lon="5.72287">
        <ele>650.69087316664</ele>
        <time>2015-11-07T09:55:24Z</time>
      </trkpt>
      <trkpt lat="45.63241" lon="5.72286">
        <ele>649.53196179762</ele>
        <time>2015-11-07T09:55:39Z</time>
      </trkpt>
      <trkpt lat="45.63247" lon="5.72284">
        <ele>649.53196179762</ele>
        <time>2015-11-07T09:55:44Z</time>
      </trkpt>
      <trkpt lat="45.63263" lon="5.72284">
        <ele>648.53205830127</ele>
        <time>2015-11-07T09:55:54Z</time>
      </trkpt>
      <trkpt lat="45.63274" lon="5.72284">
        <ele>647.75483361755</ele>
        <time>2015-11-07T09:55:59Z</time>
      </trkpt>
      <trkpt lat="45.63288" lon="5.7228">
        <ele>646.97220979845</ele>
        <time>2015-11-07T09:56:10Z</time>
      </trkpt>
      <trkpt lat="45.63295" lon="5.72279">
        <ele>646.97220979845</ele>
        <time>2015-11-07T09:56:14Z</time>
      </trkpt>
      <trkpt lat="45.63307" lon="5.72267">
        <ele>646.58972124639</ele>
        <time>2015-11-07T09:56:24Z</time>
      </trkpt>
      <trkpt lat="45.63311" lon="5.7226">
        <ele>646.58972124639</ele>
        <time>2015-11-07T09:56:30Z</time>
      </trkpt>
      <trkpt lat="45.63326" lon="5.72259">
        <ele>646.28932301204</ele>
        <time>2015-11-07T09:56:39Z</time>
      </trkpt>
      <trkpt lat="45.63335" lon="5.72257">
        <ele>646.28932301204</ele>
        <time>2015-11-07T09:56:44Z</time>
      </trkpt>
      <trkpt lat="45.63349" lon="5.7225">
        <ele>646.24210651483</ele>
        <time>2015-11-07T09:56:54Z</time>
      </trkpt>
      <trkpt lat="45.63355" lon="5.72246">
        <ele>646.24210651483</ele>
        <time>2015-11-07T09:56:59Z</time>
      </trkpt>
      <trkpt lat="45.63367" lon="5.72241">
        <ele>646.46995240485</ele>
        <time>2015-11-07T09:57:09Z</time>
      </trkpt>
      <trkpt lat="45.6337" lon="5.72235">
        <ele>646.46995240485</ele>
        <time>2015-11-07T09:57:14Z</time>
      </trkpt>
      <trkpt lat="45.63376" lon="5.72226">
        <ele>645.96698184143</ele>
        <time>2015-11-07T09:57:25Z</time>
      </trkpt>
      <trkpt lat="45.63378" lon="5.72221">
        <ele>645.96698184143</ele>
        <time>2015-11-07T09:57:29Z</time>
      </trkpt>
      <trkpt lat="45.63394" lon="5.72214">
        <ele>646.42244113244</ele>
        <time>2015-11-07T09:57:40Z</time>
      </trkpt>
      <trkpt lat="45.63399" lon="5.72213">
        <ele>646.42244113244</ele>
        <time>2015-11-07T09:57:44Z</time>
      </trkpt>
      <trkpt lat="45.63412" lon="5.72222">
        <ele>646.98606893792</ele>
        <time>2015-11-07T09:58:00Z</time>
      </trkpt>
      <trkpt lat="45.63414" lon="5.72224">
        <ele>646.98606893792</ele>
        <time>2015-11-07T09:58:04Z</time>
      </trkpt>
      <trkpt lat="45.6342" lon="5.72227">
        <ele>646.98606893792</ele>
        <time>2015-11-07T09:58:14Z</time>
      </trkpt>
      <trkpt lat="45.63424" lon="5.7223">
        <ele>647.46855723199</ele>
        <time>2015-11-07T09:58:19Z</time>
      </trkpt>
      <trkpt lat="45.63433" lon="5.72239">
        <ele>647.82905537762</ele>
        <time>2015-11-07T09:58:29Z</time>
      </trkpt>
      <trkpt lat="45.63436" lon="5.72248">
        <ele>647.82905537762</ele>
        <time>2015-11-07T09:58:34Z</time>
      </trkpt>
      <trkpt lat="45.6345" lon="5.72256">
        <ele>648.14783731551</ele>
        <time>2015-11-07T09:58:44Z</time>
      </trkpt>
      <trkpt lat="45.63454" lon="5.72257">
        <ele>648.14783731551</ele>
        <time>2015-11-07T09:58:49Z</time>
      </trkpt>
      <trkpt lat="45.63459" lon="5.7226">
        <ele>648.52792595987</ele>
        <time>2015-11-07T09:58:59Z</time>
      </trkpt>
      <trkpt lat="45.63469" lon="5.72262">
        <ele>648.80061801849</ele>
        <time>2015-11-07T09:59:04Z</time>
      </trkpt>
      <trkpt lat="45.63485" lon="5.72273">
        <ele>648.95707921715</ele>
        <time>2015-11-07T09:59:14Z</time>
      </trkpt>
      <trkpt lat="45.63493" lon="5.72278">
        <ele>648.95707921715</ele>
        <time>2015-11-07T09:59:19Z</time>
      </trkpt>
      <trkpt lat="45.63508" lon="5.7229">
        <ele>648.45049827141</ele>
        <time>2015-11-07T09:59:29Z</time>
      </trkpt>
      <trkpt lat="45.63514" lon="5.72297">
        <ele>648.45049827141</ele>
        <time>2015-11-07T09:59:34Z</time>
      </trkpt>
      <trkpt lat="45.63526" lon="5.72316">
        <ele>648.02997888361</ele>
        <time>2015-11-07T09:59:45Z</time>
      </trkpt>
      <trkpt lat="45.63531" lon="5.72327">
        <ele>647.51345314405</ele>
        <time>2015-11-07T09:59:50Z</time>
      </trkpt>
      <trkpt lat="45.63551" lon="5.7235">
        <ele>647.44410506463</ele>
        <time>2015-11-07T10:00:04Z</time>
      </trkpt>
      <trkpt lat="45.63564" lon="5.72352">
        <ele>647.69861590382</ele>
        <time>2015-11-07T10:00:09Z</time>
      </trkpt>
      <trkpt lat="45.63577" lon="5.72357">
        <ele>648.14807768153</ele>
        <time>2015-11-07T10:00:19Z</time>
      </trkpt>
      <trkpt lat="45.63583" lon="5.72355">
        <ele>648.14807768153</ele>
        <time>2015-11-07T10:00:24Z</time>
      </trkpt>
      <trkpt lat="45.63596" lon="5.72352">
        <ele>648.58632538793</ele>
        <time>2015-11-07T10:00:34Z</time>
      </trkpt>
      <trkpt lat="45.63603" lon="5.72352">
        <ele>648.58632538793</ele>
        <time>2015-11-07T10:00:39Z</time>
      </trkpt>
      <trkpt lat="45.63623" lon="5.72353">
        <ele>649.47331884242</ele>
        <time>2015-11-07T10:00:50Z</time>
      </trkpt>
      <trkpt lat="45.6363" lon="5.72352">
        <ele>649.47331884242</ele>
        <time>2015-11-07T10:00:54Z</time>
      </trkpt>
      <trkpt lat="45.63644" lon="5.72348">
        <ele>650.19306649879</ele>
        <time>2015-11-07T10:01:04Z</time>
      </trkpt>
      <trkpt lat="45.63644" lon="5.72347">
        <ele>650.19306649879</ele>
        <time>2015-11-07T10:01:10Z</time>
      </trkpt>
      <trkpt lat="45.63646" lon="5.72347">
        <ele>650.19306649879</ele>
        <time>2015-11-07T10:01:20Z</time>
      </trkpt>
      <trkpt lat="45.63646" lon="5.72346">
        <ele>650.19306649879</ele>
        <time>2015-11-07T10:01:25Z</time>
      </trkpt>
      <trkpt lat="45.63648" lon="5.72346">
        <ele>650.19306649879</ele>
        <time>2015-11-07T10:01:34Z</time>
      </trkpt>
      <trkpt lat="45.63648" lon="5.72346">
        <ele>650.19306649879</ele>
        <time>2015-11-07T10:01:39Z</time>
      </trkpt>
      <trkpt lat="45.63649" lon="5.72346">
        <ele>650.19306649879</ele>
        <time>2015-11-07T10:01:54Z</time>
      </trkpt>
      <trkpt lat="45.63649" lon="5.72347">
        <ele>650.19306649879</ele>
        <time>2015-11-07T10:01:59Z</time>
      </trkpt>
      <trkpt lat="45.63649" lon="5.72347">
        <ele>650.19306649879</ele>
        <time>2015-11-07T10:02:09Z</time>
      </trkpt>
      <trkpt lat="45.63649" lon="5.72347">
        <ele>650.19306649879</ele>
        <time>2015-11-07T10:02:14Z</time>
      </trkpt>
      <trkpt lat="45.63649" lon="5.72347">
        <ele>650.19306649879</ele>
        <time>2015-11-07T10:02:24Z</time>
      </trkpt>
      <trkpt lat="45.63649" lon="5.72347">
        <ele>650.19306649879</ele>
        <time>2015-11-07T10:02:29Z</time>
      </trkpt>
      <trkpt lat="45.63649" lon="5.72347">
        <ele>650.19306649879</ele>
        <time>2015-11-07T10:02:39Z</time>
      </trkpt>
      <trkpt lat="45.63649" lon="5.72347">
        <ele>650.19306649879</ele>
        <time>2015-11-07T10:02:44Z</time>
      </trkpt>
      <trkpt lat="45.63649" lon="5.72347">
        <ele>650.19306649879</ele>
        <time>2015-11-07T10:02:54Z</time>
      </trkpt>
      <trkpt lat="45.63649" lon="5.72347">
        <ele>650.19306649879</ele>
        <time>2015-11-07T10:02:59Z</time>
      </trkpt>
      <trkpt lat="45.63659" lon="5.72342">
        <ele>651.46139989076</ele>
        <time>2015-11-07T10:03:14Z</time>
      </trkpt>
      <trkpt lat="45.63666" lon="5.72339">
        <ele>651.46139989076</ele>
        <time>2015-11-07T10:03:19Z</time>
      </trkpt>
      <trkpt lat="45.63681" lon="5.72336">
        <ele>653.15970292646</ele>
        <time>2015-11-07T10:03:29Z</time>
      </trkpt>
      <trkpt lat="45.63688" lon="5.72334">
        <ele>653.15970292646</ele>
        <time>2015-11-07T10:03:34Z</time>
      </trkpt>
      <trkpt lat="45.63703" lon="5.72333">
        <ele>654.58576973849</ele>
        <time>2015-11-07T10:03:44Z</time>
      </trkpt>
      <trkpt lat="45.6371" lon="5.72332">
        <ele>654.58576973849</ele>
        <time>2015-11-07T10:03:49Z</time>
      </trkpt>
      <trkpt lat="45.63719" lon="5.72328">
        <ele>655.19145873863</ele>
        <time>2015-11-07T10:03:59Z</time>
      </trkpt>
      <trkpt lat="45.63724" lon="5.72328">
        <ele>655.19145873863</ele>
        <time>2015-11-07T10:04:04Z</time>
      </trkpt>
      <trkpt lat="45.63736" lon="5.72327">
        <ele>656.17308210206</ele>
        <time>2015-11-07T10:04:15Z</time>
      </trkpt>
      <trkpt lat="45.63739" lon="5.72327">
        <ele>656.17308210206</ele>
        <time>2015-11-07T10:04:19Z</time>
      </trkpt>
      <trkpt lat="45.63751" lon="5.7233">
        <ele>657.13784788248</ele>
        <time>2015-11-07T10:04:29Z</time>
      </trkpt>
      <trkpt lat="45.63759" lon="5.7233">
        <ele>657.13784788248</ele>
        <time>2015-11-07T10:04:34Z</time>
      </trkpt>
      <trkpt lat="45.63775" lon="5.7233">
        <ele>658.02489918225</ele>
        <time>2015-11-07T10:04:44Z</time>
      </trkpt>
      <trkpt lat="45.63781" lon="5.72331">
        <ele>658.02489918225</ele>
        <time>2015-11-07T10:04:49Z</time>
      </trkpt>
      <trkpt lat="45.6379" lon="5.72329">
        <ele>658.8069988414</ele>
        <time>2015-11-07T10:04:59Z</time>
      </trkpt>
      <trkpt lat="45.63795" lon="5.72328">
        <ele>658.8069988414</ele>
        <time>2015-11-07T10:05:05Z</time>
      </trkpt>
      <trkpt lat="45.63816" lon="5.72327">
        <ele>658.85375505637</ele>
        <time>2015-11-07T10:05:19Z</time>
      </trkpt>
      <trkpt lat="45.63822" lon="5.72325">
        <ele>658.85375505637</ele>
        <time>2015-11-07T10:05:25Z</time>
      </trkpt>
      <trkpt lat="45.63834" lon="5.72326">
        <ele>659.39988567886</ele>
        <time>2015-11-07T10:05:34Z</time>
      </trkpt>
      <trkpt lat="45.63838" lon="5.72327">
        <ele>659.39988567886</ele>
        <time>2015-11-07T10:05:39Z</time>
      </trkpt>
      <trkpt lat="45.63854" lon="5.72332">
        <ele>660.59331570787</ele>
        <time>2015-11-07T10:05:50Z</time>
      </trkpt>
      <trkpt lat="45.6386" lon="5.72332">
        <ele>660.59331570787</ele>
        <time>2015-11-07T10:05:54Z</time>
      </trkpt>
      <trkpt lat="45.63875" lon="5.72328">
        <ele>661.34379268418</ele>
        <time>2015-11-07T10:06:04Z</time>
      </trkpt>
      <trkpt lat="45.63882" lon="5.72326">
        <ele>661.34379268418</ele>
        <time>2015-11-07T10:06:10Z</time>
      </trkpt>
      <trkpt lat="45.6389" lon="5.72325">
        <ele>662.28627183191</ele>
        <time>2015-11-07T10:06:19Z</time>
      </trkpt>
      <trkpt lat="45.63894" lon="5.72324">
        <ele>662.28627183191</ele>
        <time>2015-11-07T10:06:24Z</time>
      </trkpt>
      <trkpt lat="45.6391" lon="5.72326">
        <ele>663.25884052783</ele>
        <time>2015-11-07T10:06:35Z</time>
      </trkpt>
      <trkpt lat="45.63918" lon="5.72326">
        <ele>663.25884052783</ele>
        <time>2015-11-07T10:06:39Z</time>
      </trkpt>
      <trkpt lat="45.63935" lon="5.72324">
        <ele>664.28455624015</ele>
        <time>2015-11-07T10:06:54Z</time>
      </trkpt>
      <trkpt lat="45.63942" lon="5.72323">
        <ele>664.28455624015</ele>
        <time>2015-11-07T10:06:59Z</time>
      </trkpt>
      <trkpt lat="45.63949" lon="5.72321">
        <ele>664.82227721575</ele>
        <time>2015-11-07T10:07:09Z</time>
      </trkpt>
      <trkpt lat="45.63953" lon="5.72321">
        <ele>664.82227721575</ele>
        <time>2015-11-07T10:07:14Z</time>
      </trkpt>
      <trkpt lat="45.63961" lon="5.7232">
        <ele>665.09322186001</ele>
        <time>2015-11-07T10:07:24Z</time>
      </trkpt>
      <trkpt lat="45.63967" lon="5.7232">
        <ele>665.09322186001</ele>
        <time>2015-11-07T10:07:29Z</time>
      </trkpt>
      <trkpt lat="45.6398" lon="5.7232">
        <ele>665.08690374597</ele>
        <time>2015-11-07T10:07:39Z</time>
      </trkpt>
      <trkpt lat="45.63987" lon="5.72323">
        <ele>665.08690374597</ele>
        <time>2015-11-07T10:07:45Z</time>
      </trkpt>
      <trkpt lat="45.64003" lon="5.72326">
        <ele>665.19838769184</ele>
        <time>2015-11-07T10:07:55Z</time>
      </trkpt>
      <trkpt lat="45.6401" lon="5.72328">
        <ele>665.19838769184</ele>
        <time>2015-11-07T10:07:59Z</time>
      </trkpt>
      <trkpt lat="45.64018" lon="5.7233">
        <ele>665.10113430019</ele>
        <time>2015-11-07T10:08:09Z</time>
      </trkpt>
      <trkpt lat="45.64025" lon="5.72333">
        <ele>665.10113430019</ele>
        <time>2015-11-07T10:08:15Z</time>
      </trkpt>
      <trkpt lat="45.64044" lon="5.72344">
        <ele>664.19037648494</ele>
        <time>2015-11-07T10:08:29Z</time>
      </trkpt>
      <trkpt lat="45.64051" lon="5.72348">
        <ele>664.19037648494</ele>
        <time>2015-11-07T10:08:35Z</time>
      </trkpt>
      <trkpt lat="45.6407" lon="5.72357">
        <ele>663.22082033338</ele>
        <time>2015-11-07T10:08:45Z</time>
      </trkpt>
      <trkpt lat="45.64079" lon="5.72364">
        <ele>662.51689135355</ele>
        <time>2015-11-07T10:08:49Z</time>
      </trkpt>
      <trkpt lat="45.64092" lon="5.72371">
        <ele>662.07555507882</ele>
        <time>2015-11-07T10:08:59Z</time>
      </trkpt>
      <trkpt lat="45.641" lon="5.72374">
        <ele>662.07555507882</ele>
        <time>2015-11-07T10:09:05Z</time>
      </trkpt>
      <trkpt lat="45.64112" lon="5.7238">
        <ele>662.15292848052</ele>
        <time>2015-11-07T10:09:14Z</time>
      </trkpt>
      <trkpt lat="45.64118" lon="5.72384">
        <ele>662.15292848052</ele>
        <time>2015-11-07T10:09:20Z</time>
      </trkpt>
      <trkpt lat="45.64132" lon="5.72387">
        <ele>662.22043363562</ele>
        <time>2015-11-07T10:09:29Z</time>
      </trkpt>
      <trkpt lat="45.64142" lon="5.72389">
        <ele>662.82689321431</ele>
        <time>2015-11-07T10:09:34Z</time>
      </trkpt>
      <trkpt lat="45.64158" lon="5.72397">
        <ele>663.41201977826</ele>
        <time>2015-11-07T10:09:44Z</time>
      </trkpt>
      <trkpt lat="45.64165" lon="5.72399">
        <ele>663.41201977826</ele>
        <time>2015-11-07T10:09:50Z</time>
      </trkpt>
      <trkpt lat="45.64187" lon="5.72398">
        <ele>663.97605569245</ele>
        <time>2015-11-07T10:10:04Z</time>
      </trkpt>
      <trkpt lat="45.64191" lon="5.72398">
        <ele>663.97605569245</ele>
        <time>2015-11-07T10:10:09Z</time>
      </trkpt>
      <trkpt lat="45.64205" lon="5.72402">
        <ele>664.59142744997</ele>
        <time>2015-11-07T10:10:19Z</time>
      </trkpt>
      <trkpt lat="45.64213" lon="5.72403">
        <ele>664.59142744997</ele>
        <time>2015-11-07T10:10:24Z</time>
      </trkpt>
      <trkpt lat="45.6423" lon="5.72401">
        <ele>665.36838185215</ele>
        <time>2015-11-07T10:10:35Z</time>
      </trkpt>
      <trkpt lat="45.64238" lon="5.724">
        <ele>665.36838185215</ele>
        <time>2015-11-07T10:10:39Z</time>
      </trkpt>
      <trkpt lat="45.64253" lon="5.72403">
        <ele>666.03374343676</ele>
        <time>2015-11-07T10:10:49Z</time>
      </trkpt>
      <trkpt lat="45.64262" lon="5.72403">
        <ele>666.03374343676</ele>
        <time>2015-11-07T10:10:54Z</time>
      </trkpt>
      <trkpt lat="45.64279" lon="5.72407">
        <ele>667.09897853437</ele>
        <time>2015-11-07T10:11:04Z</time>
      </trkpt>
      <trkpt lat="45.64288" lon="5.72411">
        <ele>668.08525525364</ele>
        <time>2015-11-07T10:11:09Z</time>
      </trkpt>
      <trkpt lat="45.6431" lon="5.72418">
        <ele>668.98178403192</ele>
        <time>2015-11-07T10:11:24Z</time>
      </trkpt>
      <trkpt lat="45.64315" lon="5.72422">
        <ele>668.98178403192</ele>
        <time>2015-11-07T10:11:29Z</time>
      </trkpt>
      <trkpt lat="45.64326" lon="5.72423">
        <ele>669.87978406609</ele>
        <time>2015-11-07T10:11:39Z</time>
      </trkpt>
      <trkpt lat="45.64334" lon="5.72421">
        <ele>669.87978406609</ele>
        <time>2015-11-07T10:11:44Z</time>
      </trkpt>
      <trkpt lat="45.64346" lon="5.72425">
        <ele>671.05120617842</ele>
        <time>2015-11-07T10:11:54Z</time>
      </trkpt>
      <trkpt lat="45.64351" lon="5.72429">
        <ele>671.05120617842</ele>
        <time>2015-11-07T10:11:59Z</time>
      </trkpt>
      <trkpt lat="45.64359" lon="5.72435">
        <ele>671.91121177239</ele>
        <time>2015-11-07T10:12:09Z</time>
      </trkpt>
      <trkpt lat="45.64366" lon="5.72436">
        <ele>671.91121177239</ele>
        <time>2015-11-07T10:12:15Z</time>
      </trkpt>
      <trkpt lat="45.64379" lon="5.72438">
        <ele>672.23605621988</ele>
        <time>2015-11-07T10:12:24Z</time>
      </trkpt>
      <trkpt lat="45.64385" lon="5.72441">
        <ele>672.23605621988</ele>
        <time>2015-11-07T10:12:29Z</time>
      </trkpt>
      <trkpt lat="45.64397" lon="5.72451">
        <ele>672.61276942282</ele>
        <time>2015-11-07T10:12:39Z</time>
      </trkpt>
      <trkpt lat="45.64403" lon="5.72455">
        <ele>672.61276942282</ele>
        <time>2015-11-07T10:12:44Z</time>
      </trkpt>
      <trkpt lat="45.64416" lon="5.72459">
        <ele>672.66263687926</ele>
        <time>2015-11-07T10:12:54Z</time>
      </trkpt>
      <trkpt lat="45.64423" lon="5.72461">
        <ele>672.66263687926</ele>
        <time>2015-11-07T10:12:59Z</time>
      </trkpt>
      <trkpt lat="45.64441" lon="5.72471">
        <ele>672.22313789705</ele>
        <time>2015-11-07T10:13:14Z</time>
      </trkpt>
      <trkpt lat="45.64446" lon="5.72474">
        <ele>672.22313789705</ele>
        <time>2015-11-07T10:13:19Z</time>
      </trkpt>
      <trkpt lat="45.64459" lon="5.72477">
        <ele>670.91451213952</ele>
        <time>2015-11-07T10:13:29Z</time>
      </trkpt>
      <trkpt lat="45.64465" lon="5.72479">
        <ele>670.91451213952</ele>
        <time>2015-11-07T10:13:34Z</time>
      </trkpt>
      <trkpt lat="45.64476" lon="5.72483">
        <ele>669.68449470131</ele>
        <time>2015-11-07T10:13:44Z</time>
      </trkpt>
      <trkpt lat="45.64483" lon="5.72484">
        <ele>669.68449470131</ele>
        <time>2015-11-07T10:13:49Z</time>
      </trkpt>
      <trkpt lat="45.64497" lon="5.72486">
        <ele>668.51737807369</ele>
        <time>2015-11-07T10:13:59Z</time>
      </trkpt>
      <trkpt lat="45.64503" lon="5.72488">
        <ele>668.51737807369</ele>
        <time>2015-11-07T10:14:05Z</time>
      </trkpt>
      <trkpt lat="45.64519" lon="5.72491">
        <ele>667.68667689893</ele>
        <time>2015-11-07T10:14:15Z</time>
      </trkpt>
      <trkpt lat="45.64524" lon="5.72494">
        <ele>667.68667689893</ele>
        <time>2015-11-07T10:14:19Z</time>
      </trkpt>
      <trkpt lat="45.64536" lon="5.72496">
        <ele>666.65220917831</ele>
        <time>2015-11-07T10:14:29Z</time>
      </trkpt>
      <trkpt lat="45.64543" lon="5.72497">
        <ele>666.65220917831</ele>
        <time>2015-11-07T10:14:35Z</time>
      </trkpt>
      <trkpt lat="45.6456" lon="5.72493">
        <ele>665.28874917658</ele>
        <time>2015-11-07T10:14:49Z</time>
      </trkpt>
      <trkpt lat="45.64566" lon="5.72494">
        <ele>665.28874917658</ele>
        <time>2015-11-07T10:14:55Z</time>
      </trkpt>
      <trkpt lat="45.64585" lon="5.72493">
        <ele>663.87027264886</ele>
        <time>2015-11-07T10:15:04Z</time>
      </trkpt>
      <trkpt lat="45.64593" lon="5.72495">
        <ele>663.87027264886</ele>
        <time>2015-11-07T10:15:09Z</time>
      </trkpt>
      <trkpt lat="45.64614" lon="5.72494">
        <ele>662.85249357388</ele>
        <time>2015-11-07T10:15:19Z</time>
      </trkpt>
      <trkpt lat="45.64621" lon="5.72492">
        <ele>662.85249357388</ele>
        <time>2015-11-07T10:15:25Z</time>
      </trkpt>
      <trkpt lat="45.64632" lon="5.72489">
        <ele>661.38827230713</ele>
        <time>2015-11-07T10:15:34Z</time>
      </trkpt>
      <trkpt lat="45.64639" lon="5.72488">
        <ele>661.38827230713</ele>
        <time>2015-11-07T10:15:40Z</time>
      </trkpt>
      <trkpt lat="45.64652" lon="5.72495">
        <ele>659.31358407158</ele>
        <time>2015-11-07T10:15:49Z</time>
      </trkpt>
      <trkpt lat="45.64657" lon="5.72498">
        <ele>659.31358407158</ele>
        <time>2015-11-07T10:15:54Z</time>
      </trkpt>
      <trkpt lat="45.64669" lon="5.725">
        <ele>657.35717728186</ele>
        <time>2015-11-07T10:16:05Z</time>
      </trkpt>
      <trkpt lat="45.64674" lon="5.725">
        <ele>657.35717728186</ele>
        <time>2015-11-07T10:16:09Z</time>
      </trkpt>
      <trkpt lat="45.64688" lon="5.72502">
        <ele>655.63180834755</ele>
        <time>2015-11-07T10:16:20Z</time>
      </trkpt>
      <trkpt lat="45.64694" lon="5.72504">
        <ele>655.63180834755</ele>
        <time>2015-11-07T10:16:24Z</time>
      </trkpt>
      <trkpt lat="45.64708" lon="5.72504">
        <ele>653.76563584834</ele>
        <time>2015-11-07T10:16:34Z</time>
      </trkpt>
      <trkpt lat="45.64718" lon="5.72504">
        <ele>651.88999392678</ele>
        <time>2015-11-07T10:16:39Z</time>
      </trkpt>
      <trkpt lat="45.64741" lon="5.72502">
        <ele>649.85266558181</ele>
        <time>2015-11-07T10:16:54Z</time>
      </trkpt>
      <trkpt lat="45.64747" lon="5.72501">
        <ele>649.85266558181</ele>
        <time>2015-11-07T10:16:59Z</time>
      </trkpt>
      <trkpt lat="45.64773" lon="5.72505">
        <ele>647.90205006014</ele>
        <time>2015-11-07T10:17:09Z</time>
      </trkpt>
      <trkpt lat="45.6478" lon="5.72508">
        <ele>647.90205006014</ele>
        <time>2015-11-07T10:17:15Z</time>
      </trkpt>
      <trkpt lat="45.64793" lon="5.72508">
        <ele>645.87881899769</ele>
        <time>2015-11-07T10:17:25Z</time>
      </trkpt>
      <trkpt lat="45.64799" lon="5.72504">
        <ele>645.87881899769</ele>
        <time>2015-11-07T10:17:30Z</time>
      </trkpt>
      <trkpt lat="45.64819" lon="5.72494">
        <ele>644.15422198626</ele>
        <time>2015-11-07T10:17:40Z</time>
      </trkpt>
      <trkpt lat="45.64835" lon="5.72491">
        <ele>642.01922396838</ele>
        <time>2015-11-07T10:17:45Z</time>
      </trkpt>
      <trkpt lat="45.6485" lon="5.72503">
        <ele>640.04284457346</ele>
        <time>2015-11-07T10:17:55Z</time>
      </trkpt>
      <trkpt lat="45.64857" lon="5.72508">
        <ele>640.04284457346</ele>
        <time>2015-11-07T10:17:59Z</time>
      </trkpt>
      <trkpt lat="45.64868" lon="5.72508">
        <ele>638.40583275791</ele>
        <time>2015-11-07T10:18:09Z</time>
      </trkpt>
      <trkpt lat="45.64876" lon="5.72511">
        <ele>638.40583275791</ele>
        <time>2015-11-07T10:18:14Z</time>
      </trkpt>
      <trkpt lat="45.64889" lon="5.72515">
        <ele>637.43307914082</ele>
        <time>2015-11-07T10:18:24Z</time>
      </trkpt>
      <trkpt lat="45.64895" lon="5.72519">
        <ele>637.43307914082</ele>
        <time>2015-11-07T10:18:29Z</time>
      </trkpt>
      <trkpt lat="45.64945" lon="5.72506">
        <ele>637.82711379444</ele>
        <time>2015-11-07T10:18:44Z</time>
      </trkpt>
      <trkpt lat="45.64973" lon="5.72496">
        <ele>638.41903365441</ele>
        <time>2015-11-07T10:18:49Z</time>
      </trkpt>
      <trkpt lat="45.65009" lon="5.72481">
        <ele>639.55185261495</ele>
        <time>2015-11-07T10:18:59Z</time>
      </trkpt>
      <trkpt lat="45.65017" lon="5.72479">
        <ele>639.55185261495</ele>
        <time>2015-11-07T10:19:04Z</time>
      </trkpt>
      <trkpt lat="45.65032" lon="5.72477">
        <ele>640.85000432601</ele>
        <time>2015-11-07T10:19:14Z</time>
      </trkpt>
      <trkpt lat="45.65039" lon="5.72475">
        <ele>640.85000432601</ele>
        <time>2015-11-07T10:19:19Z</time>
      </trkpt>
      <trkpt lat="45.65052" lon="5.72482">
        <ele>642.10906981821</ele>
        <time>2015-11-07T10:19:30Z</time>
      </trkpt>
      <trkpt lat="45.65052" lon="5.72499">
        <ele>643.06762667579</ele>
        <time>2015-11-07T10:19:34Z</time>
      </trkpt>
      <trkpt lat="45.65055" lon="5.72517">
        <ele>643.97423685895</ele>
        <time>2015-11-07T10:19:44Z</time>
      </trkpt>
      <trkpt lat="45.6506" lon="5.72524">
        <ele>643.97423685895</ele>
        <time>2015-11-07T10:19:49Z</time>
      </trkpt>
      <trkpt lat="45.65081" lon="5.72523">
        <ele>644.77108253772</ele>
        <time>2015-11-07T10:20:04Z</time>
      </trkpt>
      <trkpt lat="45.65088" lon="5.72522">
        <ele>644.77108253772</ele>
        <time>2015-11-07T10:20:09Z</time>
      </trkpt>
      <trkpt lat="45.65101" lon="5.72523">
        <ele>645.73634348422</ele>
        <time>2015-11-07T10:20:19Z</time>
      </trkpt>
      <trkpt lat="45.65112" lon="5.7252">
        <ele>646.2914202954</ele>
        <time>2015-11-07T10:20:25Z</time>
      </trkpt>
      <trkpt lat="45.65131" lon="5.72516">
        <ele>646.75164733925</ele>
        <time>2015-11-07T10:20:35Z</time>
      </trkpt>
      <trkpt lat="45.65138" lon="5.72515">
        <ele>646.75164733925</ele>
        <time>2015-11-07T10:20:39Z</time>
      </trkpt>
      <trkpt lat="45.65152" lon="5.72516">
        <ele>646.99154174858</ele>
        <time>2015-11-07T10:20:50Z</time>
      </trkpt>
      <trkpt lat="45.65158" lon="5.72521">
        <ele>646.99154174858</ele>
        <time>2015-11-07T10:20:54Z</time>
      </trkpt>
      <trkpt lat="45.6516" lon="5.7254">
        <ele>646.60724945748</ele>
        <time>2015-11-07T10:21:04Z</time>
      </trkpt>
      <trkpt lat="45.65161" lon="5.72548">
        <ele>646.60724945748</ele>
        <time>2015-11-07T10:21:09Z</time>
      </trkpt>
      <trkpt lat="45.65166" lon="5.72562">
        <ele>645.6731105118</ele>
        <time>2015-11-07T10:21:20Z</time>
      </trkpt>
      <trkpt lat="45.65175" lon="5.72569">
        <ele>644.80719844335</ele>
        <time>2015-11-07T10:21:24Z</time>
      </trkpt>
      <trkpt lat="45.65201" lon="5.72586">
        <ele>644.56759791619</ele>
        <time>2015-11-07T10:21:40Z</time>
      </trkpt>
      <trkpt lat="45.65208" lon="5.72591">
        <ele>644.56759791619</ele>
        <time>2015-11-07T10:21:44Z</time>
      </trkpt>
      <trkpt lat="45.6522" lon="5.72594">
        <ele>644.70585818022</ele>
        <time>2015-11-07T10:21:54Z</time>
      </trkpt>
      <trkpt lat="45.65227" lon="5.72594">
        <ele>644.70585818022</ele>
        <time>2015-11-07T10:22:00Z</time>
      </trkpt>
      <trkpt lat="45.65239" lon="5.72593">
        <ele>644.83221581541</ele>
        <time>2015-11-07T10:22:09Z</time>
      </trkpt>
      <trkpt lat="45.65246" lon="5.72593">
        <ele>644.83221581541</ele>
        <time>2015-11-07T10:22:14Z</time>
      </trkpt>
      <trkpt lat="45.6526" lon="5.72594">
        <ele>644.90264225097</ele>
        <time>2015-11-07T10:22:25Z</time>
      </trkpt>
      <trkpt lat="45.65262" lon="5.72594">
        <ele>644.90264225097</ele>
        <time>2015-11-07T10:22:29Z</time>
      </trkpt>
      <trkpt lat="45.65264" lon="5.72594">
        <ele>644.90264225097</ele>
        <time>2015-11-07T10:22:39Z</time>
      </trkpt>
      <trkpt lat="45.65263" lon="5.72594">
        <ele>644.90264225097</ele>
        <time>2015-11-07T10:22:44Z</time>
      </trkpt>
      <trkpt lat="45.65264" lon="5.72587">
        <ele>644.50183070139</ele>
        <time>2015-11-07T10:22:54Z</time>
      </trkpt>
      <trkpt lat="45.6527" lon="5.72583">
        <ele>644.50183070139</ele>
        <time>2015-11-07T10:22:59Z</time>
      </trkpt>
      <trkpt lat="45.65285" lon="5.72583">
        <ele>644.21188150376</ele>
        <time>2015-11-07T10:23:09Z</time>
      </trkpt>
      <trkpt lat="45.65292" lon="5.72582">
        <ele>644.21188150376</ele>
        <time>2015-11-07T10:23:14Z</time>
      </trkpt>
      <trkpt lat="45.65307" lon="5.72582">
        <ele>643.66393954046</ele>
        <time>2015-11-07T10:23:24Z</time>
      </trkpt>
      <trkpt lat="45.65314" lon="5.72581">
        <ele>643.66393954046</ele>
        <time>2015-11-07T10:23:29Z</time>
      </trkpt>
      <trkpt lat="45.65325" lon="5.72581">
        <ele>643.00697385786</ele>
        <time>2015-11-07T10:23:39Z</time>
      </trkpt>
      <trkpt lat="45.65329" lon="5.72581">
        <ele>643.00697385786</ele>
        <time>2015-11-07T10:23:44Z</time>
      </trkpt>
      <trkpt lat="45.65329" lon="5.7258">
        <ele>643.00697385786</ele>
        <time>2015-11-07T10:23:54Z</time>
      </trkpt>
      <trkpt lat="45.65329" lon="5.7258">
        <ele>643.00697385786</ele>
        <time>2015-11-07T10:23:59Z</time>
      </trkpt>
      <trkpt lat="45.6533" lon="5.72579">
        <ele>643.00697385786</ele>
        <time>2015-11-07T10:24:09Z</time>
      </trkpt>
      <trkpt lat="45.6533" lon="5.72579">
        <ele>643.00697385786</ele>
        <time>2015-11-07T10:24:15Z</time>
      </trkpt>
      <trkpt lat="45.6533" lon="5.7258">
        <ele>643.00697385786</ele>
        <time>2015-11-07T10:24:29Z</time>
      </trkpt>
      <trkpt lat="45.6533" lon="5.7258">
        <ele>643.00697385786</ele>
        <time>2015-11-07T10:24:34Z</time>
      </trkpt>
      <trkpt lat="45.65331" lon="5.7258">
        <ele>643.00697385786</ele>
        <time>2015-11-07T10:24:44Z</time>
      </trkpt>
      <trkpt lat="45.6533" lon="5.7258">
        <ele>643.00697385786</ele>
        <time>2015-11-07T10:24:50Z</time>
      </trkpt>
      <trkpt lat="45.65332" lon="5.72581">
        <ele>641.90376670564</ele>
        <time>2015-11-07T10:24:59Z</time>
      </trkpt>
      <trkpt lat="45.65332" lon="5.72581">
        <ele>641.90376670564</ele>
        <time>2015-11-07T10:25:04Z</time>
      </trkpt>
      <trkpt lat="45.65333" lon="5.72582">
        <ele>641.90376670564</ele>
        <time>2015-11-07T10:25:15Z</time>
      </trkpt>
      <trkpt lat="45.65332" lon="5.72582">
        <ele>641.90376670564</ele>
        <time>2015-11-07T10:25:19Z</time>
      </trkpt>
      <trkpt lat="45.65332" lon="5.72582">
        <ele>641.90376670564</ele>
        <time>2015-11-07T10:25:30Z</time>
      </trkpt>
      <trkpt lat="45.65332" lon="5.72582">
        <ele>641.90376670564</ele>
        <time>2015-11-07T10:25:34Z</time>
      </trkpt>
      <trkpt lat="45.65333" lon="5.72582">
        <ele>641.90376670564</ele>
        <time>2015-11-07T10:25:44Z</time>
      </trkpt>
      <trkpt lat="45.65336" lon="5.72581">
        <ele>641.90376670564</ele>
        <time>2015-11-07T10:25:49Z</time>
      </trkpt>
      <trkpt lat="45.65357" lon="5.72576">
        <ele>640.79252105455</ele>
        <time>2015-11-07T10:26:04Z</time>
      </trkpt>
      <trkpt lat="45.65361" lon="5.72574">
        <ele>640.79252105455</ele>
        <time>2015-11-07T10:26:09Z</time>
      </trkpt>
      <trkpt lat="45.6536" lon="5.72574">
        <ele>640.79252105455</ele>
        <time>2015-11-07T10:26:20Z</time>
      </trkpt>
      <trkpt lat="45.65361" lon="5.72571">
        <ele>640.79252105455</ele>
        <time>2015-11-07T10:26:25Z</time>
      </trkpt>
      <trkpt lat="45.65361" lon="5.72572">
        <ele>640.79252105455</ele>
        <time>2015-11-07T10:26:34Z</time>
      </trkpt>
      <trkpt lat="45.65361" lon="5.72572">
        <ele>640.79252105455</ele>
        <time>2015-11-07T10:26:40Z</time>
      </trkpt>
      <trkpt lat="45.65362" lon="5.72573">
        <ele>639.31548962391</ele>
        <time>2015-11-07T10:26:50Z</time>
      </trkpt>
      <trkpt lat="45.65361" lon="5.7257">
        <ele>639.31548962391</ele>
        <time>2015-11-07T10:26:54Z</time>
      </trkpt>
      <trkpt lat="45.65363" lon="5.72572">
        <ele>639.31548962391</ele>
        <time>2015-11-07T10:27:05Z</time>
      </trkpt>
      <trkpt lat="45.65364" lon="5.72572">
        <ele>639.31548962391</ele>
        <time>2015-11-07T10:27:09Z</time>
      </trkpt>
      <trkpt lat="45.65365" lon="5.72572">
        <ele>639.31548962391</ele>
        <time>2015-11-07T10:27:19Z</time>
      </trkpt>
      <trkpt lat="45.65365" lon="5.72572">
        <ele>639.31548962391</ele>
        <time>2015-11-07T10:27:24Z</time>
      </trkpt>
      <trkpt lat="45.65367" lon="5.72572">
        <ele>639.31548962391</ele>
        <time>2015-11-07T10:27:35Z</time>
      </trkpt>
      <trkpt lat="45.65366" lon="5.72572">
        <ele>638.23748236695</ele>
        <time>2015-11-07T10:27:39Z</time>
      </trkpt>
      <trkpt lat="45.65366" lon="5.72571">
        <ele>638.23748236695</ele>
        <time>2015-11-07T10:27:54Z</time>
      </trkpt>
      <trkpt lat="45.65366" lon="5.72571">
        <ele>638.23748236695</ele>
        <time>2015-11-07T10:27:59Z</time>
      </trkpt>
      <trkpt lat="45.65369" lon="5.72576">
        <ele>638.23748236695</ele>
        <time>2015-11-07T10:28:09Z</time>
      </trkpt>
      <trkpt lat="45.65377" lon="5.72582">
        <ele>636.92576602105</ele>
        <time>2015-11-07T10:28:15Z</time>
      </trkpt>
      <trkpt lat="45.6539" lon="5.72591">
        <ele>636.14938109343</ele>
        <time>2015-11-07T10:28:24Z</time>
      </trkpt>
      <trkpt lat="45.65395" lon="5.72595">
        <ele>636.14938109343</ele>
        <time>2015-11-07T10:28:29Z</time>
      </trkpt>
      <trkpt lat="45.65407" lon="5.72603">
        <ele>635.10618822861</ele>
        <time>2015-11-07T10:28:39Z</time>
      </trkpt>
      <trkpt lat="45.65415" lon="5.72607">
        <ele>635.10618822861</ele>
        <time>2015-11-07T10:28:44Z</time>
      </trkpt>
      <trkpt lat="45.65431" lon="5.72615">
        <ele>634.98479551207</ele>
        <time>2015-11-07T10:28:54Z</time>
      </trkpt>
      <trkpt lat="45.65436" lon="5.7262">
        <ele>634.98479551207</ele>
        <time>2015-11-07T10:28:59Z</time>
      </trkpt>
      <trkpt lat="45.65442" lon="5.72625">
        <ele>634.83751153943</ele>
        <time>2015-11-07T10:29:09Z</time>
      </trkpt>
      <trkpt lat="45.65447" lon="5.7263">
        <ele>634.83751153943</ele>
        <time>2015-11-07T10:29:14Z</time>
      </trkpt>
      <trkpt lat="45.65463" lon="5.72642">
        <ele>634.8383300885</ele>
        <time>2015-11-07T10:29:24Z</time>
      </trkpt>
      <trkpt lat="45.65471" lon="5.72648">
        <ele>635.04715660492</ele>
        <time>2015-11-07T10:29:29Z</time>
      </trkpt>
      <trkpt lat="45.65484" lon="5.7266">
        <ele>635.11539236026</ele>
        <time>2015-11-07T10:29:39Z</time>
      </trkpt>
      <trkpt lat="45.65492" lon="5.72666">
        <ele>635.11539236026</ele>
        <time>2015-11-07T10:29:44Z</time>
      </trkpt>
      <trkpt lat="45.65505" lon="5.7268">
        <ele>635.49863830645</ele>
        <time>2015-11-07T10:29:54Z</time>
      </trkpt>
      <trkpt lat="45.65511" lon="5.72686">
        <ele>635.49863830645</ele>
        <time>2015-11-07T10:29:59Z</time>
      </trkpt>
      <trkpt lat="45.65525" lon="5.72707">
        <ele>635.79671218489</ele>
        <time>2015-11-07T10:30:14Z</time>
      </trkpt>
      <trkpt lat="45.65532" lon="5.7271">
        <ele>635.79671218489</ele>
        <time>2015-11-07T10:30:20Z</time>
      </trkpt>
      <trkpt lat="45.65545" lon="5.72718">
        <ele>636.12905435228</ele>
        <time>2015-11-07T10:30:29Z</time>
      </trkpt>
      <trkpt lat="45.6555" lon="5.72723">
        <ele>636.12905435228</ele>
        <time>2015-11-07T10:30:34Z</time>
      </trkpt>
      <trkpt lat="45.65557" lon="5.72737">
        <ele>636.2027372843</ele>
        <time>2015-11-07T10:30:44Z</time>
      </trkpt>
      <trkpt lat="45.6556" lon="5.72745">
        <ele>636.2027372843</ele>
        <time>2015-11-07T10:30:50Z</time>
      </trkpt>
      <trkpt lat="45.65564" lon="5.72761">
        <ele>636.10737351674</ele>
        <time>2015-11-07T10:30:59Z</time>
      </trkpt>
      <trkpt lat="45.65567" lon="5.72768">
        <ele>636.10737351674</ele>
        <time>2015-11-07T10:31:05Z</time>
      </trkpt>
      <trkpt lat="45.65575" lon="5.72782">
        <ele>635.7679655986</ele>
        <time>2015-11-07T10:31:14Z</time>
      </trkpt>
      <trkpt lat="45.65579" lon="5.72789">
        <ele>635.7679655986</ele>
        <time>2015-11-07T10:31:19Z</time>
      </trkpt>
      <trkpt lat="45.65588" lon="5.72802">
        <ele>635.13014300606</ele>
        <time>2015-11-07T10:31:30Z</time>
      </trkpt>
      <trkpt lat="45.65592" lon="5.72807">
        <ele>635.13014300606</ele>
        <time>2015-11-07T10:31:34Z</time>
      </trkpt>
      <trkpt lat="45.65608" lon="5.72824">
        <ele>634.47584331552</ele>
        <time>2015-11-07T10:31:49Z</time>
      </trkpt>
      <trkpt lat="45.65612" lon="5.7283">
        <ele>634.47584331552</ele>
        <time>2015-11-07T10:31:54Z</time>
      </trkpt>
      <trkpt lat="45.65621" lon="5.72842">
        <ele>633.56196849075</ele>
        <time>2015-11-07T10:32:04Z</time>
      </trkpt>
      <trkpt lat="45.65625" lon="5.72849">
        <ele>633.56196849075</ele>
        <time>2015-11-07T10:32:10Z</time>
      </trkpt>
      <trkpt lat="45.65632" lon="5.72864">
        <ele>632.3513652497</ele>
        <time>2015-11-07T10:32:19Z</time>
      </trkpt>
      <trkpt lat="45.65636" lon="5.72869">
        <ele>632.3513652497</ele>
        <time>2015-11-07T10:32:25Z</time>
      </trkpt>
      <trkpt lat="45.65642" lon="5.72882">
        <ele>630.83927243384</ele>
        <time>2015-11-07T10:32:34Z</time>
      </trkpt>
      <trkpt lat="45.6565" lon="5.72905">
        <ele>629.71386026655</ele>
        <time>2015-11-07T10:32:39Z</time>
      </trkpt>
      <trkpt lat="45.65659" lon="5.7293">
        <ele>628.34347700027</ele>
        <time>2015-11-07T10:32:49Z</time>
      </trkpt>
      <trkpt lat="45.65663" lon="5.72938">
        <ele>628.34347700027</ele>
        <time>2015-11-07T10:32:54Z</time>
      </trkpt>
      <trkpt lat="45.65673" lon="5.72955">
        <ele>626.8064574866</ele>
        <time>2015-11-07T10:33:05Z</time>
      </trkpt>
      <trkpt lat="45.65678" lon="5.72962">
        <ele>626.8064574866</ele>
        <time>2015-11-07T10:33:09Z</time>
      </trkpt>
      <trkpt lat="45.65689" lon="5.72978">
        <ele>625.89638647197</ele>
        <time>2015-11-07T10:33:19Z</time>
      </trkpt>
      <trkpt lat="45.65694" lon="5.72984">
        <ele>625.89638647197</ele>
        <time>2015-11-07T10:33:25Z</time>
      </trkpt>
      <trkpt lat="45.65708" lon="5.73003">
        <ele>624.92006732425</ele>
        <time>2015-11-07T10:33:39Z</time>
      </trkpt>
      <trkpt lat="45.65712" lon="5.7301">
        <ele>624.92006732425</ele>
        <time>2015-11-07T10:33:44Z</time>
      </trkpt>
      <trkpt lat="45.65721" lon="5.73025">
        <ele>623.76859339159</ele>
        <time>2015-11-07T10:33:54Z</time>
      </trkpt>
      <trkpt lat="45.65727" lon="5.73031">
        <ele>623.76859339159</ele>
        <time>2015-11-07T10:34:00Z</time>
      </trkpt>
      <trkpt lat="45.65738" lon="5.73044">
        <ele>623.22059644771</ele>
        <time>2015-11-07T10:34:10Z</time>
      </trkpt>
      <trkpt lat="45.65742" lon="5.7305">
        <ele>623.22059644771</ele>
        <time>2015-11-07T10:34:15Z</time>
      </trkpt>
      <trkpt lat="45.65752" lon="5.73061">
        <ele>622.15115954449</ele>
        <time>2015-11-07T10:34:24Z</time>
      </trkpt>
      <trkpt lat="45.65757" lon="5.73067">
        <ele>622.15115954449</ele>
        <time>2015-11-07T10:34:29Z</time>
      </trkpt>
      <trkpt lat="45.65768" lon="5.73079">
        <ele>621.42169820171</ele>
        <time>2015-11-07T10:34:39Z</time>
      </trkpt>
      <trkpt lat="45.65774" lon="5.73084">
        <ele>621.42169820171</ele>
        <time>2015-11-07T10:34:44Z</time>
      </trkpt>
      <trkpt lat="45.65784" lon="5.73094">
        <ele>620.18649068892</ele>
        <time>2015-11-07T10:34:54Z</time>
      </trkpt>
      <trkpt lat="45.65789" lon="5.73098">
        <ele>620.18649068892</ele>
        <time>2015-11-07T10:34:59Z</time>
      </trkpt>
      <trkpt lat="45.65802" lon="5.73103">
        <ele>619.55118134706</ele>
        <time>2015-11-07T10:35:10Z</time>
      </trkpt>
      <trkpt lat="45.6581" lon="5.73106">
        <ele>619.55118134706</ele>
        <time>2015-11-07T10:35:14Z</time>
      </trkpt>
      <trkpt lat="45.65827" lon="5.73117">
        <ele>618.76590619702</ele>
        <time>2015-11-07T10:35:29Z</time>
      </trkpt>
      <trkpt lat="45.65833" lon="5.73121">
        <ele>618.76590619702</ele>
        <time>2015-11-07T10:35:35Z</time>
      </trkpt>
      <trkpt lat="45.65845" lon="5.73131">
        <ele>617.94329245111</ele>
        <time>2015-11-07T10:35:44Z</time>
      </trkpt>
      <trkpt lat="45.65851" lon="5.73134">
        <ele>617.94329245111</ele>
        <time>2015-11-07T10:35:49Z</time>
      </trkpt>
      <trkpt lat="45.65865" lon="5.7314">
        <ele>617.5624515637</ele>
        <time>2015-11-07T10:35:59Z</time>
      </trkpt>
      <trkpt lat="45.65872" lon="5.73142">
        <ele>617.5624515637</ele>
        <time>2015-11-07T10:36:04Z</time>
      </trkpt>
      <trkpt lat="45.65884" lon="5.73149">
        <ele>617.18694777337</ele>
        <time>2015-11-07T10:36:14Z</time>
      </trkpt>
      <trkpt lat="45.65889" lon="5.73154">
        <ele>617.18694777337</ele>
        <time>2015-11-07T10:36:19Z</time>
      </trkpt>
      <trkpt lat="45.65898" lon="5.73165">
        <ele>616.35471394243</ele>
        <time>2015-11-07T10:36:29Z</time>
      </trkpt>
      <trkpt lat="45.65902" lon="5.73171">
        <ele>616.35471394243</ele>
        <time>2015-11-07T10:36:34Z</time>
      </trkpt>
      <trkpt lat="45.65911" lon="5.73185">
        <ele>615.25855491315</ele>
        <time>2015-11-07T10:36:44Z</time>
      </trkpt>
      <trkpt lat="45.65916" lon="5.73191">
        <ele>615.25855491315</ele>
        <time>2015-11-07T10:36:49Z</time>
      </trkpt>
      <trkpt lat="45.65931" lon="5.73208">
        <ele>613.71754385301</ele>
        <time>2015-11-07T10:37:05Z</time>
      </trkpt>
      <trkpt lat="45.65934" lon="5.73214">
        <ele>613.71754385301</ele>
        <time>2015-11-07T10:37:09Z</time>
      </trkpt>
      <trkpt lat="45.65937" lon="5.73229">
        <ele>611.92553767556</ele>
        <time>2015-11-07T10:37:20Z</time>
      </trkpt>
      <trkpt lat="45.65939" lon="5.73239">
        <ele>611.92553767556</ele>
        <time>2015-11-07T10:37:24Z</time>
      </trkpt>
      <trkpt lat="45.65948" lon="5.73253">
        <ele>609.06845019489</ele>
        <time>2015-11-07T10:37:34Z</time>
      </trkpt>
      <trkpt lat="45.65952" lon="5.73258">
        <ele>609.06845019489</ele>
        <time>2015-11-07T10:37:39Z</time>
      </trkpt>
      <trkpt lat="45.65961" lon="5.7327">
        <ele>605.74958171344</ele>
        <time>2015-11-07T10:37:49Z</time>
      </trkpt>
      <trkpt lat="45.65966" lon="5.73276">
        <ele>605.74958171344</ele>
        <time>2015-11-07T10:37:54Z</time>
      </trkpt>
      <trkpt lat="45.65976" lon="5.73287">
        <ele>602.37062567961</ele>
        <time>2015-11-07T10:38:04Z</time>
      </trkpt>
      <trkpt lat="45.6598" lon="5.73293">
        <ele>602.37062567961</ele>
        <time>2015-11-07T10:38:10Z</time>
      </trkpt>
      <trkpt lat="45.65988" lon="5.73308">
        <ele>598.88593630388</ele>
        <time>2015-11-07T10:38:20Z</time>
      </trkpt>
      <trkpt lat="45.65992" lon="5.73313">
        <ele>598.88593630388</ele>
        <time>2015-11-07T10:38:24Z</time>
      </trkpt>
      <trkpt lat="45.65999" lon="5.73328">
        <ele>595.35430155574</ele>
        <time>2015-11-07T10:38:34Z</time>
      </trkpt>
      <trkpt lat="45.66005" lon="5.73335">
        <ele>595.35430155574</ele>
        <time>2015-11-07T10:38:39Z</time>
      </trkpt>
      <trkpt lat="45.66021" lon="5.73351">
        <ele>591.95991294497</ele>
        <time>2015-11-07T10:38:54Z</time>
      </trkpt>
      <trkpt lat="45.66033" lon="5.73358">
        <ele>589.46377951609</ele>
        <time>2015-11-07T10:38:59Z</time>
      </trkpt>
      <trkpt lat="45.6605" lon="5.73353">
        <ele>588.16484487435</ele>
        <time>2015-11-07T10:39:09Z</time>
      </trkpt>
      <trkpt lat="45.66053" lon="5.73348">
        <ele>588.16484487435</ele>
        <time>2015-11-07T10:39:14Z</time>
      </trkpt>
      <trkpt lat="45.66061" lon="5.7334">
        <ele>586.72255395063</ele>
        <time>2015-11-07T10:39:24Z</time>
      </trkpt>
      <trkpt lat="45.66066" lon="5.73336">
        <ele>586.72255395063</ele>
        <time>2015-11-07T10:39:29Z</time>
      </trkpt>
      <trkpt lat="45.66079" lon="5.73323">
        <ele>585.49473096772</ele>
        <time>2015-11-07T10:39:39Z</time>
      </trkpt>
      <trkpt lat="45.66085" lon="5.73318">
        <ele>585.49473096772</ele>
        <time>2015-11-07T10:39:44Z</time>
      </trkpt>
      <trkpt lat="45.66098" lon="5.73308">
        <ele>584.72571906111</ele>
        <time>2015-11-07T10:39:54Z</time>
      </trkpt>
      <trkpt lat="45.66104" lon="5.73303">
        <ele>584.72571906111</ele>
        <time>2015-11-07T10:39:59Z</time>
      </trkpt>
      <trkpt lat="45.66115" lon="5.73292">
        <ele>583.97759491885</ele>
        <time>2015-11-07T10:40:09Z</time>
      </trkpt>
      <trkpt lat="45.66119" lon="5.73287">
        <ele>583.97759491885</ele>
        <time>2015-11-07T10:40:14Z</time>
      </trkpt>
      <trkpt lat="45.66126" lon="5.73286">
        <ele>583.16148145621</ele>
        <time>2015-11-07T10:40:24Z</time>
      </trkpt>
      <trkpt lat="45.6613" lon="5.73291">
        <ele>583.16148145621</ele>
        <time>2015-11-07T10:40:30Z</time>
      </trkpt>
      <trkpt lat="45.66138" lon="5.73302">
        <ele>582.10865480225</ele>
        <time>2015-11-07T10:40:40Z</time>
      </trkpt>
      <trkpt lat="45.66144" lon="5.73306">
        <ele>582.10865480225</ele>
        <time>2015-11-07T10:40:44Z</time>
      </trkpt>
      <trkpt lat="45.66149" lon="5.7331">
        <ele>581.22539311545</ele>
        <time>2015-11-07T10:40:59Z</time>
      </trkpt>
      <trkpt lat="45.66152" lon="5.73314">
        <ele>581.22539311545</ele>
        <time>2015-11-07T10:41:04Z</time>
      </trkpt>
      <trkpt lat="45.66157" lon="5.73319">
        <ele>580.19583902605</ele>
        <time>2015-11-07T10:41:14Z</time>
      </trkpt>
      <trkpt lat="45.66157" lon="5.73318">
        <ele>580.19583902605</ele>
        <time>2015-11-07T10:41:20Z</time>
      </trkpt>
      <trkpt lat="45.66158" lon="5.7333">
        <ele>580.19583902605</ele>
        <time>2015-11-07T10:41:29Z</time>
      </trkpt>
      <trkpt lat="45.66159" lon="5.73339">
        <ele>578.85737430986</ele>
        <time>2015-11-07T10:41:34Z</time>
      </trkpt>
      <trkpt lat="45.66158" lon="5.73355">
        <ele>577.4348143156</ele>
        <time>2015-11-07T10:41:44Z</time>
      </trkpt>
      <trkpt lat="45.66157" lon="5.73365">
        <ele>577.4348143156</ele>
        <time>2015-11-07T10:41:49Z</time>
      </trkpt>
      <trkpt lat="45.66157" lon="5.73391">
        <ele>576.17986629474</ele>
        <time>2015-11-07T10:41:59Z</time>
      </trkpt>
      <trkpt lat="45.66158" lon="5.73398">
        <ele>576.17986629474</ele>
        <time>2015-11-07T10:42:04Z</time>
      </trkpt>
      <trkpt lat="45.66163" lon="5.7341">
        <ele>574.44613987257</ele>
        <time>2015-11-07T10:42:14Z</time>
      </trkpt>
      <trkpt lat="45.66166" lon="5.73417">
        <ele>574.44613987257</ele>
        <time>2015-11-07T10:42:20Z</time>
      </trkpt>
      <trkpt lat="45.66174" lon="5.73431">
        <ele>572.385392257</ele>
        <time>2015-11-07T10:42:29Z</time>
      </trkpt>
      <trkpt lat="45.66178" lon="5.7344">
        <ele>572.385392257</ele>
        <time>2015-11-07T10:42:34Z</time>
      </trkpt>
      <trkpt lat="45.66184" lon="5.73459">
        <ele>570.70112799554</ele>
        <time>2015-11-07T10:42:44Z</time>
      </trkpt>
      <trkpt lat="45.66187" lon="5.73469">
        <ele>570.70112799554</ele>
        <time>2015-11-07T10:42:49Z</time>
      </trkpt>
      <trkpt lat="45.66191" lon="5.73489">
        <ele>569.13616131035</ele>
        <time>2015-11-07T10:43:00Z</time>
      </trkpt>
      <trkpt lat="45.66193" lon="5.73498">
        <ele>569.13616131035</ele>
        <time>2015-11-07T10:43:04Z</time>
      </trkpt>
      <trkpt lat="45.66198" lon="5.73525">
        <ele>567.14917605089</ele>
        <time>2015-11-07T10:43:20Z</time>
      </trkpt>
      <trkpt lat="45.662" lon="5.73533">
        <ele>567.14917605089</ele>
        <time>2015-11-07T10:43:24Z</time>
      </trkpt>
      <trkpt lat="45.66204" lon="5.73552">
        <ele>564.85942723309</ele>
        <time>2015-11-07T10:43:34Z</time>
      </trkpt>
      <trkpt lat="45.66209" lon="5.7356">
        <ele>564.85942723309</ele>
        <time>2015-11-07T10:43:39Z</time>
      </trkpt>
      <trkpt lat="45.66218" lon="5.73571">
        <ele>562.34937983004</ele>
        <time>2015-11-07T10:43:50Z</time>
      </trkpt>
      <trkpt lat="45.66221" lon="5.73579">
        <ele>562.34937983004</ele>
        <time>2015-11-07T10:43:54Z</time>
      </trkpt>
      <trkpt lat="45.66225" lon="5.73595">
        <ele>559.91216655185</ele>
        <time>2015-11-07T10:44:04Z</time>
      </trkpt>
      <trkpt lat="45.66227" lon="5.73604">
        <ele>559.91216655185</ele>
        <time>2015-11-07T10:44:09Z</time>
      </trkpt>
      <trkpt lat="45.6623" lon="5.73621">
        <ele>557.68941995158</ele>
        <time>2015-11-07T10:44:19Z</time>
      </trkpt>
      <trkpt lat="45.66231" lon="5.7363">
        <ele>557.68941995158</ele>
        <time>2015-11-07T10:44:24Z</time>
      </trkpt>
      <trkpt lat="45.6623" lon="5.73648">
        <ele>555.37936739501</ele>
        <time>2015-11-07T10:44:34Z</time>
      </trkpt>
      <trkpt lat="45.66228" lon="5.73655">
        <ele>555.37936739501</ele>
        <time>2015-11-07T10:44:39Z</time>
      </trkpt>
      <trkpt lat="45.66229" lon="5.7367">
        <ele>553.09168086798</ele>
        <time>2015-11-07T10:44:49Z</time>
      </trkpt>
      <trkpt lat="45.66229" lon="5.7368">
        <ele>553.09168086798</ele>
        <time>2015-11-07T10:44:54Z</time>
      </trkpt>
      <trkpt lat="45.66218" lon="5.73745">
        <ele>550.72608699454</ele>
        <time>2015-11-07T10:45:10Z</time>
      </trkpt>
      <trkpt lat="45.66227" lon="5.73787">
        <ele>548.79509248052</ele>
        <time>2015-11-07T10:45:14Z</time>
      </trkpt>
      <trkpt lat="45.6622" lon="5.73869">
        <ele>547.82991092</ele>
        <time>2015-11-07T10:45:24Z</time>
      </trkpt>
      <trkpt lat="45.66219" lon="5.73891">
        <ele>547.09501299583</ele>
        <time>2015-11-07T10:45:29Z</time>
      </trkpt>
      <trkpt lat="45.66213" lon="5.73909">
        <ele>546.77286368129</ele>
        <time>2015-11-07T10:45:39Z</time>
      </trkpt>
      <trkpt lat="45.6621" lon="5.73917">
        <ele>546.77286368129</ele>
        <time>2015-11-07T10:45:44Z</time>
      </trkpt>
      <trkpt lat="45.66201" lon="5.73932">
        <ele>546.77191930438</ele>
        <time>2015-11-07T10:45:54Z</time>
      </trkpt>
      <trkpt lat="45.66196" lon="5.73939">
        <ele>546.77191930438</ele>
        <time>2015-11-07T10:45:59Z</time>
      </trkpt>
      <trkpt lat="45.66192" lon="5.73949">
        <ele>546.93437137265</ele>
        <time>2015-11-07T10:46:09Z</time>
      </trkpt>
      <trkpt lat="45.66189" lon="5.7396">
        <ele>546.93437137265</ele>
        <time>2015-11-07T10:46:14Z</time>
      </trkpt>
      <trkpt lat="45.66182" lon="5.73976">
        <ele>546.71001571933</ele>
        <time>2015-11-07T10:46:24Z</time>
      </trkpt>
      <trkpt lat="45.66178" lon="5.73981">
        <ele>546.71001571933</ele>
        <time>2015-11-07T10:46:30Z</time>
      </trkpt>
      <trkpt lat="45.66169" lon="5.7399">
        <ele>546.18100201833</ele>
        <time>2015-11-07T10:46:40Z</time>
      </trkpt>
      <trkpt lat="45.66165" lon="5.73995">
        <ele>546.18100201833</ele>
        <time>2015-11-07T10:46:45Z</time>
      </trkpt>
      <trkpt lat="45.66156" lon="5.74003">
        <ele>545.56841854632</ele>
        <time>2015-11-07T10:46:54Z</time>
      </trkpt>
      <trkpt lat="45.6615" lon="5.74007">
        <ele>545.56841854632</ele>
        <time>2015-11-07T10:47:00Z</time>
      </trkpt>
      <trkpt lat="45.66141" lon="5.74013">
        <ele>545.06295346044</ele>
        <time>2015-11-07T10:47:09Z</time>
      </trkpt>
      <trkpt lat="45.66135" lon="5.74016">
        <ele>545.06295346044</ele>
        <time>2015-11-07T10:47:14Z</time>
      </trkpt>
      <trkpt lat="45.66124" lon="5.74025">
        <ele>544.07722227039</ele>
        <time>2015-11-07T10:47:24Z</time>
      </trkpt>
      <trkpt lat="45.66119" lon="5.74029">
        <ele>544.07722227039</ele>
        <time>2015-11-07T10:47:30Z</time>
      </trkpt>
      <trkpt lat="45.66101" lon="5.7404">
        <ele>542.44305515929</ele>
        <time>2015-11-07T10:47:45Z</time>
      </trkpt>
      <trkpt lat="45.66096" lon="5.74044">
        <ele>542.44305515929</ele>
        <time>2015-11-07T10:47:49Z</time>
      </trkpt>
      <trkpt lat="45.66089" lon="5.74048">
        <ele>540.16500796267</ele>
        <time>2015-11-07T10:47:59Z</time>
      </trkpt>
      <trkpt lat="45.66084" lon="5.7405">
        <ele>540.16500796267</ele>
        <time>2015-11-07T10:48:05Z</time>
      </trkpt>
      <trkpt lat="45.66072" lon="5.74058">
        <ele>538.12821535453</ele>
        <time>2015-11-07T10:48:14Z</time>
      </trkpt>
      <trkpt lat="45.66067" lon="5.74062">
        <ele>538.12821535453</ele>
        <time>2015-11-07T10:48:19Z</time>
      </trkpt>
      <trkpt lat="45.66057" lon="5.74073">
        <ele>535.92719318091</ele>
        <time>2015-11-07T10:48:29Z</time>
      </trkpt>
      <trkpt lat="45.66053" lon="5.74079">
        <ele>535.92719318091</ele>
        <time>2015-11-07T10:48:34Z</time>
      </trkpt>
      <trkpt lat="45.66042" lon="5.74105">
        <ele>533.38847769169</ele>
        <time>2015-11-07T10:48:44Z</time>
      </trkpt>
      <trkpt lat="45.66036" lon="5.74135">
        <ele>530.88551617729</ele>
        <time>2015-11-07T10:48:49Z</time>
      </trkpt>
      <trkpt lat="45.66033" lon="5.74155">
        <ele>528.47600240298</ele>
        <time>2015-11-07T10:48:59Z</time>
      </trkpt>
      <trkpt lat="45.66033" lon="5.74157">
        <ele>528.47600240298</ele>
        <time>2015-11-07T10:49:04Z</time>
      </trkpt>
      <trkpt lat="45.66034" lon="5.74157">
        <ele>528.47600240298</ele>
        <time>2015-11-07T10:49:14Z</time>
      </trkpt>
      <trkpt lat="45.66034" lon="5.74157">
        <ele>528.47600240298</ele>
        <time>2015-11-07T10:49:19Z</time>
      </trkpt>
      <trkpt lat="45.66034" lon="5.74159">
        <ele>528.47600240298</ele>
        <time>2015-11-07T10:49:30Z</time>
      </trkpt>
      <trkpt lat="45.66033" lon="5.74166">
        <ele>526.32841390553</ele>
        <time>2015-11-07T10:49:34Z</time>
      </trkpt>
      <trkpt lat="45.66031" lon="5.74178">
        <ele>526.32841390553</ele>
        <time>2015-11-07T10:49:44Z</time>
      </trkpt>
      <trkpt lat="45.66032" lon="5.74186">
        <ele>524.42517287034</ele>
        <time>2015-11-07T10:49:49Z</time>
      </trkpt>
      <trkpt lat="45.66033" lon="5.74191">
        <ele>524.42517287034</ele>
        <time>2015-11-07T10:50:05Z</time>
      </trkpt>
      <trkpt lat="45.66033" lon="5.74191">
        <ele>524.42517287034</ele>
        <time>2015-11-07T10:50:10Z</time>
      </trkpt>
      <trkpt lat="45.66033" lon="5.74191">
        <ele>524.42517287034</ele>
        <time>2015-11-07T10:50:19Z</time>
      </trkpt>
      <trkpt lat="45.6603" lon="5.74192">
        <ele>524.42517287034</ele>
        <time>2015-11-07T10:50:25Z</time>
      </trkpt>
      <trkpt lat="45.66025" lon="5.74196">
        <ele>521.89903493932</ele>
        <time>2015-11-07T10:50:35Z</time>
      </trkpt>
      <trkpt lat="45.66024" lon="5.74203">
        <ele>521.89903493932</ele>
        <time>2015-11-07T10:50:40Z</time>
      </trkpt>
      <trkpt lat="45.66021" lon="5.74219">
        <ele>519.01461124236</ele>
        <time>2015-11-07T10:50:49Z</time>
      </trkpt>
      <trkpt lat="45.66019" lon="5.74227">
        <ele>519.01461124236</ele>
        <time>2015-11-07T10:50:54Z</time>
      </trkpt>
      <trkpt lat="45.66012" lon="5.74245">
        <ele>516.00364085792</ele>
        <time>2015-11-07T10:51:05Z</time>
      </trkpt>
      <trkpt lat="45.6601" lon="5.74254">
        <ele>516.00364085792</ele>
        <time>2015-11-07T10:51:10Z</time>
      </trkpt>
      <trkpt lat="45.66007" lon="5.74261">
        <ele>512.99469259171</ele>
        <time>2015-11-07T10:51:24Z</time>
      </trkpt>
      <trkpt lat="45.66006" lon="5.74271">
        <ele>512.99469259171</ele>
        <time>2015-11-07T10:51:29Z</time>
      </trkpt>
      <trkpt lat="45.66006" lon="5.74276">
        <ele>510.23654185935</ele>
        <time>2015-11-07T10:51:39Z</time>
      </trkpt>
      <trkpt lat="45.66006" lon="5.74276">
        <ele>510.23654185935</ele>
        <time>2015-11-07T10:51:45Z</time>
      </trkpt>
      <trkpt lat="45.66005" lon="5.74277">
        <ele>510.23654185935</ele>
        <time>2015-11-07T10:51:54Z</time>
      </trkpt>
      <trkpt lat="45.66003" lon="5.74285">
        <ele>510.23654185935</ele>
        <time>2015-11-07T10:52:00Z</time>
      </trkpt>
      <trkpt lat="45.65995" lon="5.74301">
        <ele>507.51219020532</ele>
        <time>2015-11-07T10:52:09Z</time>
      </trkpt>
      <trkpt lat="45.65992" lon="5.74309">
        <ele>507.51219020532</ele>
        <time>2015-11-07T10:52:14Z</time>
      </trkpt>
      <trkpt lat="45.65986" lon="5.74319">
        <ele>504.60601621579</ele>
        <time>2015-11-07T10:52:24Z</time>
      </trkpt>
      <trkpt lat="45.65984" lon="5.74326">
        <ele>504.60601621579</ele>
        <time>2015-11-07T10:52:30Z</time>
      </trkpt>
      <trkpt lat="45.65979" lon="5.74336">
        <ele>501.33309505383</ele>
        <time>2015-11-07T10:52:40Z</time>
      </trkpt>
      <trkpt lat="45.65976" lon="5.74345">
        <ele>501.33309505383</ele>
        <time>2015-11-07T10:52:44Z</time>
      </trkpt>
      <trkpt lat="45.65959" lon="5.74362">
        <ele>497.79685572005</ele>
        <time>2015-11-07T10:52:59Z</time>
      </trkpt>
      <trkpt lat="45.65953" lon="5.74365">
        <ele>497.79685572005</ele>
        <time>2015-11-07T10:53:05Z</time>
      </trkpt>
      <trkpt lat="45.65949" lon="5.74369">
        <ele>494.64141312045</ele>
        <time>2015-11-07T10:53:15Z</time>
      </trkpt>
      <trkpt lat="45.65948" lon="5.74369">
        <ele>494.64141312045</ele>
        <time>2015-11-07T10:53:19Z</time>
      </trkpt>
      <trkpt lat="45.65937" lon="5.74375">
        <ele>491.15100107404</ele>
        <time>2015-11-07T10:53:29Z</time>
      </trkpt>
      <trkpt lat="45.65933" lon="5.74383">
        <ele>491.15100107404</ele>
        <time>2015-11-07T10:53:34Z</time>
      </trkpt>
      <trkpt lat="45.65932" lon="5.74388">
        <ele>488.0467483999</ele>
        <time>2015-11-07T10:53:44Z</time>
      </trkpt>
      <trkpt lat="45.65932" lon="5.74389">
        <ele>488.0467483999</ele>
        <time>2015-11-07T10:53:50Z</time>
      </trkpt>
      <trkpt lat="45.65932" lon="5.74389">
        <ele>488.0467483999</ele>
        <time>2015-11-07T10:53:59Z</time>
      </trkpt>
      <trkpt lat="45.65932" lon="5.74389">
        <ele>488.0467483999</ele>
        <time>2015-11-07T10:54:04Z</time>
      </trkpt>
      <trkpt lat="45.65932" lon="5.74389">
        <ele>488.0467483999</ele>
        <time>2015-11-07T10:54:14Z</time>
      </trkpt>
      <trkpt lat="45.65933" lon="5.74391">
        <ele>488.0467483999</ele>
        <time>2015-11-07T10:54:20Z</time>
      </trkpt>
      <trkpt lat="45.65936" lon="5.74405">
        <ele>485.1021406146</ele>
        <time>2015-11-07T10:54:30Z</time>
      </trkpt>
      <trkpt lat="45.65941" lon="5.7441">
        <ele>485.1021406146</ele>
        <time>2015-11-07T10:54:35Z</time>
      </trkpt>
      <trkpt lat="45.65947" lon="5.74426">
        <ele>482.17880968111</ele>
        <time>2015-11-07T10:54:44Z</time>
      </trkpt>
      <trkpt lat="45.65953" lon="5.74438">
        <ele>479.45102263421</ele>
        <time>2015-11-07T10:54:49Z</time>
      </trkpt>
      <trkpt lat="45.65962" lon="5.74455">
        <ele>476.89224846119</ele>
        <time>2015-11-07T10:55:00Z</time>
      </trkpt>
      <trkpt lat="45.65965" lon="5.74465">
        <ele>476.89224846119</ele>
        <time>2015-11-07T10:55:05Z</time>
      </trkpt>
      <trkpt lat="45.6598" lon="5.74491">
        <ele>475.24111924267</ele>
        <time>2015-11-07T10:55:20Z</time>
      </trkpt>
      <trkpt lat="45.65986" lon="5.74497">
        <ele>475.24111924267</ele>
        <time>2015-11-07T10:55:24Z</time>
      </trkpt>
      <trkpt lat="45.65999" lon="5.74509">
        <ele>474.01206534883</ele>
        <time>2015-11-07T10:55:34Z</time>
      </trkpt>
      <trkpt lat="45.66006" lon="5.74514">
        <ele>474.01206534883</ele>
        <time>2015-11-07T10:55:39Z</time>
      </trkpt>
      <trkpt lat="45.66025" lon="5.74519">
        <ele>472.99890480893</ele>
        <time>2015-11-07T10:55:49Z</time>
      </trkpt>
      <trkpt lat="45.66031" lon="5.74519">
        <ele>472.99890480893</ele>
        <time>2015-11-07T10:55:54Z</time>
      </trkpt>
      <trkpt lat="45.66045" lon="5.74518">
        <ele>471.92345370287</ele>
        <time>2015-11-07T10:56:04Z</time>
      </trkpt>
      <trkpt lat="45.66053" lon="5.74518">
        <ele>471.92345370287</ele>
        <time>2015-11-07T10:56:09Z</time>
      </trkpt>
      <trkpt lat="45.66067" lon="5.7452">
        <ele>471.56567724376</ele>
        <time>2015-11-07T10:56:19Z</time>
      </trkpt>
      <trkpt lat="45.66073" lon="5.7452">
        <ele>471.56567724376</ele>
        <time>2015-11-07T10:56:24Z</time>
      </trkpt>
      <trkpt lat="45.6609" lon="5.74523">
        <ele>471.81034191625</ele>
        <time>2015-11-07T10:56:35Z</time>
      </trkpt>
      <trkpt lat="45.66097" lon="5.74526">
        <ele>471.81034191625</ele>
        <time>2015-11-07T10:56:40Z</time>
      </trkpt>
      <trkpt lat="45.66112" lon="5.74531">
        <ele>472.4336736965</ele>
        <time>2015-11-07T10:56:49Z</time>
      </trkpt>
      <trkpt lat="45.6612" lon="5.74535">
        <ele>472.4336736965</ele>
        <time>2015-11-07T10:56:55Z</time>
      </trkpt>
      <trkpt lat="45.66142" lon="5.74544">
        <ele>473.58754702357</ele>
        <time>2015-11-07T10:57:10Z</time>
      </trkpt>
      <trkpt lat="45.66149" lon="5.74546">
        <ele>473.58754702357</ele>
        <time>2015-11-07T10:57:14Z</time>
      </trkpt>
      <trkpt lat="45.66162" lon="5.7455">
        <ele>475.09416508784</ele>
        <time>2015-11-07T10:57:24Z</time>
      </trkpt>
      <trkpt lat="45.66169" lon="5.74551">
        <ele>475.09416508784</ele>
        <time>2015-11-07T10:57:30Z</time>
      </trkpt>
      <trkpt lat="45.66183" lon="5.74551">
        <ele>476.21140029442</ele>
        <time>2015-11-07T10:57:40Z</time>
      </trkpt>
      <trkpt lat="45.6619" lon="5.74551">
        <ele>476.21140029442</ele>
        <time>2015-11-07T10:57:44Z</time>
      </trkpt>
      <trkpt lat="45.66205" lon="5.74549">
        <ele>477.40568981602</ele>
        <time>2015-11-07T10:57:54Z</time>
      </trkpt>
      <trkpt lat="45.66212" lon="5.7455">
        <ele>477.40568981602</ele>
        <time>2015-11-07T10:58:00Z</time>
      </trkpt>
      <trkpt lat="45.66226" lon="5.74552">
        <ele>478.73439144304</ele>
        <time>2015-11-07T10:58:09Z</time>
      </trkpt>
      <trkpt lat="45.66233" lon="5.74552">
        <ele>478.73439144304</ele>
        <time>2015-11-07T10:58:14Z</time>
      </trkpt>
      <trkpt lat="45.66248" lon="5.74553">
        <ele>480.2647950794</ele>
        <time>2015-11-07T10:58:24Z</time>
      </trkpt>
      <trkpt lat="45.66255" lon="5.74556">
        <ele>480.2647950794</ele>
        <time>2015-11-07T10:58:29Z</time>
      </trkpt>
      <trkpt lat="45.6627" lon="5.74556">
        <ele>481.97234657251</ele>
        <time>2015-11-07T10:58:40Z</time>
      </trkpt>
      <trkpt lat="45.66278" lon="5.74554">
        <ele>481.97234657251</ele>
        <time>2015-11-07T10:58:45Z</time>
      </trkpt>
      <trkpt lat="45.66293" lon="5.74541">
        <ele>483.70424921997</ele>
        <time>2015-11-07T10:58:59Z</time>
      </trkpt>
      <trkpt lat="45.663" lon="5.74535">
        <ele>483.70424921997</ele>
        <time>2015-11-07T10:59:04Z</time>
      </trkpt>
      <trkpt lat="45.66316" lon="5.7451">
        <ele>485.70813193314</ele>
        <time>2015-11-07T10:59:15Z</time>
      </trkpt>
      <trkpt lat="45.66323" lon="5.745">
        <ele>487.78052380951</ele>
        <time>2015-11-07T10:59:20Z</time>
      </trkpt>
      <trkpt lat="45.66334" lon="5.74483">
        <ele>489.89143523684</ele>
        <time>2015-11-07T10:59:29Z</time>
      </trkpt>
      <trkpt lat="45.66339" lon="5.74474">
        <ele>489.89143523684</ele>
        <time>2015-11-07T10:59:34Z</time>
      </trkpt>
      <trkpt lat="45.66348" lon="5.74455">
        <ele>492.5031705945</ele>
        <time>2015-11-07T10:59:44Z</time>
      </trkpt>
      <trkpt lat="45.6635" lon="5.74444">
        <ele>492.5031705945</ele>
        <time>2015-11-07T10:59:49Z</time>
      </trkpt>
      <trkpt lat="45.66354" lon="5.74424">
        <ele>494.84678264629</ele>
        <time>2015-11-07T10:59:59Z</time>
      </trkpt>
      <trkpt lat="45.66357" lon="5.74416">
        <ele>494.84678264629</ele>
        <time>2015-11-07T11:00:04Z</time>
      </trkpt>
      <trkpt lat="45.66363" lon="5.74397">
        <ele>497.2484143731</ele>
        <time>2015-11-07T11:00:14Z</time>
      </trkpt>
      <trkpt lat="45.66366" lon="5.7439">
        <ele>497.2484143731</ele>
        <time>2015-11-07T11:00:19Z</time>
      </trkpt>
      <trkpt lat="45.66376" lon="5.74396">
        <ele>499.37626266365</ele>
        <time>2015-11-07T11:00:29Z</time>
      </trkpt>
      <trkpt lat="45.66382" lon="5.74405">
        <ele>501.2842190742</ele>
        <time>2015-11-07T11:00:35Z</time>
      </trkpt>
      <trkpt lat="45.66393" lon="5.74418">
        <ele>503.00870421876</ele>
        <time>2015-11-07T11:00:44Z</time>
      </trkpt>
      <trkpt lat="45.66397" lon="5.74424">
        <ele>503.00870421876</ele>
        <time>2015-11-07T11:00:49Z</time>
      </trkpt>
      <trkpt lat="45.66406" lon="5.74436">
        <ele>504.45456450268</ele>
        <time>2015-11-07T11:01:00Z</time>
      </trkpt>
      <trkpt lat="45.6641" lon="5.74444">
        <ele>504.45456450268</ele>
        <time>2015-11-07T11:01:05Z</time>
      </trkpt>
      <trkpt lat="45.66419" lon="5.74458">
        <ele>505.49147207501</ele>
        <time>2015-11-07T11:01:14Z</time>
      </trkpt>
      <trkpt lat="45.66423" lon="5.74465">
        <ele>505.49147207501</ele>
        <time>2015-11-07T11:01:19Z</time>
      </trkpt>
      <trkpt lat="45.6643" lon="5.74482">
        <ele>506.27391666591</ele>
        <time>2015-11-07T11:01:30Z</time>
      </trkpt>
      <trkpt lat="45.66432" lon="5.7449">
        <ele>506.27391666591</ele>
        <time>2015-11-07T11:01:34Z</time>
      </trkpt>
      <trkpt lat="45.66435" lon="5.74508">
        <ele>506.72986623252</ele>
        <time>2015-11-07T11:01:44Z</time>
      </trkpt>
      <trkpt lat="45.66435" lon="5.74518">
        <ele>506.72986623252</ele>
        <time>2015-11-07T11:01:50Z</time>
      </trkpt>
      <trkpt lat="45.66439" lon="5.74547">
        <ele>506.83700062783</ele>
        <time>2015-11-07T11:02:05Z</time>
      </trkpt>
      <trkpt lat="45.66442" lon="5.74554">
        <ele>506.83700062783</ele>
        <time>2015-11-07T11:02:09Z</time>
      </trkpt>
      <trkpt lat="45.66449" lon="5.74573">
        <ele>506.48941054686</ele>
        <time>2015-11-07T11:02:19Z</time>
      </trkpt>
      <trkpt lat="45.66451" lon="5.74584">
        <ele>506.48941054686</ele>
        <time>2015-11-07T11:02:25Z</time>
      </trkpt>
      <trkpt lat="45.66455" lon="5.74592">
        <ele>505.84988731582</ele>
        <time>2015-11-07T11:02:34Z</time>
      </trkpt>
      <trkpt lat="45.66456" lon="5.74597">
        <ele>505.84988731582</ele>
        <time>2015-11-07T11:02:39Z</time>
      </trkpt>
      <trkpt lat="45.66459" lon="5.746">
        <ele>505.84988731582</ele>
        <time>2015-11-07T11:02:49Z</time>
      </trkpt>
      <trkpt lat="45.66469" lon="5.74609">
        <ele>504.82532124458</ele>
        <time>2015-11-07T11:02:54Z</time>
      </trkpt>
      <trkpt lat="45.66488" lon="5.74624">
        <ele>503.66218642666</ele>
        <time>2015-11-07T11:03:04Z</time>
      </trkpt>
      <trkpt lat="45.66504" lon="5.74638">
        <ele>502.24356002217</ele>
        <time>2015-11-07T11:03:09Z</time>
      </trkpt>
      <trkpt lat="45.66512" lon="5.74659">
        <ele>501.5140027796</ele>
        <time>2015-11-07T11:03:25Z</time>
      </trkpt>
      <trkpt lat="45.66512" lon="5.74664">
        <ele>501.5140027796</ele>
        <time>2015-11-07T11:03:30Z</time>
      </trkpt>
      <trkpt lat="45.66514" lon="5.74672">
        <ele>500.67521202166</ele>
        <time>2015-11-07T11:03:40Z</time>
      </trkpt>
      <trkpt lat="45.66514" lon="5.74677">
        <ele>500.67521202166</ele>
        <time>2015-11-07T11:03:44Z</time>
      </trkpt>
      <trkpt lat="45.66513" lon="5.74694">
        <ele>499.83821769941</ele>
        <time>2015-11-07T11:03:54Z</time>
      </trkpt>
      <trkpt lat="45.66515" lon="5.747">
        <ele>499.83821769941</ele>
        <time>2015-11-07T11:03:59Z</time>
      </trkpt>
      <trkpt lat="45.66516" lon="5.74717">
        <ele>499.07717717262</ele>
        <time>2015-11-07T11:04:09Z</time>
      </trkpt>
      <trkpt lat="45.66515" lon="5.74727">
        <ele>499.07717717262</ele>
        <time>2015-11-07T11:04:14Z</time>
      </trkpt>
      <trkpt lat="45.6651" lon="5.74757">
        <ele>497.27896984194</ele>
        <time>2015-11-07T11:04:24Z</time>
      </trkpt>
      <trkpt lat="45.66509" lon="5.74764">
        <ele>497.27896984194</ele>
        <time>2015-11-07T11:04:29Z</time>
      </trkpt>
      <trkpt lat="45.66509" lon="5.74777">
        <ele>495.43278729691</ele>
        <time>2015-11-07T11:04:39Z</time>
      </trkpt>
      <trkpt lat="45.66509" lon="5.74781">
        <ele>495.43278729691</ele>
        <time>2015-11-07T11:04:44Z</time>
      </trkpt>
      <trkpt lat="45.66509" lon="5.74792">
        <ele>492.84130293911</ele>
        <time>2015-11-07T11:04:54Z</time>
      </trkpt>
      <trkpt lat="45.6651" lon="5.748">
        <ele>492.84130293911</ele>
        <time>2015-11-07T11:04:59Z</time>
      </trkpt>
      <trkpt lat="45.66509" lon="5.74829">
        <ele>490.47458819625</ele>
        <time>2015-11-07T11:05:10Z</time>
      </trkpt>
      <trkpt lat="45.66511" lon="5.74838">
        <ele>490.47458819625</ele>
        <time>2015-11-07T11:05:15Z</time>
      </trkpt>
      <trkpt lat="45.66521" lon="5.74869">
        <ele>487.29974698293</ele>
        <time>2015-11-07T11:05:29Z</time>
      </trkpt>
      <trkpt lat="45.66525" lon="5.74879">
        <ele>487.29974698293</ele>
        <time>2015-11-07T11:05:34Z</time>
      </trkpt>
      <trkpt lat="45.66528" lon="5.749">
        <ele>484.58132862924</ele>
        <time>2015-11-07T11:05:45Z</time>
      </trkpt>
      <trkpt lat="45.66529" lon="5.7491">
        <ele>484.58132862924</ele>
        <time>2015-11-07T11:05:50Z</time>
      </trkpt>
      <trkpt lat="45.6653" lon="5.7493">
        <ele>481.83239813654</ele>
        <time>2015-11-07T11:06:00Z</time>
      </trkpt>
      <trkpt lat="45.66531" lon="5.74952">
        <ele>479.36561176941</ele>
        <time>2015-11-07T11:06:04Z</time>
      </trkpt>
      <trkpt lat="45.66534" lon="5.74977">
        <ele>476.86452719793</ele>
        <time>2015-11-07T11:06:14Z</time>
      </trkpt>
      <trkpt lat="45.66536" lon="5.74986">
        <ele>476.86452719793</ele>
        <time>2015-11-07T11:06:19Z</time>
      </trkpt>
      <trkpt lat="45.66542" lon="5.75006">
        <ele>474.814156004</ele>
        <time>2015-11-07T11:06:30Z</time>
      </trkpt>
      <trkpt lat="45.66548" lon="5.75015">
        <ele>474.814156004</ele>
        <time>2015-11-07T11:06:35Z</time>
      </trkpt>
      <trkpt lat="45.66559" lon="5.75032">
        <ele>472.58168127708</ele>
        <time>2015-11-07T11:06:44Z</time>
      </trkpt>
      <trkpt lat="45.66564" lon="5.75041">
        <ele>472.58168127708</ele>
        <time>2015-11-07T11:06:50Z</time>
      </trkpt>
      <trkpt lat="45.66571" lon="5.7506">
        <ele>470.9790499419</ele>
        <time>2015-11-07T11:06:59Z</time>
      </trkpt>
      <trkpt lat="45.66575" lon="5.75068">
        <ele>470.9790499419</ele>
        <time>2015-11-07T11:07:04Z</time>
      </trkpt>
      <trkpt lat="45.66584" lon="5.75081">
        <ele>469.4164438359</ele>
        <time>2015-11-07T11:07:14Z</time>
      </trkpt>
      <trkpt lat="45.66588" lon="5.75088">
        <ele>469.4164438359</ele>
        <time>2015-11-07T11:07:19Z</time>
      </trkpt>
      <trkpt lat="45.66595" lon="5.75099">
        <ele>468.11092566621</ele>
        <time>2015-11-07T11:07:30Z</time>
      </trkpt>
      <trkpt lat="45.66595" lon="5.75102">
        <ele>468.11092566621</ele>
        <time>2015-11-07T11:07:34Z</time>
      </trkpt>
      <trkpt lat="45.66597" lon="5.75103">
        <ele>468.11092566621</ele>
        <time>2015-11-07T11:07:49Z</time>
      </trkpt>
      <trkpt lat="45.66597" lon="5.75102">
        <ele>468.11092566621</ele>
        <time>2015-11-07T11:07:54Z</time>
      </trkpt>
      <trkpt lat="45.66597" lon="5.75101">
        <ele>468.11092566621</ele>
        <time>2015-11-07T11:08:04Z</time>
      </trkpt>
      <trkpt lat="45.66598" lon="5.751">
        <ele>468.11092566621</ele>
        <time>2015-11-07T11:08:10Z</time>
      </trkpt>
      <trkpt lat="45.666" lon="5.75099">
        <ele>468.11092566621</ele>
        <time>2015-11-07T11:08:20Z</time>
      </trkpt>
      <trkpt lat="45.666" lon="5.75099">
        <ele>468.11092566621</ele>
        <time>2015-11-07T11:08:25Z</time>
      </trkpt>
      <trkpt lat="45.666" lon="5.75099">
        <ele>468.11092566621</ele>
        <time>2015-11-07T11:08:34Z</time>
      </trkpt>
      <trkpt lat="45.666" lon="5.75099">
        <ele>468.11092566621</ele>
        <time>2015-11-07T11:08:39Z</time>
      </trkpt>
      <trkpt lat="45.66602" lon="5.75104">
        <ele>466.75837637101</ele>
        <time>2015-11-07T11:08:49Z</time>
      </trkpt>
      <trkpt lat="45.66604" lon="5.75113">
        <ele>466.75837637101</ele>
        <time>2015-11-07T11:08:55Z</time>
      </trkpt>
      <trkpt lat="45.66612" lon="5.75128">
        <ele>465.91286821577</ele>
        <time>2015-11-07T11:09:04Z</time>
      </trkpt>
      <trkpt lat="45.66617" lon="5.75134">
        <ele>465.91286821577</ele>
        <time>2015-11-07T11:09:10Z</time>
      </trkpt>
      <trkpt lat="45.66625" lon="5.75148">
        <ele>465.01980264439</ele>
        <time>2015-11-07T11:09:19Z</time>
      </trkpt>
      <trkpt lat="45.66629" lon="5.75154">
        <ele>465.01980264439</ele>
        <time>2015-11-07T11:09:24Z</time>
      </trkpt>
      <trkpt lat="45.66638" lon="5.75166">
        <ele>463.85355617589</ele>
        <time>2015-11-07T11:09:34Z</time>
      </trkpt>
      <trkpt lat="45.66643" lon="5.75172">
        <ele>463.85355617589</ele>
        <time>2015-11-07T11:09:39Z</time>
      </trkpt>
      <trkpt lat="45.66658" lon="5.75193">
        <ele>462.81099525745</ele>
        <time>2015-11-07T11:09:54Z</time>
      </trkpt>
      <trkpt lat="45.66663" lon="5.752">
        <ele>462.81099525745</ele>
        <time>2015-11-07T11:09:59Z</time>
      </trkpt>
      <trkpt lat="45.6667" lon="5.75212">
        <ele>461.74057198162</ele>
        <time>2015-11-07T11:10:09Z</time>
      </trkpt>
      <trkpt lat="45.66676" lon="5.75218">
        <ele>461.74057198162</ele>
        <time>2015-11-07T11:10:15Z</time>
      </trkpt>
      <trkpt lat="45.66688" lon="5.75232">
        <ele>459.9253932004</ele>
        <time>2015-11-07T11:10:24Z</time>
      </trkpt>
      <trkpt lat="45.66693" lon="5.75238">
        <ele>459.9253932004</ele>
        <time>2015-11-07T11:10:29Z</time>
      </trkpt>
      <trkpt lat="45.66704" lon="5.75247">
        <ele>458.01461889875</ele>
        <time>2015-11-07T11:10:40Z</time>
      </trkpt>
      <trkpt lat="45.66708" lon="5.75251">
        <ele>458.01461889875</ele>
        <time>2015-11-07T11:10:44Z</time>
      </trkpt>
      <trkpt lat="45.66711" lon="5.75265">
        <ele>455.97579044945</ele>
        <time>2015-11-07T11:10:54Z</time>
      </trkpt>
      <trkpt lat="45.66704" lon="5.75272">
        <ele>455.97579044945</ele>
        <time>2015-11-07T11:10:59Z</time>
      </trkpt>
      <trkpt lat="45.66685" lon="5.75281">
        <ele>454.88873776832</ele>
        <time>2015-11-07T11:11:09Z</time>
      </trkpt>
      <trkpt lat="45.66679" lon="5.75282">
        <ele>454.88873776832</ele>
        <time>2015-11-07T11:11:14Z</time>
      </trkpt>
      <trkpt lat="45.66666" lon="5.75281">
        <ele>453.90656313231</ele>
        <time>2015-11-07T11:11:25Z</time>
      </trkpt>
      <trkpt lat="45.66661" lon="5.7528">
        <ele>453.90656313231</ele>
        <time>2015-11-07T11:11:30Z</time>
      </trkpt>
      <trkpt lat="45.66648" lon="5.75279">
        <ele>453.19531244127</ele>
        <time>2015-11-07T11:11:40Z</time>
      </trkpt>
      <trkpt lat="45.6664" lon="5.75279">
        <ele>453.19531244127</ele>
        <time>2015-11-07T11:11:45Z</time>
      </trkpt>
      <trkpt lat="45.66622" lon="5.7528">
        <ele>452.02889155065</ele>
        <time>2015-11-07T11:11:59Z</time>
      </trkpt>
      <trkpt lat="45.66619" lon="5.7528">
        <ele>452.02889155065</ele>
        <time>2015-11-07T11:12:04Z</time>
      </trkpt>
      <trkpt lat="45.66595" lon="5.75273">
        <ele>451.14801294943</ele>
        <time>2015-11-07T11:12:15Z</time>
      </trkpt>
      <trkpt lat="45.66588" lon="5.75271">
        <ele>451.14801294943</ele>
        <time>2015-11-07T11:12:20Z</time>
      </trkpt>
      <trkpt lat="45.66575" lon="5.75271">
        <ele>450.24371666545</ele>
        <time>2015-11-07T11:12:29Z</time>
      </trkpt>
      <trkpt lat="45.66568" lon="5.75273">
        <ele>450.24371666545</ele>
        <time>2015-11-07T11:12:34Z</time>
      </trkpt>
      <trkpt lat="45.66555" lon="5.75278">
        <ele>449.04412885317</ele>
        <time>2015-11-07T11:12:45Z</time>
      </trkpt>
      <trkpt lat="45.6655" lon="5.75282">
        <ele>449.04412885317</ele>
        <time>2015-11-07T11:12:49Z</time>
      </trkpt>
      <trkpt lat="45.66539" lon="5.75291">
        <ele>447.87453849175</ele>
        <time>2015-11-07T11:12:59Z</time>
      </trkpt>
      <trkpt lat="45.66534" lon="5.75292">
        <ele>447.87453849175</ele>
        <time>2015-11-07T11:13:05Z</time>
      </trkpt>
      <trkpt lat="45.66525" lon="5.75301">
        <ele>446.56061030116</ele>
        <time>2015-11-07T11:13:14Z</time>
      </trkpt>
      <trkpt lat="45.66522" lon="5.7531">
        <ele>446.56061030116</ele>
        <time>2015-11-07T11:13:19Z</time>
      </trkpt>
      <trkpt lat="45.66515" lon="5.75329">
        <ele>445.21495727552</ele>
        <time>2015-11-07T11:13:30Z</time>
      </trkpt>
      <trkpt lat="45.66511" lon="5.75339">
        <ele>445.21495727552</ele>
        <time>2015-11-07T11:13:34Z</time>
      </trkpt>
      <trkpt lat="45.66488" lon="5.75394">
        <ele>443.92752608089</ele>
        <time>2015-11-07T11:13:44Z</time>
      </trkpt>
      <trkpt lat="45.66473" lon="5.7543">
        <ele>442.81024590176</ele>
        <time>2015-11-07T11:13:49Z</time>
      </trkpt>
      <trkpt lat="45.66445" lon="5.75467">
        <ele>441.90863615348</ele>
        <time>2015-11-07T11:14:05Z</time>
      </trkpt>
      <trkpt lat="45.66439" lon="5.75466">
        <ele>441.90863615348</ele>
        <time>2015-11-07T11:14:09Z</time>
      </trkpt>
      <trkpt lat="45.66429" lon="5.75458">
        <ele>441.26420601788</ele>
        <time>2015-11-07T11:14:20Z</time>
      </trkpt>
      <trkpt lat="45.66424" lon="5.75455">
        <ele>441.26420601788</ele>
        <time>2015-11-07T11:14:24Z</time>
      </trkpt>
      <trkpt lat="45.66412" lon="5.75447">
        <ele>440.22290370126</ele>
        <time>2015-11-07T11:14:34Z</time>
      </trkpt>
      <trkpt lat="45.66406" lon="5.75443">
        <ele>440.22290370126</ele>
        <time>2015-11-07T11:14:39Z</time>
      </trkpt>
      <trkpt lat="45.66394" lon="5.75434">
        <ele>438.94357429411</ele>
        <time>2015-11-07T11:14:49Z</time>
      </trkpt>
      <trkpt lat="45.66388" lon="5.7543">
        <ele>438.94357429411</ele>
        <time>2015-11-07T11:14:54Z</time>
      </trkpt>
      <trkpt lat="45.66372" lon="5.75421">
        <ele>437.63165869647</ele>
        <time>2015-11-07T11:15:04Z</time>
      </trkpt>
      <trkpt lat="45.66365" lon="5.75417">
        <ele>437.63165869647</ele>
        <time>2015-11-07T11:15:09Z</time>
      </trkpt>
      <trkpt lat="45.66352" lon="5.7541">
        <ele>436.20374153683</ele>
        <time>2015-11-07T11:15:19Z</time>
      </trkpt>
      <trkpt lat="45.66346" lon="5.75409">
        <ele>436.20374153683</ele>
        <time>2015-11-07T11:15:24Z</time>
      </trkpt>
      <trkpt lat="45.66331" lon="5.75404">
        <ele>434.75575047928</ele>
        <time>2015-11-07T11:15:34Z</time>
      </trkpt>
      <trkpt lat="45.66324" lon="5.75403">
        <ele>434.75575047928</ele>
        <time>2015-11-07T11:15:39Z</time>
      </trkpt>
      <trkpt lat="45.66303" lon="5.75403">
        <ele>433.01630170068</ele>
        <time>2015-11-07T11:15:54Z</time>
      </trkpt>
      <trkpt lat="45.66296" lon="5.75403">
        <ele>433.01630170068</ele>
        <time>2015-11-07T11:16:00Z</time>
      </trkpt>
      <trkpt lat="45.66282" lon="5.75403">
        <ele>431.3976329105</ele>
        <time>2015-11-07T11:16:09Z</time>
      </trkpt>
      <trkpt lat="45.66275" lon="5.75406">
        <ele>431.3976329105</ele>
        <time>2015-11-07T11:16:14Z</time>
      </trkpt>
      <trkpt lat="45.66262" lon="5.75414">
        <ele>430.0795614299</ele>
        <time>2015-11-07T11:16:24Z</time>
      </trkpt>
      <trkpt lat="45.6626" lon="5.75418">
        <ele>430.0795614299</ele>
        <time>2015-11-07T11:16:29Z</time>
      </trkpt>
      <trkpt lat="45.66263" lon="5.7542">
        <ele>430.0795614299</ele>
        <time>2015-11-07T11:16:39Z</time>
      </trkpt>
      <trkpt lat="45.66263" lon="5.7543">
        <ele>429.05487609934</ele>
        <time>2015-11-07T11:16:44Z</time>
      </trkpt>
      <trkpt lat="45.6627" lon="5.75447">
        <ele>427.73958632449</ele>
        <time>2015-11-07T11:16:54Z</time>
      </trkpt>
      <trkpt lat="45.66275" lon="5.75453">
        <ele>427.73958632449</ele>
        <time>2015-11-07T11:16:59Z</time>
      </trkpt>
      <trkpt lat="45.66281" lon="5.7547">
        <ele>425.93924294326</ele>
        <time>2015-11-07T11:17:09Z</time>
      </trkpt>
      <trkpt lat="45.66281" lon="5.75473">
        <ele>425.93924294326</ele>
        <time>2015-11-07T11:17:15Z</time>
      </trkpt>
      <trkpt lat="45.66281" lon="5.75474">
        <ele>425.93924294326</ele>
        <time>2015-11-07T11:17:24Z</time>
      </trkpt>
      <trkpt lat="45.66281" lon="5.75475">
        <ele>425.93924294326</ele>
        <time>2015-11-07T11:17:30Z</time>
      </trkpt>
      <trkpt lat="45.66281" lon="5.75476">
        <ele>425.93924294326</ele>
        <time>2015-11-07T11:17:39Z</time>
      </trkpt>
      <trkpt lat="45.66281" lon="5.75477">
        <ele>425.93924294326</ele>
        <time>2015-11-07T11:17:45Z</time>
      </trkpt>
      <trkpt lat="45.66287" lon="5.755">
        <ele>423.56146815228</ele>
        <time>2015-11-07T11:18:00Z</time>
      </trkpt>
      <trkpt lat="45.66289" lon="5.75507">
        <ele>423.56146815228</ele>
        <time>2015-11-07T11:18:04Z</time>
      </trkpt>
      <trkpt lat="45.66296" lon="5.75515">
        <ele>421.1995705523</ele>
        <time>2015-11-07T11:18:15Z</time>
      </trkpt>
      <trkpt lat="45.66299" lon="5.7552">
        <ele>421.1995705523</ele>
        <time>2015-11-07T11:18:19Z</time>
      </trkpt>
      <trkpt lat="45.66297" lon="5.75536">
        <ele>417.65943692865</ele>
        <time>2015-11-07T11:18:29Z</time>
      </trkpt>
      <trkpt lat="45.663" lon="5.75541">
        <ele>417.65943692865</ele>
        <time>2015-11-07T11:18:34Z</time>
      </trkpt>
      <trkpt lat="45.66301" lon="5.75544">
        <ele>417.65943692865</ele>
        <time>2015-11-07T11:18:45Z</time>
      </trkpt>
      <trkpt lat="45.66302" lon="5.75544">
        <ele>417.65943692865</ele>
        <time>2015-11-07T11:18:49Z</time>
      </trkpt>
      <trkpt lat="45.66302" lon="5.75545">
        <ele>417.65943692865</ele>
        <time>2015-11-07T11:18:59Z</time>
      </trkpt>
      <trkpt lat="45.66303" lon="5.75547">
        <ele>414.82102368457</ele>
        <time>2015-11-07T11:19:04Z</time>
      </trkpt>
      <trkpt lat="45.66307" lon="5.7556">
        <ele>412.33454210326</ele>
        <time>2015-11-07T11:19:15Z</time>
      </trkpt>
      <trkpt lat="45.66311" lon="5.75566">
        <ele>412.33454210326</ele>
        <time>2015-11-07T11:19:19Z</time>
      </trkpt>
      <trkpt lat="45.66319" lon="5.75593">
        <ele>410.07659525252</ele>
        <time>2015-11-07T11:19:34Z</time>
      </trkpt>
      <trkpt lat="45.66321" lon="5.75599">
        <ele>410.07659525252</ele>
        <time>2015-11-07T11:19:40Z</time>
      </trkpt>
      <trkpt lat="45.6633" lon="5.75606">
        <ele>407.06746356581</ele>
        <time>2015-11-07T11:19:49Z</time>
      </trkpt>
      <trkpt lat="45.66334" lon="5.75612">
        <ele>407.06746356581</ele>
        <time>2015-11-07T11:19:54Z</time>
      </trkpt>
      <trkpt lat="45.66343" lon="5.75622">
        <ele>404.20280960626</ele>
        <time>2015-11-07T11:20:05Z</time>
      </trkpt>
      <trkpt lat="45.66349" lon="5.75629">
        <ele>404.20280960626</ele>
        <time>2015-11-07T11:20:09Z</time>
      </trkpt>
      <trkpt lat="45.66358" lon="5.75646">
        <ele>401.02941655598</ele>
        <time>2015-11-07T11:20:19Z</time>
      </trkpt>
      <trkpt lat="45.6637" lon="5.75656">
        <ele>398.10808716688</ele>
        <time>2015-11-07T11:20:24Z</time>
      </trkpt>
      <trkpt lat="45.66378" lon="5.75663">
        <ele>395.92879842083</ele>
        <time>2015-11-07T11:20:34Z</time>
      </trkpt>
      <trkpt lat="45.66383" lon="5.75666">
        <ele>395.92879842083</ele>
        <time>2015-11-07T11:20:39Z</time>
      </trkpt>
      <trkpt lat="45.66393" lon="5.75675">
        <ele>393.73281530381</ele>
        <time>2015-11-07T11:20:49Z</time>
      </trkpt>
      <trkpt lat="45.66401" lon="5.75681">
        <ele>393.73281530381</ele>
        <time>2015-11-07T11:20:54Z</time>
      </trkpt>
      <trkpt lat="45.66414" lon="5.75692">
        <ele>390.99001435265</ele>
        <time>2015-11-07T11:21:05Z</time>
      </trkpt>
      <trkpt lat="45.66421" lon="5.75698">
        <ele>390.99001435265</ele>
        <time>2015-11-07T11:21:10Z</time>
      </trkpt>
      <trkpt lat="45.66433" lon="5.75711">
        <ele>388.49323327768</ele>
        <time>2015-11-07T11:21:19Z</time>
      </trkpt>
      <trkpt lat="45.66437" lon="5.75713">
        <ele>388.49323327768</ele>
        <time>2015-11-07T11:21:24Z</time>
      </trkpt>
      <trkpt lat="45.66466" lon="5.7574">
        <ele>386.21248532273</ele>
        <time>2015-11-07T11:21:34Z</time>
      </trkpt>
      <trkpt lat="45.66471" lon="5.75736">
        <ele>386.21248532273</ele>
        <time>2015-11-07T11:21:39Z</time>
      </trkpt>
      <trkpt lat="45.66495" lon="5.75745">
        <ele>384.47955657757</ele>
        <time>2015-11-07T11:21:54Z</time>
      </trkpt>
      <trkpt lat="45.66508" lon="5.75754">
        <ele>382.79320221305</ele>
        <time>2015-11-07T11:21:59Z</time>
      </trkpt>
      <trkpt lat="45.6652" lon="5.75763">
        <ele>381.03464087093</ele>
        <time>2015-11-07T11:22:09Z</time>
      </trkpt>
      <trkpt lat="45.66525" lon="5.75769">
        <ele>381.03464087093</ele>
        <time>2015-11-07T11:22:14Z</time>
      </trkpt>
      <trkpt lat="45.66529" lon="5.75778">
        <ele>379.62714371268</ele>
        <time>2015-11-07T11:22:24Z</time>
      </trkpt>
      <trkpt lat="45.6653" lon="5.75778">
        <ele>379.62714371268</ele>
        <time>2015-11-07T11:22:29Z</time>
      </trkpt>
      <trkpt lat="45.6653" lon="5.75778">
        <ele>379.62714371268</ele>
        <time>2015-11-07T11:22:40Z</time>
      </trkpt>
      <trkpt lat="45.6653" lon="5.75778">
        <ele>379.62714371268</ele>
        <time>2015-11-07T11:22:44Z</time>
      </trkpt>
      <trkpt lat="45.6653" lon="5.75779">
        <ele>379.62714371268</ele>
        <time>2015-11-07T11:22:55Z</time>
      </trkpt>
      <trkpt lat="45.66531" lon="5.75779">
        <ele>379.62714371268</ele>
        <time>2015-11-07T11:22:59Z</time>
      </trkpt>
      <trkpt lat="45.66531" lon="5.75779">
        <ele>379.62714371268</ele>
        <time>2015-11-07T11:23:09Z</time>
      </trkpt>
      <trkpt lat="45.66533" lon="5.75781">
        <ele>379.62714371268</ele>
        <time>2015-11-07T11:23:15Z</time>
      </trkpt>
      <trkpt lat="45.66535" lon="5.75796">
        <ele>378.7168364819</ele>
        <time>2015-11-07T11:23:24Z</time>
      </trkpt>
      <trkpt lat="45.66533" lon="5.75805">
        <ele>378.7168364819</ele>
        <time>2015-11-07T11:23:29Z</time>
      </trkpt>
      <trkpt lat="45.66537" lon="5.75825">
        <ele>378.16383641568</ele>
        <time>2015-11-07T11:23:40Z</time>
      </trkpt>
      <trkpt lat="45.6654" lon="5.75832">
        <ele>378.16383641568</ele>
        <time>2015-11-07T11:23:44Z</time>
      </trkpt>
      <trkpt lat="45.6655" lon="5.7585">
        <ele>377.23221000134</ele>
        <time>2015-11-07T11:23:59Z</time>
      </trkpt>
      <trkpt lat="45.66553" lon="5.75857">
        <ele>377.23221000134</ele>
        <time>2015-11-07T11:24:04Z</time>
      </trkpt>
      <trkpt lat="45.66561" lon="5.75871">
        <ele>376.36516917426</ele>
        <time>2015-11-07T11:24:14Z</time>
      </trkpt>
      <trkpt lat="45.66564" lon="5.7588">
        <ele>376.36516917426</ele>
        <time>2015-11-07T11:24:20Z</time>
      </trkpt>
      <trkpt lat="45.66569" lon="5.75901">
        <ele>375.64169817058</ele>
        <time>2015-11-07T11:24:29Z</time>
      </trkpt>
      <trkpt lat="45.6657" lon="5.75912">
        <ele>375.64169817058</ele>
        <time>2015-11-07T11:24:34Z</time>
      </trkpt>
      <trkpt lat="45.66569" lon="5.75925">
        <ele>374.74545466177</ele>
        <time>2015-11-07T11:24:45Z</time>
      </trkpt>
      <trkpt lat="45.6657" lon="5.75926">
        <ele>374.74545466177</ele>
        <time>2015-11-07T11:24:49Z</time>
      </trkpt>
      <trkpt lat="45.66567" lon="5.75947">
        <ele>374.57993185721</ele>
        <time>2015-11-07T11:25:00Z</time>
      </trkpt>
      <trkpt lat="45.66566" lon="5.75959">
        <ele>374.57993185721</ele>
        <time>2015-11-07T11:25:04Z</time>
      </trkpt>
      <trkpt lat="45.66563" lon="5.75991">
        <ele>374.09234755655</ele>
        <time>2015-11-07T11:25:19Z</time>
      </trkpt>
      <trkpt lat="45.66561" lon="5.76">
        <ele>374.09234755655</ele>
        <time>2015-11-07T11:25:24Z</time>
      </trkpt>
      <trkpt lat="45.66561" lon="5.7602">
        <ele>373.36018279154</ele>
        <time>2015-11-07T11:25:34Z</time>
      </trkpt>
      <trkpt lat="45.66563" lon="5.7603">
        <ele>373.36018279154</ele>
        <time>2015-11-07T11:25:39Z</time>
      </trkpt>
      <trkpt lat="45.66575" lon="5.7604">
        <ele>372.4271119221</ele>
        <time>2015-11-07T11:25:49Z</time>
      </trkpt>
      <trkpt lat="45.66581" lon="5.76043">
        <ele>372.4271119221</ele>
        <time>2015-11-07T11:25:54Z</time>
      </trkpt>
      <trkpt lat="45.66592" lon="5.76049">
        <ele>371.13243795751</ele>
        <time>2015-11-07T11:26:04Z</time>
      </trkpt>
      <trkpt lat="45.66594" lon="5.76049">
        <ele>371.13243795751</ele>
        <time>2015-11-07T11:26:09Z</time>
      </trkpt>
      <trkpt lat="45.66594" lon="5.76049">
        <ele>371.13243795751</ele>
        <time>2015-11-07T11:26:20Z</time>
      </trkpt>
      <trkpt lat="45.66594" lon="5.76049">
        <ele>371.13243795751</ele>
        <time>2015-11-07T11:26:24Z</time>
      </trkpt>
      <trkpt lat="45.66594" lon="5.76049">
        <ele>371.13243795751</ele>
        <time>2015-11-07T11:26:34Z</time>
      </trkpt>
      <trkpt lat="45.66594" lon="5.76049">
        <ele>371.13243795751</ele>
        <time>2015-11-07T11:26:40Z</time>
      </trkpt>
      <trkpt lat="45.66594" lon="5.7605">
        <ele>371.13243795751</ele>
        <time>2015-11-07T11:26:49Z</time>
      </trkpt>
      <trkpt lat="45.66595" lon="5.7605">
        <ele>371.13243795751</ele>
        <time>2015-11-07T11:26:55Z</time>
      </trkpt>
      <trkpt lat="45.66595" lon="5.7605">
        <ele>371.13243795751</ele>
        <time>2015-11-07T11:27:10Z</time>
      </trkpt>
      <trkpt lat="45.66596" lon="5.7605">
        <ele>371.13243795751</ele>
        <time>2015-11-07T11:27:15Z</time>
      </trkpt>
      <trkpt lat="45.666" lon="5.76053">
        <ele>370.5532634651</ele>
        <time>2015-11-07T11:27:24Z</time>
      </trkpt>
      <trkpt lat="45.666" lon="5.76052">
        <ele>370.5532634651</ele>
        <time>2015-11-07T11:27:29Z</time>
      </trkpt>
      <trkpt lat="45.66601" lon="5.76051">
        <ele>370.5532634651</ele>
        <time>2015-11-07T11:27:40Z</time>
      </trkpt>
      <trkpt lat="45.66601" lon="5.76051">
        <ele>370.5532634651</ele>
        <time>2015-11-07T11:27:44Z</time>
      </trkpt>
      <trkpt lat="45.66601" lon="5.76051">
        <ele>370.5532634651</ele>
        <time>2015-11-07T11:27:54Z</time>
      </trkpt>
      <trkpt lat="45.66601" lon="5.76051">
        <ele>370.5532634651</ele>
        <time>2015-11-07T11:27:59Z</time>
      </trkpt>
      <trkpt lat="45.666" lon="5.76051">
        <ele>370.5532634651</ele>
        <time>2015-11-07T11:28:09Z</time>
      </trkpt>
      <trkpt lat="45.666" lon="5.76051">
        <ele>370.5532634651</ele>
        <time>2015-11-07T11:28:14Z</time>
      </trkpt>
      <trkpt lat="45.666" lon="5.76051">
        <ele>370.5532634651</ele>
        <time>2015-11-07T11:28:24Z</time>
      </trkpt>
      <trkpt lat="45.666" lon="5.76051">
        <ele>370.5532634651</ele>
        <time>2015-11-07T11:28:29Z</time>
      </trkpt>
      <trkpt lat="45.666" lon="5.76051">
        <ele>370.5532634651</ele>
        <time>2015-11-07T11:28:39Z</time>
      </trkpt>
      <trkpt lat="45.666" lon="5.76051">
        <ele>370.5532634651</ele>
        <time>2015-11-07T11:28:44Z</time>
      </trkpt>
      <trkpt lat="45.66597" lon="5.76048">
        <ele>370.5532634651</ele>
        <time>2015-11-07T11:28:59Z</time>
      </trkpt>
      <trkpt lat="45.66595" lon="5.76049">
        <ele>370.5532634651</ele>
        <time>2015-11-07T11:29:04Z</time>
      </trkpt>
      <trkpt lat="45.66597" lon="5.76049">
        <ele>370.5532634651</ele>
        <time>2015-11-07T11:29:14Z</time>
      </trkpt>
      <trkpt lat="45.66596" lon="5.76049">
        <ele>370.5532634651</ele>
        <time>2015-11-07T11:29:19Z</time>
      </trkpt>
      <trkpt lat="45.66596" lon="5.7605">
        <ele>369.68245574927</ele>
        <time>2015-11-07T11:29:29Z</time>
      </trkpt>
      <trkpt lat="45.66597" lon="5.76049">
        <ele>369.68245574927</ele>
        <time>2015-11-07T11:29:34Z</time>
      </trkpt>
      <trkpt lat="45.66598" lon="5.76049">
        <ele>369.68245574927</ele>
        <time>2015-11-07T11:29:45Z</time>
      </trkpt>
      <trkpt lat="45.66598" lon="5.76048">
        <ele>369.68245574927</ele>
        <time>2015-11-07T11:29:49Z</time>
      </trkpt>
      <trkpt lat="45.66597" lon="5.76049">
        <ele>369.68245574927</ele>
        <time>2015-11-07T11:30:00Z</time>
      </trkpt>
      <trkpt lat="45.66597" lon="5.76049">
        <ele>369.68245574927</ele>
        <time>2015-11-07T11:30:04Z</time>
      </trkpt>
      <trkpt lat="45.66598" lon="5.7605">
        <ele>369.68245574927</ele>
        <time>2015-11-07T11:30:15Z</time>
      </trkpt>
      <trkpt lat="45.66598" lon="5.7605">
        <ele>369.68245574927</ele>
        <time>2015-11-07T11:30:19Z</time>
      </trkpt>
      <trkpt lat="45.66599" lon="5.76052">
        <ele>369.68245574927</ele>
        <time>2015-11-07T11:30:30Z</time>
      </trkpt>
      <trkpt lat="45.66603" lon="5.76055">
        <ele>368.82708464228</ele>
        <time>2015-11-07T11:30:34Z</time>
      </trkpt>
      <trkpt lat="45.6662" lon="5.76062">
        <ele>368.08432460101</ele>
        <time>2015-11-07T11:30:49Z</time>
      </trkpt>
      <trkpt lat="45.66626" lon="5.7606">
        <ele>368.08432460101</ele>
        <time>2015-11-07T11:30:54Z</time>
      </trkpt>
      <trkpt lat="45.66639" lon="5.76061">
        <ele>367.21249418739</ele>
        <time>2015-11-07T11:31:04Z</time>
      </trkpt>
      <trkpt lat="45.66643" lon="5.76059">
        <ele>367.21249418739</ele>
        <time>2015-11-07T11:31:10Z</time>
      </trkpt>
      <trkpt lat="45.66651" lon="5.76057">
        <ele>366.98245370724</ele>
        <time>2015-11-07T11:31:19Z</time>
      </trkpt>
      <trkpt lat="45.66655" lon="5.76054">
        <ele>366.98245370724</ele>
        <time>2015-11-07T11:31:24Z</time>
      </trkpt>
      <trkpt lat="45.66669" lon="5.76061">
        <ele>366.63676591398</ele>
        <time>2015-11-07T11:31:34Z</time>
      </trkpt>
      <trkpt lat="45.66675" lon="5.76069">
        <ele>366.63676591398</ele>
        <time>2015-11-07T11:31:39Z</time>
      </trkpt>
      <trkpt lat="45.66678" lon="5.76089">
        <ele>366.180172465</ele>
        <time>2015-11-07T11:31:50Z</time>
      </trkpt>
      <trkpt lat="45.66677" lon="5.76097">
        <ele>366.180172465</ele>
        <time>2015-11-07T11:31:54Z</time>
      </trkpt>
      <trkpt lat="45.66673" lon="5.76113">
        <ele>365.66068521257</ele>
        <time>2015-11-07T11:32:04Z</time>
      </trkpt>
      <trkpt lat="45.66674" lon="5.76121">
        <ele>365.66068521257</ele>
        <time>2015-11-07T11:32:09Z</time>
      </trkpt>
      <trkpt lat="45.66678" lon="5.7614">
        <ele>364.87805500588</ele>
        <time>2015-11-07T11:32:25Z</time>
      </trkpt>
      <trkpt lat="45.66681" lon="5.76149">
        <ele>364.87805500588</ele>
        <time>2015-11-07T11:32:29Z</time>
      </trkpt>
      <trkpt lat="45.6669" lon="5.76161">
        <ele>363.15758293265</ele>
        <time>2015-11-07T11:32:40Z</time>
      </trkpt>
      <trkpt lat="45.66696" lon="5.76165">
        <ele>363.15758293265</ele>
        <time>2015-11-07T11:32:44Z</time>
      </trkpt>
      <trkpt lat="45.66707" lon="5.76177">
        <ele>361.89439988016</ele>
        <time>2015-11-07T11:32:54Z</time>
      </trkpt>
      <trkpt lat="45.66714" lon="5.76182">
        <ele>361.89439988016</ele>
        <time>2015-11-07T11:32:59Z</time>
      </trkpt>
      <trkpt lat="45.66726" lon="5.76193">
        <ele>360.44885560916</ele>
        <time>2015-11-07T11:33:09Z</time>
      </trkpt>
      <trkpt lat="45.66732" lon="5.76198">
        <ele>360.44885560916</ele>
        <time>2015-11-07T11:33:14Z</time>
      </trkpt>
      <trkpt lat="45.6674" lon="5.76209">
        <ele>358.64679409615</ele>
        <time>2015-11-07T11:33:24Z</time>
      </trkpt>
      <trkpt lat="45.66747" lon="5.76213">
        <ele>358.64679409615</ele>
        <time>2015-11-07T11:33:29Z</time>
      </trkpt>
      <trkpt lat="45.6676" lon="5.76226">
        <ele>356.78907444993</ele>
        <time>2015-11-07T11:33:39Z</time>
      </trkpt>
      <trkpt lat="45.66768" lon="5.76229">
        <ele>356.78907444993</ele>
        <time>2015-11-07T11:33:44Z</time>
      </trkpt>
      <trkpt lat="45.66781" lon="5.76228">
        <ele>354.41970266034</ele>
        <time>2015-11-07T11:33:54Z</time>
      </trkpt>
      <trkpt lat="45.66786" lon="5.76221">
        <ele>354.41970266034</ele>
        <time>2015-11-07T11:33:59Z</time>
      </trkpt>
      <trkpt lat="45.66796" lon="5.76207">
        <ele>351.80940028759</ele>
        <time>2015-11-07T11:34:10Z</time>
      </trkpt>
      <trkpt lat="45.66802" lon="5.76202">
        <ele>351.80940028759</ele>
        <time>2015-11-07T11:34:14Z</time>
      </trkpt>
      <trkpt lat="45.66821" lon="5.76208">
        <ele>349.45470626456</ele>
        <time>2015-11-07T11:34:30Z</time>
      </trkpt>
      <trkpt lat="45.66826" lon="5.76213">
        <ele>349.45470626456</ele>
        <time>2015-11-07T11:34:34Z</time>
      </trkpt>
      <trkpt lat="45.66835" lon="5.76231">
        <ele>347.58441890741</ele>
        <time>2015-11-07T11:34:45Z</time>
      </trkpt>
      <trkpt lat="45.66839" lon="5.76241">
        <ele>347.58441890741</ele>
        <time>2015-11-07T11:34:50Z</time>
      </trkpt>
      <trkpt lat="45.66849" lon="5.76258">
        <ele>345.60216814326</ele>
        <time>2015-11-07T11:34:59Z</time>
      </trkpt>
      <trkpt lat="45.66853" lon="5.76267">
        <ele>345.60216814326</ele>
        <time>2015-11-07T11:35:05Z</time>
      </trkpt>
      <trkpt lat="45.66862" lon="5.7628">
        <ele>343.8924428276</ele>
        <time>2015-11-07T11:35:14Z</time>
      </trkpt>
      <trkpt lat="45.66867" lon="5.76286">
        <ele>343.8924428276</ele>
        <time>2015-11-07T11:35:19Z</time>
      </trkpt>
      <trkpt lat="45.66878" lon="5.76301">
        <ele>342.24869758153</ele>
        <time>2015-11-07T11:35:29Z</time>
      </trkpt>
      <trkpt lat="45.66883" lon="5.76307">
        <ele>342.24869758153</ele>
        <time>2015-11-07T11:35:34Z</time>
      </trkpt>
      <trkpt lat="45.66893" lon="5.7632">
        <ele>341.18552485716</ele>
        <time>2015-11-07T11:35:45Z</time>
      </trkpt>
      <trkpt lat="45.66898" lon="5.76325">
        <ele>341.18552485716</ele>
        <time>2015-11-07T11:35:49Z</time>
      </trkpt>
      <trkpt lat="45.66911" lon="5.76319">
        <ele>339.11729969139</ele>
        <time>2015-11-07T11:35:59Z</time>
      </trkpt>
      <trkpt lat="45.66916" lon="5.76311">
        <ele>339.11729969139</ele>
        <time>2015-11-07T11:36:04Z</time>
      </trkpt>
      <trkpt lat="45.66924" lon="5.76295">
        <ele>336.99876343625</ele>
        <time>2015-11-07T11:36:15Z</time>
      </trkpt>
      <trkpt lat="45.6693" lon="5.76293">
        <ele>336.99876343625</ele>
        <time>2015-11-07T11:36:19Z</time>
      </trkpt>
      <trkpt lat="45.66934" lon="5.76314">
        <ele>335.29673922157</ele>
        <time>2015-11-07T11:36:34Z</time>
      </trkpt>
      <trkpt lat="45.66932" lon="5.76322">
        <ele>335.29673922157</ele>
        <time>2015-11-07T11:36:39Z</time>
      </trkpt>
      <trkpt lat="45.66926" lon="5.76335">
        <ele>334.08230689975</ele>
        <time>2015-11-07T11:36:49Z</time>
      </trkpt>
      <trkpt lat="45.66923" lon="5.76343">
        <ele>334.08230689975</ele>
        <time>2015-11-07T11:36:54Z</time>
      </trkpt>
      <trkpt lat="45.6691" lon="5.76354">
        <ele>333.05967313795</ele>
        <time>2015-11-07T11:37:04Z</time>
      </trkpt>
      <trkpt lat="45.66904" lon="5.76354">
        <ele>333.05967313795</ele>
        <time>2015-11-07T11:37:10Z</time>
      </trkpt>
      <trkpt lat="45.66894" lon="5.76346">
        <ele>331.07515020655</ele>
        <time>2015-11-07T11:37:19Z</time>
      </trkpt>
      <trkpt lat="45.66889" lon="5.7634">
        <ele>331.07515020655</ele>
        <time>2015-11-07T11:37:24Z</time>
      </trkpt>
      <trkpt lat="45.66877" lon="5.76331">
        <ele>329.03681349281</ele>
        <time>2015-11-07T11:37:34Z</time>
      </trkpt>
      <trkpt lat="45.6687" lon="5.76327">
        <ele>329.03681349281</ele>
        <time>2015-11-07T11:37:40Z</time>
      </trkpt>
      <trkpt lat="45.66854" lon="5.76324">
        <ele>326.69092840741</ele>
        <time>2015-11-07T11:37:49Z</time>
      </trkpt>
      <trkpt lat="45.66847" lon="5.76323">
        <ele>326.69092840741</ele>
        <time>2015-11-07T11:37:54Z</time>
      </trkpt>
      <trkpt lat="45.66835" lon="5.76322">
        <ele>324.10588203572</ele>
        <time>2015-11-07T11:38:04Z</time>
      </trkpt>
      <trkpt lat="45.66837" lon="5.76327">
        <ele>324.10588203572</ele>
        <time>2015-11-07T11:38:09Z</time>
      </trkpt>
      <trkpt lat="45.66838" lon="5.76331">
        <ele>324.10588203572</ele>
        <time>2015-11-07T11:38:25Z</time>
      </trkpt>
      <trkpt lat="45.66838" lon="5.76331">
        <ele>324.10588203572</ele>
        <time>2015-11-07T11:38:29Z</time>
      </trkpt>
      <trkpt lat="45.66838" lon="5.76333">
        <ele>324.10588203572</ele>
        <time>2015-11-07T11:38:39Z</time>
      </trkpt>
      <trkpt lat="45.66838" lon="5.76332">
        <ele>324.10588203572</ele>
        <time>2015-11-07T11:38:44Z</time>
      </trkpt>
      <trkpt lat="45.66839" lon="5.76334">
        <ele>321.70596687464</ele>
        <time>2015-11-07T11:38:55Z</time>
      </trkpt>
      <trkpt lat="45.66839" lon="5.76334">
        <ele>321.70596687464</ele>
        <time>2015-11-07T11:38:59Z</time>
      </trkpt>
      <trkpt lat="45.66839" lon="5.76334">
        <ele>321.70596687464</ele>
        <time>2015-11-07T11:39:09Z</time>
      </trkpt>
      <trkpt lat="45.66839" lon="5.76334">
        <ele>321.70596687464</ele>
        <time>2015-11-07T11:39:15Z</time>
      </trkpt>
      <trkpt lat="45.66839" lon="5.76335">
        <ele>321.70596687464</ele>
        <time>2015-11-07T11:39:24Z</time>
      </trkpt>
      <trkpt lat="45.66839" lon="5.76335">
        <ele>321.70596687464</ele>
        <time>2015-11-07T11:39:30Z</time>
      </trkpt>
      <trkpt lat="45.66839" lon="5.76335">
        <ele>321.70596687464</ele>
        <time>2015-11-07T11:39:39Z</time>
      </trkpt>
      <trkpt lat="45.66839" lon="5.76336">
        <ele>321.70596687464</ele>
        <time>2015-11-07T11:39:44Z</time>
      </trkpt>
      <trkpt lat="45.66839" lon="5.76336">
        <ele>321.70596687464</ele>
        <time>2015-11-07T11:39:54Z</time>
      </trkpt>
      <trkpt lat="45.66839" lon="5.76336">
        <ele>321.70596687464</ele>
        <time>2015-11-07T11:40:00Z</time>
      </trkpt>
      <trkpt lat="45.66839" lon="5.76336">
        <ele>321.70596687464</ele>
        <time>2015-11-07T11:40:09Z</time>
      </trkpt>
      <trkpt lat="45.66839" lon="5.76336">
        <ele>321.70596687464</ele>
        <time>2015-11-07T11:40:15Z</time>
      </trkpt>
      <trkpt lat="45.66839" lon="5.7634">
        <ele>321.70596687464</ele>
        <time>2015-11-07T11:40:24Z</time>
      </trkpt>
      <trkpt lat="45.66841" lon="5.76347">
        <ele>319.81170691788</ele>
        <time>2015-11-07T11:40:29Z</time>
      </trkpt>
      <trkpt lat="45.66847" lon="5.76358">
        <ele>318.02689855627</ele>
        <time>2015-11-07T11:40:40Z</time>
      </trkpt>
      <trkpt lat="45.66847" lon="5.76367">
        <ele>318.02689855627</ele>
        <time>2015-11-07T11:40:45Z</time>
      </trkpt>
      <trkpt lat="45.66853" lon="5.76388">
        <ele>316.67583737395</ele>
        <time>2015-11-07T11:40:59Z</time>
      </trkpt>
      <trkpt lat="45.66853" lon="5.76392">
        <ele>316.67583737395</ele>
        <time>2015-11-07T11:41:04Z</time>
      </trkpt>
      <trkpt lat="45.66859" lon="5.76406">
        <ele>314.99132422299</ele>
        <time>2015-11-07T11:41:15Z</time>
      </trkpt>
      <trkpt lat="45.66861" lon="5.76406">
        <ele>314.99132422299</ele>
        <time>2015-11-07T11:41:19Z</time>
      </trkpt>
      <trkpt lat="45.66861" lon="5.76404">
        <ele>314.99132422299</ele>
        <time>2015-11-07T11:41:29Z</time>
      </trkpt>
      <trkpt lat="45.66861" lon="5.76404">
        <ele>314.99132422299</ele>
        <time>2015-11-07T11:41:34Z</time>
      </trkpt>
      <trkpt lat="45.66861" lon="5.76404">
        <ele>314.99132422299</ele>
        <time>2015-11-07T11:41:44Z</time>
      </trkpt>
      <trkpt lat="45.66861" lon="5.76414">
        <ele>313.77658968734</ele>
        <time>2015-11-07T11:41:49Z</time>
      </trkpt>
      <trkpt lat="45.66862" lon="5.76438">
        <ele>313.12601413843</ele>
        <time>2015-11-07T11:41:59Z</time>
      </trkpt>
      <trkpt lat="45.66868" lon="5.76444">
        <ele>313.12601413843</ele>
        <time>2015-11-07T11:42:04Z</time>
      </trkpt>
      <trkpt lat="45.66881" lon="5.76449">
        <ele>312.678695822</ele>
        <time>2015-11-07T11:42:14Z</time>
      </trkpt>
      <trkpt lat="45.66888" lon="5.76453">
        <ele>312.678695822</ele>
        <time>2015-11-07T11:42:19Z</time>
      </trkpt>
      <trkpt lat="45.66901" lon="5.76457">
        <ele>312.21494863417</ele>
        <time>2015-11-07T11:42:29Z</time>
      </trkpt>
      <trkpt lat="45.66908" lon="5.76454">
        <ele>312.21494863417</ele>
        <time>2015-11-07T11:42:34Z</time>
      </trkpt>
      <trkpt lat="45.66926" lon="5.76445">
        <ele>310.66659566945</ele>
        <time>2015-11-07T11:42:49Z</time>
      </trkpt>
      <trkpt lat="45.66931" lon="5.76442">
        <ele>310.66659566945</ele>
        <time>2015-11-07T11:42:55Z</time>
      </trkpt>
      <trkpt lat="45.66942" lon="5.76432">
        <ele>308.89159094554</ele>
        <time>2015-11-07T11:43:05Z</time>
      </trkpt>
      <trkpt lat="45.66946" lon="5.76427">
        <ele>308.89159094554</ele>
        <time>2015-11-07T11:43:09Z</time>
      </trkpt>
      <trkpt lat="45.66954" lon="5.76419">
        <ele>307.41168940398</ele>
        <time>2015-11-07T11:43:19Z</time>
      </trkpt>
      <trkpt lat="45.6696" lon="5.76415">
        <ele>307.41168940398</ele>
        <time>2015-11-07T11:43:24Z</time>
      </trkpt>
      <trkpt lat="45.66972" lon="5.7641">
        <ele>307.86238501531</ele>
        <time>2015-11-07T11:43:35Z</time>
      </trkpt>
      <trkpt lat="45.66978" lon="5.76408">
        <ele>307.86238501531</ele>
        <time>2015-11-07T11:43:39Z</time>
      </trkpt>
      <trkpt lat="45.66993" lon="5.7641">
        <ele>308.58317877457</ele>
        <time>2015-11-07T11:43:49Z</time>
      </trkpt>
      <trkpt lat="45.67001" lon="5.76414">
        <ele>308.58317877457</ele>
        <time>2015-11-07T11:43:54Z</time>
      </trkpt>
      <trkpt lat="45.67024" lon="5.76421">
        <ele>309.5335705902</ele>
        <time>2015-11-07T11:44:09Z</time>
      </trkpt>
      <trkpt lat="45.67032" lon="5.76423">
        <ele>309.5335705902</ele>
        <time>2015-11-07T11:44:14Z</time>
      </trkpt>
      <trkpt lat="45.67046" lon="5.7643">
        <ele>309.79634775707</ele>
        <time>2015-11-07T11:44:24Z</time>
      </trkpt>
      <trkpt lat="45.67053" lon="5.76438">
        <ele>309.79634775707</ele>
        <time>2015-11-07T11:44:29Z</time>
      </trkpt>
      <trkpt lat="45.67067" lon="5.76448">
        <ele>309.28744162627</ele>
        <time>2015-11-07T11:44:40Z</time>
      </trkpt>
      <trkpt lat="45.67073" lon="5.76455">
        <ele>309.28744162627</ele>
        <time>2015-11-07T11:44:45Z</time>
      </trkpt>
      <trkpt lat="45.67082" lon="5.76471">
        <ele>310.798998438</ele>
        <time>2015-11-07T11:44:55Z</time>
      </trkpt>
      <trkpt lat="45.67088" lon="5.76475">
        <ele>310.798998438</ele>
        <time>2015-11-07T11:44:59Z</time>
      </trkpt>
      <trkpt lat="45.67103" lon="5.76483">
        <ele>312.15679352438</ele>
        <time>2015-11-07T11:45:09Z</time>
      </trkpt>
      <trkpt lat="45.67109" lon="5.76484">
        <ele>312.15679352438</ele>
        <time>2015-11-07T11:45:14Z</time>
      </trkpt>
      <trkpt lat="45.67123" lon="5.76489">
        <ele>312.64383785599</ele>
        <time>2015-11-07T11:45:25Z</time>
      </trkpt>
      <trkpt lat="45.67128" lon="5.76492">
        <ele>312.64383785599</ele>
        <time>2015-11-07T11:45:29Z</time>
      </trkpt>
      <trkpt lat="45.67143" lon="5.765">
        <ele>312.92417548655</ele>
        <time>2015-11-07T11:45:39Z</time>
      </trkpt>
      <trkpt lat="45.67149" lon="5.76502">
        <ele>312.92417548655</ele>
        <time>2015-11-07T11:45:45Z</time>
      </trkpt>
      <trkpt lat="45.67168" lon="5.7651">
        <ele>312.43204590782</ele>
        <time>2015-11-07T11:45:55Z</time>
      </trkpt>
      <trkpt lat="45.67178" lon="5.76512">
        <ele>311.94252888784</ele>
        <time>2015-11-07T11:45:59Z</time>
      </trkpt>
      <trkpt lat="45.67204" lon="5.76525">
        <ele>311.22273923973</ele>
        <time>2015-11-07T11:46:14Z</time>
      </trkpt>
      <trkpt lat="45.67212" lon="5.76525">
        <ele>311.22273923973</ele>
        <time>2015-11-07T11:46:20Z</time>
      </trkpt>
      <trkpt lat="45.67224" lon="5.76532">
        <ele>309.85589970507</ele>
        <time>2015-11-07T11:46:30Z</time>
      </trkpt>
      <trkpt lat="45.67228" lon="5.76537">
        <ele>309.85589970507</ele>
        <time>2015-11-07T11:46:34Z</time>
      </trkpt>
      <trkpt lat="45.67239" lon="5.76544">
        <ele>309.99412802467</ele>
        <time>2015-11-07T11:46:44Z</time>
      </trkpt>
      <trkpt lat="45.67245" lon="5.76546">
        <ele>309.99412802467</ele>
        <time>2015-11-07T11:46:50Z</time>
      </trkpt>
      <trkpt lat="45.67258" lon="5.76552">
        <ele>309.73632863037</ele>
        <time>2015-11-07T11:46:59Z</time>
      </trkpt>
      <trkpt lat="45.67268" lon="5.76557">
        <ele>309.67128376188</ele>
        <time>2015-11-07T11:47:04Z</time>
      </trkpt>
      <trkpt lat="45.6728" lon="5.76563">
        <ele>309.81087305582</ele>
        <time>2015-11-07T11:47:15Z</time>
      </trkpt>
      <trkpt lat="45.67287" lon="5.76566">
        <ele>309.81087305582</ele>
        <time>2015-11-07T11:47:19Z</time>
      </trkpt>
      <trkpt lat="45.67304" lon="5.76574">
        <ele>309.44507498981</ele>
        <time>2015-11-07T11:47:30Z</time>
      </trkpt>
      <trkpt lat="45.67312" lon="5.76576">
        <ele>309.44507498981</ele>
        <time>2015-11-07T11:47:34Z</time>
      </trkpt>
      <trkpt lat="45.67322" lon="5.76582">
        <ele>308.13370969053</ele>
        <time>2015-11-07T11:47:44Z</time>
      </trkpt>
      <trkpt lat="45.67327" lon="5.76584">
        <ele>308.13370969053</ele>
        <time>2015-11-07T11:47:49Z</time>
      </trkpt>
      <trkpt lat="45.67341" lon="5.76588">
        <ele>308.09450623844</ele>
        <time>2015-11-07T11:47:59Z</time>
      </trkpt>
      <trkpt lat="45.67348" lon="5.7659">
        <ele>308.09450623844</ele>
        <time>2015-11-07T11:48:05Z</time>
      </trkpt>
      <trkpt lat="45.67362" lon="5.76599">
        <ele>306.96900329647</ele>
        <time>2015-11-07T11:48:14Z</time>
      </trkpt>
      <trkpt lat="45.67369" lon="5.76604">
        <ele>306.96900329647</ele>
        <time>2015-11-07T11:48:19Z</time>
      </trkpt>
      <trkpt lat="45.67386" lon="5.76613">
        <ele>305.34205879588</ele>
        <time>2015-11-07T11:48:29Z</time>
      </trkpt>
      <trkpt lat="45.67396" lon="5.76616">
        <ele>303.90116358752</ele>
        <time>2015-11-07T11:48:34Z</time>
      </trkpt>
      <trkpt lat="45.6741" lon="5.76623">
        <ele>302.31730847371</ele>
        <time>2015-11-07T11:48:45Z</time>
      </trkpt>
      <trkpt lat="45.67415" lon="5.76623">
        <ele>302.31730847371</ele>
        <time>2015-11-07T11:48:49Z</time>
      </trkpt>
      <trkpt lat="45.67425" lon="5.7663">
        <ele>299.07557598248</ele>
        <time>2015-11-07T11:49:04Z</time>
      </trkpt>
      <trkpt lat="45.6743" lon="5.7663">
        <ele>299.07557598248</ele>
        <time>2015-11-07T11:49:09Z</time>
      </trkpt>
      <trkpt lat="45.67439" lon="5.76633">
        <ele>295.68806973313</ele>
        <time>2015-11-07T11:49:19Z</time>
      </trkpt>
      <trkpt lat="45.67447" lon="5.76636">
        <ele>295.68806973313</ele>
        <time>2015-11-07T11:49:24Z</time>
      </trkpt>
      <trkpt lat="45.67453" lon="5.76636">
        <ele>291.76926594026</ele>
        <time>2015-11-07T11:49:35Z</time>
      </trkpt>
      <trkpt lat="45.67459" lon="5.76637">
        <ele>291.76926594026</ele>
        <time>2015-11-07T11:49:39Z</time>
      </trkpt>
      <trkpt lat="45.67471" lon="5.76636">
        <ele>288.24603957335</ele>
        <time>2015-11-07T11:49:50Z</time>
      </trkpt>
      <trkpt lat="45.67473" lon="5.76638">
        <ele>288.24603957335</ele>
        <time>2015-11-07T11:49:54Z</time>
      </trkpt>
      <trkpt lat="45.67481" lon="5.76636">
        <ele>282.9641171103</ele>
        <time>2015-11-07T11:50:05Z</time>
      </trkpt>
      <trkpt lat="45.67487" lon="5.76635">
        <ele>282.9641171103</ele>
        <time>2015-11-07T11:50:10Z</time>
      </trkpt>
      <trkpt lat="45.67498" lon="5.76632">
        <ele>276.65605490989</ele>
        <time>2015-11-07T11:50:19Z</time>
      </trkpt>
      <trkpt lat="45.67504" lon="5.7663">
        <ele>276.65605490989</ele>
        <time>2015-11-07T11:50:24Z</time>
      </trkpt>
      <trkpt lat="45.67528" lon="5.76616">
        <ele>271.30038911016</ele>
        <time>2015-11-07T11:50:39Z</time>
      </trkpt>
      <trkpt lat="45.67539" lon="5.76611">
        <ele>267.70433861991</ele>
        <time>2015-11-07T11:50:45Z</time>
      </trkpt>
      <trkpt lat="45.67564" lon="5.76601">
        <ele>265.91901818891</ele>
        <time>2015-11-07T11:50:55Z</time>
      </trkpt>
      <trkpt lat="45.67579" lon="5.76602">
        <ele>265.65510481878</ele>
        <time>2015-11-07T11:50:59Z</time>
      </trkpt>
      <trkpt lat="45.67588" lon="5.76602">
        <ele>266.4960049723</ele>
        <time>2015-11-07T11:51:10Z</time>
      </trkpt>
      <trkpt lat="45.67589" lon="5.76602">
        <ele>266.4960049723</ele>
        <time>2015-11-07T11:51:15Z</time>
      </trkpt>
      <trkpt lat="45.67589" lon="5.76602">
        <ele>266.4960049723</ele>
        <time>2015-11-07T11:51:25Z</time>
      </trkpt>
      <trkpt lat="45.67589" lon="5.76602">
        <ele>266.4960049723</ele>
        <time>2015-11-07T11:51:30Z</time>
      </trkpt>
      <trkpt lat="45.67589" lon="5.76602">
        <ele>266.4960049723</ele>
        <time>2015-11-07T11:51:39Z</time>
      </trkpt>
      <trkpt lat="45.67589" lon="5.76602">
        <ele>266.4960049723</ele>
        <time>2015-11-07T11:51:44Z</time>
      </trkpt>
      <trkpt lat="45.6759" lon="5.76602">
        <ele>266.4960049723</ele>
        <time>2015-11-07T11:51:55Z</time>
      </trkpt>
      <trkpt lat="45.6759" lon="5.76602">
        <ele>266.4960049723</ele>
        <time>2015-11-07T11:52:00Z</time>
      </trkpt>
      <trkpt lat="45.6759" lon="5.76608">
        <ele>266.4960049723</ele>
        <time>2015-11-07T11:52:09Z</time>
      </trkpt>
      <trkpt lat="45.67587" lon="5.76619">
        <ele>267.77868672244</ele>
        <time>2015-11-07T11:52:14Z</time>
      </trkpt>
      <trkpt lat="45.67572" lon="5.76644">
        <ele>269.63685522858</ele>
        <time>2015-11-07T11:52:29Z</time>
      </trkpt>
      <trkpt lat="45.67569" lon="5.76651">
        <ele>269.63685522858</ele>
        <time>2015-11-07T11:52:34Z</time>
      </trkpt>
      <trkpt lat="45.6756" lon="5.76664">
        <ele>271.54419908451</ele>
        <time>2015-11-07T11:52:44Z</time>
      </trkpt>
      <trkpt lat="45.67555" lon="5.7667">
        <ele>271.54419908451</ele>
        <time>2015-11-07T11:52:49Z</time>
      </trkpt>
      <trkpt lat="45.67545" lon="5.76677">
        <ele>274.3098828002</ele>
        <time>2015-11-07T11:52:59Z</time>
      </trkpt>
      <trkpt lat="45.67538" lon="5.7668">
        <ele>274.3098828002</ele>
        <time>2015-11-07T11:53:05Z</time>
      </trkpt>
      <trkpt lat="45.67526" lon="5.76686">
        <ele>276.67805881936</ele>
        <time>2015-11-07T11:53:15Z</time>
      </trkpt>
      <trkpt lat="45.67518" lon="5.7669">
        <ele>276.67805881936</ele>
        <time>2015-11-07T11:53:20Z</time>
      </trkpt>
      <trkpt lat="45.67505" lon="5.76694">
        <ele>280.72876526001</ele>
        <time>2015-11-07T11:53:29Z</time>
      </trkpt>
      <trkpt lat="45.67498" lon="5.76699">
        <ele>280.72876526001</ele>
        <time>2015-11-07T11:53:34Z</time>
      </trkpt>
      <trkpt lat="45.67486" lon="5.76702">
        <ele>285.12765987524</ele>
        <time>2015-11-07T11:53:44Z</time>
      </trkpt>
      <trkpt lat="45.67482" lon="5.76703">
        <ele>285.12765987524</ele>
        <time>2015-11-07T11:53:49Z</time>
      </trkpt>
      <trkpt lat="45.67469" lon="5.76709">
        <ele>289.12750766731</ele>
        <time>2015-11-07T11:54:00Z</time>
      </trkpt>
      <trkpt lat="45.67461" lon="5.76708">
        <ele>289.12750766731</ele>
        <time>2015-11-07T11:54:05Z</time>
      </trkpt>
      <trkpt lat="45.67448" lon="5.76703">
        <ele>292.95951745673</ele>
        <time>2015-11-07T11:54:14Z</time>
      </trkpt>
      <trkpt lat="45.67441" lon="5.76702">
        <ele>292.95951745673</ele>
        <time>2015-11-07T11:54:19Z</time>
      </trkpt>
      <trkpt lat="45.67423" lon="5.76701">
        <ele>297.21322994009</ele>
        <time>2015-11-07T11:54:34Z</time>
      </trkpt>
      <trkpt lat="45.67424" lon="5.76706">
        <ele>297.21322994009</ele>
        <time>2015-11-07T11:54:39Z</time>
      </trkpt>
      <trkpt lat="45.67431" lon="5.7671">
        <ele>300.44514786063</ele>
        <time>2015-11-07T11:54:49Z</time>
      </trkpt>
      <trkpt lat="45.67436" lon="5.76716">
        <ele>300.44514786063</ele>
        <time>2015-11-07T11:54:54Z</time>
      </trkpt>
      <trkpt lat="45.67445" lon="5.76723">
        <ele>304.34722673165</ele>
        <time>2015-11-07T11:55:04Z</time>
      </trkpt>
      <trkpt lat="45.67449" lon="5.76728">
        <ele>304.34722673165</ele>
        <time>2015-11-07T11:55:09Z</time>
      </trkpt>
      <trkpt lat="45.67453" lon="5.76732">
        <ele>308.30941050974</ele>
        <time>2015-11-07T11:55:19Z</time>
      </trkpt>
      <trkpt lat="45.67454" lon="5.76733">
        <ele>308.30941050974</ele>
        <time>2015-11-07T11:55:24Z</time>
      </trkpt>
      <trkpt lat="45.67461" lon="5.76741">
        <ele>312.63121484012</ele>
        <time>2015-11-07T11:55:34Z</time>
      </trkpt>
      <trkpt lat="45.67465" lon="5.76745">
        <ele>312.63121484012</ele>
        <time>2015-11-07T11:55:39Z</time>
      </trkpt>
      <trkpt lat="45.67475" lon="5.76759">
        <ele>315.90332068781</ele>
        <time>2015-11-07T11:55:50Z</time>
      </trkpt>
      <trkpt lat="45.6748" lon="5.76767">
        <ele>315.90332068781</ele>
        <time>2015-11-07T11:55:55Z</time>
      </trkpt>
      <trkpt lat="45.67487" lon="5.76787">
        <ele>319.77745474496</ele>
        <time>2015-11-07T11:56:05Z</time>
      </trkpt>
      <trkpt lat="45.6749" lon="5.76798">
        <ele>319.77745474496</ele>
        <time>2015-11-07T11:56:09Z</time>
      </trkpt>
      <trkpt lat="45.67494" lon="5.76819">
        <ele>323.93800641938</ele>
        <time>2015-11-07T11:56:19Z</time>
      </trkpt>
      <trkpt lat="45.67497" lon="5.76827">
        <ele>323.93800641938</ele>
        <time>2015-11-07T11:56:24Z</time>
      </trkpt>
      <trkpt lat="45.67505" lon="5.76836">
        <ele>327.57326744427</ele>
        <time>2015-11-07T11:56:34Z</time>
      </trkpt>
      <trkpt lat="45.67509" lon="5.76839">
        <ele>327.57326744427</ele>
        <time>2015-11-07T11:56:39Z</time>
      </trkpt>
      <trkpt lat="45.67529" lon="5.76847">
        <ele>331.0714400026</ele>
        <time>2015-11-07T11:56:54Z</time>
      </trkpt>
      <trkpt lat="45.67536" lon="5.76848">
        <ele>331.0714400026</ele>
        <time>2015-11-07T11:56:59Z</time>
      </trkpt>
      <trkpt lat="45.67549" lon="5.76852">
        <ele>333.71209751024</ele>
        <time>2015-11-07T11:57:09Z</time>
      </trkpt>
      <trkpt lat="45.67555" lon="5.76856">
        <ele>333.71209751024</ele>
        <time>2015-11-07T11:57:14Z</time>
      </trkpt>
      <trkpt lat="45.67567" lon="5.7686">
        <ele>335.88249216835</ele>
        <time>2015-11-07T11:57:24Z</time>
      </trkpt>
      <trkpt lat="45.67573" lon="5.76859">
        <ele>335.88249216835</ele>
        <time>2015-11-07T11:57:29Z</time>
      </trkpt>
      <trkpt lat="45.67576" lon="5.76861">
        <ele>338.40424149707</ele>
        <time>2015-11-07T11:57:39Z</time>
      </trkpt>
      <trkpt lat="45.67576" lon="5.76861">
        <ele>338.40424149707</ele>
        <time>2015-11-07T11:57:44Z</time>
      </trkpt>
      <trkpt lat="45.6758" lon="5.76861">
        <ele>338.40424149707</ele>
        <time>2015-11-07T11:57:54Z</time>
      </trkpt>
      <trkpt lat="45.6758" lon="5.76861">
        <ele>338.40424149707</ele>
        <time>2015-11-07T11:57:59Z</time>
      </trkpt>
      <trkpt lat="45.67585" lon="5.76859">
        <ele>340.5536086762</ele>
        <time>2015-11-07T11:58:10Z</time>
      </trkpt>
      <trkpt lat="45.67591" lon="5.76858">
        <ele>340.5536086762</ele>
        <time>2015-11-07T11:58:15Z</time>
      </trkpt>
      <trkpt lat="45.676" lon="5.76854">
        <ele>342.33871227496</ele>
        <time>2015-11-07T11:58:24Z</time>
      </trkpt>
      <trkpt lat="45.67605" lon="5.76852">
        <ele>342.33871227496</ele>
        <time>2015-11-07T11:58:30Z</time>
      </trkpt>
      <trkpt lat="45.67623" lon="5.76842">
        <ele>344.24397600853</ele>
        <time>2015-11-07T11:58:44Z</time>
      </trkpt>
      <trkpt lat="45.67631" lon="5.76837">
        <ele>344.24397600853</ele>
        <time>2015-11-07T11:58:50Z</time>
      </trkpt>
      <trkpt lat="45.67648" lon="5.76829">
        <ele>347.48199414765</ele>
        <time>2015-11-07T11:58:59Z</time>
      </trkpt>
      <trkpt lat="45.67655" lon="5.76827">
        <ele>347.48199414765</ele>
        <time>2015-11-07T11:59:05Z</time>
      </trkpt>
      <trkpt lat="45.67663" lon="5.76822">
        <ele>349.87269416863</ele>
        <time>2015-11-07T11:59:15Z</time>
      </trkpt>
      <trkpt lat="45.67666" lon="5.7682">
        <ele>349.87269416863</ele>
        <time>2015-11-07T11:59:19Z</time>
      </trkpt>
      <trkpt lat="45.67679" lon="5.76802">
        <ele>351.43077893861</ele>
        <time>2015-11-07T11:59:30Z</time>
      </trkpt>
      <trkpt lat="45.67688" lon="5.76788">
        <ele>352.96509232079</ele>
        <time>2015-11-07T11:59:35Z</time>
      </trkpt>
      <trkpt lat="45.67701" lon="5.76776">
        <ele>354.04367734342</ele>
        <time>2015-11-07T11:59:45Z</time>
      </trkpt>
      <trkpt lat="45.67707" lon="5.76769">
        <ele>354.04367734342</ele>
        <time>2015-11-07T11:59:49Z</time>
      </trkpt>
      <trkpt lat="45.67718" lon="5.76758">
        <ele>355.31984392233</ele>
        <time>2015-11-07T11:59:59Z</time>
      </trkpt>
      <trkpt lat="45.67723" lon="5.76754">
        <ele>355.31984392233</ele>
        <time>2015-11-07T12:00:04Z</time>
      </trkpt>
      <trkpt lat="45.67732" lon="5.7676">
        <ele>357.15359650952</ele>
        <time>2015-11-07T12:00:14Z</time>
      </trkpt>
      <trkpt lat="45.67738" lon="5.76768">
        <ele>357.15359650952</ele>
        <time>2015-11-07T12:00:19Z</time>
      </trkpt>
      <trkpt lat="45.67749" lon="5.76782">
        <ele>359.84832315344</ele>
        <time>2015-11-07T12:00:29Z</time>
      </trkpt>
      <trkpt lat="45.67752" lon="5.76785">
        <ele>359.84832315344</ele>
        <time>2015-11-07T12:00:34Z</time>
      </trkpt>
      <trkpt lat="45.67758" lon="5.76792">
        <ele>362.35709125199</ele>
        <time>2015-11-07T12:00:44Z</time>
      </trkpt>
      <trkpt lat="45.67762" lon="5.76796">
        <ele>362.35709125199</ele>
        <time>2015-11-07T12:00:49Z</time>
      </trkpt>
      <trkpt lat="45.67771" lon="5.76806">
        <ele>364.97877097221</ele>
        <time>2015-11-07T12:00:59Z</time>
      </trkpt>
      <trkpt lat="45.67777" lon="5.7681">
        <ele>364.97877097221</ele>
        <time>2015-11-07T12:01:04Z</time>
      </trkpt>
      <trkpt lat="45.67796" lon="5.76822">
        <ele>367.01019371625</ele>
        <time>2015-11-07T12:01:19Z</time>
      </trkpt>
      <trkpt lat="45.67803" lon="5.76827">
        <ele>367.01019371625</ele>
        <time>2015-11-07T12:01:25Z</time>
      </trkpt>
      <trkpt lat="45.67814" lon="5.76833">
        <ele>368.89692760899</ele>
        <time>2015-11-07T12:01:34Z</time>
      </trkpt>
      <trkpt lat="45.67819" lon="5.76835">
        <ele>368.89692760899</ele>
        <time>2015-11-07T12:01:40Z</time>
      </trkpt>
      <trkpt lat="45.6783" lon="5.76843">
        <ele>370.93709996215</ele>
        <time>2015-11-07T12:01:49Z</time>
      </trkpt>
      <trkpt lat="45.67833" lon="5.76845">
        <ele>370.93709996215</ele>
        <time>2015-11-07T12:01:54Z</time>
      </trkpt>
      <trkpt lat="45.67847" lon="5.76853">
        <ele>372.91669344394</ele>
        <time>2015-11-07T12:02:04Z</time>
      </trkpt>
      <trkpt lat="45.67853" lon="5.76859">
        <ele>372.91669344394</ele>
        <time>2015-11-07T12:02:10Z</time>
      </trkpt>
      <trkpt lat="45.67882" lon="5.76886">
        <ele>375.71857143495</ele>
        <time>2015-11-07T12:02:19Z</time>
      </trkpt>
      <trkpt lat="45.67893" lon="5.76904">
        <ele>378.71747273915</ele>
        <time>2015-11-07T12:02:24Z</time>
      </trkpt>
      <trkpt lat="45.67916" lon="5.76921">
        <ele>381.70834741035</ele>
        <time>2015-11-07T12:02:39Z</time>
      </trkpt>
      <trkpt lat="45.67922" lon="5.76922">
        <ele>381.70834741035</ele>
        <time>2015-11-07T12:02:45Z</time>
      </trkpt>
      <trkpt lat="45.67921" lon="5.76939">
        <ele>383.65111379736</ele>
        <time>2015-11-07T12:02:55Z</time>
      </trkpt>
      <trkpt lat="45.67922" lon="5.76947">
        <ele>383.65111379736</ele>
        <time>2015-11-07T12:02:59Z</time>
      </trkpt>
      <trkpt lat="45.67924" lon="5.76971">
        <ele>384.72364504178</ele>
        <time>2015-11-07T12:03:09Z</time>
      </trkpt>
      <trkpt lat="45.67925" lon="5.76981">
        <ele>384.72364504178</ele>
        <time>2015-11-07T12:03:14Z</time>
      </trkpt>
      <trkpt lat="45.67925" lon="5.76999">
        <ele>385.41035625944</ele>
        <time>2015-11-07T12:03:24Z</time>
      </trkpt>
      <trkpt lat="45.67925" lon="5.77008">
        <ele>385.41035625944</ele>
        <time>2015-11-07T12:03:29Z</time>
      </trkpt>
      <trkpt lat="45.67922" lon="5.77024">
        <ele>385.88745711177</ele>
        <time>2015-11-07T12:03:40Z</time>
      </trkpt>
      <trkpt lat="45.67921" lon="5.77033">
        <ele>385.88745711177</ele>
        <time>2015-11-07T12:03:45Z</time>
      </trkpt>
      <trkpt lat="45.67918" lon="5.7705">
        <ele>386.83769252165</ele>
        <time>2015-11-07T12:03:55Z</time>
      </trkpt>
      <trkpt lat="45.67917" lon="5.7706">
        <ele>386.83769252165</ele>
        <time>2015-11-07T12:03:59Z</time>
      </trkpt>
      <trkpt lat="45.67916" lon="5.7708">
        <ele>387.5953988559</ele>
        <time>2015-11-07T12:04:09Z</time>
      </trkpt>
      <trkpt lat="45.67917" lon="5.77089">
        <ele>387.5953988559</ele>
        <time>2015-11-07T12:04:15Z</time>
      </trkpt>
      <trkpt lat="45.67919" lon="5.77106">
        <ele>387.18412804854</ele>
        <time>2015-11-07T12:04:24Z</time>
      </trkpt>
      <trkpt lat="45.6792" lon="5.77113">
        <ele>387.18412804854</ele>
        <time>2015-11-07T12:04:29Z</time>
      </trkpt>
      <trkpt lat="45.67915" lon="5.77128">
        <ele>385.9418302189</ele>
        <time>2015-11-07T12:04:40Z</time>
      </trkpt>
      <trkpt lat="45.67911" lon="5.77135">
        <ele>385.9418302189</ele>
        <time>2015-11-07T12:04:44Z</time>
      </trkpt>
      <trkpt lat="45.67903" lon="5.77139">
        <ele>384.54424992956</ele>
        <time>2015-11-07T12:04:54Z</time>
      </trkpt>
      <trkpt lat="45.67898" lon="5.77139">
        <ele>384.54424992956</ele>
        <time>2015-11-07T12:05:00Z</time>
      </trkpt>
      <trkpt lat="45.67879" lon="5.77137">
        <ele>381.60035393287</ele>
        <time>2015-11-07T12:05:14Z</time>
      </trkpt>
      <trkpt lat="45.67873" lon="5.7714">
        <ele>381.60035393287</ele>
        <time>2015-11-07T12:05:19Z</time>
      </trkpt>
      <trkpt lat="45.67858" lon="5.77146">
        <ele>378.34752731989</ele>
        <time>2015-11-07T12:05:29Z</time>
      </trkpt>
      <trkpt lat="45.67846" lon="5.77151">
        <ele>375.45747401988</ele>
        <time>2015-11-07T12:05:34Z</time>
      </trkpt>
      <trkpt lat="45.67829" lon="5.77147">
        <ele>373.17673141156</ele>
        <time>2015-11-07T12:05:44Z</time>
      </trkpt>
      <trkpt lat="45.6782" lon="5.77145">
        <ele>371.41482483767</ele>
        <time>2015-11-07T12:05:49Z</time>
      </trkpt>
      <trkpt lat="45.67807" lon="5.77138">
        <ele>369.65396341156</ele>
        <time>2015-11-07T12:05:59Z</time>
      </trkpt>
      <trkpt lat="45.67801" lon="5.77137">
        <ele>369.65396341156</ele>
        <time>2015-11-07T12:06:05Z</time>
      </trkpt>
      <trkpt lat="45.6779" lon="5.77131">
        <ele>368.55267532627</ele>
        <time>2015-11-07T12:06:14Z</time>
      </trkpt>
      <trkpt lat="45.67784" lon="5.77129">
        <ele>368.55267532627</ele>
        <time>2015-11-07T12:06:19Z</time>
      </trkpt>
      <trkpt lat="45.67774" lon="5.77127">
        <ele>367.37882203817</ele>
        <time>2015-11-07T12:06:29Z</time>
      </trkpt>
      <trkpt lat="45.67769" lon="5.77123">
        <ele>367.37882203817</ele>
        <time>2015-11-07T12:06:34Z</time>
      </trkpt>
      <trkpt lat="45.67758" lon="5.77112">
        <ele>366.53486689867</ele>
        <time>2015-11-07T12:06:44Z</time>
      </trkpt>
      <trkpt lat="45.67749" lon="5.77109">
        <ele>366.53486689867</ele>
        <time>2015-11-07T12:06:49Z</time>
      </trkpt>
      <trkpt lat="45.6774" lon="5.77105">
        <ele>366.49343707069</ele>
        <time>2015-11-07T12:07:00Z</time>
      </trkpt>
      <trkpt lat="45.67738" lon="5.77099">
        <ele>366.49343707069</ele>
        <time>2015-11-07T12:07:04Z</time>
      </trkpt>
      <trkpt lat="45.6773" lon="5.77096">
        <ele>367.56026524011</ele>
        <time>2015-11-07T12:07:14Z</time>
      </trkpt>
      <trkpt lat="45.67725" lon="5.77097">
        <ele>367.56026524011</ele>
        <time>2015-11-07T12:07:20Z</time>
      </trkpt>
      <trkpt lat="45.67715" lon="5.77098">
        <ele>367.98332743078</ele>
        <time>2015-11-07T12:07:30Z</time>
      </trkpt>
      <trkpt lat="45.6771" lon="5.77097">
        <ele>367.98332743078</ele>
        <time>2015-11-07T12:07:35Z</time>
      </trkpt>
      <trkpt lat="45.67693" lon="5.77084">
        <ele>368.95106250998</ele>
        <time>2015-11-07T12:07:50Z</time>
      </trkpt>
      <trkpt lat="45.67686" lon="5.77081">
        <ele>368.95106250998</ele>
        <time>2015-11-07T12:07:54Z</time>
      </trkpt>
      <trkpt lat="45.67677" lon="5.77077">
        <ele>370.32352105064</ele>
        <time>2015-11-07T12:08:04Z</time>
      </trkpt>
      <trkpt lat="45.67671" lon="5.77076">
        <ele>370.32352105064</ele>
        <time>2015-11-07T12:08:10Z</time>
      </trkpt>
      <trkpt lat="45.6766" lon="5.7708">
        <ele>371.46531997795</ele>
        <time>2015-11-07T12:08:19Z</time>
      </trkpt>
      <trkpt lat="45.67655" lon="5.77082">
        <ele>371.46531997795</ele>
        <time>2015-11-07T12:08:24Z</time>
      </trkpt>
      <trkpt lat="45.67647" lon="5.77089">
        <ele>371.91792003748</ele>
        <time>2015-11-07T12:08:34Z</time>
      </trkpt>
      <trkpt lat="45.67642" lon="5.77097">
        <ele>371.91792003748</ele>
        <time>2015-11-07T12:08:39Z</time>
      </trkpt>
      <trkpt lat="45.67602" lon="5.77108">
        <ele>373.36225742906</ele>
        <time>2015-11-07T12:08:49Z</time>
      </trkpt>
      <trkpt lat="45.67593" lon="5.77105">
        <ele>373.36225742906</ele>
        <time>2015-11-07T12:08:54Z</time>
      </trkpt>
      <trkpt lat="45.6758" lon="5.77098">
        <ele>374.39857367821</ele>
        <time>2015-11-07T12:09:04Z</time>
      </trkpt>
      <trkpt lat="45.67576" lon="5.77103">
        <ele>374.39857367821</ele>
        <time>2015-11-07T12:09:09Z</time>
      </trkpt>
      <trkpt lat="45.67569" lon="5.77109">
        <ele>374.09121418981</ele>
        <time>2015-11-07T12:09:20Z</time>
      </trkpt>
      <trkpt lat="45.67563" lon="5.7711">
        <ele>374.09121418981</ele>
        <time>2015-11-07T12:09:24Z</time>
      </trkpt>
      <trkpt lat="45.67537" lon="5.7711">
        <ele>372.81624378993</ele>
        <time>2015-11-07T12:09:39Z</time>
      </trkpt>
      <trkpt lat="45.67528" lon="5.77102">
        <ele>372.3946148791</ele>
        <time>2015-11-07T12:09:45Z</time>
      </trkpt>
      <trkpt lat="45.6751" lon="5.77094">
        <ele>372.52225095946</ele>
        <time>2015-11-07T12:09:54Z</time>
      </trkpt>
      <trkpt lat="45.67502" lon="5.77093">
        <ele>372.52225095946</ele>
        <time>2015-11-07T12:09:59Z</time>
      </trkpt>
      <trkpt lat="45.67492" lon="5.77087">
        <ele>372.97338169764</ele>
        <time>2015-11-07T12:10:09Z</time>
      </trkpt>
      <trkpt lat="45.67485" lon="5.77083">
        <ele>372.97338169764</ele>
        <time>2015-11-07T12:10:14Z</time>
      </trkpt>
      <trkpt lat="45.67464" lon="5.77076">
        <ele>372.58664678117</ele>
        <time>2015-11-07T12:10:24Z</time>
      </trkpt>
      <trkpt lat="45.67459" lon="5.77069">
        <ele>372.58664678117</ele>
        <time>2015-11-07T12:10:29Z</time>
      </trkpt>
      <trkpt lat="45.67448" lon="5.7706">
        <ele>372.08960797393</ele>
        <time>2015-11-07T12:10:40Z</time>
      </trkpt>
      <trkpt lat="45.67443" lon="5.77057">
        <ele>372.08960797393</ele>
        <time>2015-11-07T12:10:44Z</time>
      </trkpt>
      <trkpt lat="45.67433" lon="5.77044">
        <ele>371.66658418562</ele>
        <time>2015-11-07T12:10:55Z</time>
      </trkpt>
      <trkpt lat="45.67428" lon="5.77038">
        <ele>371.66658418562</ele>
        <time>2015-11-07T12:10:59Z</time>
      </trkpt>
      <trkpt lat="45.67416" lon="5.77024">
        <ele>371.35832038659</ele>
        <time>2015-11-07T12:11:10Z</time>
      </trkpt>
      <trkpt lat="45.67409" lon="5.77018">
        <ele>371.35832038659</ele>
        <time>2015-11-07T12:11:14Z</time>
      </trkpt>
      <trkpt lat="45.67397" lon="5.77007">
        <ele>371.44711084914</ele>
        <time>2015-11-07T12:11:24Z</time>
      </trkpt>
      <trkpt lat="45.67392" lon="5.77001">
        <ele>371.44711084914</ele>
        <time>2015-11-07T12:11:29Z</time>
      </trkpt>
      <trkpt lat="45.67382" lon="5.76989">
        <ele>371.78976602162</ele>
        <time>2015-11-07T12:11:40Z</time>
      </trkpt>
      <trkpt lat="45.67376" lon="5.76982">
        <ele>371.78976602162</ele>
        <time>2015-11-07T12:11:45Z</time>
      </trkpt>
      <trkpt lat="45.67365" lon="5.76968">
        <ele>372.56983133115</ele>
        <time>2015-11-07T12:12:00Z</time>
      </trkpt>
      <trkpt lat="45.67359" lon="5.76964">
        <ele>372.56983133115</ele>
        <time>2015-11-07T12:12:04Z</time>
      </trkpt>
      <trkpt lat="45.67346" lon="5.76955">
        <ele>373.35076653957</ele>
        <time>2015-11-07T12:12:14Z</time>
      </trkpt>
      <trkpt lat="45.67331" lon="5.76952">
        <ele>373.75681916155</ele>
        <time>2015-11-07T12:12:20Z</time>
      </trkpt>
      <trkpt lat="45.67319" lon="5.7695">
        <ele>374.07488877562</ele>
        <time>2015-11-07T12:12:29Z</time>
      </trkpt>
      <trkpt lat="45.67313" lon="5.76953">
        <ele>374.07488877562</ele>
        <time>2015-11-07T12:12:34Z</time>
      </trkpt>
      <trkpt lat="45.673" lon="5.76964">
        <ele>374.36920741147</ele>
        <time>2015-11-07T12:12:45Z</time>
      </trkpt>
      <trkpt lat="45.67293" lon="5.76971">
        <ele>374.36920741147</ele>
        <time>2015-11-07T12:12:50Z</time>
      </trkpt>
      <trkpt lat="45.67281" lon="5.76984">
        <ele>375.03073504544</ele>
        <time>2015-11-07T12:12:59Z</time>
      </trkpt>
      <trkpt lat="45.67274" lon="5.76991">
        <ele>375.03073504544</ele>
        <time>2015-11-07T12:13:05Z</time>
      </trkpt>
      <trkpt lat="45.67262" lon="5.77006">
        <ele>375.82975714385</ele>
        <time>2015-11-07T12:13:14Z</time>
      </trkpt>
      <trkpt lat="45.67255" lon="5.77013">
        <ele>375.82975714385</ele>
        <time>2015-11-07T12:13:20Z</time>
      </trkpt>
      <trkpt lat="45.67246" lon="5.77028">
        <ele>376.68268684801</ele>
        <time>2015-11-07T12:13:30Z</time>
      </trkpt>
      <trkpt lat="45.67242" lon="5.77037">
        <ele>376.68268684801</ele>
        <time>2015-11-07T12:13:34Z</time>
      </trkpt>
      <trkpt lat="45.67243" lon="5.77056">
        <ele>377.38217285602</ele>
        <time>2015-11-07T12:13:45Z</time>
      </trkpt>
      <trkpt lat="45.6725" lon="5.77065">
        <ele>378.01029209191</ele>
        <time>2015-11-07T12:13:49Z</time>
      </trkpt>
      <trkpt lat="45.67317" lon="5.77103">
        <ele>378.74413247609</ele>
        <time>2015-11-07T12:13:59Z</time>
      </trkpt>
      <trkpt lat="45.67353" lon="5.77137">
        <ele>380.26624738385</ele>
        <time>2015-11-07T12:14:04Z</time>
      </trkpt>
      <trkpt lat="45.67412" lon="5.77221">
        <ele>382.28450757512</ele>
        <time>2015-11-07T12:14:14Z</time>
      </trkpt>
      <trkpt lat="45.67436" lon="5.7726">
        <ele>384.77183286557</ele>
        <time>2015-11-07T12:14:19Z</time>
      </trkpt>
      <trkpt lat="45.67472" lon="5.77319">
        <ele>388.01886921832</ele>
        <time>2015-11-07T12:14:30Z</time>
      </trkpt>
      <trkpt lat="45.67492" lon="5.77347">
        <ele>391.3849074078</ele>
        <time>2015-11-07T12:14:34Z</time>
      </trkpt>
      <trkpt lat="45.67558" lon="5.77432">
        <ele>395.5297867659</ele>
        <time>2015-11-07T12:14:49Z</time>
      </trkpt>
      <trkpt lat="45.67584" lon="5.77461">
        <ele>399.95310763433</ele>
        <time>2015-11-07T12:14:55Z</time>
      </trkpt>
      <trkpt lat="45.67621" lon="5.77514">
        <ele>404.19054660697</ele>
        <time>2015-11-07T12:15:04Z</time>
      </trkpt>
      <trkpt lat="45.67637" lon="5.77547">
        <ele>407.48107647435</ele>
        <time>2015-11-07T12:15:10Z</time>
      </trkpt>
      <trkpt lat="45.67645" lon="5.77564">
        <ele>410.05909486957</ele>
        <time>2015-11-07T12:15:20Z</time>
      </trkpt>
      <trkpt lat="45.67649" lon="5.77572">
        <ele>410.05909486957</ele>
        <time>2015-11-07T12:15:25Z</time>
      </trkpt>
      <trkpt lat="45.67659" lon="5.77586">
        <ele>411.82688978785</ele>
        <time>2015-11-07T12:15:34Z</time>
      </trkpt>
      <trkpt lat="45.67663" lon="5.77595">
        <ele>411.82688978785</ele>
        <time>2015-11-07T12:15:39Z</time>
      </trkpt>
      <trkpt lat="45.67672" lon="5.77608">
        <ele>412.99899460859</ele>
        <time>2015-11-07T12:15:50Z</time>
      </trkpt>
      <trkpt lat="45.67676" lon="5.77614">
        <ele>412.99899460859</ele>
        <time>2015-11-07T12:15:54Z</time>
      </trkpt>
      <trkpt lat="45.67686" lon="5.77629">
        <ele>414.26599375945</ele>
        <time>2015-11-07T12:16:05Z</time>
      </trkpt>
      <trkpt lat="45.6769" lon="5.77636">
        <ele>414.26599375945</ele>
        <time>2015-11-07T12:16:09Z</time>
      </trkpt>
      <trkpt lat="45.67694" lon="5.77657">
        <ele>415.90735590526</ele>
        <time>2015-11-07T12:16:19Z</time>
      </trkpt>
      <trkpt lat="45.67697" lon="5.77664">
        <ele>415.90735590526</ele>
        <time>2015-11-07T12:16:24Z</time>
      </trkpt>
      <trkpt lat="45.67704" lon="5.77683">
        <ele>416.91294379323</ele>
        <time>2015-11-07T12:16:34Z</time>
      </trkpt>
      <trkpt lat="45.67709" lon="5.7769">
        <ele>416.91294379323</ele>
        <time>2015-11-07T12:16:40Z</time>
      </trkpt>
      <trkpt lat="45.67716" lon="5.77707">
        <ele>418.58247734776</ele>
        <time>2015-11-07T12:16:50Z</time>
      </trkpt>
      <trkpt lat="45.67719" lon="5.77717">
        <ele>418.58247734776</ele>
        <time>2015-11-07T12:16:54Z</time>
      </trkpt>
      <trkpt lat="45.67731" lon="5.77742">
        <ele>420.11533305985</ele>
        <time>2015-11-07T12:17:09Z</time>
      </trkpt>
      <trkpt lat="45.67736" lon="5.7775">
        <ele>420.11533305985</ele>
        <time>2015-11-07T12:17:14Z</time>
      </trkpt>
      <trkpt lat="45.67746" lon="5.77765">
        <ele>420.91433001804</ele>
        <time>2015-11-07T12:17:25Z</time>
      </trkpt>
      <trkpt lat="45.67752" lon="5.77771">
        <ele>420.91433001804</ele>
        <time>2015-11-07T12:17:29Z</time>
      </trkpt>
      <trkpt lat="45.67761" lon="5.77777">
        <ele>421.42270872067</ele>
        <time>2015-11-07T12:17:40Z</time>
      </trkpt>
      <trkpt lat="45.67762" lon="5.77788">
        <ele>421.42270872067</ele>
        <time>2015-11-07T12:17:44Z</time>
      </trkpt>
      <trkpt lat="45.67784" lon="5.77863">
        <ele>422.13855027895</ele>
        <time>2015-11-07T12:17:55Z</time>
      </trkpt>
      <trkpt lat="45.67794" lon="5.77905">
        <ele>422.64379543295</ele>
        <time>2015-11-07T12:18:00Z</time>
      </trkpt>
      <trkpt lat="45.67813" lon="5.77984">
        <ele>422.96970533497</ele>
        <time>2015-11-07T12:18:09Z</time>
      </trkpt>
      <trkpt lat="45.67818" lon="5.78006">
        <ele>423.20347727353</ele>
        <time>2015-11-07T12:18:14Z</time>
      </trkpt>
      <trkpt lat="45.67815" lon="5.78023">
        <ele>422.6047996267</ele>
        <time>2015-11-07T12:18:24Z</time>
      </trkpt>
      <trkpt lat="45.67813" lon="5.78031">
        <ele>422.6047996267</ele>
        <time>2015-11-07T12:18:29Z</time>
      </trkpt>
      <trkpt lat="45.67809" lon="5.7805">
        <ele>421.91683657956</ele>
        <time>2015-11-07T12:18:39Z</time>
      </trkpt>
      <trkpt lat="45.67807" lon="5.78059">
        <ele>421.91683657956</ele>
        <time>2015-11-07T12:18:44Z</time>
      </trkpt>
      <trkpt lat="45.67793" lon="5.78083">
        <ele>421.4105295426</ele>
        <time>2015-11-07T12:18:59Z</time>
      </trkpt>
      <trkpt lat="45.67787" lon="5.78088">
        <ele>421.4105295426</ele>
        <time>2015-11-07T12:19:04Z</time>
      </trkpt>
      <trkpt lat="45.67775" lon="5.78098">
        <ele>421.04821033295</ele>
        <time>2015-11-07T12:19:14Z</time>
      </trkpt>
      <trkpt lat="45.6777" lon="5.78104">
        <ele>421.04821033295</ele>
        <time>2015-11-07T12:19:19Z</time>
      </trkpt>
      <trkpt lat="45.67759" lon="5.78115">
        <ele>421.21250715138</ele>
        <time>2015-11-07T12:19:29Z</time>
      </trkpt>
      <trkpt lat="45.67754" lon="5.78122">
        <ele>421.21250715138</ele>
        <time>2015-11-07T12:19:35Z</time>
      </trkpt>
      <trkpt lat="45.67745" lon="5.78136">
        <ele>421.82412900968</ele>
        <time>2015-11-07T12:19:44Z</time>
      </trkpt>
      <trkpt lat="45.67741" lon="5.78145">
        <ele>421.82412900968</ele>
        <time>2015-11-07T12:19:49Z</time>
      </trkpt>
      <trkpt lat="45.67737" lon="5.78164">
        <ele>422.64982358841</ele>
        <time>2015-11-07T12:19:59Z</time>
      </trkpt>
      <trkpt lat="45.67738" lon="5.78174">
        <ele>422.64982358841</ele>
        <time>2015-11-07T12:20:04Z</time>
      </trkpt>
      <trkpt lat="45.67742" lon="5.7819">
        <ele>422.7523016729</ele>
        <time>2015-11-07T12:20:14Z</time>
      </trkpt>
      <trkpt lat="45.67742" lon="5.78199">
        <ele>422.7523016729</ele>
        <time>2015-11-07T12:20:20Z</time>
      </trkpt>
      <trkpt lat="45.67742" lon="5.78219">
        <ele>423.12417034691</ele>
        <time>2015-11-07T12:20:29Z</time>
      </trkpt>
      <trkpt lat="45.67742" lon="5.78228">
        <ele>423.12417034691</ele>
        <time>2015-11-07T12:20:35Z</time>
      </trkpt>
      <trkpt lat="45.67744" lon="5.78243">
        <ele>424.06466440424</ele>
        <time>2015-11-07T12:20:44Z</time>
      </trkpt>
      <trkpt lat="45.67745" lon="5.78249">
        <ele>424.06466440424</ele>
        <time>2015-11-07T12:20:49Z</time>
      </trkpt>
      <trkpt lat="45.67744" lon="5.78266">
        <ele>424.85504986889</ele>
        <time>2015-11-07T12:20:59Z</time>
      </trkpt>
      <trkpt lat="45.67742" lon="5.78275">
        <ele>424.85504986889</ele>
        <time>2015-11-07T12:21:05Z</time>
      </trkpt>
      <trkpt lat="45.67741" lon="5.78303">
        <ele>425.88179669919</ele>
        <time>2015-11-07T12:21:19Z</time>
      </trkpt>
      <trkpt lat="45.67741" lon="5.78312">
        <ele>425.88179669919</ele>
        <time>2015-11-07T12:21:25Z</time>
      </trkpt>
      <trkpt lat="45.67738" lon="5.78335">
        <ele>427.35818528823</ele>
        <time>2015-11-07T12:21:34Z</time>
      </trkpt>
      <trkpt lat="45.67739" lon="5.78346">
        <ele>427.35818528823</ele>
        <time>2015-11-07T12:21:39Z</time>
      </trkpt>
      <trkpt lat="45.67738" lon="5.78365">
        <ele>429.07703341633</ele>
        <time>2015-11-07T12:21:50Z</time>
      </trkpt>
      <trkpt lat="45.67738" lon="5.78373">
        <ele>429.07703341633</ele>
        <time>2015-11-07T12:21:54Z</time>
      </trkpt>
      <trkpt lat="45.6774" lon="5.78388">
        <ele>430.73039093658</ele>
        <time>2015-11-07T12:22:04Z</time>
      </trkpt>
      <trkpt lat="45.67741" lon="5.78398">
        <ele>430.73039093658</ele>
        <time>2015-11-07T12:22:09Z</time>
      </trkpt>
      <trkpt lat="45.67744" lon="5.78415">
        <ele>432.23485589764</ele>
        <time>2015-11-07T12:22:20Z</time>
      </trkpt>
      <trkpt lat="45.67745" lon="5.78422">
        <ele>432.23485589764</ele>
        <time>2015-11-07T12:22:25Z</time>
      </trkpt>
      <trkpt lat="45.67746" lon="5.78442">
        <ele>434.63763206651</ele>
        <time>2015-11-07T12:22:35Z</time>
      </trkpt>
      <trkpt lat="45.67744" lon="5.78449">
        <ele>434.63763206651</ele>
        <time>2015-11-07T12:22:39Z</time>
      </trkpt>
      <trkpt lat="45.67736" lon="5.78459">
        <ele>435.62074124725</ele>
        <time>2015-11-07T12:22:50Z</time>
      </trkpt>
      <trkpt lat="45.67731" lon="5.78464">
        <ele>435.62074124725</ele>
        <time>2015-11-07T12:22:54Z</time>
      </trkpt>
      <trkpt lat="45.67735" lon="5.78473">
        <ele>435.66329088486</ele>
        <time>2015-11-07T12:23:05Z</time>
      </trkpt>
      <trkpt lat="45.67732" lon="5.78476">
        <ele>435.66329088486</ele>
        <time>2015-11-07T12:23:10Z</time>
      </trkpt>
      <trkpt lat="45.67727" lon="5.78492">
        <ele>434.70744376606</ele>
        <time>2015-11-07T12:23:24Z</time>
      </trkpt>
      <trkpt lat="45.67727" lon="5.78498">
        <ele>434.70744376606</ele>
        <time>2015-11-07T12:23:29Z</time>
      </trkpt>
      <trkpt lat="45.67708" lon="5.78494">
        <ele>434.10028547318</ele>
        <time>2015-11-07T12:23:39Z</time>
      </trkpt>
      <trkpt lat="45.67696" lon="5.78495">
        <ele>433.53255100106</ele>
        <time>2015-11-07T12:23:45Z</time>
      </trkpt>
      <trkpt lat="45.6768" lon="5.78526">
        <ele>433.19312239277</ele>
        <time>2015-11-07T12:23:54Z</time>
      </trkpt>
      <trkpt lat="45.67675" lon="5.78534">
        <ele>433.19312239277</ele>
        <time>2015-11-07T12:23:59Z</time>
      </trkpt>
      <trkpt lat="45.67666" lon="5.78547">
        <ele>433.04016079302</ele>
        <time>2015-11-07T12:24:09Z</time>
      </trkpt>
      <trkpt lat="45.67663" lon="5.78555">
        <ele>433.04016079302</ele>
        <time>2015-11-07T12:24:14Z</time>
      </trkpt>
      <trkpt lat="45.67656" lon="5.7857">
        <ele>433.04874191809</ele>
        <time>2015-11-07T12:24:24Z</time>
      </trkpt>
      <trkpt lat="45.67651" lon="5.78578">
        <ele>433.04874191809</ele>
        <time>2015-11-07T12:24:29Z</time>
      </trkpt>
      <trkpt lat="45.67643" lon="5.78595">
        <ele>433.07997693304</ele>
        <time>2015-11-07T12:24:40Z</time>
      </trkpt>
      <trkpt lat="45.67639" lon="5.78603">
        <ele>433.07997693304</ele>
        <time>2015-11-07T12:24:44Z</time>
      </trkpt>
      <trkpt lat="45.67633" lon="5.78619">
        <ele>433.14916925068</ele>
        <time>2015-11-07T12:24:54Z</time>
      </trkpt>
      <trkpt lat="45.67629" lon="5.78628">
        <ele>433.14916925068</ele>
        <time>2015-11-07T12:25:00Z</time>
      </trkpt>
      <trkpt lat="45.67618" lon="5.78654">
        <ele>433.0685741816</ele>
        <time>2015-11-07T12:25:15Z</time>
      </trkpt>
      <trkpt lat="45.67614" lon="5.78662">
        <ele>433.0685741816</ele>
        <time>2015-11-07T12:25:20Z</time>
      </trkpt>
      <trkpt lat="45.67615" lon="5.78678">
        <ele>433.11133873818</ele>
        <time>2015-11-07T12:25:29Z</time>
      </trkpt>
      <trkpt lat="45.67617" lon="5.78684">
        <ele>433.11133873818</ele>
        <time>2015-11-07T12:25:35Z</time>
      </trkpt>
      <trkpt lat="45.67621" lon="5.78703">
        <ele>433.16985350147</ele>
        <time>2015-11-07T12:25:44Z</time>
      </trkpt>
      <trkpt lat="45.67622" lon="5.78714">
        <ele>433.16985350147</ele>
        <time>2015-11-07T12:25:49Z</time>
      </trkpt>
      <trkpt lat="45.67622" lon="5.78734">
        <ele>433.41811201708</ele>
        <time>2015-11-07T12:25:59Z</time>
      </trkpt>
      <trkpt lat="45.67621" lon="5.78743">
        <ele>433.41811201708</ele>
        <time>2015-11-07T12:26:05Z</time>
      </trkpt>
      <trkpt lat="45.67621" lon="5.78759">
        <ele>432.59002158299</ele>
        <time>2015-11-07T12:26:15Z</time>
      </trkpt>
      <trkpt lat="45.67624" lon="5.78767">
        <ele>432.59002158299</ele>
        <time>2015-11-07T12:26:19Z</time>
      </trkpt>
      <trkpt lat="45.6763" lon="5.78785">
        <ele>432.4697202273</ele>
        <time>2015-11-07T12:26:29Z</time>
      </trkpt>
      <trkpt lat="45.67632" lon="5.78795">
        <ele>432.4697202273</ele>
        <time>2015-11-07T12:26:34Z</time>
      </trkpt>
      <trkpt lat="45.67636" lon="5.78815">
        <ele>432.83477766938</ele>
        <time>2015-11-07T12:26:44Z</time>
      </trkpt>
      <trkpt lat="45.67638" lon="5.78824">
        <ele>432.83477766938</ele>
        <time>2015-11-07T12:26:49Z</time>
      </trkpt>
      <trkpt lat="45.67643" lon="5.78844">
        <ele>433.46325394983</ele>
        <time>2015-11-07T12:26:59Z</time>
      </trkpt>
      <trkpt lat="45.67644" lon="5.78854">
        <ele>433.46325394983</ele>
        <time>2015-11-07T12:27:04Z</time>
      </trkpt>
      <trkpt lat="45.67649" lon="5.78871">
        <ele>433.93253096809</ele>
        <time>2015-11-07T12:27:14Z</time>
      </trkpt>
      <trkpt lat="45.67651" lon="5.7888">
        <ele>433.93253096809</ele>
        <time>2015-11-07T12:27:19Z</time>
      </trkpt>
      <trkpt lat="45.67656" lon="5.78895">
        <ele>434.22609825152</ele>
        <time>2015-11-07T12:27:29Z</time>
      </trkpt>
      <trkpt lat="45.67659" lon="5.78903">
        <ele>434.22609825152</ele>
        <time>2015-11-07T12:27:34Z</time>
      </trkpt>
      <trkpt lat="45.67671" lon="5.78928">
        <ele>434.40113654408</ele>
        <time>2015-11-07T12:27:49Z</time>
      </trkpt>
      <trkpt lat="45.67676" lon="5.78935">
        <ele>434.40113654408</ele>
        <time>2015-11-07T12:27:54Z</time>
      </trkpt>
      <trkpt lat="45.67684" lon="5.7895">
        <ele>434.43883531994</ele>
        <time>2015-11-07T12:28:04Z</time>
      </trkpt>
      <trkpt lat="45.67689" lon="5.78956">
        <ele>434.43883531994</ele>
        <time>2015-11-07T12:28:09Z</time>
      </trkpt>
      <trkpt lat="45.67698" lon="5.7897">
        <ele>434.36531799604</ele>
        <time>2015-11-07T12:28:19Z</time>
      </trkpt>
      <trkpt lat="45.67703" lon="5.78976">
        <ele>434.36531799604</ele>
        <time>2015-11-07T12:28:24Z</time>
      </trkpt>
      <trkpt lat="45.67712" lon="5.78987">
        <ele>434.24826818797</ele>
        <time>2015-11-07T12:28:34Z</time>
      </trkpt>
      <trkpt lat="45.67716" lon="5.78993">
        <ele>434.24826818797</ele>
        <time>2015-11-07T12:28:39Z</time>
      </trkpt>
      <trkpt lat="45.67724" lon="5.79004">
        <ele>433.93428621904</ele>
        <time>2015-11-07T12:28:49Z</time>
      </trkpt>
      <trkpt lat="45.67728" lon="5.79012">
        <ele>433.93428621904</ele>
        <time>2015-11-07T12:28:55Z</time>
      </trkpt>
      <trkpt lat="45.67736" lon="5.79027">
        <ele>433.87258202064</ele>
        <time>2015-11-07T12:29:04Z</time>
      </trkpt>
      <trkpt lat="45.67741" lon="5.79034">
        <ele>433.87258202064</ele>
        <time>2015-11-07T12:29:09Z</time>
      </trkpt>
      <trkpt lat="45.6775" lon="5.79048">
        <ele>434.23360292118</ele>
        <time>2015-11-07T12:29:20Z</time>
      </trkpt>
      <trkpt lat="45.67755" lon="5.79055">
        <ele>434.23360292118</ele>
        <time>2015-11-07T12:29:24Z</time>
      </trkpt>
      <trkpt lat="45.67769" lon="5.79072">
        <ele>433.71849880712</ele>
        <time>2015-11-07T12:29:40Z</time>
      </trkpt>
      <trkpt lat="45.67775" lon="5.79077">
        <ele>433.71849880712</ele>
        <time>2015-11-07T12:29:45Z</time>
      </trkpt>
      <trkpt lat="45.67784" lon="5.7909">
        <ele>433.31671177708</ele>
        <time>2015-11-07T12:29:55Z</time>
      </trkpt>
      <trkpt lat="45.67788" lon="5.79096">
        <ele>433.31671177708</ele>
        <time>2015-11-07T12:29:59Z</time>
      </trkpt>
      <trkpt lat="45.67797" lon="5.79108">
        <ele>432.40262327748</ele>
        <time>2015-11-07T12:30:09Z</time>
      </trkpt>
      <trkpt lat="45.678" lon="5.79116">
        <ele>432.40262327748</ele>
        <time>2015-11-07T12:30:15Z</time>
      </trkpt>
      <trkpt lat="45.67806" lon="5.79132">
        <ele>431.07525911336</ele>
        <time>2015-11-07T12:30:25Z</time>
      </trkpt>
      <trkpt lat="45.67808" lon="5.7914">
        <ele>431.07525911336</ele>
        <time>2015-11-07T12:30:29Z</time>
      </trkpt>
      <trkpt lat="45.6781" lon="5.79156">
        <ele>429.39862888344</ele>
        <time>2015-11-07T12:30:40Z</time>
      </trkpt>
      <trkpt lat="45.67811" lon="5.79163">
        <ele>429.39862888344</ele>
        <time>2015-11-07T12:30:44Z</time>
      </trkpt>
      <trkpt lat="45.67811" lon="5.79178">
        <ele>427.4329328293</ele>
        <time>2015-11-07T12:30:55Z</time>
      </trkpt>
      <trkpt lat="45.67811" lon="5.79186">
        <ele>427.4329328293</ele>
        <time>2015-11-07T12:30:59Z</time>
      </trkpt>
      <trkpt lat="45.67813" lon="5.79205">
        <ele>425.34995168423</ele>
        <time>2015-11-07T12:31:09Z</time>
      </trkpt>
      <trkpt lat="45.67814" lon="5.79218">
        <ele>423.26583486666</ele>
        <time>2015-11-07T12:31:14Z</time>
      </trkpt>
      <trkpt lat="45.67817" lon="5.79243">
        <ele>421.50425083222</ele>
        <time>2015-11-07T12:31:24Z</time>
      </trkpt>
      <trkpt lat="45.6782" lon="5.7925">
        <ele>421.50425083222</ele>
        <time>2015-11-07T12:31:29Z</time>
      </trkpt>
      <trkpt lat="45.67826" lon="5.79272">
        <ele>419.51380224158</ele>
        <time>2015-11-07T12:31:44Z</time>
      </trkpt>
      <trkpt lat="45.67827" lon="5.79283">
        <ele>419.51380224158</ele>
        <time>2015-11-07T12:31:49Z</time>
      </trkpt>
      <trkpt lat="45.67831" lon="5.79302">
        <ele>418.16757017039</ele>
        <time>2015-11-07T12:32:00Z</time>
      </trkpt>
      <trkpt lat="45.67834" lon="5.7931">
        <ele>418.16757017039</ele>
        <time>2015-11-07T12:32:05Z</time>
      </trkpt>
      <trkpt lat="45.67846" lon="5.79327">
        <ele>417.20612884898</ele>
        <time>2015-11-07T12:32:15Z</time>
      </trkpt>
      <trkpt lat="45.67849" lon="5.79337">
        <ele>417.20612884898</ele>
        <time>2015-11-07T12:32:19Z</time>
      </trkpt>
      <trkpt lat="45.67857" lon="5.79355">
        <ele>416.56082108286</ele>
        <time>2015-11-07T12:32:30Z</time>
      </trkpt>
      <trkpt lat="45.67862" lon="5.79369">
        <ele>415.84996011209</ele>
        <time>2015-11-07T12:32:34Z</time>
      </trkpt>
      <trkpt lat="45.67893" lon="5.7943">
        <ele>415.06581009023</ele>
        <time>2015-11-07T12:32:45Z</time>
      </trkpt>
      <trkpt lat="45.67911" lon="5.79463">
        <ele>414.43185337921</ele>
        <time>2015-11-07T12:32:50Z</time>
      </trkpt>
      <trkpt lat="45.67929" lon="5.79512">
        <ele>414.22666205713</ele>
        <time>2015-11-07T12:32:59Z</time>
      </trkpt>
      <trkpt lat="45.67931" lon="5.79518">
        <ele>414.22666205713</ele>
        <time>2015-11-07T12:33:05Z</time>
      </trkpt>
      <trkpt lat="45.6794" lon="5.79527">
        <ele>413.00650693615</ele>
        <time>2015-11-07T12:33:14Z</time>
      </trkpt>
      <trkpt lat="45.67944" lon="5.79532">
        <ele>413.00650693615</ele>
        <time>2015-11-07T12:33:20Z</time>
      </trkpt>
      <trkpt lat="45.67949" lon="5.79543">
        <ele>411.8430996663</ele>
        <time>2015-11-07T12:33:29Z</time>
      </trkpt>
      <trkpt lat="45.67953" lon="5.79548">
        <ele>411.8430996663</ele>
        <time>2015-11-07T12:33:34Z</time>
      </trkpt>
      <trkpt lat="45.67967" lon="5.79568">
        <ele>409.79805941097</ele>
        <time>2015-11-07T12:33:50Z</time>
      </trkpt>
      <trkpt lat="45.67973" lon="5.79574">
        <ele>409.79805941097</ele>
        <time>2015-11-07T12:33:54Z</time>
      </trkpt>
      <trkpt lat="45.6798" lon="5.79585">
        <ele>406.75367120219</ele>
        <time>2015-11-07T12:34:04Z</time>
      </trkpt>
      <trkpt lat="45.67983" lon="5.79589">
        <ele>406.75367120219</ele>
        <time>2015-11-07T12:34:09Z</time>
      </trkpt>
      <trkpt lat="45.67995" lon="5.79598">
        <ele>402.87735633793</ele>
        <time>2015-11-07T12:34:19Z</time>
      </trkpt>
      <trkpt lat="45.68007" lon="5.79607">
        <ele>399.06140135345</ele>
        <time>2015-11-07T12:34:24Z</time>
      </trkpt>
      <trkpt lat="45.6803" lon="5.79622">
        <ele>396.27633802112</ele>
        <time>2015-11-07T12:34:34Z</time>
      </trkpt>
      <trkpt lat="45.68061" lon="5.79637">
        <ele>394.0348824668</ele>
        <time>2015-11-07T12:34:39Z</time>
      </trkpt>
      <trkpt lat="45.68117" lon="5.79666">
        <ele>392.90704204888</ele>
        <time>2015-11-07T12:34:49Z</time>
      </trkpt>
      <trkpt lat="45.68129" lon="5.79686">
        <ele>392.06301349853</ele>
        <time>2015-11-07T12:34:54Z</time>
      </trkpt>
      <trkpt lat="45.68139" lon="5.797">
        <ele>391.64089120735</ele>
        <time>2015-11-07T12:35:05Z</time>
      </trkpt>
      <trkpt lat="45.68144" lon="5.79706">
        <ele>391.64089120735</ele>
        <time>2015-11-07T12:35:09Z</time>
      </trkpt>
      <trkpt lat="45.68159" lon="5.79728">
        <ele>391.26289930376</ele>
        <time>2015-11-07T12:35:24Z</time>
      </trkpt>
      <trkpt lat="45.68164" lon="5.79735">
        <ele>391.26289930376</ele>
        <time>2015-11-07T12:35:29Z</time>
      </trkpt>
      <trkpt lat="45.6818" lon="5.79758">
        <ele>391.60193936007</ele>
        <time>2015-11-07T12:35:39Z</time>
      </trkpt>
      <trkpt lat="45.68184" lon="5.79764">
        <ele>391.60193936007</ele>
        <time>2015-11-07T12:35:45Z</time>
      </trkpt>
      <trkpt lat="45.68187" lon="5.79768">
        <ele>392.15528022223</ele>
        <time>2015-11-07T12:35:54Z</time>
      </trkpt>
      <trkpt lat="45.68188" lon="5.79769">
        <ele>392.15528022223</ele>
        <time>2015-11-07T12:36:00Z</time>
      </trkpt>
      <trkpt lat="45.68193" lon="5.79775">
        <ele>392.15528022223</ele>
        <time>2015-11-07T12:36:10Z</time>
      </trkpt>
      <trkpt lat="45.68199" lon="5.7978">
        <ele>392.9608038465</ele>
        <time>2015-11-07T12:36:15Z</time>
      </trkpt>
      <trkpt lat="45.68211" lon="5.79793">
        <ele>393.79341603934</ele>
        <time>2015-11-07T12:36:25Z</time>
      </trkpt>
      <trkpt lat="45.68221" lon="5.79809">
        <ele>394.81910551178</ele>
        <time>2015-11-07T12:36:29Z</time>
      </trkpt>
      <trkpt lat="45.6828" lon="5.7989">
        <ele>395.97491409972</ele>
        <time>2015-11-07T12:36:44Z</time>
      </trkpt>
      <trkpt lat="45.68301" lon="5.79916">
        <ele>397.28858532898</ele>
        <time>2015-11-07T12:36:49Z</time>
      </trkpt>
      <trkpt lat="45.68344" lon="5.79958">
        <ele>398.33863155196</ele>
        <time>2015-11-07T12:37:00Z</time>
      </trkpt>
      <trkpt lat="45.68366" lon="5.79986">
        <ele>399.54230224059</ele>
        <time>2015-11-07T12:37:04Z</time>
      </trkpt>
      <trkpt lat="45.68399" lon="5.80057">
        <ele>400.46436086735</ele>
        <time>2015-11-07T12:37:15Z</time>
      </trkpt>
      <trkpt lat="45.68415" lon="5.80092">
        <ele>401.07706610678</ele>
        <time>2015-11-07T12:37:19Z</time>
      </trkpt>
      <trkpt lat="45.68455" lon="5.80153">
        <ele>401.09623728796</ele>
        <time>2015-11-07T12:37:29Z</time>
      </trkpt>
      <trkpt lat="45.68461" lon="5.80164">
        <ele>401.06732035779</ele>
        <time>2015-11-07T12:37:34Z</time>
      </trkpt>
      <trkpt lat="45.68469" lon="5.80177">
        <ele>400.89062930425</ele>
        <time>2015-11-07T12:37:44Z</time>
      </trkpt>
      <trkpt lat="45.68473" lon="5.80183">
        <ele>400.89062930425</ele>
        <time>2015-11-07T12:37:50Z</time>
      </trkpt>
      <trkpt lat="45.68486" lon="5.80202">
        <ele>400.61839711622</ele>
        <time>2015-11-07T12:38:05Z</time>
      </trkpt>
      <trkpt lat="45.68491" lon="5.80209">
        <ele>400.61839711622</ele>
        <time>2015-11-07T12:38:09Z</time>
      </trkpt>
      <trkpt lat="45.68501" lon="5.80222">
        <ele>400.34259206453</ele>
        <time>2015-11-07T12:38:19Z</time>
      </trkpt>
      <trkpt lat="45.68506" lon="5.80228">
        <ele>400.34259206453</ele>
        <time>2015-11-07T12:38:24Z</time>
      </trkpt>
      <trkpt lat="45.68516" lon="5.8024">
        <ele>400.22056296662</ele>
        <time>2015-11-07T12:38:34Z</time>
      </trkpt>
      <trkpt lat="45.68521" lon="5.80246">
        <ele>400.22056296662</ele>
        <time>2015-11-07T12:38:39Z</time>
      </trkpt>
      <trkpt lat="45.6853" lon="5.80257">
        <ele>399.99422748567</ele>
        <time>2015-11-07T12:38:50Z</time>
      </trkpt>
      <trkpt lat="45.6853" lon="5.80258">
        <ele>399.99422748567</ele>
        <time>2015-11-07T12:38:54Z</time>
      </trkpt>
      <trkpt lat="45.68534" lon="5.80265">
        <ele>399.99422748567</ele>
        <time>2015-11-07T12:39:04Z</time>
      </trkpt>
      <trkpt lat="45.68539" lon="5.8027">
        <ele>399.15101168281</ele>
        <time>2015-11-07T12:39:10Z</time>
      </trkpt>
      <trkpt lat="45.68547" lon="5.80284">
        <ele>398.01040222524</ele>
        <time>2015-11-07T12:39:19Z</time>
      </trkpt>
      <trkpt lat="45.68551" lon="5.80291">
        <ele>398.01040222524</ele>
        <time>2015-11-07T12:39:24Z</time>
      </trkpt>
      <trkpt lat="45.68561" lon="5.80314">
        <ele>397.2728232268</ele>
        <time>2015-11-07T12:39:39Z</time>
      </trkpt>
      <trkpt lat="45.68564" lon="5.80311">
        <ele>397.2728232268</ele>
        <time>2015-11-07T12:39:44Z</time>
      </trkpt>
      <trkpt lat="45.68572" lon="5.80297">
        <ele>396.21711461996</ele>
        <time>2015-11-07T12:39:55Z</time>
      </trkpt>
      <trkpt lat="45.68576" lon="5.8029">
        <ele>396.21711461996</ele>
        <time>2015-11-07T12:39:59Z</time>
      </trkpt>
      <trkpt lat="45.68582" lon="5.80287">
        <ele>394.95423329627</ele>
        <time>2015-11-07T12:40:09Z</time>
      </trkpt>
      <trkpt lat="45.68587" lon="5.80292">
        <ele>394.95423329627</ele>
        <time>2015-11-07T12:40:14Z</time>
      </trkpt>
      <trkpt lat="45.68595" lon="5.80304">
        <ele>393.37144022459</ele>
        <time>2015-11-07T12:40:24Z</time>
      </trkpt>
      <trkpt lat="45.68598" lon="5.80312">
        <ele>393.37144022459</ele>
        <time>2015-11-07T12:40:29Z</time>
      </trkpt>
      <trkpt lat="45.68603" lon="5.80329">
        <ele>391.79754133553</ele>
        <time>2015-11-07T12:40:39Z</time>
      </trkpt>
      <trkpt lat="45.68605" lon="5.80336">
        <ele>391.79754133553</ele>
        <time>2015-11-07T12:40:44Z</time>
      </trkpt>
      <trkpt lat="45.68614" lon="5.80348">
        <ele>390.22014225293</ele>
        <time>2015-11-07T12:40:55Z</time>
      </trkpt>
      <trkpt lat="45.6862" lon="5.80351">
        <ele>390.22014225293</ele>
        <time>2015-11-07T12:41:00Z</time>
      </trkpt>
      <trkpt lat="45.6863" lon="5.80356">
        <ele>388.49808225486</ele>
        <time>2015-11-07T12:41:10Z</time>
      </trkpt>
      <trkpt lat="45.68636" lon="5.80354">
        <ele>388.49808225486</ele>
        <time>2015-11-07T12:41:14Z</time>
      </trkpt>
      <trkpt lat="45.68649" lon="5.80349">
        <ele>386.64509074155</ele>
        <time>2015-11-07T12:41:25Z</time>
      </trkpt>
      <trkpt lat="45.68656" lon="5.80346">
        <ele>386.64509074155</ele>
        <time>2015-11-07T12:41:30Z</time>
      </trkpt>
      <trkpt lat="45.68688" lon="5.8033">
        <ele>385.49568471486</ele>
        <time>2015-11-07T12:41:45Z</time>
      </trkpt>
      <trkpt lat="45.68701" lon="5.80324">
        <ele>384.40880284687</ele>
        <time>2015-11-07T12:41:49Z</time>
      </trkpt>
      <trkpt lat="45.68713" lon="5.80319">
        <ele>383.48201672273</ele>
        <time>2015-11-07T12:41:59Z</time>
      </trkpt>
      <trkpt lat="45.6872" lon="5.80318">
        <ele>383.48201672273</ele>
        <time>2015-11-07T12:42:04Z</time>
      </trkpt>
      <trkpt lat="45.6873" lon="5.80314">
        <ele>382.02705951844</ele>
        <time>2015-11-07T12:42:15Z</time>
      </trkpt>
      <trkpt lat="45.68734" lon="5.80313">
        <ele>382.02705951844</ele>
        <time>2015-11-07T12:42:20Z</time>
      </trkpt>
      <trkpt lat="45.68744" lon="5.80311">
        <ele>380.09941401311</ele>
        <time>2015-11-07T12:42:30Z</time>
      </trkpt>
      <trkpt lat="45.68751" lon="5.80311">
        <ele>380.09941401311</ele>
        <time>2015-11-07T12:42:35Z</time>
      </trkpt>
      <trkpt lat="45.68764" lon="5.8031">
        <ele>378.41469487651</ele>
        <time>2015-11-07T12:42:44Z</time>
      </trkpt>
      <trkpt lat="45.68771" lon="5.8031">
        <ele>378.41469487651</ele>
        <time>2015-11-07T12:42:49Z</time>
      </trkpt>
      <trkpt lat="45.68786" lon="5.80312">
        <ele>376.72733105922</ele>
        <time>2015-11-07T12:42:59Z</time>
      </trkpt>
      <trkpt lat="45.68794" lon="5.80312">
        <ele>376.72733105922</ele>
        <time>2015-11-07T12:43:04Z</time>
      </trkpt>
      <trkpt lat="45.68806" lon="5.80316">
        <ele>374.93945693122</ele>
        <time>2015-11-07T12:43:14Z</time>
      </trkpt>
      <trkpt lat="45.68813" lon="5.80318">
        <ele>374.93945693122</ele>
        <time>2015-11-07T12:43:20Z</time>
      </trkpt>
      <trkpt lat="45.68828" lon="5.80324">
        <ele>373.60913147606</ele>
        <time>2015-11-07T12:43:30Z</time>
      </trkpt>
      <trkpt lat="45.68835" lon="5.80327">
        <ele>373.60913147606</ele>
        <time>2015-11-07T12:43:34Z</time>
      </trkpt>
      <trkpt lat="45.68859" lon="5.80336">
        <ele>372.2433065329</ele>
        <time>2015-11-07T12:43:49Z</time>
      </trkpt>
      <trkpt lat="45.68865" lon="5.80342">
        <ele>372.2433065329</ele>
        <time>2015-11-07T12:43:54Z</time>
      </trkpt>
      <trkpt lat="45.68874" lon="5.80348">
        <ele>370.50048725913</ele>
        <time>2015-11-07T12:44:04Z</time>
      </trkpt>
      <trkpt lat="45.6888" lon="5.8035">
        <ele>370.50048725913</ele>
        <time>2015-11-07T12:44:09Z</time>
      </trkpt>
      <trkpt lat="45.68891" lon="5.80356">
        <ele>368.45436492814</ele>
        <time>2015-11-07T12:44:19Z</time>
      </trkpt>
      <trkpt lat="45.68896" lon="5.8036">
        <ele>368.45436492814</ele>
        <time>2015-11-07T12:44:25Z</time>
      </trkpt>
      <trkpt lat="45.68908" lon="5.80367">
        <ele>366.23165129236</ele>
        <time>2015-11-07T12:44:35Z</time>
      </trkpt>
      <trkpt lat="45.68914" lon="5.8037">
        <ele>366.23165129236</ele>
        <time>2015-11-07T12:44:39Z</time>
      </trkpt>
      <trkpt lat="45.68926" lon="5.80376">
        <ele>363.90694519507</ele>
        <time>2015-11-07T12:44:49Z</time>
      </trkpt>
      <trkpt lat="45.68933" lon="5.80379">
        <ele>363.90694519507</ele>
        <time>2015-11-07T12:44:54Z</time>
      </trkpt>
      <trkpt lat="45.68946" lon="5.80383">
        <ele>361.41987823144</ele>
        <time>2015-11-07T12:45:05Z</time>
      </trkpt>
      <trkpt lat="45.68952" lon="5.80385">
        <ele>361.41987823144</ele>
        <time>2015-11-07T12:45:09Z</time>
      </trkpt>
      <trkpt lat="45.68964" lon="5.8039">
        <ele>358.74371364769</ele>
        <time>2015-11-07T12:45:20Z</time>
      </trkpt>
      <trkpt lat="45.6897" lon="5.80392">
        <ele>358.74371364769</ele>
        <time>2015-11-07T12:45:24Z</time>
      </trkpt>
      <trkpt lat="45.68984" lon="5.80397">
        <ele>356.56026654727</ele>
        <time>2015-11-07T12:45:39Z</time>
      </trkpt>
      <trkpt lat="45.68984" lon="5.80398">
        <ele>356.56026654727</ele>
        <time>2015-11-07T12:45:44Z</time>
      </trkpt>
      <trkpt lat="45.68987" lon="5.80387">
        <ele>356.56026654727</ele>
        <time>2015-11-07T12:45:54Z</time>
      </trkpt>
      <trkpt lat="45.68987" lon="5.80376">
        <ele>354.67835742189</ele>
        <time>2015-11-07T12:45:59Z</time>
      </trkpt>
      <trkpt lat="45.68987" lon="5.80352">
        <ele>353.15048618975</ele>
        <time>2015-11-07T12:46:09Z</time>
      </trkpt>
      <trkpt lat="45.68988" lon="5.80341">
        <ele>353.15048618975</ele>
        <time>2015-11-07T12:46:14Z</time>
      </trkpt>
      <trkpt lat="45.68991" lon="5.80325">
        <ele>351.30364903029</ele>
        <time>2015-11-07T12:46:24Z</time>
      </trkpt>
      <trkpt lat="45.68993" lon="5.80315">
        <ele>351.30364903029</ele>
        <time>2015-11-07T12:46:30Z</time>
      </trkpt>
      <trkpt lat="45.68992" lon="5.80296">
        <ele>349.17798850206</ele>
        <time>2015-11-07T12:46:39Z</time>
      </trkpt>
      <trkpt lat="45.6899" lon="5.80288">
        <ele>349.17798850206</ele>
        <time>2015-11-07T12:46:44Z</time>
      </trkpt>
      <trkpt lat="45.68988" lon="5.80289">
        <ele>349.17798850206</ele>
        <time>2015-11-07T12:46:55Z</time>
      </trkpt>
      <trkpt lat="45.68989" lon="5.80289">
        <ele>349.17798850206</ele>
        <time>2015-11-07T12:46:59Z</time>
      </trkpt>
      <trkpt lat="45.68988" lon="5.80288">
        <ele>349.17798850206</ele>
        <time>2015-11-07T12:47:09Z</time>
      </trkpt>
      <trkpt lat="45.68987" lon="5.80288">
        <ele>347.1860717762</ele>
        <time>2015-11-07T12:47:14Z</time>
      </trkpt>
      <trkpt lat="45.68989" lon="5.8029">
        <ele>347.1860717762</ele>
        <time>2015-11-07T12:47:24Z</time>
      </trkpt>
      <trkpt lat="45.68989" lon="5.8029">
        <ele>347.1860717762</ele>
        <time>2015-11-07T12:47:29Z</time>
      </trkpt>
      <trkpt lat="45.68989" lon="5.80289">
        <ele>347.1860717762</ele>
        <time>2015-11-07T12:47:39Z</time>
      </trkpt>
      <trkpt lat="45.6899" lon="5.80289">
        <ele>347.1860717762</ele>
        <time>2015-11-07T12:47:44Z</time>
      </trkpt>
      <trkpt lat="45.68989" lon="5.80287">
        <ele>347.1860717762</ele>
        <time>2015-11-07T12:47:54Z</time>
      </trkpt>
      <trkpt lat="45.68988" lon="5.80286">
        <ele>347.1860717762</ele>
        <time>2015-11-07T12:48:00Z</time>
      </trkpt>
      <trkpt lat="45.68988" lon="5.80286">
        <ele>347.1860717762</ele>
        <time>2015-11-07T12:48:15Z</time>
      </trkpt>
      <trkpt lat="45.68989" lon="5.80286">
        <ele>347.1860717762</ele>
        <time>2015-11-07T12:48:19Z</time>
      </trkpt>
      <trkpt lat="45.68988" lon="5.80286">
        <ele>347.1860717762</ele>
        <time>2015-11-07T12:48:29Z</time>
      </trkpt>
      <trkpt lat="45.68989" lon="5.80286">
        <ele>347.1860717762</ele>
        <time>2015-11-07T12:48:34Z</time>
      </trkpt>
      <trkpt lat="45.68987" lon="5.80287">
        <ele>345.5223423932</ele>
        <time>2015-11-07T12:48:44Z</time>
      </trkpt>
      <trkpt lat="45.68986" lon="5.80286">
        <ele>345.5223423932</ele>
        <time>2015-11-07T12:48:49Z</time>
      </trkpt>
      <trkpt lat="45.68987" lon="5.80287">
        <ele>345.5223423932</ele>
        <time>2015-11-07T12:48:59Z</time>
      </trkpt>
      <trkpt lat="45.68989" lon="5.80287">
        <ele>345.5223423932</ele>
        <time>2015-11-07T12:49:04Z</time>
      </trkpt>
      <trkpt lat="45.68989" lon="5.80287">
        <ele>345.5223423932</ele>
        <time>2015-11-07T12:49:14Z</time>
      </trkpt>
      <trkpt lat="45.6899" lon="5.80294">
        <ele>344.07772132235</ele>
        <time>2015-11-07T12:49:19Z</time>
      </trkpt>
      <trkpt lat="45.68991" lon="5.80308">
        <ele>342.90895682201</ele>
        <time>2015-11-07T12:49:29Z</time>
      </trkpt>
      <trkpt lat="45.68991" lon="5.80307">
        <ele>342.90895682201</ele>
        <time>2015-11-07T12:49:34Z</time>
      </trkpt>
      <trkpt lat="45.68991" lon="5.80308">
        <ele>342.90895682201</ele>
        <time>2015-11-07T12:49:49Z</time>
      </trkpt>
      <trkpt lat="45.68991" lon="5.80307">
        <ele>342.90895682201</ele>
        <time>2015-11-07T12:49:54Z</time>
      </trkpt>
      <trkpt lat="45.68991" lon="5.80306">
        <ele>342.90895682201</ele>
        <time>2015-11-07T12:50:04Z</time>
      </trkpt>
      <trkpt lat="45.68991" lon="5.80306">
        <ele>342.90895682201</ele>
        <time>2015-11-07T12:50:09Z</time>
      </trkpt>
      <trkpt lat="45.68991" lon="5.80307">
        <ele>342.90895682201</ele>
        <time>2015-11-07T12:50:19Z</time>
      </trkpt>
      <trkpt lat="45.68989" lon="5.80286">
        <ele>341.90924378833</ele>
        <time>2015-11-07T13:43:48Z</time>
      </trkpt>
      <trkpt lat="45.68988" lon="5.80286">
        <ele>341.90924378833</ele>
        <time>2015-11-07T13:43:53Z</time>
      </trkpt>
      <trkpt lat="45.68989" lon="5.80286">
        <ele>341.90924378833</ele>
        <time>2015-11-07T13:43:58Z</time>
      </trkpt>
      <trkpt lat="45.68988" lon="5.80286">
        <ele>341.90924378833</ele>
        <time>2015-11-07T13:44:08Z</time>
      </trkpt>
      <trkpt lat="45.6899" lon="5.80285">
        <ele>341.90924378833</ele>
        <time>2015-11-07T13:44:13Z</time>
      </trkpt>
      <trkpt lat="45.68991" lon="5.80286">
        <ele>341.90924378833</ele>
        <time>2015-11-07T13:44:23Z</time>
      </trkpt>
      <trkpt lat="45.68993" lon="5.8029">
        <ele>341.90924378833</ele>
        <time>2015-11-07T13:44:28Z</time>
      </trkpt>
      <trkpt lat="45.68997" lon="5.80311">
        <ele>341.1231780034</ele>
        <time>2015-11-07T13:44:43Z</time>
      </trkpt>
      <trkpt lat="45.68998" lon="5.80319">
        <ele>341.1231780034</ele>
        <time>2015-11-07T13:44:48Z</time>
      </trkpt>
      <trkpt lat="45.68998" lon="5.80334">
        <ele>340.74992891305</ele>
        <time>2015-11-07T13:44:58Z</time>
      </trkpt>
      <trkpt lat="45.68999" lon="5.80341">
        <ele>340.74992891305</ele>
        <time>2015-11-07T13:45:03Z</time>
      </trkpt>
      <trkpt lat="45.68996" lon="5.80345">
        <ele>340.74992891305</ele>
        <time>2015-11-07T13:45:13Z</time>
      </trkpt>
      <trkpt lat="45.68993" lon="5.8035">
        <ele>340.56930265064</ele>
        <time>2015-11-07T13:45:18Z</time>
      </trkpt>
      <trkpt lat="45.68993" lon="5.80352">
        <ele>340.56930265064</ele>
        <time>2015-11-07T13:45:28Z</time>
      </trkpt>
      <trkpt lat="45.68993" lon="5.80355">
        <ele>340.56930265064</ele>
        <time>2015-11-07T13:45:33Z</time>
      </trkpt>
      <trkpt lat="45.68993" lon="5.80356">
        <ele>340.56930265064</ele>
        <time>2015-11-07T13:45:43Z</time>
      </trkpt>
      <trkpt lat="45.68993" lon="5.80356">
        <ele>340.56930265064</ele>
        <time>2015-11-07T13:45:48Z</time>
      </trkpt>
      <trkpt lat="45.68994" lon="5.80375">
        <ele>340.43433311002</ele>
        <time>2015-11-07T13:45:58Z</time>
      </trkpt>
      <trkpt lat="45.68994" lon="5.80377">
        <ele>340.43433311002</ele>
        <time>2015-11-07T13:46:03Z</time>
      </trkpt>
      <trkpt lat="45.68994" lon="5.80378">
        <ele>340.43433311002</ele>
        <time>2015-11-07T13:46:18Z</time>
      </trkpt>
      <trkpt lat="45.68994" lon="5.80377">
        <ele>340.43433311002</ele>
        <time>2015-11-07T13:46:23Z</time>
      </trkpt>
      <trkpt lat="45.68994" lon="5.80376">
        <ele>340.43433311002</ele>
        <time>2015-11-07T13:46:33Z</time>
      </trkpt>
      <trkpt lat="45.68994" lon="5.80376">
        <ele>340.43433311002</ele>
        <time>2015-11-07T13:46:38Z</time>
      </trkpt>
      <trkpt lat="45.68994" lon="5.80376">
        <ele>340.43433311002</ele>
        <time>2015-11-07T13:46:48Z</time>
      </trkpt>
      <trkpt lat="45.68994" lon="5.80377">
        <ele>340.43433311002</ele>
        <time>2015-11-07T13:46:53Z</time>
      </trkpt>
      <trkpt lat="45.68995" lon="5.8038">
        <ele>340.43433311002</ele>
        <time>2015-11-07T13:47:03Z</time>
      </trkpt>
      <trkpt lat="45.68994" lon="5.80386">
        <ele>340.28073834785</ele>
        <time>2015-11-07T13:47:08Z</time>
      </trkpt>
      <trkpt lat="45.68999" lon="5.80396">
        <ele>340.28073834785</ele>
        <time>2015-11-07T13:47:18Z</time>
      </trkpt>
      <trkpt lat="45.69002" lon="5.80399">
        <ele>339.97692802343</ele>
        <time>2015-11-07T13:47:23Z</time>
      </trkpt>
      <trkpt lat="45.69012" lon="5.80407">
        <ele>340.22281864274</ele>
        <time>2015-11-07T13:47:33Z</time>
      </trkpt>
      <trkpt lat="45.69018" lon="5.80411">
        <ele>340.22281864274</ele>
        <time>2015-11-07T13:47:38Z</time>
      </trkpt>
      <trkpt lat="45.69035" lon="5.80419">
        <ele>340.71423313781</ele>
        <time>2015-11-07T13:47:48Z</time>
      </trkpt>
      <trkpt lat="45.69043" lon="5.80422">
        <ele>340.71423313781</ele>
        <time>2015-11-07T13:47:53Z</time>
      </trkpt>
      <trkpt lat="45.69049" lon="5.80428">
        <ele>340.08782490408</ele>
        <time>2015-11-07T13:48:03Z</time>
      </trkpt>
      <trkpt lat="45.69056" lon="5.80427">
        <ele>340.08782490408</ele>
        <time>2015-11-07T13:48:08Z</time>
      </trkpt>
      <trkpt lat="45.69073" lon="5.80415">
        <ele>339.08669638965</ele>
        <time>2015-11-07T13:48:23Z</time>
      </trkpt>
      <trkpt lat="45.69076" lon="5.80412">
        <ele>339.08669638965</ele>
        <time>2015-11-07T13:48:28Z</time>
      </trkpt>
      <trkpt lat="45.69083" lon="5.8046">
        <ele>337.92487037606</ele>
        <time>2015-11-07T13:48:38Z</time>
      </trkpt>
      <trkpt lat="45.69085" lon="5.80502">
        <ele>336.88759225685</ele>
        <time>2015-11-07T13:48:43Z</time>
      </trkpt>
      <trkpt lat="45.69092" lon="5.80571">
        <ele>335.67679780434</ele>
        <time>2015-11-07T13:48:53Z</time>
      </trkpt>
      <trkpt lat="45.69095" lon="5.80628">
        <ele>335.16972229695</ele>
        <time>2015-11-07T13:48:58Z</time>
      </trkpt>
      <trkpt lat="45.69103" lon="5.80695">
        <ele>334.67845836862</ele>
        <time>2015-11-07T13:49:08Z</time>
      </trkpt>
      <trkpt lat="45.69102" lon="5.80705">
        <ele>334.67845836862</ele>
        <time>2015-11-07T13:49:13Z</time>
      </trkpt>
      <trkpt lat="45.69101" lon="5.80724">
        <ele>334.30058568298</ele>
        <time>2015-11-07T13:49:23Z</time>
      </trkpt>
      <trkpt lat="45.691" lon="5.80733">
        <ele>334.30058568298</ele>
        <time>2015-11-07T13:49:28Z</time>
      </trkpt>
      <trkpt lat="45.69095" lon="5.80752">
        <ele>334.29916631308</ele>
        <time>2015-11-07T13:49:38Z</time>
      </trkpt>
      <trkpt lat="45.69091" lon="5.8076">
        <ele>334.29916631308</ele>
        <time>2015-11-07T13:49:43Z</time>
      </trkpt>
      <trkpt lat="45.69083" lon="5.80774">
        <ele>334.32606679277</ele>
        <time>2015-11-07T13:49:53Z</time>
      </trkpt>
      <trkpt lat="45.69078" lon="5.80779">
        <ele>334.32606679277</ele>
        <time>2015-11-07T13:49:58Z</time>
      </trkpt>
      <trkpt lat="45.6907" lon="5.8079">
        <ele>334.41897257558</ele>
        <time>2015-11-07T13:50:08Z</time>
      </trkpt>
      <trkpt lat="45.69067" lon="5.80797">
        <ele>334.41897257558</ele>
        <time>2015-11-07T13:50:13Z</time>
      </trkpt>
      <trkpt lat="45.69059" lon="5.8081">
        <ele>334.25239052528</ele>
        <time>2015-11-07T13:50:23Z</time>
      </trkpt>
      <trkpt lat="45.69055" lon="5.80817">
        <ele>334.25239052528</ele>
        <time>2015-11-07T13:50:28Z</time>
      </trkpt>
      <trkpt lat="45.69045" lon="5.80835">
        <ele>333.95785790461</ele>
        <time>2015-11-07T13:50:43Z</time>
      </trkpt>
      <trkpt lat="45.69044" lon="5.8084">
        <ele>333.95785790461</ele>
        <time>2015-11-07T13:50:48Z</time>
      </trkpt>
      <trkpt lat="45.69038" lon="5.80854">
        <ele>333.81619368443</ele>
        <time>2015-11-07T13:50:58Z</time>
      </trkpt>
      <trkpt lat="45.69035" lon="5.80861">
        <ele>333.81619368443</ele>
        <time>2015-11-07T13:51:03Z</time>
      </trkpt>
      <trkpt lat="45.69033" lon="5.8088">
        <ele>333.32343621578</ele>
        <time>2015-11-07T13:51:13Z</time>
      </trkpt>
      <trkpt lat="45.69034" lon="5.8089">
        <ele>333.32343621578</ele>
        <time>2015-11-07T13:51:18Z</time>
      </trkpt>
      <trkpt lat="45.69039" lon="5.80909">
        <ele>332.69101980253</ele>
        <time>2015-11-07T13:51:28Z</time>
      </trkpt>
      <trkpt lat="45.69043" lon="5.80917">
        <ele>332.69101980253</ele>
        <time>2015-11-07T13:51:33Z</time>
      </trkpt>
      <trkpt lat="45.6905" lon="5.80932">
        <ele>331.84149543875</ele>
        <time>2015-11-07T13:51:43Z</time>
      </trkpt>
      <trkpt lat="45.69051" lon="5.80937">
        <ele>331.84149543875</ele>
        <time>2015-11-07T13:51:48Z</time>
      </trkpt>
      <trkpt lat="45.69056" lon="5.80949">
        <ele>331.32345793409</ele>
        <time>2015-11-07T13:51:58Z</time>
      </trkpt>
      <trkpt lat="45.69058" lon="5.80956">
        <ele>331.32345793409</ele>
        <time>2015-11-07T13:52:03Z</time>
      </trkpt>
      <trkpt lat="45.6906" lon="5.80971">
        <ele>330.23204819808</ele>
        <time>2015-11-07T13:52:13Z</time>
      </trkpt>
      <trkpt lat="45.69062" lon="5.8098">
        <ele>330.23204819808</ele>
        <time>2015-11-07T13:52:18Z</time>
      </trkpt>
      <trkpt lat="45.69061" lon="5.80995">
        <ele>329.3013597286</ele>
        <time>2015-11-07T13:52:28Z</time>
      </trkpt>
      <trkpt lat="45.69061" lon="5.80997">
        <ele>329.3013597286</ele>
        <time>2015-11-07T13:52:33Z</time>
      </trkpt>
      <trkpt lat="45.69064" lon="5.8101">
        <ele>328.04386655085</ele>
        <time>2015-11-07T13:52:43Z</time>
      </trkpt>
      <trkpt lat="45.69065" lon="5.81021">
        <ele>328.04386655085</ele>
        <time>2015-11-07T13:52:48Z</time>
      </trkpt>
      <trkpt lat="45.6906" lon="5.81054">
        <ele>326.08088040367</ele>
        <time>2015-11-07T13:53:03Z</time>
      </trkpt>
      <trkpt lat="45.69058" lon="5.81062">
        <ele>326.08088040367</ele>
        <time>2015-11-07T13:53:08Z</time>
      </trkpt>
      <trkpt lat="45.69045" lon="5.81088">
        <ele>324.98023461898</ele>
        <time>2015-11-07T13:53:18Z</time>
      </trkpt>
      <trkpt lat="45.69038" lon="5.811">
        <ele>323.38204180739</ele>
        <time>2015-11-07T13:53:23Z</time>
      </trkpt>
      <trkpt lat="45.69029" lon="5.81116">
        <ele>322.0020607197</ele>
        <time>2015-11-07T13:53:33Z</time>
      </trkpt>
      <trkpt lat="45.69023" lon="5.81125">
        <ele>322.0020607197</ele>
        <time>2015-11-07T13:53:38Z</time>
      </trkpt>
      <trkpt lat="45.69015" lon="5.81144">
        <ele>321.69022908484</ele>
        <time>2015-11-07T13:53:48Z</time>
      </trkpt>
      <trkpt lat="45.69011" lon="5.81155">
        <ele>321.69022908484</ele>
        <time>2015-11-07T13:53:53Z</time>
      </trkpt>
      <trkpt lat="45.69003" lon="5.81174">
        <ele>320.46413940176</ele>
        <time>2015-11-07T13:54:03Z</time>
      </trkpt>
      <trkpt lat="45.68999" lon="5.81183">
        <ele>320.46413940176</ele>
        <time>2015-11-07T13:54:08Z</time>
      </trkpt>
      <trkpt lat="45.6899" lon="5.81196">
        <ele>320.49588633579</ele>
        <time>2015-11-07T13:54:18Z</time>
      </trkpt>
      <trkpt lat="45.68986" lon="5.81205">
        <ele>320.49588633579</ele>
        <time>2015-11-07T13:54:23Z</time>
      </trkpt>
      <trkpt lat="45.68979" lon="5.81218">
        <ele>321.14285241204</ele>
        <time>2015-11-07T13:54:38Z</time>
      </trkpt>
      <trkpt lat="45.68978" lon="5.81231">
        <ele>320.78473732173</ele>
        <time>2015-11-07T13:54:43Z</time>
      </trkpt>
      <trkpt lat="45.68977" lon="5.81248">
        <ele>320.56035135739</ele>
        <time>2015-11-07T13:54:53Z</time>
      </trkpt>
      <trkpt lat="45.68975" lon="5.81261">
        <ele>321.09217653942</ele>
        <time>2015-11-07T13:54:58Z</time>
      </trkpt>
      <trkpt lat="45.6897" lon="5.81287">
        <ele>321.4128990366</ele>
        <time>2015-11-07T13:55:08Z</time>
      </trkpt>
      <trkpt lat="45.68969" lon="5.81294">
        <ele>321.4128990366</ele>
        <time>2015-11-07T13:55:13Z</time>
      </trkpt>
      <trkpt lat="45.68966" lon="5.81314">
        <ele>321.47715825911</ele>
        <time>2015-11-07T13:55:23Z</time>
      </trkpt>
      <trkpt lat="45.68963" lon="5.81323">
        <ele>321.47715825911</ele>
        <time>2015-11-07T13:55:28Z</time>
      </trkpt>
      <trkpt lat="45.68959" lon="5.81342">
        <ele>322.2092431328</ele>
        <time>2015-11-07T13:55:38Z</time>
      </trkpt>
      <trkpt lat="45.68958" lon="5.81356">
        <ele>321.14917112439</ele>
        <time>2015-11-07T13:55:43Z</time>
      </trkpt>
      <trkpt lat="45.68951" lon="5.81383">
        <ele>321.32604691203</ele>
        <time>2015-11-07T13:55:58Z</time>
      </trkpt>
      <trkpt lat="45.6895" lon="5.81388">
        <ele>321.32604691203</ele>
        <time>2015-11-07T13:56:03Z</time>
      </trkpt>
      <trkpt lat="45.68946" lon="5.81413">
        <ele>320.32622439585</ele>
        <time>2015-11-07T13:56:13Z</time>
      </trkpt>
      <trkpt lat="45.68943" lon="5.81422">
        <ele>320.32622439585</ele>
        <time>2015-11-07T13:56:18Z</time>
      </trkpt>
      <trkpt lat="45.6894" lon="5.81438">
        <ele>320.77326996648</ele>
        <time>2015-11-07T13:56:28Z</time>
      </trkpt>
      <trkpt lat="45.68938" lon="5.81446">
        <ele>320.77326996648</ele>
        <time>2015-11-07T13:56:33Z</time>
      </trkpt>
      <trkpt lat="45.68935" lon="5.81457">
        <ele>320.25188857037</ele>
        <time>2015-11-07T13:56:43Z</time>
      </trkpt>
      <trkpt lat="45.6893" lon="5.81463">
        <ele>320.25188857037</ele>
        <time>2015-11-07T13:56:48Z</time>
      </trkpt>
      <trkpt lat="45.68921" lon="5.81475">
        <ele>320.47563267386</ele>
        <time>2015-11-07T13:56:58Z</time>
      </trkpt>
      <trkpt lat="45.68915" lon="5.81484">
        <ele>320.47563267386</ele>
        <time>2015-11-07T13:57:03Z</time>
      </trkpt>
      <trkpt lat="45.68894" lon="5.81503">
        <ele>320.39291216687</ele>
        <time>2015-11-07T13:57:13Z</time>
      </trkpt>
      <trkpt lat="45.68887" lon="5.81507">
        <ele>320.39291216687</ele>
        <time>2015-11-07T13:57:18Z</time>
      </trkpt>
      <trkpt lat="45.6888" lon="5.81521">
        <ele>320.84610703703</ele>
        <time>2015-11-07T13:57:28Z</time>
      </trkpt>
      <trkpt lat="45.68877" lon="5.81528">
        <ele>320.84610703703</ele>
        <time>2015-11-07T13:57:33Z</time>
      </trkpt>
      <trkpt lat="45.68867" lon="5.81544">
        <ele>320.95699640096</ele>
        <time>2015-11-07T13:57:43Z</time>
      </trkpt>
      <trkpt lat="45.68865" lon="5.81554">
        <ele>320.95699640096</ele>
        <time>2015-11-07T13:57:48Z</time>
      </trkpt>
      <trkpt lat="45.68891" lon="5.81665">
        <ele>321.52694274456</ele>
        <time>2015-11-07T13:58:03Z</time>
      </trkpt>
      <trkpt lat="45.68898" lon="5.81704">
        <ele>322.77842149957</ele>
        <time>2015-11-07T13:58:08Z</time>
      </trkpt>
      <trkpt lat="45.68908" lon="5.81769">
        <ele>324.75720630789</ele>
        <time>2015-11-07T13:58:18Z</time>
      </trkpt>
      <trkpt lat="45.68911" lon="5.81782">
        <ele>325.57266049132</ele>
        <time>2015-11-07T13:58:23Z</time>
      </trkpt>
      <trkpt lat="45.68919" lon="5.81797">
        <ele>326.66124326119</ele>
        <time>2015-11-07T13:58:33Z</time>
      </trkpt>
      <trkpt lat="45.68927" lon="5.81801">
        <ele>326.66124326119</ele>
        <time>2015-11-07T13:58:38Z</time>
      </trkpt>
      <trkpt lat="45.68939" lon="5.81811">
        <ele>327.95534665268</ele>
        <time>2015-11-07T13:58:48Z</time>
      </trkpt>
      <trkpt lat="45.68945" lon="5.81814">
        <ele>327.95534665268</ele>
        <time>2015-11-07T13:58:53Z</time>
      </trkpt>
      <trkpt lat="45.68956" lon="5.81824">
        <ele>328.87305734649</ele>
        <time>2015-11-07T13:59:03Z</time>
      </trkpt>
      <trkpt lat="45.68962" lon="5.81822">
        <ele>328.87305734649</ele>
        <time>2015-11-07T13:59:08Z</time>
      </trkpt>
      <trkpt lat="45.68974" lon="5.81826">
        <ele>330.14455300644</ele>
        <time>2015-11-07T13:59:18Z</time>
      </trkpt>
      <trkpt lat="45.68978" lon="5.81839">
        <ele>331.24937188928</ele>
        <time>2015-11-07T13:59:23Z</time>
      </trkpt>
      <trkpt lat="45.68983" lon="5.81868">
        <ele>332.98846100471</ele>
        <time>2015-11-07T13:59:38Z</time>
      </trkpt>
      <trkpt lat="45.68984" lon="5.81877">
        <ele>332.98846100471</ele>
        <time>2015-11-07T13:59:43Z</time>
      </trkpt>
      <trkpt lat="45.68985" lon="5.81895">
        <ele>333.8973724262</ele>
        <time>2015-11-07T13:59:53Z</time>
      </trkpt>
      <trkpt lat="45.68982" lon="5.81893">
        <ele>333.8973724262</ele>
        <time>2015-11-07T13:59:58Z</time>
      </trkpt>
      <trkpt lat="45.68981" lon="5.81893">
        <ele>333.8973724262</ele>
        <time>2015-11-07T14:00:08Z</time>
      </trkpt>
      <trkpt lat="45.68981" lon="5.81893">
        <ele>333.8973724262</ele>
        <time>2015-11-07T14:00:13Z</time>
      </trkpt>
      <trkpt lat="45.68981" lon="5.81893">
        <ele>333.8973724262</ele>
        <time>2015-11-07T14:00:23Z</time>
      </trkpt>
      <trkpt lat="45.68981" lon="5.81893">
        <ele>333.8973724262</ele>
        <time>2015-11-07T14:00:28Z</time>
      </trkpt>
      <trkpt lat="45.68981" lon="5.81893">
        <ele>333.8973724262</ele>
        <time>2015-11-07T14:00:38Z</time>
      </trkpt>
      <trkpt lat="45.68982" lon="5.81895">
        <ele>333.8973724262</ele>
        <time>2015-11-07T14:00:43Z</time>
      </trkpt>
      <trkpt lat="45.68994" lon="5.81922">
        <ele>334.48072346685</ele>
        <time>2015-11-07T14:00:53Z</time>
      </trkpt>
      <trkpt lat="45.69" lon="5.81934">
        <ele>335.32239085544</ele>
        <time>2015-11-07T14:00:58Z</time>
      </trkpt>
      <trkpt lat="45.69004" lon="5.81954">
        <ele>336.48719489067</ele>
        <time>2015-11-07T14:01:08Z</time>
      </trkpt>
      <trkpt lat="45.69004" lon="5.81958">
        <ele>336.48719489067</ele>
        <time>2015-11-07T14:01:13Z</time>
      </trkpt>
      <trkpt lat="45.6899" lon="5.81956">
        <ele>337.24180092339</ele>
        <time>2015-11-07T14:01:23Z</time>
      </trkpt>
      <trkpt lat="45.68983" lon="5.81952">
        <ele>337.24180092339</ele>
        <time>2015-11-07T14:01:28Z</time>
      </trkpt>
      <trkpt lat="45.68969" lon="5.81946">
        <ele>336.80713834894</ele>
        <time>2015-11-07T14:01:43Z</time>
      </trkpt>
      <trkpt lat="45.68971" lon="5.81949">
        <ele>336.80713834894</ele>
        <time>2015-11-07T14:01:48Z</time>
      </trkpt>
      <trkpt lat="45.68971" lon="5.81951">
        <ele>336.80713834894</ele>
        <time>2015-11-07T14:01:58Z</time>
      </trkpt>
      <trkpt lat="45.6897" lon="5.81951">
        <ele>336.80713834894</ele>
        <time>2015-11-07T14:02:03Z</time>
      </trkpt>
      <trkpt lat="45.6896" lon="5.81953">
        <ele>337.27498766015</ele>
        <time>2015-11-07T14:02:13Z</time>
      </trkpt>
      <trkpt lat="45.68961" lon="5.81955">
        <ele>337.27498766015</ele>
        <time>2015-11-07T14:02:18Z</time>
      </trkpt>
      <trkpt lat="45.68961" lon="5.81953">
        <ele>337.27498766015</ele>
        <time>2015-11-07T14:02:28Z</time>
      </trkpt>
      <trkpt lat="45.68961" lon="5.81953">
        <ele>337.27498766015</ele>
        <time>2015-11-07T14:02:33Z</time>
      </trkpt>
      <trkpt lat="45.68963" lon="5.81953">
        <ele>337.27498766015</ele>
        <time>2015-11-07T14:02:43Z</time>
      </trkpt>
      <trkpt lat="45.68967" lon="5.81955">
        <ele>337.90058073118</ele>
        <time>2015-11-07T14:02:48Z</time>
      </trkpt>
      <trkpt lat="45.68983" lon="5.81961">
        <ele>337.9214663883</ele>
        <time>2015-11-07T14:03:03Z</time>
      </trkpt>
      <trkpt lat="45.68988" lon="5.81963">
        <ele>337.9214663883</ele>
        <time>2015-11-07T14:03:08Z</time>
      </trkpt>
      <trkpt lat="45.69" lon="5.81968">
        <ele>338.23263121716</ele>
        <time>2015-11-07T14:03:18Z</time>
      </trkpt>
      <trkpt lat="45.69004" lon="5.81975">
        <ele>338.23263121716</ele>
        <time>2015-11-07T14:03:23Z</time>
      </trkpt>
      <trkpt lat="45.69005" lon="5.81988">
        <ele>337.93325973177</ele>
        <time>2015-11-07T14:03:33Z</time>
      </trkpt>
      <trkpt lat="45.69006" lon="5.82002">
        <ele>338.10718557518</ele>
        <time>2015-11-07T14:03:38Z</time>
      </trkpt>
      <trkpt lat="45.69003" lon="5.82018">
        <ele>338.1000951231</ele>
        <time>2015-11-07T14:03:48Z</time>
      </trkpt>
      <trkpt lat="45.69" lon="5.82025">
        <ele>338.1000951231</ele>
        <time>2015-11-07T14:03:53Z</time>
      </trkpt>
      <trkpt lat="45.68994" lon="5.82042">
        <ele>338.31509570772</ele>
        <time>2015-11-07T14:04:03Z</time>
      </trkpt>
      <trkpt lat="45.68989" lon="5.82062">
        <ele>338.51985537896</ele>
        <time>2015-11-07T14:04:08Z</time>
      </trkpt>
      <trkpt lat="45.68975" lon="5.82089">
        <ele>339.00358436571</ele>
        <time>2015-11-07T14:04:18Z</time>
      </trkpt>
      <trkpt lat="45.68971" lon="5.82099">
        <ele>339.00358436571</ele>
        <time>2015-11-07T14:04:23Z</time>
      </trkpt>
      <trkpt lat="45.68963" lon="5.82116">
        <ele>338.95268331492</ele>
        <time>2015-11-07T14:04:33Z</time>
      </trkpt>
      <trkpt lat="45.6896" lon="5.82123">
        <ele>338.95268331492</ele>
        <time>2015-11-07T14:04:38Z</time>
      </trkpt>
      <trkpt lat="45.68943" lon="5.82151">
        <ele>339.08480035386</ele>
        <time>2015-11-07T14:04:53Z</time>
      </trkpt>
      <trkpt lat="45.6894" lon="5.8216">
        <ele>339.08480035386</ele>
        <time>2015-11-07T14:04:58Z</time>
      </trkpt>
      <trkpt lat="45.68931" lon="5.82175">
        <ele>340.39585235964</ele>
        <time>2015-11-07T14:05:08Z</time>
      </trkpt>
      <trkpt lat="45.68926" lon="5.82184">
        <ele>340.39585235964</ele>
        <time>2015-11-07T14:05:13Z</time>
      </trkpt>
      <trkpt lat="45.68918" lon="5.82199">
        <ele>341.29779755491</ele>
        <time>2015-11-07T14:05:23Z</time>
      </trkpt>
      <trkpt lat="45.68914" lon="5.82206">
        <ele>341.29779755491</ele>
        <time>2015-11-07T14:05:28Z</time>
      </trkpt>
      <trkpt lat="45.68905" lon="5.82225">
        <ele>342.33799681031</ele>
        <time>2015-11-07T14:05:38Z</time>
      </trkpt>
      <trkpt lat="45.68901" lon="5.82233">
        <ele>342.33799681031</ele>
        <time>2015-11-07T14:05:43Z</time>
      </trkpt>
      <trkpt lat="45.68893" lon="5.82249">
        <ele>343.02889023068</ele>
        <time>2015-11-07T14:05:53Z</time>
      </trkpt>
      <trkpt lat="45.68889" lon="5.82259">
        <ele>343.02889023068</ele>
        <time>2015-11-07T14:05:58Z</time>
      </trkpt>
      <trkpt lat="45.68876" lon="5.82291">
        <ele>344.49057098107</ele>
        <time>2015-11-07T14:06:13Z</time>
      </trkpt>
      <trkpt lat="45.68872" lon="5.82302">
        <ele>344.49057098107</ele>
        <time>2015-11-07T14:06:18Z</time>
      </trkpt>
      <trkpt lat="45.68868" lon="5.82323">
        <ele>345.91411347124</ele>
        <time>2015-11-07T14:06:28Z</time>
      </trkpt>
      <trkpt lat="45.68866" lon="5.82332">
        <ele>345.91411347124</ele>
        <time>2015-11-07T14:06:33Z</time>
      </trkpt>
      <trkpt lat="45.68864" lon="5.82352">
        <ele>347.37160683328</ele>
        <time>2015-11-07T14:06:43Z</time>
      </trkpt>
      <trkpt lat="45.68865" lon="5.82362">
        <ele>347.37160683328</ele>
        <time>2015-11-07T14:06:48Z</time>
      </trkpt>
      <trkpt lat="45.68869" lon="5.82381">
        <ele>348.56952553182</ele>
        <time>2015-11-07T14:06:58Z</time>
      </trkpt>
      <trkpt lat="45.68872" lon="5.82393">
        <ele>348.56952553182</ele>
        <time>2015-11-07T14:07:03Z</time>
      </trkpt>
      <trkpt lat="45.6888" lon="5.82413">
        <ele>349.66902538601</ele>
        <time>2015-11-07T14:07:13Z</time>
      </trkpt>
      <trkpt lat="45.68879" lon="5.82415">
        <ele>349.66902538601</ele>
        <time>2015-11-07T14:07:18Z</time>
      </trkpt>
      <trkpt lat="45.68879" lon="5.82413">
        <ele>349.66902538601</ele>
        <time>2015-11-07T14:07:28Z</time>
      </trkpt>
      <trkpt lat="45.68879" lon="5.82413">
        <ele>349.66902538601</ele>
        <time>2015-11-07T14:07:33Z</time>
      </trkpt>
      <trkpt lat="45.68881" lon="5.82422">
        <ele>350.79093742401</ele>
        <time>2015-11-07T14:07:43Z</time>
      </trkpt>
      <trkpt lat="45.68882" lon="5.8243">
        <ele>350.79093742401</ele>
        <time>2015-11-07T14:07:48Z</time>
      </trkpt>
      <trkpt lat="45.68887" lon="5.82443">
        <ele>351.52841381904</ele>
        <time>2015-11-07T14:07:58Z</time>
      </trkpt>
      <trkpt lat="45.68887" lon="5.82447">
        <ele>351.52841381904</ele>
        <time>2015-11-07T14:08:03Z</time>
      </trkpt>
      <trkpt lat="45.68887" lon="5.82446">
        <ele>351.52841381904</ele>
        <time>2015-11-07T14:08:18Z</time>
      </trkpt>
      <trkpt lat="45.68887" lon="5.82445">
        <ele>351.52841381904</ele>
        <time>2015-11-07T14:08:23Z</time>
      </trkpt>
      <trkpt lat="45.68887" lon="5.82446">
        <ele>351.52841381904</ele>
        <time>2015-11-07T14:08:33Z</time>
      </trkpt>
      <trkpt lat="45.68887" lon="5.82446">
        <ele>351.52841381904</ele>
        <time>2015-11-07T14:08:38Z</time>
      </trkpt>
      <trkpt lat="45.68885" lon="5.82449">
        <ele>351.52841381904</ele>
        <time>2015-11-07T14:08:48Z</time>
      </trkpt>
      <trkpt lat="45.68882" lon="5.82464">
        <ele>352.32706553495</ele>
        <time>2015-11-07T14:08:53Z</time>
      </trkpt>
      <trkpt lat="45.68878" lon="5.82485">
        <ele>352.97997776595</ele>
        <time>2015-11-07T14:09:03Z</time>
      </trkpt>
      <trkpt lat="45.68877" lon="5.82497">
        <ele>352.97997776595</ele>
        <time>2015-11-07T14:09:08Z</time>
      </trkpt>
      <trkpt lat="45.68876" lon="5.82512">
        <ele>353.36795513672</ele>
        <time>2015-11-07T14:09:18Z</time>
      </trkpt>
      <trkpt lat="45.68875" lon="5.82523">
        <ele>353.36795513672</ele>
        <time>2015-11-07T14:09:23Z</time>
      </trkpt>
      <trkpt lat="45.68872" lon="5.82548">
        <ele>354.40454308139</ele>
        <time>2015-11-07T14:09:33Z</time>
      </trkpt>
      <trkpt lat="45.68871" lon="5.82557">
        <ele>354.40454308139</ele>
        <time>2015-11-07T14:09:38Z</time>
      </trkpt>
      <trkpt lat="45.68867" lon="5.82572">
        <ele>354.57098391908</ele>
        <time>2015-11-07T14:09:48Z</time>
      </trkpt>
      <trkpt lat="45.68867" lon="5.82578">
        <ele>354.57098391908</ele>
        <time>2015-11-07T14:09:53Z</time>
      </trkpt>
      <trkpt lat="45.68865" lon="5.82596">
        <ele>356.35357581336</ele>
        <time>2015-11-07T14:10:03Z</time>
      </trkpt>
      <trkpt lat="45.68865" lon="5.82605">
        <ele>356.35357581336</ele>
        <time>2015-11-07T14:10:08Z</time>
      </trkpt>
      <trkpt lat="45.68871" lon="5.82639">
        <ele>356.69054904093</ele>
        <time>2015-11-07T14:10:23Z</time>
      </trkpt>
      <trkpt lat="45.6887" lon="5.82647">
        <ele>356.69054904093</ele>
        <time>2015-11-07T14:10:28Z</time>
      </trkpt>
      <trkpt lat="45.68865" lon="5.82663">
        <ele>356.49603539949</ele>
        <time>2015-11-07T14:10:38Z</time>
      </trkpt>
      <trkpt lat="45.68865" lon="5.82674">
        <ele>356.49603539949</ele>
        <time>2015-11-07T14:10:43Z</time>
      </trkpt>
      <trkpt lat="45.68862" lon="5.82695">
        <ele>357.67055517029</ele>
        <time>2015-11-07T14:10:53Z</time>
      </trkpt>
      <trkpt lat="45.68859" lon="5.82704">
        <ele>357.67055517029</ele>
        <time>2015-11-07T14:10:58Z</time>
      </trkpt>
      <trkpt lat="45.68858" lon="5.82723">
        <ele>358.51254369237</ele>
        <time>2015-11-07T14:11:08Z</time>
      </trkpt>
      <trkpt lat="45.68857" lon="5.82733">
        <ele>358.51254369237</ele>
        <time>2015-11-07T14:11:13Z</time>
      </trkpt>
      <trkpt lat="45.68855" lon="5.8275">
        <ele>361.85620242257</ele>
        <time>2015-11-07T14:11:23Z</time>
      </trkpt>
      <trkpt lat="45.68857" lon="5.82759">
        <ele>361.85620242257</ele>
        <time>2015-11-07T14:11:28Z</time>
      </trkpt>
      <trkpt lat="45.68857" lon="5.82781">
        <ele>362.76912784029</ele>
        <time>2015-11-07T14:11:38Z</time>
      </trkpt>
      <trkpt lat="45.68855" lon="5.82793">
        <ele>362.76912784029</ele>
        <time>2015-11-07T14:11:43Z</time>
      </trkpt>
      <trkpt lat="45.68854" lon="5.82815">
        <ele>365.40683631612</ele>
        <time>2015-11-07T14:11:53Z</time>
      </trkpt>
      <trkpt lat="45.68853" lon="5.82826">
        <ele>365.40683631612</ele>
        <time>2015-11-07T14:11:58Z</time>
      </trkpt>
      <trkpt lat="45.68854" lon="5.82842">
        <ele>365.91925611053</ele>
        <time>2015-11-07T14:12:08Z</time>
      </trkpt>
      <trkpt lat="45.68854" lon="5.82858">
        <ele>368.38304858824</ele>
        <time>2015-11-07T14:12:13Z</time>
      </trkpt>
      <trkpt lat="45.68855" lon="5.82897">
        <ele>369.23473024007</ele>
        <time>2015-11-07T14:12:28Z</time>
      </trkpt>
      <trkpt lat="45.68854" lon="5.82902">
        <ele>369.23473024007</ele>
        <time>2015-11-07T14:12:33Z</time>
      </trkpt>
      <trkpt lat="45.68852" lon="5.82921">
        <ele>371.1433736404</ele>
        <time>2015-11-07T14:12:43Z</time>
      </trkpt>
      <trkpt lat="45.68851" lon="5.82932">
        <ele>371.1433736404</ele>
        <time>2015-11-07T14:12:48Z</time>
      </trkpt>
      <trkpt lat="45.68853" lon="5.82953">
        <ele>371.95310915625</ele>
        <time>2015-11-07T14:12:58Z</time>
      </trkpt>
      <trkpt lat="45.68854" lon="5.82961">
        <ele>371.95310915625</ele>
        <time>2015-11-07T14:13:03Z</time>
      </trkpt>
      <trkpt lat="45.68856" lon="5.82979">
        <ele>373.87762651557</ele>
        <time>2015-11-07T14:13:13Z</time>
      </trkpt>
      <trkpt lat="45.68856" lon="5.82989">
        <ele>373.87762651557</ele>
        <time>2015-11-07T14:13:18Z</time>
      </trkpt>
      <trkpt lat="45.68855" lon="5.83005">
        <ele>375.73684380826</ele>
        <time>2015-11-07T14:13:28Z</time>
      </trkpt>
      <trkpt lat="45.68857" lon="5.83013">
        <ele>375.73684380826</ele>
        <time>2015-11-07T14:13:33Z</time>
      </trkpt>
      <trkpt lat="45.68858" lon="5.83032">
        <ele>379.56483003197</ele>
        <time>2015-11-07T14:13:43Z</time>
      </trkpt>
      <trkpt lat="45.68859" lon="5.83045">
        <ele>381.17370080527</ele>
        <time>2015-11-07T14:13:48Z</time>
      </trkpt>
      <trkpt lat="45.68865" lon="5.83073">
        <ele>381.2146015468</ele>
        <time>2015-11-07T14:13:58Z</time>
      </trkpt>
      <trkpt lat="45.68865" lon="5.83082">
        <ele>381.2146015468</ele>
        <time>2015-11-07T14:14:03Z</time>
      </trkpt>
      <trkpt lat="45.68865" lon="5.83109">
        <ele>380.26649380785</ele>
        <time>2015-11-07T14:14:18Z</time>
      </trkpt>
      <trkpt lat="45.68865" lon="5.83118">
        <ele>380.26649380785</ele>
        <time>2015-11-07T14:14:23Z</time>
      </trkpt>
      <trkpt lat="45.68867" lon="5.83135">
        <ele>382.61554374906</ele>
        <time>2015-11-07T14:14:33Z</time>
      </trkpt>
      <trkpt lat="45.68868" lon="5.8314">
        <ele>382.61554374906</ele>
        <time>2015-11-07T14:14:38Z</time>
      </trkpt>
      <trkpt lat="45.68871" lon="5.83163">
        <ele>382.45313103942</ele>
        <time>2015-11-07T14:14:48Z</time>
      </trkpt>
      <trkpt lat="45.68874" lon="5.83172">
        <ele>382.45313103942</ele>
        <time>2015-11-07T14:14:53Z</time>
      </trkpt>
      <trkpt lat="45.68879" lon="5.83192">
        <ele>385.24159206738</ele>
        <time>2015-11-07T14:15:03Z</time>
      </trkpt>
      <trkpt lat="45.68877" lon="5.83193">
        <ele>385.24159206738</ele>
        <time>2015-11-07T14:15:08Z</time>
      </trkpt>
      <trkpt lat="45.68885" lon="5.83214">
        <ele>385.58571378608</ele>
        <time>2015-11-07T14:15:18Z</time>
      </trkpt>
      <trkpt lat="45.68888" lon="5.83224">
        <ele>385.58571378608</ele>
        <time>2015-11-07T14:15:23Z</time>
      </trkpt>
      <trkpt lat="45.68891" lon="5.83235">
        <ele>389.02804630642</ele>
        <time>2015-11-07T14:15:33Z</time>
      </trkpt>
      <trkpt lat="45.68891" lon="5.83235">
        <ele>389.02804630642</ele>
        <time>2015-11-07T14:15:38Z</time>
      </trkpt>
      <trkpt lat="45.68896" lon="5.83251">
        <ele>390.17523098896</ele>
        <time>2015-11-07T14:15:48Z</time>
      </trkpt>
      <trkpt lat="45.68899" lon="5.83258">
        <ele>390.17523098896</ele>
        <time>2015-11-07T14:15:53Z</time>
      </trkpt>
      <trkpt lat="45.68902" lon="5.83277">
        <ele>392.68326530953</ele>
        <time>2015-11-07T14:16:03Z</time>
      </trkpt>
      <trkpt lat="45.68906" lon="5.8329">
        <ele>392.18263414091</ele>
        <time>2015-11-07T14:16:08Z</time>
      </trkpt>
      <trkpt lat="45.68908" lon="5.83307">
        <ele>396.65217456466</ele>
        <time>2015-11-07T14:16:23Z</time>
      </trkpt>
      <trkpt lat="45.68908" lon="5.8331">
        <ele>396.65217456466</ele>
        <time>2015-11-07T14:16:28Z</time>
      </trkpt>
      <trkpt lat="45.68907" lon="5.83322">
        <ele>396.78264329385</ele>
        <time>2015-11-07T14:16:38Z</time>
      </trkpt>
      <trkpt lat="45.6891" lon="5.83335">
        <ele>400.13015338055</ele>
        <time>2015-11-07T14:16:43Z</time>
      </trkpt>
      <trkpt lat="45.68916" lon="5.83356">
        <ele>403.91605284024</ele>
        <time>2015-11-07T14:16:53Z</time>
      </trkpt>
      <trkpt lat="45.68917" lon="5.83364">
        <ele>403.91605284024</ele>
        <time>2015-11-07T14:16:58Z</time>
      </trkpt>
      <trkpt lat="45.68919" lon="5.83377">
        <ele>405.44935922015</ele>
        <time>2015-11-07T14:17:08Z</time>
      </trkpt>
      <trkpt lat="45.6892" lon="5.83384">
        <ele>405.44935922015</ele>
        <time>2015-11-07T14:17:13Z</time>
      </trkpt>
      <trkpt lat="45.68923" lon="5.83401">
        <ele>410.31339195572</ele>
        <time>2015-11-07T14:17:23Z</time>
      </trkpt>
      <trkpt lat="45.68927" lon="5.83406">
        <ele>410.31339195572</ele>
        <time>2015-11-07T14:17:28Z</time>
      </trkpt>
      <trkpt lat="45.68932" lon="5.83415">
        <ele>410.96146000254</ele>
        <time>2015-11-07T14:17:38Z</time>
      </trkpt>
      <trkpt lat="45.68937" lon="5.83423">
        <ele>410.96146000254</ele>
        <time>2015-11-07T14:17:43Z</time>
      </trkpt>
      <trkpt lat="45.68945" lon="5.83435">
        <ele>414.83869628547</ele>
        <time>2015-11-07T14:17:53Z</time>
      </trkpt>
      <trkpt lat="45.68949" lon="5.83442">
        <ele>414.83869628547</ele>
        <time>2015-11-07T14:17:58Z</time>
      </trkpt>
      <trkpt lat="45.68958" lon="5.83464">
        <ele>420.07240357069</ele>
        <time>2015-11-07T14:18:13Z</time>
      </trkpt>
      <trkpt lat="45.68961" lon="5.83471">
        <ele>420.07240357069</ele>
        <time>2015-11-07T14:18:18Z</time>
      </trkpt>
      <trkpt lat="45.6897" lon="5.83482">
        <ele>417.7902458987</ele>
        <time>2015-11-07T14:18:28Z</time>
      </trkpt>
      <trkpt lat="45.68976" lon="5.83485">
        <ele>417.7902458987</ele>
        <time>2015-11-07T14:18:33Z</time>
      </trkpt>
      <trkpt lat="45.68993" lon="5.83501">
        <ele>421.94272028034</ele>
        <time>2015-11-07T14:18:43Z</time>
      </trkpt>
      <trkpt lat="45.68999" lon="5.83504">
        <ele>421.94272028034</ele>
        <time>2015-11-07T14:18:48Z</time>
      </trkpt>
      <trkpt lat="45.6901" lon="5.83512">
        <ele>421.02514627513</ele>
        <time>2015-11-07T14:18:58Z</time>
      </trkpt>
      <trkpt lat="45.69014" lon="5.83515">
        <ele>421.02514627513</ele>
        <time>2015-11-07T14:19:03Z</time>
      </trkpt>
      <trkpt lat="45.69027" lon="5.83523">
        <ele>426.26836781327</ele>
        <time>2015-11-07T14:19:13Z</time>
      </trkpt>
      <trkpt lat="45.69032" lon="5.83527">
        <ele>426.26836781327</ele>
        <time>2015-11-07T14:19:18Z</time>
      </trkpt>
      <trkpt lat="45.69044" lon="5.83539">
        <ele>424.21062227399</ele>
        <time>2015-11-07T14:19:28Z</time>
      </trkpt>
      <trkpt lat="45.69049" lon="5.83544">
        <ele>424.21062227399</ele>
        <time>2015-11-07T14:19:33Z</time>
      </trkpt>
      <trkpt lat="45.69057" lon="5.83546">
        <ele>428.74312841418</ele>
        <time>2015-11-07T14:19:43Z</time>
      </trkpt>
      <trkpt lat="45.69063" lon="5.83551">
        <ele>428.74312841418</ele>
        <time>2015-11-07T14:19:48Z</time>
      </trkpt>
      <trkpt lat="45.69078" lon="5.83565">
        <ele>427.91672016476</ele>
        <time>2015-11-07T14:19:58Z</time>
      </trkpt>
      <trkpt lat="45.69085" lon="5.83573">
        <ele>433.55997372475</ele>
        <time>2015-11-07T14:20:03Z</time>
      </trkpt>
      <trkpt lat="45.69095" lon="5.83582">
        <ele>440.60372673409</ele>
        <time>2015-11-07T14:20:13Z</time>
      </trkpt>
      <trkpt lat="45.691" lon="5.83586">
        <ele>440.60372673409</ele>
        <time>2015-11-07T14:20:18Z</time>
      </trkpt>
      <trkpt lat="45.69116" lon="5.83597">
        <ele>443.62680197419</ele>
        <time>2015-11-07T14:20:33Z</time>
      </trkpt>
      <trkpt lat="45.69123" lon="5.836">
        <ele>443.62680197419</ele>
        <time>2015-11-07T14:20:38Z</time>
      </trkpt>
      <trkpt lat="45.6913" lon="5.83607">
        <ele>441.84009134426</ele>
        <time>2015-11-07T14:20:48Z</time>
      </trkpt>
      <trkpt lat="45.69125" lon="5.83609">
        <ele>441.84009134426</ele>
        <time>2015-11-07T14:20:53Z</time>
      </trkpt>
      <trkpt lat="45.69125" lon="5.83606">
        <ele>441.84009134426</ele>
        <time>2015-11-07T14:21:03Z</time>
      </trkpt>
      <trkpt lat="45.69125" lon="5.83606">
        <ele>441.84009134426</ele>
        <time>2015-11-07T14:21:08Z</time>
      </trkpt>
      <trkpt lat="45.6912" lon="5.83609">
        <ele>444.10944332064</ele>
        <time>2015-11-07T14:21:18Z</time>
      </trkpt>
      <trkpt lat="45.69126" lon="5.83612">
        <ele>444.10944332064</ele>
        <time>2015-11-07T14:21:23Z</time>
      </trkpt>
      <trkpt lat="45.69137" lon="5.83612">
        <ele>449.53032739519</ele>
        <time>2015-11-07T14:21:33Z</time>
      </trkpt>
      <trkpt lat="45.69143" lon="5.83615">
        <ele>449.53032739519</ele>
        <time>2015-11-07T14:21:38Z</time>
      </trkpt>
      <trkpt lat="45.69154" lon="5.83625">
        <ele>445.29467854089</ele>
        <time>2015-11-07T14:21:48Z</time>
      </trkpt>
      <trkpt lat="45.69158" lon="5.83624">
        <ele>445.29467854089</ele>
        <time>2015-11-07T14:21:53Z</time>
      </trkpt>
      <trkpt lat="45.69171" lon="5.83631">
        <ele>451.3245780254</ele>
        <time>2015-11-07T14:22:03Z</time>
      </trkpt>
      <trkpt lat="45.69174" lon="5.83635">
        <ele>451.3245780254</ele>
        <time>2015-11-07T14:22:08Z</time>
      </trkpt>
      <trkpt lat="45.69184" lon="5.8364">
        <ele>445.32409272675</ele>
        <time>2015-11-07T14:22:23Z</time>
      </trkpt>
      <trkpt lat="45.69189" lon="5.83641">
        <ele>445.32409272675</ele>
        <time>2015-11-07T14:22:28Z</time>
      </trkpt>
      <trkpt lat="45.69208" lon="5.83655">
        <ele>441.70234867583</ele>
        <time>2015-11-07T14:22:38Z</time>
      </trkpt>
      <trkpt lat="45.69213" lon="5.83654">
        <ele>441.70234867583</ele>
        <time>2015-11-07T14:22:43Z</time>
      </trkpt>
      <trkpt lat="45.69225" lon="5.83663">
        <ele>447.69301942061</ele>
        <time>2015-11-07T14:22:53Z</time>
      </trkpt>
      <trkpt lat="45.6923" lon="5.83665">
        <ele>447.69301942061</ele>
        <time>2015-11-07T14:22:58Z</time>
      </trkpt>
      <trkpt lat="45.69241" lon="5.83673">
        <ele>440.9618409947</ele>
        <time>2015-11-07T14:23:08Z</time>
      </trkpt>
      <trkpt lat="45.69244" lon="5.8368">
        <ele>440.9618409947</ele>
        <time>2015-11-07T14:23:13Z</time>
      </trkpt>
      <trkpt lat="45.69256" lon="5.83687">
        <ele>446.08736405269</ele>
        <time>2015-11-07T14:23:23Z</time>
      </trkpt>
      <trkpt lat="45.69259" lon="5.83688">
        <ele>446.08736405269</ele>
        <time>2015-11-07T14:23:28Z</time>
      </trkpt>
      <trkpt lat="45.69271" lon="5.83697">
        <ele>439.29021081547</ele>
        <time>2015-11-07T14:23:38Z</time>
      </trkpt>
      <trkpt lat="45.69276" lon="5.837">
        <ele>439.29021081547</ele>
        <time>2015-11-07T14:23:43Z</time>
      </trkpt>
      <trkpt lat="45.69289" lon="5.83713">
        <ele>445.36410367015</ele>
        <time>2015-11-07T14:23:53Z</time>
      </trkpt>
      <trkpt lat="45.69295" lon="5.83717">
        <ele>445.36410367015</ele>
        <time>2015-11-07T14:23:58Z</time>
      </trkpt>
      <trkpt lat="45.69302" lon="5.83727">
        <ele>438.4924289451</ele>
        <time>2015-11-07T14:24:08Z</time>
      </trkpt>
      <trkpt lat="45.69305" lon="5.83731">
        <ele>438.4924289451</ele>
        <time>2015-11-07T14:24:13Z</time>
      </trkpt>
      <trkpt lat="45.69322" lon="5.83746">
        <ele>430.67492820748</ele>
        <time>2015-11-07T14:24:28Z</time>
      </trkpt>
      <trkpt lat="45.69326" lon="5.83754">
        <ele>430.67492820748</ele>
        <time>2015-11-07T14:24:33Z</time>
      </trkpt>
      <trkpt lat="45.69336" lon="5.83766">
        <ele>431.95152813249</ele>
        <time>2015-11-07T14:24:43Z</time>
      </trkpt>
      <trkpt lat="45.69338" lon="5.83771">
        <ele>431.95152813249</ele>
        <time>2015-11-07T14:24:48Z</time>
      </trkpt>
      <trkpt lat="45.69346" lon="5.83781">
        <ele>425.77422059852</ele>
        <time>2015-11-07T14:24:58Z</time>
      </trkpt>
      <trkpt lat="45.69353" lon="5.8379">
        <ele>425.77422059852</ele>
        <time>2015-11-07T14:25:03Z</time>
      </trkpt>
      <trkpt lat="45.69369" lon="5.83812">
        <ele>432.70058984945</ele>
        <time>2015-11-07T14:25:13Z</time>
      </trkpt>
      <trkpt lat="45.69382" lon="5.83825">
        <ele>428.01777177915</ele>
        <time>2015-11-07T14:25:18Z</time>
      </trkpt>
      <trkpt lat="45.69397" lon="5.83826">
        <ele>427.46803050379</ele>
        <time>2015-11-07T14:25:28Z</time>
      </trkpt>
      <trkpt lat="45.69402" lon="5.83826">
        <ele>427.46803050379</ele>
        <time>2015-11-07T14:25:33Z</time>
      </trkpt>
      <trkpt lat="45.69417" lon="5.83829">
        <ele>421.47236231301</ele>
        <time>2015-11-07T14:25:48Z</time>
      </trkpt>
      <trkpt lat="45.69422" lon="5.83829">
        <ele>421.47236231301</ele>
        <time>2015-11-07T14:25:53Z</time>
      </trkpt>
      <trkpt lat="45.69431" lon="5.83831">
        <ele>428.39309237169</ele>
        <time>2015-11-07T14:26:03Z</time>
      </trkpt>
      <trkpt lat="45.69438" lon="5.8383">
        <ele>428.39309237169</ele>
        <time>2015-11-07T14:26:08Z</time>
      </trkpt>
      <trkpt lat="45.69449" lon="5.83833">
        <ele>423.6023029607</ele>
        <time>2015-11-07T14:26:18Z</time>
      </trkpt>
      <trkpt lat="45.69454" lon="5.83835">
        <ele>423.6023029607</ele>
        <time>2015-11-07T14:26:23Z</time>
      </trkpt>
      <trkpt lat="45.69461" lon="5.83841">
        <ele>430.28532988592</ele>
        <time>2015-11-07T14:26:33Z</time>
      </trkpt>
      <trkpt lat="45.69468" lon="5.83844">
        <ele>430.28532988592</ele>
        <time>2015-11-07T14:26:38Z</time>
      </trkpt>
      <trkpt lat="45.6948" lon="5.83849">
        <ele>421.60026974963</ele>
        <time>2015-11-07T14:26:48Z</time>
      </trkpt>
      <trkpt lat="45.69486" lon="5.83848">
        <ele>421.60026974963</ele>
        <time>2015-11-07T14:26:53Z</time>
      </trkpt>
      <trkpt lat="45.69496" lon="5.83844">
        <ele>424.41259291331</ele>
        <time>2015-11-07T14:27:03Z</time>
      </trkpt>
      <trkpt lat="45.69503" lon="5.83841">
        <ele>424.41259291331</ele>
        <time>2015-11-07T14:27:08Z</time>
      </trkpt>
      <trkpt lat="45.69518" lon="5.83837">
        <ele>427.79899362244</ele>
        <time>2015-11-07T14:27:18Z</time>
      </trkpt>
      <trkpt lat="45.69524" lon="5.83834">
        <ele>427.79899362244</ele>
        <time>2015-11-07T14:27:23Z</time>
      </trkpt>
      <trkpt lat="45.69543" lon="5.83836">
        <ele>428.02091159785</ele>
        <time>2015-11-07T14:27:38Z</time>
      </trkpt>
      <trkpt lat="45.6955" lon="5.83837">
        <ele>428.02091159785</ele>
        <time>2015-11-07T14:27:43Z</time>
      </trkpt>
      <trkpt lat="45.69562" lon="5.83846">
        <ele>439.99731080224</ele>
        <time>2015-11-07T14:27:53Z</time>
      </trkpt>
      <trkpt lat="45.69568" lon="5.83849">
        <ele>439.99731080224</ele>
        <time>2015-11-07T14:27:58Z</time>
      </trkpt>
      <trkpt lat="45.69579" lon="5.83857">
        <ele>440.40949077877</ele>
        <time>2015-11-07T14:28:08Z</time>
      </trkpt>
      <trkpt lat="45.69584" lon="5.83862">
        <ele>440.40949077877</ele>
        <time>2015-11-07T14:28:13Z</time>
      </trkpt>
      <trkpt lat="45.69592" lon="5.83874">
        <ele>446.56528120703</ele>
        <time>2015-11-07T14:28:23Z</time>
      </trkpt>
      <trkpt lat="45.69591" lon="5.83883">
        <ele>446.56528120703</ele>
        <time>2015-11-07T14:28:28Z</time>
      </trkpt>
      <trkpt lat="45.69593" lon="5.83901">
        <ele>440.35939305543</ele>
        <time>2015-11-07T14:28:38Z</time>
      </trkpt>
      <trkpt lat="45.69593" lon="5.83913">
        <ele>440.35939305543</ele>
        <time>2015-11-07T14:28:43Z</time>
      </trkpt>
      <trkpt lat="45.69595" lon="5.83931">
        <ele>445.58966068536</ele>
        <time>2015-11-07T14:28:53Z</time>
      </trkpt>
      <trkpt lat="45.69594" lon="5.8394">
        <ele>445.58966068536</ele>
        <time>2015-11-07T14:28:58Z</time>
      </trkpt>
      <trkpt lat="45.69599" lon="5.83958">
        <ele>439.82974178616</ele>
        <time>2015-11-07T14:29:08Z</time>
      </trkpt>
      <trkpt lat="45.69601" lon="5.83965">
        <ele>439.82974178616</ele>
        <time>2015-11-07T14:29:13Z</time>
      </trkpt>
      <trkpt lat="45.69602" lon="5.8398">
        <ele>443.54731070504</ele>
        <time>2015-11-07T14:29:23Z</time>
      </trkpt>
      <trkpt lat="45.69605" lon="5.83989">
        <ele>443.54731070504</ele>
        <time>2015-11-07T14:29:28Z</time>
      </trkpt>
      <trkpt lat="45.69605" lon="5.84015">
        <ele>448.67344617453</ele>
        <time>2015-11-07T14:29:43Z</time>
      </trkpt>
      <trkpt lat="45.69606" lon="5.84024">
        <ele>448.67344617453</ele>
        <time>2015-11-07T14:29:48Z</time>
      </trkpt>
      <trkpt lat="45.69608" lon="5.84037">
        <ele>443.63522245609</ele>
        <time>2015-11-07T14:29:58Z</time>
      </trkpt>
      <trkpt lat="45.69611" lon="5.84046">
        <ele>443.63522245609</ele>
        <time>2015-11-07T14:30:03Z</time>
      </trkpt>
      <trkpt lat="45.69614" lon="5.84062">
        <ele>448.20344322496</ele>
        <time>2015-11-07T14:30:13Z</time>
      </trkpt>
      <trkpt lat="45.69614" lon="5.84066">
        <ele>448.20344322496</ele>
        <time>2015-11-07T14:30:18Z</time>
      </trkpt>
      <trkpt lat="45.69613" lon="5.84071">
        <ele>448.20344322496</ele>
        <time>2015-11-07T14:30:28Z</time>
      </trkpt>
      <trkpt lat="45.6961" lon="5.84079">
        <ele>458.67824801457</ele>
        <time>2015-11-07T14:30:33Z</time>
      </trkpt>
      <trkpt lat="45.69596" lon="5.84111">
        <ele>467.0467022651</ele>
        <time>2015-11-07T14:30:43Z</time>
      </trkpt>
      <trkpt lat="45.69591" lon="5.84122">
        <ele>467.30275310589</ele>
        <time>2015-11-07T14:30:48Z</time>
      </trkpt>
      <trkpt lat="45.69582" lon="5.84129">
        <ele>469.52605334304</ele>
        <time>2015-11-07T14:30:58Z</time>
      </trkpt>
      <trkpt lat="45.69576" lon="5.84135">
        <ele>469.52605334304</ele>
        <time>2015-11-07T14:31:03Z</time>
      </trkpt>
      <trkpt lat="45.69564" lon="5.84146">
        <ele>476.07544029992</ele>
        <time>2015-11-07T14:31:13Z</time>
      </trkpt>
      <trkpt lat="45.69557" lon="5.84149">
        <ele>476.07544029992</ele>
        <time>2015-11-07T14:31:18Z</time>
      </trkpt>
      <trkpt lat="45.69538" lon="5.84156">
        <ele>479.29609883652</ele>
        <time>2015-11-07T14:31:33Z</time>
      </trkpt>
      <trkpt lat="45.69532" lon="5.84156">
        <ele>479.29609883652</ele>
        <time>2015-11-07T14:31:38Z</time>
      </trkpt>
      <trkpt lat="45.69523" lon="5.84154">
        <ele>467.92577530258</ele>
        <time>2015-11-07T14:31:48Z</time>
      </trkpt>
      <trkpt lat="45.69518" lon="5.84155">
        <ele>467.92577530258</ele>
        <time>2015-11-07T14:31:53Z</time>
      </trkpt>
      <trkpt lat="45.69504" lon="5.84154">
        <ele>472.74315484</ele>
        <time>2015-11-07T14:32:03Z</time>
      </trkpt>
      <trkpt lat="45.69497" lon="5.84154">
        <ele>472.74315484</ele>
        <time>2015-11-07T14:32:08Z</time>
      </trkpt>
      <trkpt lat="45.69483" lon="5.84147">
        <ele>484.96792108454</ele>
        <time>2015-11-07T14:32:18Z</time>
      </trkpt>
      <trkpt lat="45.69477" lon="5.84147">
        <ele>484.96792108454</ele>
        <time>2015-11-07T14:32:23Z</time>
      </trkpt>
      <trkpt lat="45.69466" lon="5.84147">
        <ele>499.77308902422</ele>
        <time>2015-11-07T14:32:33Z</time>
      </trkpt>
      <trkpt lat="45.69462" lon="5.84152">
        <ele>499.77308902422</ele>
        <time>2015-11-07T14:32:38Z</time>
      </trkpt>
      <trkpt lat="45.69456" lon="5.84163">
        <ele>513.84651343078</ele>
        <time>2015-11-07T14:32:48Z</time>
      </trkpt>
      <trkpt lat="45.69454" lon="5.8417">
        <ele>513.84651343078</ele>
        <time>2015-11-07T14:32:53Z</time>
      </trkpt>
      <trkpt lat="45.69449" lon="5.84181">
        <ele>527.27771548868</ele>
        <time>2015-11-07T14:33:03Z</time>
      </trkpt>
      <trkpt lat="45.69445" lon="5.84188">
        <ele>527.27771548868</ele>
        <time>2015-11-07T14:33:08Z</time>
      </trkpt>
      <trkpt lat="45.69437" lon="5.84208">
        <ele>539.33036278237</ele>
        <time>2015-11-07T14:33:18Z</time>
      </trkpt>
      <trkpt lat="45.69433" lon="5.84218">
        <ele>539.33036278237</ele>
        <time>2015-11-07T14:33:23Z</time>
      </trkpt>
      <trkpt lat="45.69412" lon="5.84231">
        <ele>550.10470852094</ele>
        <time>2015-11-07T14:33:38Z</time>
      </trkpt>
      <trkpt lat="45.69405" lon="5.84234">
        <ele>550.10470852094</ele>
        <time>2015-11-07T14:33:43Z</time>
      </trkpt>
      <trkpt lat="45.69394" lon="5.84237">
        <ele>560.53355832281</ele>
        <time>2015-11-07T14:33:53Z</time>
      </trkpt>
      <trkpt lat="45.69388" lon="5.84239">
        <ele>560.53355832281</ele>
        <time>2015-11-07T14:33:58Z</time>
      </trkpt>
      <trkpt lat="45.69376" lon="5.84242">
        <ele>569.78218201671</ele>
        <time>2015-11-07T14:34:08Z</time>
      </trkpt>
      <trkpt lat="45.69371" lon="5.84247">
        <ele>569.78218201671</ele>
        <time>2015-11-07T14:34:13Z</time>
      </trkpt>
      <trkpt lat="45.69363" lon="5.8426">
        <ele>578.88243080198</ele>
        <time>2015-11-07T14:34:23Z</time>
      </trkpt>
      <trkpt lat="45.69358" lon="5.84266">
        <ele>578.88243080198</ele>
        <time>2015-11-07T14:34:28Z</time>
      </trkpt>
      <trkpt lat="45.69357" lon="5.84285">
        <ele>586.83144399918</ele>
        <time>2015-11-07T14:34:38Z</time>
      </trkpt>
      <trkpt lat="45.69357" lon="5.84293">
        <ele>586.83144399918</ele>
        <time>2015-11-07T14:34:43Z</time>
      </trkpt>
      <trkpt lat="45.69356" lon="5.84306">
        <ele>594.63494514236</ele>
        <time>2015-11-07T14:34:53Z</time>
      </trkpt>
      <trkpt lat="45.69351" lon="5.84306">
        <ele>594.63494514236</ele>
        <time>2015-11-07T14:34:58Z</time>
      </trkpt>
      <trkpt lat="45.69345" lon="5.84296">
        <ele>602.34670862306</ele>
        <time>2015-11-07T14:35:08Z</time>
      </trkpt>
      <trkpt lat="45.69341" lon="5.84289">
        <ele>602.34670862306</ele>
        <time>2015-11-07T14:35:13Z</time>
      </trkpt>
      <trkpt lat="45.69334" lon="5.84273">
        <ele>609.75801598324</ele>
        <time>2015-11-07T14:35:23Z</time>
      </trkpt>
      <trkpt lat="45.6933" lon="5.84267">
        <ele>609.75801598324</ele>
        <time>2015-11-07T14:35:28Z</time>
      </trkpt>
      <trkpt lat="45.69314" lon="5.84269">
        <ele>616.11488400099</ele>
        <time>2015-11-07T14:35:43Z</time>
      </trkpt>
      <trkpt lat="45.69314" lon="5.84279">
        <ele>616.11488400099</ele>
        <time>2015-11-07T14:35:48Z</time>
      </trkpt>
      <trkpt lat="45.69322" lon="5.84299">
        <ele>621.39957857082</ele>
        <time>2015-11-07T14:35:58Z</time>
      </trkpt>
      <trkpt lat="45.69325" lon="5.84308">
        <ele>621.39957857082</ele>
        <time>2015-11-07T14:36:03Z</time>
      </trkpt>
      <trkpt lat="45.69332" lon="5.84325">
        <ele>626.27656202473</ele>
        <time>2015-11-07T14:36:13Z</time>
      </trkpt>
      <trkpt lat="45.69335" lon="5.84334">
        <ele>626.27656202473</ele>
        <time>2015-11-07T14:36:18Z</time>
      </trkpt>
      <trkpt lat="45.69338" lon="5.84353">
        <ele>631.01730225459</ele>
        <time>2015-11-07T14:36:28Z</time>
      </trkpt>
      <trkpt lat="45.69338" lon="5.84362">
        <ele>631.01730225459</ele>
        <time>2015-11-07T14:36:33Z</time>
      </trkpt>
      <trkpt lat="45.69341" lon="5.8438">
        <ele>635.83098564166</ele>
        <time>2015-11-07T14:36:43Z</time>
      </trkpt>
      <trkpt lat="45.6934" lon="5.84387">
        <ele>635.83098564166</ele>
        <time>2015-11-07T14:36:48Z</time>
      </trkpt>
      <trkpt lat="45.69345" lon="5.84404">
        <ele>639.90292931601</ele>
        <time>2015-11-07T14:36:58Z</time>
      </trkpt>
      <trkpt lat="45.69346" lon="5.84414">
        <ele>639.90292931601</ele>
        <time>2015-11-07T14:37:03Z</time>
      </trkpt>
      <trkpt lat="45.69341" lon="5.84432">
        <ele>643.3310803454</ele>
        <time>2015-11-07T14:37:13Z</time>
      </trkpt>
      <trkpt lat="45.69338" lon="5.84441">
        <ele>643.3310803454</ele>
        <time>2015-11-07T14:37:18Z</time>
      </trkpt>
      <trkpt lat="45.69334" lon="5.84469">
        <ele>647.21718841031</ele>
        <time>2015-11-07T14:37:33Z</time>
      </trkpt>
      <trkpt lat="45.69336" lon="5.84478">
        <ele>647.21718841031</ele>
        <time>2015-11-07T14:37:38Z</time>
      </trkpt>
      <trkpt lat="45.69345" lon="5.84497">
        <ele>650.08803885029</ele>
        <time>2015-11-07T14:37:53Z</time>
      </trkpt>
      <trkpt lat="45.69352" lon="5.84497">
        <ele>650.08803885029</ele>
        <time>2015-11-07T14:37:58Z</time>
      </trkpt>
      <trkpt lat="45.69365" lon="5.84499">
        <ele>651.5617802931</ele>
        <time>2015-11-07T14:38:08Z</time>
      </trkpt>
      <trkpt lat="45.69371" lon="5.84504">
        <ele>651.5617802931</ele>
        <time>2015-11-07T14:38:13Z</time>
      </trkpt>
      <trkpt lat="45.69377" lon="5.84522">
        <ele>652.61464944734</ele>
        <time>2015-11-07T14:38:23Z</time>
      </trkpt>
      <trkpt lat="45.69376" lon="5.84529">
        <ele>652.61464944734</ele>
        <time>2015-11-07T14:38:28Z</time>
      </trkpt>
      <trkpt lat="45.6937" lon="5.84541">
        <ele>654.7146359407</ele>
        <time>2015-11-07T14:38:38Z</time>
      </trkpt>
      <trkpt lat="45.69368" lon="5.84548">
        <ele>654.7146359407</ele>
        <time>2015-11-07T14:38:43Z</time>
      </trkpt>
      <trkpt lat="45.69359" lon="5.84572">
        <ele>656.87015072281</ele>
        <time>2015-11-07T14:38:58Z</time>
      </trkpt>
      <trkpt lat="45.6935" lon="5.8458">
        <ele>658.88301277511</ele>
        <time>2015-11-07T14:39:03Z</time>
      </trkpt>
      <trkpt lat="45.69335" lon="5.84603">
        <ele>660.29631578832</ele>
        <time>2015-11-07T14:39:18Z</time>
      </trkpt>
      <trkpt lat="45.69333" lon="5.84612">
        <ele>660.29631578832</ele>
        <time>2015-11-07T14:39:23Z</time>
      </trkpt>
      <trkpt lat="45.69324" lon="5.84627">
        <ele>660.38585526889</ele>
        <time>2015-11-07T14:39:33Z</time>
      </trkpt>
      <trkpt lat="45.69322" lon="5.84632">
        <ele>660.38585526889</ele>
        <time>2015-11-07T14:39:38Z</time>
      </trkpt>
      <trkpt lat="45.69313" lon="5.84648">
        <ele>660.34342418329</ele>
        <time>2015-11-07T14:39:48Z</time>
      </trkpt>
      <trkpt lat="45.69312" lon="5.84651">
        <ele>660.34342418329</ele>
        <time>2015-11-07T14:39:53Z</time>
      </trkpt>
      <trkpt lat="45.69306" lon="5.84669">
        <ele>659.93341255116</ele>
        <time>2015-11-07T14:40:03Z</time>
      </trkpt>
      <trkpt lat="45.69299" lon="5.84678">
        <ele>660.03376194215</ele>
        <time>2015-11-07T14:40:08Z</time>
      </trkpt>
      <trkpt lat="45.69289" lon="5.84695">
        <ele>659.02093599785</ele>
        <time>2015-11-07T14:40:18Z</time>
      </trkpt>
      <trkpt lat="45.69284" lon="5.84705">
        <ele>659.02093599785</ele>
        <time>2015-11-07T14:40:23Z</time>
      </trkpt>
      <trkpt lat="45.69279" lon="5.84716">
        <ele>658.10296075198</ele>
        <time>2015-11-07T14:40:33Z</time>
      </trkpt>
      <trkpt lat="45.69279" lon="5.84719">
        <ele>658.10296075198</ele>
        <time>2015-11-07T14:40:38Z</time>
      </trkpt>
      <trkpt lat="45.69282" lon="5.84717">
        <ele>658.10296075198</ele>
        <time>2015-11-07T14:40:48Z</time>
      </trkpt>
      <trkpt lat="45.69283" lon="5.84718">
        <ele>658.10296075198</ele>
        <time>2015-11-07T14:40:53Z</time>
      </trkpt>
      <trkpt lat="45.69284" lon="5.84718">
        <ele>658.10296075198</ele>
        <time>2015-11-07T14:41:03Z</time>
      </trkpt>
      <trkpt lat="45.69284" lon="5.84718">
        <ele>658.10296075198</ele>
        <time>2015-11-07T14:41:08Z</time>
      </trkpt>
      <trkpt lat="45.69286" lon="5.84717">
        <ele>659.23455107556</ele>
        <time>2015-11-07T14:41:18Z</time>
      </trkpt>
      <trkpt lat="45.69283" lon="5.84713">
        <ele>659.23455107556</ele>
        <time>2015-11-07T14:41:23Z</time>
      </trkpt>
      <trkpt lat="45.69284" lon="5.84717">
        <ele>659.23455107556</ele>
        <time>2015-11-07T14:41:38Z</time>
      </trkpt>
      <trkpt lat="45.69286" lon="5.84719">
        <ele>659.89756512355</ele>
        <time>2015-11-07T14:41:43Z</time>
      </trkpt>
      <trkpt lat="45.69289" lon="5.8472">
        <ele>659.89756512355</ele>
        <time>2015-11-07T14:41:53Z</time>
      </trkpt>
      <trkpt lat="45.69289" lon="5.8472">
        <ele>659.89756512355</ele>
        <time>2015-11-07T14:41:58Z</time>
      </trkpt>
      <trkpt lat="45.69289" lon="5.8472">
        <ele>659.89756512355</ele>
        <time>2015-11-07T14:42:08Z</time>
      </trkpt>
      <trkpt lat="45.69289" lon="5.8472">
        <ele>659.89756512355</ele>
        <time>2015-11-07T14:42:13Z</time>
      </trkpt>
      <trkpt lat="45.69286" lon="5.84719">
        <ele>659.89756512355</ele>
        <time>2015-11-07T14:42:23Z</time>
      </trkpt>
      <trkpt lat="45.69286" lon="5.84719">
        <ele>659.89756512355</ele>
        <time>2015-11-07T14:42:28Z</time>
      </trkpt>
      <trkpt lat="45.69286" lon="5.84719">
        <ele>659.89756512355</ele>
        <time>2015-11-07T14:42:38Z</time>
      </trkpt>
      <trkpt lat="45.69286" lon="5.84719">
        <ele>659.89756512355</ele>
        <time>2015-11-07T14:42:43Z</time>
      </trkpt>
      <trkpt lat="45.69283" lon="5.84717">
        <ele>658.58138134296</ele>
        <time>2015-11-07T14:42:53Z</time>
      </trkpt>
      <trkpt lat="45.69282" lon="5.84717">
        <ele>658.58138134296</ele>
        <time>2015-11-07T14:42:58Z</time>
      </trkpt>
      <trkpt lat="45.69282" lon="5.84717">
        <ele>658.58138134296</ele>
        <time>2015-11-07T14:43:08Z</time>
      </trkpt>
      <trkpt lat="45.69282" lon="5.84717">
        <ele>658.58138134296</ele>
        <time>2015-11-07T14:43:13Z</time>
      </trkpt>
      <trkpt lat="45.69281" lon="5.84718">
        <ele>658.58138134296</ele>
        <time>2015-11-07T14:43:23Z</time>
      </trkpt>
      <trkpt lat="45.69281" lon="5.84718">
        <ele>658.58138134296</ele>
        <time>2015-11-07T14:43:28Z</time>
      </trkpt>
      <trkpt lat="45.6928" lon="5.84722">
        <ele>658.58138134296</ele>
        <time>2015-11-07T14:43:38Z</time>
      </trkpt>
      <trkpt lat="45.69278" lon="5.84732">
        <ele>657.4079776875</ele>
        <time>2015-11-07T14:43:43Z</time>
      </trkpt>
      <trkpt lat="45.69273" lon="5.84747">
        <ele>656.29641443282</ele>
        <time>2015-11-07T14:43:53Z</time>
      </trkpt>
      <trkpt lat="45.69269" lon="5.84751">
        <ele>656.29641443282</ele>
        <time>2015-11-07T14:43:58Z</time>
      </trkpt>
      <trkpt lat="45.69263" lon="5.8476">
        <ele>655.47387249923</ele>
        <time>2015-11-07T14:44:08Z</time>
      </trkpt>
      <trkpt lat="45.69262" lon="5.84768">
        <ele>655.47387249923</ele>
        <time>2015-11-07T14:44:13Z</time>
      </trkpt>
      <trkpt lat="45.69255" lon="5.84786">
        <ele>654.8038569482</ele>
        <time>2015-11-07T14:44:28Z</time>
      </trkpt>
      <trkpt lat="45.6925" lon="5.84793">
        <ele>654.8038569482</ele>
        <time>2015-11-07T14:44:33Z</time>
      </trkpt>
      <trkpt lat="45.69241" lon="5.84805">
        <ele>653.49622897571</ele>
        <time>2015-11-07T14:44:43Z</time>
      </trkpt>
      <trkpt lat="45.69238" lon="5.84811">
        <ele>653.49622897571</ele>
        <time>2015-11-07T14:44:48Z</time>
      </trkpt>
      <trkpt lat="45.6923" lon="5.84824">
        <ele>651.98763126141</ele>
        <time>2015-11-07T14:44:58Z</time>
      </trkpt>
      <trkpt lat="45.69226" lon="5.84834">
        <ele>651.98763126141</ele>
        <time>2015-11-07T14:45:03Z</time>
      </trkpt>
      <trkpt lat="45.6922" lon="5.84854">
        <ele>649.89021384119</ele>
        <time>2015-11-07T14:45:13Z</time>
      </trkpt>
      <trkpt lat="45.69217" lon="5.84862">
        <ele>649.89021384119</ele>
        <time>2015-11-07T14:45:18Z</time>
      </trkpt>
      <trkpt lat="45.69211" lon="5.84874">
        <ele>647.26380333693</ele>
        <time>2015-11-07T14:45:28Z</time>
      </trkpt>
      <trkpt lat="45.69207" lon="5.84882">
        <ele>647.26380333693</ele>
        <time>2015-11-07T14:45:33Z</time>
      </trkpt>
      <trkpt lat="45.692" lon="5.84896">
        <ele>645.11604133161</ele>
        <time>2015-11-07T14:45:43Z</time>
      </trkpt>
      <trkpt lat="45.69199" lon="5.84903">
        <ele>645.11604133161</ele>
        <time>2015-11-07T14:45:48Z</time>
      </trkpt>
      <trkpt lat="45.692" lon="5.84931">
        <ele>641.5109650044</ele>
        <time>2015-11-07T14:46:03Z</time>
      </trkpt>
      <trkpt lat="45.69203" lon="5.8494">
        <ele>641.5109650044</ele>
        <time>2015-11-07T14:46:08Z</time>
      </trkpt>
      <trkpt lat="45.69205" lon="5.8496">
        <ele>637.9586108123</ele>
        <time>2015-11-07T14:46:18Z</time>
      </trkpt>
      <trkpt lat="45.69204" lon="5.84968">
        <ele>637.9586108123</ele>
        <time>2015-11-07T14:46:23Z</time>
      </trkpt>
      <trkpt lat="45.69201" lon="5.84974">
        <ele>634.57488211019</ele>
        <time>2015-11-07T14:46:33Z</time>
      </trkpt>
      <trkpt lat="45.69201" lon="5.84975">
        <ele>634.57488211019</ele>
        <time>2015-11-07T14:46:38Z</time>
      </trkpt>
      <trkpt lat="45.69194" lon="5.84989">
        <ele>630.86093904201</ele>
        <time>2015-11-07T14:46:48Z</time>
      </trkpt>
      <trkpt lat="45.69191" lon="5.84995">
        <ele>630.86093904201</ele>
        <time>2015-11-07T14:46:53Z</time>
      </trkpt>
      <trkpt lat="45.69187" lon="5.85005">
        <ele>627.20526085277</ele>
        <time>2015-11-07T14:47:03Z</time>
      </trkpt>
      <trkpt lat="45.69186" lon="5.85012">
        <ele>627.20526085277</ele>
        <time>2015-11-07T14:47:08Z</time>
      </trkpt>
      <trkpt lat="45.69186" lon="5.85034">
        <ele>622.94391215105</ele>
        <time>2015-11-07T14:47:18Z</time>
      </trkpt>
      <trkpt lat="45.69186" lon="5.85044">
        <ele>622.94391215105</ele>
        <time>2015-11-07T14:47:23Z</time>
      </trkpt>
      <trkpt lat="45.69189" lon="5.8507">
        <ele>618.70224546703</ele>
        <time>2015-11-07T14:47:38Z</time>
      </trkpt>
      <trkpt lat="45.69188" lon="5.85074">
        <ele>618.70224546703</ele>
        <time>2015-11-07T14:47:43Z</time>
      </trkpt>
      <trkpt lat="45.69183" lon="5.85088">
        <ele>615.33287949942</ele>
        <time>2015-11-07T14:47:53Z</time>
      </trkpt>
      <trkpt lat="45.69179" lon="5.85096">
        <ele>615.33287949942</ele>
        <time>2015-11-07T14:47:58Z</time>
      </trkpt>
      <trkpt lat="45.69172" lon="5.85112">
        <ele>612.15285802821</ele>
        <time>2015-11-07T14:48:08Z</time>
      </trkpt>
      <trkpt lat="45.69168" lon="5.85121">
        <ele>612.15285802821</ele>
        <time>2015-11-07T14:48:13Z</time>
      </trkpt>
      <trkpt lat="45.69162" lon="5.85136">
        <ele>608.85975200887</ele>
        <time>2015-11-07T14:48:23Z</time>
      </trkpt>
      <trkpt lat="45.6916" lon="5.85145">
        <ele>608.85975200887</ele>
        <time>2015-11-07T14:48:28Z</time>
      </trkpt>
      <trkpt lat="45.69151" lon="5.85162">
        <ele>606.62862196792</ele>
        <time>2015-11-07T14:48:38Z</time>
      </trkpt>
      <trkpt lat="45.69146" lon="5.85168">
        <ele>606.62862196792</ele>
        <time>2015-11-07T14:48:43Z</time>
      </trkpt>
      <trkpt lat="45.69138" lon="5.85184">
        <ele>603.02835312232</ele>
        <time>2015-11-07T14:48:53Z</time>
      </trkpt>
      <trkpt lat="45.69135" lon="5.8519">
        <ele>603.02835312232</ele>
        <time>2015-11-07T14:48:58Z</time>
      </trkpt>
      <trkpt lat="45.69127" lon="5.85203">
        <ele>598.50457674817</ele>
        <time>2015-11-07T14:49:13Z</time>
      </trkpt>
      <trkpt lat="45.69125" lon="5.85212">
        <ele>598.50457674817</ele>
        <time>2015-11-07T14:49:18Z</time>
      </trkpt>
      <trkpt lat="45.69129" lon="5.85225">
        <ele>593.68838539758</ele>
        <time>2015-11-07T14:49:28Z</time>
      </trkpt>
      <trkpt lat="45.69133" lon="5.85233">
        <ele>593.68838539758</ele>
        <time>2015-11-07T14:49:33Z</time>
      </trkpt>
      <trkpt lat="45.6914" lon="5.8525">
        <ele>589.52505040964</ele>
        <time>2015-11-07T14:49:43Z</time>
      </trkpt>
      <trkpt lat="45.69145" lon="5.85257">
        <ele>589.52505040964</ele>
        <time>2015-11-07T14:49:48Z</time>
      </trkpt>
      <trkpt lat="45.69153" lon="5.85271">
        <ele>585.89364555761</ele>
        <time>2015-11-07T14:49:58Z</time>
      </trkpt>
      <trkpt lat="45.69159" lon="5.85277">
        <ele>585.89364555761</ele>
        <time>2015-11-07T14:50:03Z</time>
      </trkpt>
      <trkpt lat="45.69169" lon="5.85291">
        <ele>582.69448914444</ele>
        <time>2015-11-07T14:50:13Z</time>
      </trkpt>
      <trkpt lat="45.6917" lon="5.853">
        <ele>582.69448914444</ele>
        <time>2015-11-07T14:50:18Z</time>
      </trkpt>
      <trkpt lat="45.69159" lon="5.85292">
        <ele>578.79585682553</ele>
        <time>2015-11-07T14:50:28Z</time>
      </trkpt>
      <trkpt lat="45.69155" lon="5.85289">
        <ele>578.79585682553</ele>
        <time>2015-11-07T14:50:33Z</time>
      </trkpt>
      <trkpt lat="45.69145" lon="5.85287">
        <ele>574.96637936917</ele>
        <time>2015-11-07T14:50:43Z</time>
      </trkpt>
      <trkpt lat="45.6914" lon="5.85286">
        <ele>574.96637936917</ele>
        <time>2015-11-07T14:50:48Z</time>
      </trkpt>
      <trkpt lat="45.69128" lon="5.85287">
        <ele>570.93754029835</ele>
        <time>2015-11-07T14:50:58Z</time>
      </trkpt>
      <trkpt lat="45.6912" lon="5.85288">
        <ele>570.93754029835</ele>
        <time>2015-11-07T14:51:03Z</time>
      </trkpt>
      <trkpt lat="45.69109" lon="5.85289">
        <ele>566.77762709529</ele>
        <time>2015-11-07T14:51:13Z</time>
      </trkpt>
      <trkpt lat="45.69106" lon="5.8529">
        <ele>566.77762709529</ele>
        <time>2015-11-07T14:51:18Z</time>
      </trkpt>
      <trkpt lat="45.69095" lon="5.8529">
        <ele>562.52093994519</ele>
        <time>2015-11-07T14:51:28Z</time>
      </trkpt>
      <trkpt lat="45.69091" lon="5.85287">
        <ele>562.52093994519</ele>
        <time>2015-11-07T14:51:33Z</time>
      </trkpt>
      <trkpt lat="45.69086" lon="5.85283">
        <ele>559.00604699644</ele>
        <time>2015-11-07T14:51:43Z</time>
      </trkpt>
      <trkpt lat="45.69084" lon="5.85281">
        <ele>559.00604699644</ele>
        <time>2015-11-07T14:51:48Z</time>
      </trkpt>
      <trkpt lat="45.69077" lon="5.85278">
        <ele>555.78239499774</ele>
        <time>2015-11-07T14:52:03Z</time>
      </trkpt>
      <trkpt lat="45.69076" lon="5.85278">
        <ele>555.78239499774</ele>
        <time>2015-11-07T14:52:08Z</time>
      </trkpt>
      <trkpt lat="45.69071" lon="5.85275">
        <ele>555.78239499774</ele>
        <time>2015-11-07T14:52:18Z</time>
      </trkpt>
      <trkpt lat="45.69068" lon="5.85276">
        <ele>552.74827487317</ele>
        <time>2015-11-07T14:52:23Z</time>
      </trkpt>
      <trkpt lat="45.6906" lon="5.85276">
        <ele>552.74827487317</ele>
        <time>2015-11-07T14:52:33Z</time>
      </trkpt>
      <trkpt lat="45.69058" lon="5.85275">
        <ele>550.19755422375</ele>
        <time>2015-11-07T14:52:38Z</time>
      </trkpt>
      <trkpt lat="45.69054" lon="5.85274">
        <ele>550.19755422375</ele>
        <time>2015-11-07T14:52:48Z</time>
      </trkpt>
      <trkpt lat="45.69049" lon="5.85272">
        <ele>550.19755422375</ele>
        <time>2015-11-07T14:52:53Z</time>
      </trkpt>
      <trkpt lat="45.69042" lon="5.8527">
        <ele>547.46399124005</ele>
        <time>2015-11-07T14:53:03Z</time>
      </trkpt>
      <trkpt lat="45.69039" lon="5.85268">
        <ele>547.46399124005</ele>
        <time>2015-11-07T14:53:08Z</time>
      </trkpt>
      <trkpt lat="45.69032" lon="5.85265">
        <ele>544.95356624245</ele>
        <time>2015-11-07T14:53:18Z</time>
      </trkpt>
      <trkpt lat="45.69028" lon="5.85264">
        <ele>544.95356624245</ele>
        <time>2015-11-07T14:53:23Z</time>
      </trkpt>
      <trkpt lat="45.69016" lon="5.8527">
        <ele>543.27199037634</ele>
        <time>2015-11-07T14:53:38Z</time>
      </trkpt>
      <trkpt lat="45.69013" lon="5.85267">
        <ele>543.27199037634</ele>
        <time>2015-11-07T14:53:43Z</time>
      </trkpt>
      <trkpt lat="45.69009" lon="5.8526">
        <ele>541.75283687007</ele>
        <time>2015-11-07T14:53:53Z</time>
      </trkpt>
      <trkpt lat="45.69007" lon="5.85255">
        <ele>541.75283687007</ele>
        <time>2015-11-07T14:53:58Z</time>
      </trkpt>
      <trkpt lat="45.69001" lon="5.8525">
        <ele>540.81543404941</ele>
        <time>2015-11-07T14:54:08Z</time>
      </trkpt>
      <trkpt lat="45.68999" lon="5.85248">
        <ele>540.81543404941</ele>
        <time>2015-11-07T14:54:13Z</time>
      </trkpt>
      <trkpt lat="45.68997" lon="5.8525">
        <ele>540.81543404941</ele>
        <time>2015-11-07T14:54:23Z</time>
      </trkpt>
      <trkpt lat="45.68996" lon="5.85253">
        <ele>540.81543404941</ele>
        <time>2015-11-07T14:54:28Z</time>
      </trkpt>
      <trkpt lat="45.68987" lon="5.85255">
        <ele>539.2611354404</ele>
        <time>2015-11-07T14:54:38Z</time>
      </trkpt>
      <trkpt lat="45.68983" lon="5.85249">
        <ele>539.2611354404</ele>
        <time>2015-11-07T14:54:43Z</time>
      </trkpt>
      <trkpt lat="45.68979" lon="5.85239">
        <ele>537.50836785474</ele>
        <time>2015-11-07T14:54:58Z</time>
      </trkpt>
      <trkpt lat="45.68977" lon="5.85235">
        <ele>537.50836785474</ele>
        <time>2015-11-07T14:55:03Z</time>
      </trkpt>
      <trkpt lat="45.68972" lon="5.85228">
        <ele>536.49274104457</ele>
        <time>2015-11-07T14:55:13Z</time>
      </trkpt>
      <trkpt lat="45.6897" lon="5.85223">
        <ele>536.49274104457</ele>
        <time>2015-11-07T14:55:18Z</time>
      </trkpt>
      <trkpt lat="45.68966" lon="5.85217">
        <ele>534.54247788835</ele>
        <time>2015-11-07T14:55:28Z</time>
      </trkpt>
      <trkpt lat="45.68965" lon="5.8522">
        <ele>534.54247788835</ele>
        <time>2015-11-07T14:55:33Z</time>
      </trkpt>
      <trkpt lat="45.68963" lon="5.8523">
        <ele>532.66178915974</ele>
        <time>2015-11-07T14:55:43Z</time>
      </trkpt>
      <trkpt lat="45.68959" lon="5.85236">
        <ele>532.66178915974</ele>
        <time>2015-11-07T14:55:48Z</time>
      </trkpt>
      <trkpt lat="45.68957" lon="5.85234">
        <ele>532.66178915974</ele>
        <time>2015-11-07T14:55:58Z</time>
      </trkpt>
      <trkpt lat="45.68957" lon="5.85231">
        <ele>530.82960051694</ele>
        <time>2015-11-07T14:56:03Z</time>
      </trkpt>
      <trkpt lat="45.68953" lon="5.85219">
        <ele>527.90201334141</ele>
        <time>2015-11-07T14:56:18Z</time>
      </trkpt>
      <trkpt lat="45.68949" lon="5.85216">
        <ele>527.90201334141</ele>
        <time>2015-11-07T14:56:23Z</time>
      </trkpt>
      <trkpt lat="45.68944" lon="5.85217">
        <ele>524.911689521</ele>
        <time>2015-11-07T14:56:33Z</time>
      </trkpt>
      <trkpt lat="45.68943" lon="5.85221">
        <ele>524.911689521</ele>
        <time>2015-11-07T14:56:38Z</time>
      </trkpt>
      <trkpt lat="45.68942" lon="5.85223">
        <ele>524.911689521</ele>
        <time>2015-11-07T14:56:48Z</time>
      </trkpt>
      <trkpt lat="45.68942" lon="5.85222">
        <ele>524.911689521</ele>
        <time>2015-11-07T14:56:53Z</time>
      </trkpt>
      <trkpt lat="45.6894" lon="5.85226">
        <ele>524.911689521</ele>
        <time>2015-11-07T14:57:03Z</time>
      </trkpt>
      <trkpt lat="45.68937" lon="5.85235">
        <ele>522.0228544987</ele>
        <time>2015-11-07T14:57:08Z</time>
      </trkpt>
      <trkpt lat="45.68939" lon="5.85247">
        <ele>518.29200603739</ele>
        <time>2015-11-07T14:57:18Z</time>
      </trkpt>
      <trkpt lat="45.6894" lon="5.85253">
        <ele>518.29200603739</ele>
        <time>2015-11-07T14:57:23Z</time>
      </trkpt>
      <trkpt lat="45.6894" lon="5.85274">
        <ele>514.0288948919</ele>
        <time>2015-11-07T14:57:38Z</time>
      </trkpt>
      <trkpt lat="45.68938" lon="5.8528">
        <ele>514.0288948919</ele>
        <time>2015-11-07T14:57:43Z</time>
      </trkpt>
      <trkpt lat="45.68932" lon="5.85291">
        <ele>510.64595184419</ele>
        <time>2015-11-07T14:57:53Z</time>
      </trkpt>
      <trkpt lat="45.68931" lon="5.853">
        <ele>510.64595184419</ele>
        <time>2015-11-07T14:57:58Z</time>
      </trkpt>
      <trkpt lat="45.68927" lon="5.8532">
        <ele>506.98495698115</ele>
        <time>2015-11-07T14:58:08Z</time>
      </trkpt>
      <trkpt lat="45.68923" lon="5.85328">
        <ele>506.98495698115</ele>
        <time>2015-11-07T14:58:13Z</time>
      </trkpt>
      <trkpt lat="45.68919" lon="5.85348">
        <ele>503.63070853214</ele>
        <time>2015-11-07T14:58:23Z</time>
      </trkpt>
      <trkpt lat="45.68917" lon="5.85358">
        <ele>503.63070853214</ele>
        <time>2015-11-07T14:58:28Z</time>
      </trkpt>
      <trkpt lat="45.68909" lon="5.8538">
        <ele>501.55640149871</ele>
        <time>2015-11-07T14:58:38Z</time>
      </trkpt>
      <trkpt lat="45.68907" lon="5.85386">
        <ele>501.55640149871</ele>
        <time>2015-11-07T14:58:43Z</time>
      </trkpt>
      <trkpt lat="45.68905" lon="5.85405">
        <ele>499.36867302807</ele>
        <time>2015-11-07T14:58:53Z</time>
      </trkpt>
      <trkpt lat="45.68903" lon="5.85411">
        <ele>499.36867302807</ele>
        <time>2015-11-07T14:58:58Z</time>
      </trkpt>
      <trkpt lat="45.68895" lon="5.85424">
        <ele>498.16898214532</ele>
        <time>2015-11-07T14:59:08Z</time>
      </trkpt>
      <trkpt lat="45.68892" lon="5.85432">
        <ele>498.16898214532</ele>
        <time>2015-11-07T14:59:13Z</time>
      </trkpt>
      <trkpt lat="45.68886" lon="5.85461">
        <ele>497.24568831748</ele>
        <time>2015-11-07T14:59:28Z</time>
      </trkpt>
      <trkpt lat="45.68886" lon="5.85473">
        <ele>497.24568831748</ele>
        <time>2015-11-07T14:59:33Z</time>
      </trkpt>
      <trkpt lat="45.68886" lon="5.85497">
        <ele>495.66477761602</ele>
        <time>2015-11-07T14:59:43Z</time>
      </trkpt>
      <trkpt lat="45.68886" lon="5.85505">
        <ele>495.66477761602</ele>
        <time>2015-11-07T14:59:48Z</time>
      </trkpt>
      <trkpt lat="45.68882" lon="5.85518">
        <ele>494.20551517529</ele>
        <time>2015-11-07T14:59:58Z</time>
      </trkpt>
      <trkpt lat="45.68879" lon="5.85519">
        <ele>494.20551517529</ele>
        <time>2015-11-07T15:00:03Z</time>
      </trkpt>
      <trkpt lat="45.68876" lon="5.85515">
        <ele>494.20551517529</ele>
        <time>2015-11-07T15:00:13Z</time>
      </trkpt>
      <trkpt lat="45.68871" lon="5.85515">
        <ele>492.8401752322</ele>
        <time>2015-11-07T15:00:18Z</time>
      </trkpt>
      <trkpt lat="45.68871" lon="5.85517">
        <ele>492.8401752322</ele>
        <time>2015-11-07T15:00:28Z</time>
      </trkpt>
      <trkpt lat="45.68871" lon="5.85517">
        <ele>492.8401752322</ele>
        <time>2015-11-07T15:00:33Z</time>
      </trkpt>
      <trkpt lat="45.68872" lon="5.85517">
        <ele>492.8401752322</ele>
        <time>2015-11-07T15:00:43Z</time>
      </trkpt>
      <trkpt lat="45.68872" lon="5.85517">
        <ele>492.8401752322</ele>
        <time>2015-11-07T15:00:48Z</time>
      </trkpt>
      <trkpt lat="45.68875" lon="5.85521">
        <ele>492.8401752322</ele>
        <time>2015-11-07T15:00:58Z</time>
      </trkpt>
      <trkpt lat="45.68875" lon="5.85522">
        <ele>492.8401752322</ele>
        <time>2015-11-07T15:01:03Z</time>
      </trkpt>
      <trkpt lat="45.68875" lon="5.85521">
        <ele>492.8401752322</ele>
        <time>2015-11-07T15:01:13Z</time>
      </trkpt>
      <trkpt lat="45.68875" lon="5.85519">
        <ele>492.8401752322</ele>
        <time>2015-11-07T15:01:18Z</time>
      </trkpt>
      <trkpt lat="45.68873" lon="5.85517">
        <ele>491.08163773143</ele>
        <time>2015-11-07T15:01:33Z</time>
      </trkpt>
      <trkpt lat="45.68873" lon="5.85517">
        <ele>491.08163773143</ele>
        <time>2015-11-07T15:01:38Z</time>
      </trkpt>
      <trkpt lat="45.68873" lon="5.85517">
        <ele>491.08163773143</ele>
        <time>2015-11-07T15:01:48Z</time>
      </trkpt>
      <trkpt lat="45.68873" lon="5.85517">
        <ele>491.08163773143</ele>
        <time>2015-11-07T15:01:53Z</time>
      </trkpt>
      <trkpt lat="45.68872" lon="5.85517">
        <ele>491.08163773143</ele>
        <time>2015-11-07T15:02:03Z</time>
      </trkpt>
      <trkpt lat="45.68872" lon="5.85516">
        <ele>491.08163773143</ele>
        <time>2015-11-07T15:02:08Z</time>
      </trkpt>
      <trkpt lat="45.68872" lon="5.85516">
        <ele>491.08163773143</ele>
        <time>2015-11-07T15:02:18Z</time>
      </trkpt>
      <trkpt lat="45.68872" lon="5.85517">
        <ele>491.08163773143</ele>
        <time>2015-11-07T15:02:23Z</time>
      </trkpt>
      <trkpt lat="45.68872" lon="5.85517">
        <ele>491.08163773143</ele>
        <time>2015-11-07T15:02:33Z</time>
      </trkpt>
      <trkpt lat="45.68872" lon="5.85517">
        <ele>491.08163773143</ele>
        <time>2015-11-07T15:02:38Z</time>
      </trkpt>
      <trkpt lat="45.68872" lon="5.85517">
        <ele>491.08163773143</ele>
        <time>2015-11-07T15:02:48Z</time>
      </trkpt>
      <trkpt lat="45.68873" lon="5.85516">
        <ele>491.08163773143</ele>
        <time>2015-11-07T15:02:53Z</time>
      </trkpt>
      <trkpt lat="45.68874" lon="5.85521">
        <ele>491.08163773143</ele>
        <time>2015-11-07T15:03:03Z</time>
      </trkpt>
      <trkpt lat="45.68875" lon="5.85521">
        <ele>490.16577281311</ele>
        <time>2015-11-07T15:03:08Z</time>
      </trkpt>
      <trkpt lat="45.68872" lon="5.85516">
        <ele>490.16577281311</ele>
        <time>2015-11-07T15:03:23Z</time>
      </trkpt>
      <trkpt lat="45.68873" lon="5.85517">
        <ele>490.16577281311</ele>
        <time>2015-11-07T15:03:28Z</time>
      </trkpt>
      <trkpt lat="45.68874" lon="5.85517">
        <ele>490.16577281311</ele>
        <time>2015-11-07T15:03:38Z</time>
      </trkpt>
      <trkpt lat="45.68874" lon="5.85517">
        <ele>490.16577281311</ele>
        <time>2015-11-07T15:03:43Z</time>
      </trkpt>
      <trkpt lat="45.68875" lon="5.85517">
        <ele>490.16577281311</ele>
        <time>2015-11-07T15:03:53Z</time>
      </trkpt>
      <trkpt lat="45.68875" lon="5.85518">
        <ele>490.16577281311</ele>
        <time>2015-11-07T15:03:58Z</time>
      </trkpt>
      <trkpt lat="45.68874" lon="5.85518">
        <ele>490.16577281311</ele>
        <time>2015-11-07T15:04:08Z</time>
      </trkpt>
      <trkpt lat="45.68874" lon="5.85518">
        <ele>490.16577281311</ele>
        <time>2015-11-07T15:04:13Z</time>
      </trkpt>
      <trkpt lat="45.68875" lon="5.85518">
        <ele>490.16577281311</ele>
        <time>2015-11-07T15:04:23Z</time>
      </trkpt>
      <trkpt lat="45.68873" lon="5.85517">
        <ele>489.52039522263</ele>
        <time>2015-11-07T15:04:28Z</time>
      </trkpt>
      <trkpt lat="45.68867" lon="5.85508">
        <ele>489.52039522263</ele>
        <time>2015-11-07T15:04:38Z</time>
      </trkpt>
      <trkpt lat="45.68868" lon="5.85502">
        <ele>489.06137099449</ele>
        <time>2015-11-07T15:04:43Z</time>
      </trkpt>
      <trkpt lat="45.6887" lon="5.855">
        <ele>489.06137099449</ele>
        <time>2015-11-07T15:04:53Z</time>
      </trkpt>
      <trkpt lat="45.68869" lon="5.855">
        <ele>489.06137099449</ele>
        <time>2015-11-07T15:04:58Z</time>
      </trkpt>
      <trkpt lat="45.68871" lon="5.85499">
        <ele>489.06137099449</ele>
        <time>2015-11-07T15:05:13Z</time>
      </trkpt>
      <trkpt lat="45.68873" lon="5.85498">
        <ele>489.06137099449</ele>
        <time>2015-11-07T15:05:18Z</time>
      </trkpt>
      <trkpt lat="45.68874" lon="5.85498">
        <ele>489.06137099449</ele>
        <time>2015-11-07T15:05:28Z</time>
      </trkpt>
      <trkpt lat="45.68874" lon="5.85496">
        <ele>488.98408480883</ele>
        <time>2015-11-07T15:05:33Z</time>
      </trkpt>
      <trkpt lat="45.68874" lon="5.85496">
        <ele>488.98408480883</ele>
        <time>2015-11-07T15:05:43Z</time>
      </trkpt>
      <trkpt lat="45.68874" lon="5.85496">
        <ele>488.98408480883</ele>
        <time>2015-11-07T15:05:48Z</time>
      </trkpt>
      <trkpt lat="45.68874" lon="5.85497">
        <ele>488.98408480883</ele>
        <time>2015-11-07T15:05:58Z</time>
      </trkpt>
      <trkpt lat="45.68874" lon="5.85497">
        <ele>488.98408480883</ele>
        <time>2015-11-07T15:06:03Z</time>
      </trkpt>
      <trkpt lat="45.68873" lon="5.85484">
        <ele>489.19475452436</ele>
        <time>2015-11-07T15:06:13Z</time>
      </trkpt>
      <trkpt lat="45.68875" lon="5.85477">
        <ele>489.19475452436</ele>
        <time>2015-11-07T15:06:18Z</time>
      </trkpt>
      <trkpt lat="45.68879" lon="5.8546">
        <ele>489.82193363765</ele>
        <time>2015-11-07T15:06:28Z</time>
      </trkpt>
      <trkpt lat="45.68882" lon="5.85451">
        <ele>489.82193363765</ele>
        <time>2015-11-07T15:06:33Z</time>
      </trkpt>
      <trkpt lat="45.68888" lon="5.85426">
        <ele>490.32075947295</ele>
        <time>2015-11-07T15:06:48Z</time>
      </trkpt>
      <trkpt lat="45.68888" lon="5.85417">
        <ele>490.32075947295</ele>
        <time>2015-11-07T15:06:53Z</time>
      </trkpt>
      <trkpt lat="45.68892" lon="5.85404">
        <ele>491.02272646501</ele>
        <time>2015-11-07T15:07:03Z</time>
      </trkpt>
      <trkpt lat="45.68893" lon="5.85401">
        <ele>491.02272646501</ele>
        <time>2015-11-07T15:07:08Z</time>
      </trkpt>
      <trkpt lat="45.68893" lon="5.85387">
        <ele>490.34669532132</ele>
        <time>2015-11-07T15:07:18Z</time>
      </trkpt>
      <trkpt lat="45.68894" lon="5.85382">
        <ele>490.34669532132</ele>
        <time>2015-11-07T15:07:23Z</time>
      </trkpt>
      <trkpt lat="45.68897" lon="5.85367">
        <ele>489.25276667349</ele>
        <time>2015-11-07T15:07:33Z</time>
      </trkpt>
      <trkpt lat="45.68897" lon="5.85356">
        <ele>489.25276667349</ele>
        <time>2015-11-07T15:07:38Z</time>
      </trkpt>
      <trkpt lat="45.68896" lon="5.85343">
        <ele>489.00654124007</ele>
        <time>2015-11-07T15:07:48Z</time>
      </trkpt>
      <trkpt lat="45.68897" lon="5.85334">
        <ele>489.00654124007</ele>
        <time>2015-11-07T15:07:53Z</time>
      </trkpt>
      <trkpt lat="45.689" lon="5.85315">
        <ele>489.32292336544</ele>
        <time>2015-11-07T15:08:03Z</time>
      </trkpt>
      <trkpt lat="45.68899" lon="5.85308">
        <ele>489.32292336544</ele>
        <time>2015-11-07T15:08:08Z</time>
      </trkpt>
      <trkpt lat="45.689" lon="5.85292">
        <ele>489.67696306849</ele>
        <time>2015-11-07T15:08:18Z</time>
      </trkpt>
      <trkpt lat="45.68902" lon="5.85286">
        <ele>489.67696306849</ele>
        <time>2015-11-07T15:08:23Z</time>
      </trkpt>
      <trkpt lat="45.68898" lon="5.85263">
        <ele>489.46706606936</ele>
        <time>2015-11-07T15:08:38Z</time>
      </trkpt>
      <trkpt lat="45.68898" lon="5.85255">
        <ele>489.46706606936</ele>
        <time>2015-11-07T15:08:43Z</time>
      </trkpt>
      <trkpt lat="45.68891" lon="5.85238">
        <ele>488.1087835677</ele>
        <time>2015-11-07T15:08:53Z</time>
      </trkpt>
      <trkpt lat="45.68888" lon="5.8523">
        <ele>488.1087835677</ele>
        <time>2015-11-07T15:08:58Z</time>
      </trkpt>
      <trkpt lat="45.68877" lon="5.85216">
        <ele>487.25450748092</ele>
        <time>2015-11-07T15:09:08Z</time>
      </trkpt>
      <trkpt lat="45.68874" lon="5.8521">
        <ele>487.25450748092</ele>
        <time>2015-11-07T15:09:13Z</time>
      </trkpt>
      <trkpt lat="45.68865" lon="5.85208">
        <ele>485.2059356768</ele>
        <time>2015-11-07T15:09:23Z</time>
      </trkpt>
      <trkpt lat="45.68861" lon="5.85208">
        <ele>485.2059356768</ele>
        <time>2015-11-07T15:09:28Z</time>
      </trkpt>
      <trkpt lat="45.68847" lon="5.85207">
        <ele>482.90059373281</ele>
        <time>2015-11-07T15:09:38Z</time>
      </trkpt>
      <trkpt lat="45.68841" lon="5.85206">
        <ele>482.90059373281</ele>
        <time>2015-11-07T15:09:43Z</time>
      </trkpt>
      <trkpt lat="45.68825" lon="5.8521">
        <ele>481.68360267494</ele>
        <time>2015-11-07T15:09:53Z</time>
      </trkpt>
      <trkpt lat="45.68817" lon="5.85213">
        <ele>481.68360267494</ele>
        <time>2015-11-07T15:09:58Z</time>
      </trkpt>
      <trkpt lat="45.68804" lon="5.85218">
        <ele>480.99699920072</ele>
        <time>2015-11-07T15:10:08Z</time>
      </trkpt>
      <trkpt lat="45.68798" lon="5.8522">
        <ele>480.99699920072</ele>
        <time>2015-11-07T15:10:13Z</time>
      </trkpt>
      <trkpt lat="45.68786" lon="5.85218">
        <ele>478.953424288</ele>
        <time>2015-11-07T15:10:28Z</time>
      </trkpt>
      <trkpt lat="45.68781" lon="5.85216">
        <ele>478.953424288</ele>
        <time>2015-11-07T15:10:33Z</time>
      </trkpt>
      <trkpt lat="45.68769" lon="5.85214">
        <ele>476.44535578218</ele>
        <time>2015-11-07T15:10:43Z</time>
      </trkpt>
      <trkpt lat="45.68765" lon="5.85212">
        <ele>476.44535578218</ele>
        <time>2015-11-07T15:10:48Z</time>
      </trkpt>
      <trkpt lat="45.68752" lon="5.85213">
        <ele>474.14263356221</ele>
        <time>2015-11-07T15:10:58Z</time>
      </trkpt>
      <trkpt lat="45.68746" lon="5.85213">
        <ele>474.14263356221</ele>
        <time>2015-11-07T15:11:03Z</time>
      </trkpt>
      <trkpt lat="45.68733" lon="5.85214">
        <ele>471.613433931</ele>
        <time>2015-11-07T15:11:13Z</time>
      </trkpt>
      <trkpt lat="45.68728" lon="5.85215">
        <ele>471.613433931</ele>
        <time>2015-11-07T15:11:18Z</time>
      </trkpt>
      <trkpt lat="45.68715" lon="5.85217">
        <ele>469.15013954444</ele>
        <time>2015-11-07T15:11:28Z</time>
      </trkpt>
      <trkpt lat="45.68708" lon="5.85219">
        <ele>469.15013954444</ele>
        <time>2015-11-07T15:11:33Z</time>
      </trkpt>
      <trkpt lat="45.68694" lon="5.85223">
        <ele>466.63447156986</ele>
        <time>2015-11-07T15:11:43Z</time>
      </trkpt>
      <trkpt lat="45.68686" lon="5.85224">
        <ele>466.63447156986</ele>
        <time>2015-11-07T15:11:48Z</time>
      </trkpt>
      <trkpt lat="45.68668" lon="5.85224">
        <ele>464.18765313994</ele>
        <time>2015-11-07T15:12:03Z</time>
      </trkpt>
      <trkpt lat="45.68661" lon="5.85225">
        <ele>464.18765313994</ele>
        <time>2015-11-07T15:12:08Z</time>
      </trkpt>
      <trkpt lat="45.68657" lon="5.85224">
        <ele>462.42627525649</ele>
        <time>2015-11-07T15:12:18Z</time>
      </trkpt>
      <trkpt lat="45.68653" lon="5.85225">
        <ele>462.42627525649</ele>
        <time>2015-11-07T15:12:23Z</time>
      </trkpt>
      <trkpt lat="45.68647" lon="5.85224">
        <ele>461.15599035042</ele>
        <time>2015-11-07T15:12:33Z</time>
      </trkpt>
      <trkpt lat="45.68647" lon="5.85225">
        <ele>461.15599035042</ele>
        <time>2015-11-07T15:12:38Z</time>
      </trkpt>
      <trkpt lat="45.68646" lon="5.85225">
        <ele>461.15599035042</ele>
        <time>2015-11-07T15:12:48Z</time>
      </trkpt>
      <trkpt lat="45.68646" lon="5.85225">
        <ele>461.15599035042</ele>
        <time>2015-11-07T15:12:53Z</time>
      </trkpt>
      <trkpt lat="45.68646" lon="5.85226">
        <ele>461.15599035042</ele>
        <time>2015-11-07T15:13:03Z</time>
      </trkpt>
      <trkpt lat="45.68646" lon="5.85226">
        <ele>461.15599035042</ele>
        <time>2015-11-07T15:13:08Z</time>
      </trkpt>
      <trkpt lat="45.68646" lon="5.85227">
        <ele>461.15599035042</ele>
        <time>2015-11-07T15:13:18Z</time>
      </trkpt>
      <trkpt lat="45.68647" lon="5.85232">
        <ele>461.15599035042</ele>
        <time>2015-11-07T15:13:23Z</time>
      </trkpt>
      <trkpt lat="45.68651" lon="5.85244">
        <ele>460.69980183058</ele>
        <time>2015-11-07T15:13:33Z</time>
      </trkpt>
      <trkpt lat="45.68656" lon="5.85246">
        <ele>460.69980183058</ele>
        <time>2015-11-07T15:13:38Z</time>
      </trkpt>
      <trkpt lat="45.68675" lon="5.85249">
        <ele>460.31716307452</ele>
        <time>2015-11-07T15:13:53Z</time>
      </trkpt>
      <trkpt lat="45.68681" lon="5.85248">
        <ele>460.31716307452</ele>
        <time>2015-11-07T15:13:58Z</time>
      </trkpt>
      <trkpt lat="45.68686" lon="5.8525">
        <ele>459.71088527193</ele>
        <time>2015-11-07T15:14:08Z</time>
      </trkpt>
      <trkpt lat="45.68692" lon="5.8525">
        <ele>459.71088527193</ele>
        <time>2015-11-07T15:14:13Z</time>
      </trkpt>
      <trkpt lat="45.68704" lon="5.85255">
        <ele>459.02422828849</ele>
        <time>2015-11-07T15:14:23Z</time>
      </trkpt>
      <trkpt lat="45.68711" lon="5.85255">
        <ele>459.02422828849</ele>
        <time>2015-11-07T15:14:28Z</time>
      </trkpt>
      <trkpt lat="45.68719" lon="5.85255">
        <ele>457.49673452952</ele>
        <time>2015-11-07T15:14:38Z</time>
      </trkpt>
      <trkpt lat="45.68725" lon="5.85254">
        <ele>457.49673452952</ele>
        <time>2015-11-07T15:14:43Z</time>
      </trkpt>
      <trkpt lat="45.6874" lon="5.85253">
        <ele>455.27649313807</ele>
        <time>2015-11-07T15:14:53Z</time>
      </trkpt>
      <trkpt lat="45.68748" lon="5.85255">
        <ele>455.27649313807</ele>
        <time>2015-11-07T15:14:58Z</time>
      </trkpt>
      <trkpt lat="45.68771" lon="5.8526">
        <ele>453.1224014489</ele>
        <time>2015-11-07T15:15:13Z</time>
      </trkpt>
      <trkpt lat="45.68773" lon="5.85258">
        <ele>453.1224014489</ele>
        <time>2015-11-07T15:15:18Z</time>
      </trkpt>
      <trkpt lat="45.68784" lon="5.85261">
        <ele>450.33960206676</ele>
        <time>2015-11-07T15:15:28Z</time>
      </trkpt>
      <trkpt lat="45.68794" lon="5.85264">
        <ele>448.47658292039</ele>
        <time>2015-11-07T15:15:33Z</time>
      </trkpt>
      <trkpt lat="45.6881" lon="5.85269">
        <ele>447.30826198099</ele>
        <time>2015-11-07T15:15:43Z</time>
      </trkpt>
      <trkpt lat="45.68811" lon="5.85279">
        <ele>447.30826198099</ele>
        <time>2015-11-07T15:15:48Z</time>
      </trkpt>
      <trkpt lat="45.6881" lon="5.85281">
        <ele>446.88357773285</ele>
        <time>2015-11-07T15:15:58Z</time>
      </trkpt>
      <trkpt lat="45.68809" lon="5.85281">
        <ele>446.88357773285</ele>
        <time>2015-11-07T15:16:03Z</time>
      </trkpt>
      <trkpt lat="45.68801" lon="5.8528">
        <ele>446.88357773285</ele>
        <time>2015-11-07T15:16:13Z</time>
      </trkpt>
      <trkpt lat="45.68792" lon="5.85278">
        <ele>447.0873000108</ele>
        <time>2015-11-07T15:16:18Z</time>
      </trkpt>
      <trkpt lat="45.6878" lon="5.85275">
        <ele>446.85980562495</ele>
        <time>2015-11-07T15:16:28Z</time>
      </trkpt>
      <trkpt lat="45.68776" lon="5.85275">
        <ele>446.85980562495</ele>
        <time>2015-11-07T15:16:33Z</time>
      </trkpt>
      <trkpt lat="45.68758" lon="5.85276">
        <ele>446.11405427022</ele>
        <time>2015-11-07T15:16:48Z</time>
      </trkpt>
      <trkpt lat="45.68751" lon="5.85277">
        <ele>446.11405427022</ele>
        <time>2015-11-07T15:16:53Z</time>
      </trkpt>
      <trkpt lat="45.68743" lon="5.85284">
        <ele>444.56914704217</ele>
        <time>2015-11-07T15:17:03Z</time>
      </trkpt>
      <trkpt lat="45.68737" lon="5.8529">
        <ele>444.56914704217</ele>
        <time>2015-11-07T15:17:08Z</time>
      </trkpt>
      <trkpt lat="45.68725" lon="5.85296">
        <ele>442.2697448834</ele>
        <time>2015-11-07T15:17:18Z</time>
      </trkpt>
      <trkpt lat="45.68721" lon="5.85295">
        <ele>442.2697448834</ele>
        <time>2015-11-07T15:17:23Z</time>
      </trkpt>
      <trkpt lat="45.68702" lon="5.8529">
        <ele>440.98872632786</ele>
        <time>2015-11-07T15:17:33Z</time>
      </trkpt>
      <trkpt lat="45.68692" lon="5.85289">
        <ele>439.98808789622</ele>
        <time>2015-11-07T15:17:38Z</time>
      </trkpt>
      <trkpt lat="45.68687" lon="5.85289">
        <ele>439.98808789622</ele>
        <time>2015-11-07T15:17:48Z</time>
      </trkpt>
      <trkpt lat="45.68685" lon="5.85289">
        <ele>439.98808789622</ele>
        <time>2015-11-07T15:17:53Z</time>
      </trkpt>
      <trkpt lat="45.68671" lon="5.85286">
        <ele>439.28943781424</ele>
        <time>2015-11-07T15:18:03Z</time>
      </trkpt>
      <trkpt lat="45.68668" lon="5.85281">
        <ele>439.28943781424</ele>
        <time>2015-11-07T15:18:08Z</time>
      </trkpt>
      <trkpt lat="45.68661" lon="5.85276">
        <ele>436.82237371253</ele>
        <time>2015-11-07T15:18:18Z</time>
      </trkpt>
      <trkpt lat="45.68655" lon="5.85274">
        <ele>436.82237371253</ele>
        <time>2015-11-07T15:18:23Z</time>
      </trkpt>
      <trkpt lat="45.68636" lon="5.85272">
        <ele>435.29954658233</ele>
        <time>2015-11-07T15:18:33Z</time>
      </trkpt>
      <trkpt lat="45.68628" lon="5.85268">
        <ele>435.29954658233</ele>
        <time>2015-11-07T15:18:38Z</time>
      </trkpt>
      <trkpt lat="45.68615" lon="5.85262">
        <ele>433.42718318141</ele>
        <time>2015-11-07T15:18:48Z</time>
      </trkpt>
      <trkpt lat="45.68608" lon="5.85257">
        <ele>433.42718318141</ele>
        <time>2015-11-07T15:18:53Z</time>
      </trkpt>
      <trkpt lat="45.68603" lon="5.85243">
        <ele>432.19804498166</ele>
        <time>2015-11-07T15:19:03Z</time>
      </trkpt>
      <trkpt lat="45.68602" lon="5.85232">
        <ele>432.19804498166</ele>
        <time>2015-11-07T15:19:08Z</time>
      </trkpt>
      <trkpt lat="45.68599" lon="5.85204">
        <ele>430.87290270522</ele>
        <time>2015-11-07T15:19:23Z</time>
      </trkpt>
      <trkpt lat="45.68597" lon="5.85196">
        <ele>430.87290270522</ele>
        <time>2015-11-07T15:19:28Z</time>
      </trkpt>
      <trkpt lat="45.68589" lon="5.85177">
        <ele>429.93441789471</ele>
        <time>2015-11-07T15:19:38Z</time>
      </trkpt>
      <trkpt lat="45.68585" lon="5.85169">
        <ele>429.93441789471</ele>
        <time>2015-11-07T15:19:43Z</time>
      </trkpt>
      <trkpt lat="45.68574" lon="5.85151">
        <ele>428.64701606405</ele>
        <time>2015-11-07T15:19:53Z</time>
      </trkpt>
      <trkpt lat="45.68568" lon="5.85146">
        <ele>428.64701606405</ele>
        <time>2015-11-07T15:19:58Z</time>
      </trkpt>
      <trkpt lat="45.68556" lon="5.85139">
        <ele>426.87777389006</ele>
        <time>2015-11-07T15:20:08Z</time>
      </trkpt>
      <trkpt lat="45.68557" lon="5.85136">
        <ele>426.87777389006</ele>
        <time>2015-11-07T15:20:13Z</time>
      </trkpt>
      <trkpt lat="45.68558" lon="5.85137">
        <ele>426.87777389006</ele>
        <time>2015-11-07T15:20:23Z</time>
      </trkpt>
      <trkpt lat="45.68557" lon="5.85136">
        <ele>426.87777389006</ele>
        <time>2015-11-07T15:20:28Z</time>
      </trkpt>
      <trkpt lat="45.68545" lon="5.85128">
        <ele>425.34074254859</ele>
        <time>2015-11-07T15:20:38Z</time>
      </trkpt>
      <trkpt lat="45.68539" lon="5.85124">
        <ele>425.34074254859</ele>
        <time>2015-11-07T15:20:43Z</time>
      </trkpt>
      <trkpt lat="45.68526" lon="5.85115">
        <ele>423.91867921298</ele>
        <time>2015-11-07T15:20:53Z</time>
      </trkpt>
      <trkpt lat="45.6852" lon="5.8511">
        <ele>423.91867921298</ele>
        <time>2015-11-07T15:20:58Z</time>
      </trkpt>
      <trkpt lat="45.68501" lon="5.85099">
        <ele>422.48822874776</ele>
        <time>2015-11-07T15:21:13Z</time>
      </trkpt>
      <trkpt lat="45.68495" lon="5.85096">
        <ele>422.48822874776</ele>
        <time>2015-11-07T15:21:18Z</time>
      </trkpt>
      <trkpt lat="45.68484" lon="5.85092">
        <ele>421.02159397584</ele>
        <time>2015-11-07T15:21:28Z</time>
      </trkpt>
      <trkpt lat="45.68478" lon="5.8509">
        <ele>421.02159397584</ele>
        <time>2015-11-07T15:21:33Z</time>
      </trkpt>
      <trkpt lat="45.68468" lon="5.85087">
        <ele>419.59400326601</ele>
        <time>2015-11-07T15:21:43Z</time>
      </trkpt>
      <trkpt lat="45.68461" lon="5.85082">
        <ele>419.59400326601</ele>
        <time>2015-11-07T15:21:48Z</time>
      </trkpt>
      <trkpt lat="45.68447" lon="5.85077">
        <ele>418.24622975877</ele>
        <time>2015-11-07T15:21:58Z</time>
      </trkpt>
      <trkpt lat="45.68441" lon="5.85074">
        <ele>418.24622975877</ele>
        <time>2015-11-07T15:22:03Z</time>
      </trkpt>
      <trkpt lat="45.68425" lon="5.85071">
        <ele>417.47698573716</ele>
        <time>2015-11-07T15:22:13Z</time>
      </trkpt>
      <trkpt lat="45.68418" lon="5.8507">
        <ele>417.47698573716</ele>
        <time>2015-11-07T15:22:18Z</time>
      </trkpt>
      <trkpt lat="45.68404" lon="5.85065">
        <ele>415.57064803423</ele>
        <time>2015-11-07T15:22:33Z</time>
      </trkpt>
      <trkpt lat="45.68396" lon="5.85064">
        <ele>415.57064803423</ele>
        <time>2015-11-07T15:22:38Z</time>
      </trkpt>
      <trkpt lat="45.68385" lon="5.85063">
        <ele>413.62127957919</ele>
        <time>2015-11-07T15:22:48Z</time>
      </trkpt>
      <trkpt lat="45.68376" lon="5.85062">
        <ele>411.82125884766</ele>
        <time>2015-11-07T15:22:53Z</time>
      </trkpt>
      <trkpt lat="45.68362" lon="5.8506">
        <ele>409.97371858307</ele>
        <time>2015-11-07T15:23:03Z</time>
      </trkpt>
      <trkpt lat="45.68355" lon="5.8506">
        <ele>409.97371858307</ele>
        <time>2015-11-07T15:23:08Z</time>
      </trkpt>
      <trkpt lat="45.68342" lon="5.85059">
        <ele>408.4584104554</ele>
        <time>2015-11-07T15:23:18Z</time>
      </trkpt>
      <trkpt lat="45.68335" lon="5.8506">
        <ele>408.4584104554</ele>
        <time>2015-11-07T15:23:23Z</time>
      </trkpt>
      <trkpt lat="45.68322" lon="5.85059">
        <ele>407.06421173139</ele>
        <time>2015-11-07T15:23:33Z</time>
      </trkpt>
      <trkpt lat="45.68314" lon="5.85057">
        <ele>407.06421173139</ele>
        <time>2015-11-07T15:23:38Z</time>
      </trkpt>
      <trkpt lat="45.68301" lon="5.85054">
        <ele>405.78249946334</ele>
        <time>2015-11-07T15:23:48Z</time>
      </trkpt>
      <trkpt lat="45.68295" lon="5.85055">
        <ele>405.78249946334</ele>
        <time>2015-11-07T15:23:53Z</time>
      </trkpt>
      <trkpt lat="45.68285" lon="5.8505">
        <ele>403.66823034109</ele>
        <time>2015-11-07T15:24:03Z</time>
      </trkpt>
      <trkpt lat="45.68277" lon="5.85045">
        <ele>403.66823034109</ele>
        <time>2015-11-07T15:24:08Z</time>
      </trkpt>
      <trkpt lat="45.68266" lon="5.85048">
        <ele>401.79360271568</ele>
        <time>2015-11-07T15:24:18Z</time>
      </trkpt>
      <trkpt lat="45.6826" lon="5.85048">
        <ele>401.79360271568</ele>
        <time>2015-11-07T15:24:23Z</time>
      </trkpt>
      <trkpt lat="45.68245" lon="5.85046">
        <ele>399.92641555816</ele>
        <time>2015-11-07T15:24:33Z</time>
      </trkpt>
      <trkpt lat="45.68239" lon="5.85046">
        <ele>399.92641555816</ele>
        <time>2015-11-07T15:24:38Z</time>
      </trkpt>
      <trkpt lat="45.68227" lon="5.85047">
        <ele>397.00122451701</ele>
        <time>2015-11-07T15:24:48Z</time>
      </trkpt>
      <trkpt lat="45.68222" lon="5.85045">
        <ele>397.00122451701</ele>
        <time>2015-11-07T15:24:53Z</time>
      </trkpt>
      <trkpt lat="45.68206" lon="5.8504">
        <ele>392.68228767686</ele>
        <time>2015-11-07T15:25:08Z</time>
      </trkpt>
      <trkpt lat="45.68199" lon="5.85039">
        <ele>392.68228767686</ele>
        <time>2015-11-07T15:25:13Z</time>
      </trkpt>
      <trkpt lat="45.68191" lon="5.85037">
        <ele>387.4550017313</ele>
        <time>2015-11-07T15:25:23Z</time>
      </trkpt>
      <trkpt lat="45.68187" lon="5.85038">
        <ele>387.4550017313</ele>
        <time>2015-11-07T15:25:28Z</time>
      </trkpt>
      <trkpt lat="45.68176" lon="5.85041">
        <ele>382.23274590286</ele>
        <time>2015-11-07T15:25:38Z</time>
      </trkpt>
      <trkpt lat="45.6817" lon="5.85042">
        <ele>382.23274590286</ele>
        <time>2015-11-07T15:25:43Z</time>
      </trkpt>
      <trkpt lat="45.68154" lon="5.85042">
        <ele>378.14992604202</ele>
        <time>2015-11-07T15:25:53Z</time>
      </trkpt>
      <trkpt lat="45.68148" lon="5.85041">
        <ele>378.14992604202</ele>
        <time>2015-11-07T15:25:58Z</time>
      </trkpt>
      <trkpt lat="45.68131" lon="5.85043">
        <ele>374.74114621411</ele>
        <time>2015-11-07T15:26:08Z</time>
      </trkpt>
      <trkpt lat="45.68123" lon="5.85042">
        <ele>374.74114621411</ele>
        <time>2015-11-07T15:26:13Z</time>
      </trkpt>
      <trkpt lat="45.68107" lon="5.85039">
        <ele>372.06316512202</ele>
        <time>2015-11-07T15:26:23Z</time>
      </trkpt>
      <trkpt lat="45.68098" lon="5.85039">
        <ele>372.06316512202</ele>
        <time>2015-11-07T15:26:28Z</time>
      </trkpt>
      <trkpt lat="45.68079" lon="5.8504">
        <ele>370.7716623314</ele>
        <time>2015-11-07T15:26:38Z</time>
      </trkpt>
      <trkpt lat="45.68071" lon="5.85041">
        <ele>370.7716623314</ele>
        <time>2015-11-07T15:26:43Z</time>
      </trkpt>
      <trkpt lat="45.68056" lon="5.85043">
        <ele>369.97138115305</ele>
        <time>2015-11-07T15:26:53Z</time>
      </trkpt>
      <trkpt lat="45.68049" lon="5.85045">
        <ele>369.97138115305</ele>
        <time>2015-11-07T15:26:58Z</time>
      </trkpt>
      <trkpt lat="45.68041" lon="5.85048">
        <ele>370.40214875188</ele>
        <time>2015-11-07T15:27:08Z</time>
      </trkpt>
      <trkpt lat="45.68035" lon="5.8505">
        <ele>370.40214875188</ele>
        <time>2015-11-07T15:27:13Z</time>
      </trkpt>
      <trkpt lat="45.68023" lon="5.85051">
        <ele>370.25276845661</ele>
        <time>2015-11-07T15:27:23Z</time>
      </trkpt>
      <trkpt lat="45.68018" lon="5.8505">
        <ele>370.25276845661</ele>
        <time>2015-11-07T15:27:28Z</time>
      </trkpt>
      <trkpt lat="45.68008" lon="5.85044">
        <ele>369.25892727391</ele>
        <time>2015-11-07T15:27:38Z</time>
      </trkpt>
      <trkpt lat="45.68002" lon="5.8504">
        <ele>369.25892727391</ele>
        <time>2015-11-07T15:27:43Z</time>
      </trkpt>
      <trkpt lat="45.67991" lon="5.85029">
        <ele>368.56149945982</ele>
        <time>2015-11-07T15:27:53Z</time>
      </trkpt>
      <trkpt lat="45.67985" lon="5.85025">
        <ele>368.56149945982</ele>
        <time>2015-11-07T15:27:58Z</time>
      </trkpt>
      <trkpt lat="45.67966" lon="5.85011">
        <ele>368.27994827772</ele>
        <time>2015-11-07T15:28:13Z</time>
      </trkpt>
      <trkpt lat="45.67961" lon="5.85006">
        <ele>368.27994827772</ele>
        <time>2015-11-07T15:28:18Z</time>
      </trkpt>
      <trkpt lat="45.6795" lon="5.85001">
        <ele>367.77438110841</ele>
        <time>2015-11-07T15:28:28Z</time>
      </trkpt>
      <trkpt lat="45.67943" lon="5.85001">
        <ele>367.77438110841</ele>
        <time>2015-11-07T15:28:33Z</time>
      </trkpt>
      <trkpt lat="45.67932" lon="5.84998">
        <ele>366.92808324829</ele>
        <time>2015-11-07T15:28:43Z</time>
      </trkpt>
      <trkpt lat="45.67927" lon="5.84997">
        <ele>366.92808324829</ele>
        <time>2015-11-07T15:28:48Z</time>
      </trkpt>
      <trkpt lat="45.67914" lon="5.84998">
        <ele>365.61944564789</ele>
        <time>2015-11-07T15:28:58Z</time>
      </trkpt>
      <trkpt lat="45.67907" lon="5.84997">
        <ele>365.61944564789</ele>
        <time>2015-11-07T15:29:03Z</time>
      </trkpt>
      <trkpt lat="45.67895" lon="5.84998">
        <ele>363.83796236124</ele>
        <time>2015-11-07T15:29:13Z</time>
      </trkpt>
      <trkpt lat="45.6789" lon="5.84999">
        <ele>363.83796236124</ele>
        <time>2015-11-07T15:29:18Z</time>
      </trkpt>
      <trkpt lat="45.67877" lon="5.84999">
        <ele>361.51757990956</ele>
        <time>2015-11-07T15:29:28Z</time>
      </trkpt>
      <trkpt lat="45.6787" lon="5.85">
        <ele>361.51757990956</ele>
        <time>2015-11-07T15:29:33Z</time>
      </trkpt>
      <trkpt lat="45.67855" lon="5.85004">
        <ele>359.95325419772</ele>
        <time>2015-11-07T15:29:43Z</time>
      </trkpt>
      <trkpt lat="45.67847" lon="5.85006">
        <ele>359.95325419772</ele>
        <time>2015-11-07T15:29:48Z</time>
      </trkpt>
      <trkpt lat="45.67833" lon="5.85006">
        <ele>358.12338134105</ele>
        <time>2015-11-07T15:29:58Z</time>
      </trkpt>
      <trkpt lat="45.67826" lon="5.85005">
        <ele>358.12338134105</ele>
        <time>2015-11-07T15:30:03Z</time>
      </trkpt>
      <trkpt lat="45.67812" lon="5.85005">
        <ele>356.23503684546</ele>
        <time>2015-11-07T15:30:13Z</time>
      </trkpt>
      <trkpt lat="45.67805" lon="5.85006">
        <ele>356.23503684546</ele>
        <time>2015-11-07T15:30:18Z</time>
      </trkpt>
      <trkpt lat="45.67793" lon="5.85006">
        <ele>355.22962600676</ele>
        <time>2015-11-07T15:30:28Z</time>
      </trkpt>
      <trkpt lat="45.6779" lon="5.85006">
        <ele>355.22962600676</ele>
        <time>2015-11-07T15:30:33Z</time>
      </trkpt>
      <trkpt lat="45.67769" lon="5.85008">
        <ele>354.17553397894</ele>
        <time>2015-11-07T15:30:48Z</time>
      </trkpt>
      <trkpt lat="45.67763" lon="5.85008">
        <ele>354.17553397894</ele>
        <time>2015-11-07T15:30:53Z</time>
      </trkpt>
      <trkpt lat="45.67751" lon="5.85009">
        <ele>352.59882219098</ele>
        <time>2015-11-07T15:31:03Z</time>
      </trkpt>
      <trkpt lat="45.67744" lon="5.85011">
        <ele>352.59882219098</ele>
        <time>2015-11-07T15:31:08Z</time>
      </trkpt>
      <trkpt lat="45.6773" lon="5.85017">
        <ele>351.0562071806</ele>
        <time>2015-11-07T15:31:18Z</time>
      </trkpt>
      <trkpt lat="45.67724" lon="5.8502">
        <ele>351.0562071806</ele>
        <time>2015-11-07T15:31:23Z</time>
      </trkpt>
      <trkpt lat="45.67711" lon="5.85029">
        <ele>350.43811396197</ele>
        <time>2015-11-07T15:31:33Z</time>
      </trkpt>
      <trkpt lat="45.67705" lon="5.85035">
        <ele>350.43811396197</ele>
        <time>2015-11-07T15:31:38Z</time>
      </trkpt>
      <trkpt lat="45.67691" lon="5.85043">
        <ele>350.52938017909</ele>
        <time>2015-11-07T15:31:48Z</time>
      </trkpt>
      <trkpt lat="45.67686" lon="5.8505">
        <ele>350.52938017909</ele>
        <time>2015-11-07T15:31:53Z</time>
      </trkpt>
      <trkpt lat="45.67677" lon="5.85063">
        <ele>350.8116389216</ele>
        <time>2015-11-07T15:32:03Z</time>
      </trkpt>
      <trkpt lat="45.67674" lon="5.85069">
        <ele>350.8116389216</ele>
        <time>2015-11-07T15:32:08Z</time>
      </trkpt>
      <trkpt lat="45.67667" lon="5.85084">
        <ele>350.64557817243</ele>
        <time>2015-11-07T15:32:18Z</time>
      </trkpt>
      <trkpt lat="45.67663" lon="5.85091">
        <ele>350.64557817243</ele>
        <time>2015-11-07T15:32:23Z</time>
      </trkpt>
      <trkpt lat="45.67656" lon="5.85096">
        <ele>350.031007487</ele>
        <time>2015-11-07T15:32:33Z</time>
      </trkpt>
      <trkpt lat="45.67655" lon="5.85095">
        <ele>350.031007487</ele>
        <time>2015-11-07T15:32:38Z</time>
      </trkpt>
      <trkpt lat="45.67656" lon="5.85096">
        <ele>350.031007487</ele>
        <time>2015-11-07T15:32:48Z</time>
      </trkpt>
      <trkpt lat="45.67656" lon="5.85096">
        <ele>350.031007487</ele>
        <time>2015-11-07T15:32:53Z</time>
      </trkpt>
      <trkpt lat="45.67657" lon="5.85097">
        <ele>350.031007487</ele>
        <time>2015-11-07T15:33:03Z</time>
      </trkpt>
      <trkpt lat="45.67656" lon="5.85099">
        <ele>350.031007487</ele>
        <time>2015-11-07T15:33:08Z</time>
      </trkpt>
      <trkpt lat="45.67656" lon="5.85099">
        <ele>350.031007487</ele>
        <time>2015-11-07T15:33:23Z</time>
      </trkpt>
      <trkpt lat="45.67655" lon="5.85102">
        <ele>350.031007487</ele>
        <time>2015-11-07T15:33:28Z</time>
      </trkpt>
      <trkpt lat="45.67644" lon="5.8512">
        <ele>349.73285245753</ele>
        <time>2015-11-07T15:33:38Z</time>
      </trkpt>
      <trkpt lat="45.67638" lon="5.85127">
        <ele>349.73285245753</ele>
        <time>2015-11-07T15:33:43Z</time>
      </trkpt>
      <trkpt lat="45.6763" lon="5.85141">
        <ele>349.66641166432</ele>
        <time>2015-11-07T15:33:53Z</time>
      </trkpt>
      <trkpt lat="45.67627" lon="5.8515">
        <ele>349.66641166432</ele>
        <time>2015-11-07T15:33:58Z</time>
      </trkpt>
      <trkpt lat="45.67623" lon="5.85165">
        <ele>349.13294697284</ele>
        <time>2015-11-07T15:34:08Z</time>
      </trkpt>
      <trkpt lat="45.67619" lon="5.85172">
        <ele>349.13294697284</ele>
        <time>2015-11-07T15:34:13Z</time>
      </trkpt>
      <trkpt lat="45.67615" lon="5.8518">
        <ele>348.63932326834</ele>
        <time>2015-11-07T15:34:23Z</time>
      </trkpt>
      <trkpt lat="45.67615" lon="5.85183">
        <ele>348.63932326834</ele>
        <time>2015-11-07T15:34:28Z</time>
      </trkpt>
      <trkpt lat="45.67615" lon="5.85183">
        <ele>348.63932326834</ele>
        <time>2015-11-07T15:34:38Z</time>
      </trkpt>
      <trkpt lat="45.67615" lon="5.85183">
        <ele>348.63932326834</ele>
        <time>2015-11-07T15:34:43Z</time>
      </trkpt>
      <trkpt lat="45.67614" lon="5.85185">
        <ele>348.63932326834</ele>
        <time>2015-11-07T15:34:53Z</time>
      </trkpt>
      <trkpt lat="45.67614" lon="5.85185">
        <ele>348.63932326834</ele>
        <time>2015-11-07T15:34:58Z</time>
      </trkpt>
      <trkpt lat="45.67616" lon="5.85186">
        <ele>348.63932326834</ele>
        <time>2015-11-07T15:35:13Z</time>
      </trkpt>
      <trkpt lat="45.67616" lon="5.85186">
        <ele>348.63932326834</ele>
        <time>2015-11-07T15:35:18Z</time>
      </trkpt>
      <trkpt lat="45.67615" lon="5.85185">
        <ele>348.63932326834</ele>
        <time>2015-11-07T15:35:28Z</time>
      </trkpt>
      <trkpt lat="45.67617" lon="5.85185">
        <ele>348.63932326834</ele>
        <time>2015-11-07T15:35:33Z</time>
      </trkpt>
      <trkpt lat="45.67617" lon="5.85185">
        <ele>348.63932326834</ele>
        <time>2015-11-07T15:35:43Z</time>
      </trkpt>
      <trkpt lat="45.67617" lon="5.85185">
        <ele>348.63932326834</ele>
        <time>2015-11-07T15:35:48Z</time>
      </trkpt>
      <trkpt lat="45.67616" lon="5.85186">
        <ele>348.65514000205</ele>
        <time>2015-11-07T15:35:58Z</time>
      </trkpt>
      <trkpt lat="45.67616" lon="5.85186">
        <ele>348.65514000205</ele>
        <time>2015-11-07T15:36:03Z</time>
      </trkpt>
      <trkpt lat="45.67615" lon="5.85187">
        <ele>348.65514000205</ele>
        <time>2015-11-07T15:36:13Z</time>
      </trkpt>
      <trkpt lat="45.67614" lon="5.85187">
        <ele>348.65514000205</ele>
        <time>2015-11-07T15:36:18Z</time>
      </trkpt>
      <trkpt lat="45.67606" lon="5.85194">
        <ele>348.02893252167</ele>
        <time>2015-11-07T15:36:28Z</time>
      </trkpt>
      <trkpt lat="45.67604" lon="5.852">
        <ele>348.02893252167</ele>
        <time>2015-11-07T15:36:33Z</time>
      </trkpt>
      <trkpt lat="45.67598" lon="5.85212">
        <ele>347.39622236997</ele>
        <time>2015-11-07T15:36:43Z</time>
      </trkpt>
      <trkpt lat="45.67594" lon="5.85219">
        <ele>347.39622236997</ele>
        <time>2015-11-07T15:36:48Z</time>
      </trkpt>
      <trkpt lat="45.67586" lon="5.85232">
        <ele>346.56775342766</ele>
        <time>2015-11-07T15:36:58Z</time>
      </trkpt>
      <trkpt lat="45.67583" lon="5.85239">
        <ele>346.56775342766</ele>
        <time>2015-11-07T15:37:03Z</time>
      </trkpt>
      <trkpt lat="45.67575" lon="5.85252">
        <ele>346.03172339007</ele>
        <time>2015-11-07T15:37:13Z</time>
      </trkpt>
      <trkpt lat="45.67571" lon="5.85257">
        <ele>346.03172339007</ele>
        <time>2015-11-07T15:37:18Z</time>
      </trkpt>
      <trkpt lat="45.67555" lon="5.85269">
        <ele>345.18772540075</ele>
        <time>2015-11-07T15:37:33Z</time>
      </trkpt>
      <trkpt lat="45.67549" lon="5.85274">
        <ele>345.18772540075</ele>
        <time>2015-11-07T15:37:38Z</time>
      </trkpt>
      <trkpt lat="45.67532" lon="5.85289">
        <ele>344.21537783605</ele>
        <time>2015-11-07T15:37:48Z</time>
      </trkpt>
      <trkpt lat="45.67526" lon="5.85292">
        <ele>344.21537783605</ele>
        <time>2015-11-07T15:37:53Z</time>
      </trkpt>
      <trkpt lat="45.67513" lon="5.85291">
        <ele>343.6706522603</ele>
        <time>2015-11-07T15:38:03Z</time>
      </trkpt>
      <trkpt lat="45.67508" lon="5.85288">
        <ele>343.6706522603</ele>
        <time>2015-11-07T15:38:08Z</time>
      </trkpt>
      <trkpt lat="45.67498" lon="5.85276">
        <ele>343.28936566221</ele>
        <time>2015-11-07T15:38:18Z</time>
      </trkpt>
      <trkpt lat="45.67495" lon="5.85268">
        <ele>343.28936566221</ele>
        <time>2015-11-07T15:38:23Z</time>
      </trkpt>
      <trkpt lat="45.67488" lon="5.85254">
        <ele>342.98489162455</ele>
        <time>2015-11-07T15:38:33Z</time>
      </trkpt>
      <trkpt lat="45.67483" lon="5.85253">
        <ele>342.98489162455</ele>
        <time>2015-11-07T15:38:38Z</time>
      </trkpt>
      <trkpt lat="45.67473" lon="5.85245">
        <ele>342.95064984238</ele>
        <time>2015-11-07T15:38:48Z</time>
      </trkpt>
      <trkpt lat="45.67467" lon="5.85241">
        <ele>342.95064984238</ele>
        <time>2015-11-07T15:38:53Z</time>
      </trkpt>
      <trkpt lat="45.67454" lon="5.85237">
        <ele>342.86079298576</ele>
        <time>2015-11-07T15:39:03Z</time>
      </trkpt>
      <trkpt lat="45.67449" lon="5.85237">
        <ele>342.86079298576</ele>
        <time>2015-11-07T15:39:08Z</time>
      </trkpt>
      <trkpt lat="45.67437" lon="5.85235">
        <ele>342.75952394676</ele>
        <time>2015-11-07T15:39:18Z</time>
      </trkpt>
      <trkpt lat="45.67431" lon="5.85235">
        <ele>342.75952394676</ele>
        <time>2015-11-07T15:39:23Z</time>
      </trkpt>
      <trkpt lat="45.67411" lon="5.85229">
        <ele>342.11147803481</ele>
        <time>2015-11-07T15:39:38Z</time>
      </trkpt>
      <trkpt lat="45.67407" lon="5.85226">
        <ele>342.11147803481</ele>
        <time>2015-11-07T15:39:43Z</time>
      </trkpt>
      <trkpt lat="45.67399" lon="5.85225">
        <ele>341.83453472304</ele>
        <time>2015-11-07T15:39:53Z</time>
      </trkpt>
      <trkpt lat="45.67397" lon="5.85225">
        <ele>341.83453472304</ele>
        <time>2015-11-07T15:39:58Z</time>
      </trkpt>
      <trkpt lat="45.67394" lon="5.85224">
        <ele>341.83453472304</ele>
        <time>2015-11-07T15:40:08Z</time>
      </trkpt>
      <trkpt lat="45.67387" lon="5.85223">
        <ele>341.00563053127</ele>
        <time>2015-11-07T15:40:13Z</time>
      </trkpt>
      <trkpt lat="45.67373" lon="5.85221">
        <ele>340.15461534495</ele>
        <time>2015-11-07T15:40:23Z</time>
      </trkpt>
      <trkpt lat="45.67367" lon="5.85218">
        <ele>340.15461534495</ele>
        <time>2015-11-07T15:40:28Z</time>
      </trkpt>
      <trkpt lat="45.6735" lon="5.85216">
        <ele>339.42669853709</ele>
        <time>2015-11-07T15:40:38Z</time>
      </trkpt>
      <trkpt lat="45.67341" lon="5.85216">
        <ele>339.42669853709</ele>
        <time>2015-11-07T15:40:43Z</time>
      </trkpt>
      <trkpt lat="45.67323" lon="5.85212">
        <ele>339.02821621703</ele>
        <time>2015-11-07T15:40:53Z</time>
      </trkpt>
      <trkpt lat="45.67316" lon="5.85209">
        <ele>339.02821621703</ele>
        <time>2015-11-07T15:40:58Z</time>
      </trkpt>
      <trkpt lat="45.67306" lon="5.85198">
        <ele>338.52982494086</ele>
        <time>2015-11-07T15:41:08Z</time>
      </trkpt>
      <trkpt lat="45.67301" lon="5.85195">
        <ele>338.52982494086</ele>
        <time>2015-11-07T15:41:13Z</time>
      </trkpt>
      <trkpt lat="45.6728" lon="5.85186">
        <ele>338.22581200922</ele>
        <time>2015-11-07T15:41:28Z</time>
      </trkpt>
      <trkpt lat="45.67271" lon="5.85184">
        <ele>338.51807833138</ele>
        <time>2015-11-07T15:41:33Z</time>
      </trkpt>
      <trkpt lat="45.67254" lon="5.85177">
        <ele>338.95597301762</ele>
        <time>2015-11-07T15:41:43Z</time>
      </trkpt>
      <trkpt lat="45.67247" lon="5.85174">
        <ele>338.95597301762</ele>
        <time>2015-11-07T15:41:48Z</time>
      </trkpt>
      <trkpt lat="45.67238" lon="5.85168">
        <ele>340.11598983338</ele>
        <time>2015-11-07T15:41:58Z</time>
      </trkpt>
      <trkpt lat="45.67231" lon="5.85168">
        <ele>340.11598983338</ele>
        <time>2015-11-07T15:42:03Z</time>
      </trkpt>
      <trkpt lat="45.67214" lon="5.85168">
        <ele>341.79536922014</ele>
        <time>2015-11-07T15:42:13Z</time>
      </trkpt>
      <trkpt lat="45.67208" lon="5.85164">
        <ele>341.79536922014</ele>
        <time>2015-11-07T15:42:18Z</time>
      </trkpt>
      <trkpt lat="45.67193" lon="5.85164">
        <ele>343.9345875869</ele>
        <time>2015-11-07T15:42:28Z</time>
      </trkpt>
      <trkpt lat="45.67186" lon="5.85164">
        <ele>343.9345875869</ele>
        <time>2015-11-07T15:42:33Z</time>
      </trkpt>
      <trkpt lat="45.67175" lon="5.85167">
        <ele>345.77116923308</ele>
        <time>2015-11-07T15:42:43Z</time>
      </trkpt>
      <trkpt lat="45.67169" lon="5.85165">
        <ele>345.77116923308</ele>
        <time>2015-11-07T15:42:48Z</time>
      </trkpt>
      <trkpt lat="45.67154" lon="5.85164">
        <ele>346.74373121237</ele>
        <time>2015-11-07T15:42:58Z</time>
      </trkpt>
      <trkpt lat="45.67146" lon="5.85166">
        <ele>346.74373121237</ele>
        <time>2015-11-07T15:43:03Z</time>
      </trkpt>
      <trkpt lat="45.67126" lon="5.85178">
        <ele>347.61727421927</ele>
        <time>2015-11-07T15:43:13Z</time>
      </trkpt>
      <trkpt lat="45.67113" lon="5.85179">
        <ele>348.53898526002</ele>
        <time>2015-11-07T15:43:18Z</time>
      </trkpt>
      <trkpt lat="45.67032" lon="5.85189">
        <ele>350.25051459225</ele>
        <time>2015-11-07T15:43:33Z</time>
      </trkpt>
      <trkpt lat="45.67023" lon="5.85188">
        <ele>352.41377498266</ele>
        <time>2015-11-07T15:43:38Z</time>
      </trkpt>
      <trkpt lat="45.67013" lon="5.85183">
        <ele>354.68558053663</ele>
        <time>2015-11-07T15:43:48Z</time>
      </trkpt>
      <trkpt lat="45.67013" lon="5.85174">
        <ele>354.68558053663</ele>
        <time>2015-11-07T15:43:53Z</time>
      </trkpt>
      <trkpt lat="45.67007" lon="5.85158">
        <ele>357.07927032618</ele>
        <time>2015-11-07T15:44:03Z</time>
      </trkpt>
      <trkpt lat="45.67005" lon="5.85151">
        <ele>357.07927032618</ele>
        <time>2015-11-07T15:44:08Z</time>
      </trkpt>
      <trkpt lat="45.66991" lon="5.85146">
        <ele>359.82320218297</ele>
        <time>2015-11-07T15:44:18Z</time>
      </trkpt>
      <trkpt lat="45.66985" lon="5.85143">
        <ele>359.82320218297</ele>
        <time>2015-11-07T15:44:23Z</time>
      </trkpt>
      <trkpt lat="45.66977" lon="5.8514">
        <ele>362.8255276883</ele>
        <time>2015-11-07T15:44:33Z</time>
      </trkpt>
      <trkpt lat="45.66976" lon="5.85139">
        <ele>362.8255276883</ele>
        <time>2015-11-07T15:44:38Z</time>
      </trkpt>
      <trkpt lat="45.66968" lon="5.85138">
        <ele>364.94860341896</ele>
        <time>2015-11-07T15:44:48Z</time>
      </trkpt>
      <trkpt lat="45.66959" lon="5.85134">
        <ele>364.94860341896</ele>
        <time>2015-11-07T15:44:53Z</time>
      </trkpt>
      <trkpt lat="45.6695" lon="5.85129">
        <ele>367.24504909814</ele>
        <time>2015-11-07T15:45:03Z</time>
      </trkpt>
      <trkpt lat="45.66948" lon="5.85128">
        <ele>367.24504909814</ele>
        <time>2015-11-07T15:45:08Z</time>
      </trkpt>
      <trkpt lat="45.66938" lon="5.85118">
        <ele>369.34964886061</ele>
        <time>2015-11-07T15:45:18Z</time>
      </trkpt>
      <trkpt lat="45.66932" lon="5.85113">
        <ele>369.34964886061</ele>
        <time>2015-11-07T15:45:23Z</time>
      </trkpt>
      <trkpt lat="45.66913" lon="5.85098">
        <ele>371.48680067948</ele>
        <time>2015-11-07T15:45:38Z</time>
      </trkpt>
      <trkpt lat="45.66908" lon="5.85095">
        <ele>371.48680067948</ele>
        <time>2015-11-07T15:45:43Z</time>
      </trkpt>
      <trkpt lat="45.66893" lon="5.85093">
        <ele>373.6339647407</ele>
        <time>2015-11-07T15:45:53Z</time>
      </trkpt>
      <trkpt lat="45.66885" lon="5.85091">
        <ele>373.6339647407</ele>
        <time>2015-11-07T15:45:58Z</time>
      </trkpt>
      <trkpt lat="45.6687" lon="5.85089">
        <ele>375.95779037782</ele>
        <time>2015-11-07T15:46:08Z</time>
      </trkpt>
      <trkpt lat="45.66864" lon="5.8509">
        <ele>375.95779037782</ele>
        <time>2015-11-07T15:46:13Z</time>
      </trkpt>
      <trkpt lat="45.66853" lon="5.85091">
        <ele>378.16566222716</ele>
        <time>2015-11-07T15:46:23Z</time>
      </trkpt>
      <trkpt lat="45.66848" lon="5.85089">
        <ele>378.16566222716</ele>
        <time>2015-11-07T15:46:28Z</time>
      </trkpt>
      <trkpt lat="45.66837" lon="5.8509">
        <ele>380.03023587118</ele>
        <time>2015-11-07T15:46:38Z</time>
      </trkpt>
      <trkpt lat="45.66832" lon="5.85091">
        <ele>380.03023587118</ele>
        <time>2015-11-07T15:46:43Z</time>
      </trkpt>
      <trkpt lat="45.66823" lon="5.85093">
        <ele>381.54380105312</ele>
        <time>2015-11-07T15:46:53Z</time>
      </trkpt>
      <trkpt lat="45.66819" lon="5.85093">
        <ele>381.54380105312</ele>
        <time>2015-11-07T15:46:58Z</time>
      </trkpt>
      <trkpt lat="45.66807" lon="5.85098">
        <ele>383.59389991037</ele>
        <time>2015-11-07T15:47:08Z</time>
      </trkpt>
      <trkpt lat="45.66802" lon="5.85099">
        <ele>383.59389991037</ele>
        <time>2015-11-07T15:47:13Z</time>
      </trkpt>
      <trkpt lat="45.6679" lon="5.85103">
        <ele>385.18577764365</ele>
        <time>2015-11-07T15:47:23Z</time>
      </trkpt>
      <trkpt lat="45.66785" lon="5.85105">
        <ele>385.18577764365</ele>
        <time>2015-11-07T15:47:28Z</time>
      </trkpt>
      <trkpt lat="45.66775" lon="5.85112">
        <ele>386.95564132878</ele>
        <time>2015-11-07T15:47:38Z</time>
      </trkpt>
      <trkpt lat="45.66769" lon="5.85118">
        <ele>386.95564132878</ele>
        <time>2015-11-07T15:47:43Z</time>
      </trkpt>
      <trkpt lat="45.66756" lon="5.85131">
        <ele>388.84415923163</ele>
        <time>2015-11-07T15:47:53Z</time>
      </trkpt>
      <trkpt lat="45.66745" lon="5.8514">
        <ele>390.2774149666</ele>
        <time>2015-11-07T15:47:58Z</time>
      </trkpt>
      <trkpt lat="45.66719" lon="5.85157">
        <ele>391.8635903258</ele>
        <time>2015-11-07T15:48:13Z</time>
      </trkpt>
      <trkpt lat="45.66713" lon="5.85162">
        <ele>391.8635903258</ele>
        <time>2015-11-07T15:48:18Z</time>
      </trkpt>
      <trkpt lat="45.66705" lon="5.85169">
        <ele>392.96981420543</ele>
        <time>2015-11-07T15:48:28Z</time>
      </trkpt>
      <trkpt lat="45.66699" lon="5.85171">
        <ele>392.96981420543</ele>
        <time>2015-11-07T15:48:33Z</time>
      </trkpt>
      <trkpt lat="45.66686" lon="5.85174">
        <ele>393.54442926525</ele>
        <time>2015-11-07T15:48:43Z</time>
      </trkpt>
      <trkpt lat="45.6668" lon="5.85176">
        <ele>393.54442926525</ele>
        <time>2015-11-07T15:48:48Z</time>
      </trkpt>
      <trkpt lat="45.6667" lon="5.85175">
        <ele>393.46916167453</ele>
        <time>2015-11-07T15:48:58Z</time>
      </trkpt>
      <trkpt lat="45.66665" lon="5.85175">
        <ele>393.46916167453</ele>
        <time>2015-11-07T15:49:03Z</time>
      </trkpt>
      <trkpt lat="45.66655" lon="5.85177">
        <ele>393.14077587844</ele>
        <time>2015-11-07T15:49:13Z</time>
      </trkpt>
      <trkpt lat="45.6665" lon="5.85179">
        <ele>393.14077587844</ele>
        <time>2015-11-07T15:49:18Z</time>
      </trkpt>
      <trkpt lat="45.66632" lon="5.85184">
        <ele>392.38009694139</ele>
        <time>2015-11-07T15:49:33Z</time>
      </trkpt>
      <trkpt lat="45.66627" lon="5.85185">
        <ele>392.38009694139</ele>
        <time>2015-11-07T15:49:38Z</time>
      </trkpt>
      <trkpt lat="45.66613" lon="5.85186">
        <ele>391.23858913014</ele>
        <time>2015-11-07T15:49:48Z</time>
      </trkpt>
      <trkpt lat="45.66607" lon="5.85183">
        <ele>391.23858913014</ele>
        <time>2015-11-07T15:49:53Z</time>
      </trkpt>
      <trkpt lat="45.66597" lon="5.85182">
        <ele>390.500046964</ele>
        <time>2015-11-07T15:50:03Z</time>
      </trkpt>
      <trkpt lat="45.66592" lon="5.85183">
        <ele>390.500046964</ele>
        <time>2015-11-07T15:50:08Z</time>
      </trkpt>
      <trkpt lat="45.6658" lon="5.85187">
        <ele>389.39085402087</ele>
        <time>2015-11-07T15:50:18Z</time>
      </trkpt>
      <trkpt lat="45.66576" lon="5.85189">
        <ele>389.39085402087</ele>
        <time>2015-11-07T15:50:23Z</time>
      </trkpt>
      <trkpt lat="45.66566" lon="5.85188">
        <ele>387.94467103862</ele>
        <time>2015-11-07T15:50:33Z</time>
      </trkpt>
      <trkpt lat="45.66562" lon="5.85185">
        <ele>387.94467103862</ele>
        <time>2015-11-07T15:50:38Z</time>
      </trkpt>
      <trkpt lat="45.66553" lon="5.85184">
        <ele>386.2512832616</ele>
        <time>2015-11-07T15:50:48Z</time>
      </trkpt>
      <trkpt lat="45.66547" lon="5.85179">
        <ele>386.2512832616</ele>
        <time>2015-11-07T15:50:53Z</time>
      </trkpt>
      <trkpt lat="45.66538" lon="5.85175">
        <ele>384.38014775922</ele>
        <time>2015-11-07T15:51:03Z</time>
      </trkpt>
      <trkpt lat="45.66531" lon="5.85173">
        <ele>384.38014775922</ele>
        <time>2015-11-07T15:51:08Z</time>
      </trkpt>
      <trkpt lat="45.66506" lon="5.85158">
        <ele>382.74194767198</ele>
        <time>2015-11-07T15:51:23Z</time>
      </trkpt>
      <trkpt lat="45.665" lon="5.85156">
        <ele>382.74194767198</ele>
        <time>2015-11-07T15:51:28Z</time>
      </trkpt>
      <trkpt lat="45.6649" lon="5.8515">
        <ele>380.92387400604</ele>
        <time>2015-11-07T15:51:38Z</time>
      </trkpt>
      <trkpt lat="45.66485" lon="5.85149">
        <ele>380.92387400604</ele>
        <time>2015-11-07T15:51:43Z</time>
      </trkpt>
      <trkpt lat="45.66478" lon="5.85146">
        <ele>379.30765762079</ele>
        <time>2015-11-07T15:51:53Z</time>
      </trkpt>
      <trkpt lat="45.66471" lon="5.85146">
        <ele>379.30765762079</ele>
        <time>2015-11-07T15:51:58Z</time>
      </trkpt>
      <trkpt lat="45.66456" lon="5.85146">
        <ele>378.10221426593</ele>
        <time>2015-11-07T15:52:08Z</time>
      </trkpt>
      <trkpt lat="45.66453" lon="5.85145">
        <ele>378.10221426593</ele>
        <time>2015-11-07T15:52:13Z</time>
      </trkpt>
      <trkpt lat="45.66444" lon="5.85145">
        <ele>377.02428316536</ele>
        <time>2015-11-07T15:52:23Z</time>
      </trkpt>
      <trkpt lat="45.6644" lon="5.85146">
        <ele>377.02428316536</ele>
        <time>2015-11-07T15:52:28Z</time>
      </trkpt>
      <trkpt lat="45.66426" lon="5.85147">
        <ele>376.04150958659</ele>
        <time>2015-11-07T15:52:38Z</time>
      </trkpt>
      <trkpt lat="45.6642" lon="5.85145">
        <ele>376.04150958659</ele>
        <time>2015-11-07T15:52:43Z</time>
      </trkpt>
      <trkpt lat="45.6641" lon="5.85143">
        <ele>374.05709293075</ele>
        <time>2015-11-07T15:52:53Z</time>
      </trkpt>
      <trkpt lat="45.66405" lon="5.8514">
        <ele>374.05709293075</ele>
        <time>2015-11-07T15:52:58Z</time>
      </trkpt>
      <trkpt lat="45.66389" lon="5.85134">
        <ele>372.13267080588</ele>
        <time>2015-11-07T15:53:13Z</time>
      </trkpt>
      <trkpt lat="45.66387" lon="5.85134">
        <ele>372.13267080588</ele>
        <time>2015-11-07T15:53:18Z</time>
      </trkpt>
      <trkpt lat="45.66375" lon="5.85134">
        <ele>370.25720524363</ele>
        <time>2015-11-07T15:53:28Z</time>
      </trkpt>
      <trkpt lat="45.66366" lon="5.85134">
        <ele>368.16076777497</ele>
        <time>2015-11-07T15:53:33Z</time>
      </trkpt>
      <trkpt lat="45.66352" lon="5.85129">
        <ele>366.64571616841</ele>
        <time>2015-11-07T15:53:43Z</time>
      </trkpt>
      <trkpt lat="45.66343" lon="5.85124">
        <ele>365.09900927462</ele>
        <time>2015-11-07T15:53:48Z</time>
      </trkpt>
      <trkpt lat="45.6633" lon="5.85117">
        <ele>363.91808523385</ele>
        <time>2015-11-07T15:53:58Z</time>
      </trkpt>
      <trkpt lat="45.66324" lon="5.85112">
        <ele>363.91808523385</ele>
        <time>2015-11-07T15:54:03Z</time>
      </trkpt>
      <trkpt lat="45.66316" lon="5.85105">
        <ele>362.67735757592</ele>
        <time>2015-11-07T15:54:13Z</time>
      </trkpt>
      <trkpt lat="45.66309" lon="5.85104">
        <ele>362.67735757592</ele>
        <time>2015-11-07T15:54:18Z</time>
      </trkpt>
      <trkpt lat="45.66287" lon="5.851">
        <ele>362.78387008392</ele>
        <time>2015-11-07T15:54:33Z</time>
      </trkpt>
      <trkpt lat="45.66284" lon="5.85098">
        <ele>362.78387008392</ele>
        <time>2015-11-07T15:54:38Z</time>
      </trkpt>
      <trkpt lat="45.66269" lon="5.85092">
        <ele>361.79044778933</ele>
        <time>2015-11-07T15:54:48Z</time>
      </trkpt>
      <trkpt lat="45.6626" lon="5.85086">
        <ele>360.80478641223</ele>
        <time>2015-11-07T15:54:53Z</time>
      </trkpt>
      <trkpt lat="45.66234" lon="5.85056">
        <ele>360.70890003939</ele>
        <time>2015-11-07T15:55:03Z</time>
      </trkpt>
      <trkpt lat="45.66225" lon="5.8505">
        <ele>360.89064352893</ele>
        <time>2015-11-07T15:55:08Z</time>
      </trkpt>
      <trkpt lat="45.66208" lon="5.85047">
        <ele>360.42161962941</ele>
        <time>2015-11-07T15:55:18Z</time>
      </trkpt>
      <trkpt lat="45.66198" lon="5.85044">
        <ele>360.12940258321</ele>
        <time>2015-11-07T15:55:23Z</time>
      </trkpt>
      <trkpt lat="45.66181" lon="5.85036">
        <ele>359.72812091372</ele>
        <time>2015-11-07T15:55:33Z</time>
      </trkpt>
      <trkpt lat="45.66175" lon="5.85031">
        <ele>359.72812091372</ele>
        <time>2015-11-07T15:55:38Z</time>
      </trkpt>
      <trkpt lat="45.6616" lon="5.85025">
        <ele>359.99067372694</ele>
        <time>2015-11-07T15:55:48Z</time>
      </trkpt>
      <trkpt lat="45.66154" lon="5.85022">
        <ele>359.99067372694</ele>
        <time>2015-11-07T15:55:53Z</time>
      </trkpt>
      <trkpt lat="45.66141" lon="5.85017">
        <ele>360.39183884373</ele>
        <time>2015-11-07T15:56:03Z</time>
      </trkpt>
      <trkpt lat="45.66137" lon="5.85013">
        <ele>360.39183884373</ele>
        <time>2015-11-07T15:56:08Z</time>
      </trkpt>
      <trkpt lat="45.66119" lon="5.85007">
        <ele>360.34359353813</ele>
        <time>2015-11-07T15:56:23Z</time>
      </trkpt>
      <trkpt lat="45.66112" lon="5.85008">
        <ele>360.34359353813</ele>
        <time>2015-11-07T15:56:28Z</time>
      </trkpt>
      <trkpt lat="45.66102" lon="5.85012">
        <ele>360.91631171542</ele>
        <time>2015-11-07T15:56:38Z</time>
      </trkpt>
      <trkpt lat="45.66095" lon="5.85013">
        <ele>360.91631171542</ele>
        <time>2015-11-07T15:56:43Z</time>
      </trkpt>
      <trkpt lat="45.66082" lon="5.85017">
        <ele>362.17759298341</ele>
        <time>2015-11-07T15:56:53Z</time>
      </trkpt>
      <trkpt lat="45.66075" lon="5.85018">
        <ele>362.17759298341</ele>
        <time>2015-11-07T15:56:58Z</time>
      </trkpt>
      <trkpt lat="45.66063" lon="5.85021">
        <ele>363.56838382711</ele>
        <time>2015-11-07T15:57:08Z</time>
      </trkpt>
      <trkpt lat="45.66057" lon="5.85022">
        <ele>363.56838382711</ele>
        <time>2015-11-07T15:57:13Z</time>
      </trkpt>
      <trkpt lat="45.66048" lon="5.85026">
        <ele>364.41174979483</ele>
        <time>2015-11-07T15:57:23Z</time>
      </trkpt>
      <trkpt lat="45.66043" lon="5.85028">
        <ele>364.41174979483</ele>
        <time>2015-11-07T15:57:28Z</time>
      </trkpt>
      <trkpt lat="45.66031" lon="5.85028">
        <ele>365.03310496039</ele>
        <time>2015-11-07T15:57:38Z</time>
      </trkpt>
      <trkpt lat="45.66024" lon="5.8503">
        <ele>365.03310496039</ele>
        <time>2015-11-07T15:57:43Z</time>
      </trkpt>
      <trkpt lat="45.66008" lon="5.85028">
        <ele>366.02277016654</ele>
        <time>2015-11-07T15:57:53Z</time>
      </trkpt>
      <trkpt lat="45.66002" lon="5.85029">
        <ele>366.02277016654</ele>
        <time>2015-11-07T15:57:58Z</time>
      </trkpt>
      <trkpt lat="45.65991" lon="5.85035">
        <ele>366.0387893473</ele>
        <time>2015-11-07T15:58:08Z</time>
      </trkpt>
      <trkpt lat="45.65985" lon="5.85036">
        <ele>366.0387893473</ele>
        <time>2015-11-07T15:58:13Z</time>
      </trkpt>
      <trkpt lat="45.65974" lon="5.8504">
        <ele>365.00780130881</ele>
        <time>2015-11-07T15:58:23Z</time>
      </trkpt>
      <trkpt lat="45.65967" lon="5.85041">
        <ele>365.00780130881</ele>
        <time>2015-11-07T15:58:28Z</time>
      </trkpt>
      <trkpt lat="45.65952" lon="5.85043">
        <ele>364.01764736739</ele>
        <time>2015-11-07T15:58:38Z</time>
      </trkpt>
      <trkpt lat="45.65946" lon="5.85044">
        <ele>364.01764736739</ele>
        <time>2015-11-07T15:58:43Z</time>
      </trkpt>
      <trkpt lat="45.65927" lon="5.8504">
        <ele>362.57737157863</ele>
        <time>2015-11-07T15:58:58Z</time>
      </trkpt>
      <trkpt lat="45.6592" lon="5.8504">
        <ele>362.57737157863</ele>
        <time>2015-11-07T15:59:03Z</time>
      </trkpt>
      <trkpt lat="45.65916" lon="5.85043">
        <ele>361.04034890684</ele>
        <time>2015-11-07T15:59:13Z</time>
      </trkpt>
      <trkpt lat="45.65916" lon="5.85043">
        <ele>361.04034890684</ele>
        <time>2015-11-07T15:59:18Z</time>
      </trkpt>
      <trkpt lat="45.65915" lon="5.85044">
        <ele>361.04034890684</ele>
        <time>2015-11-07T15:59:28Z</time>
      </trkpt>
      <trkpt lat="45.65915" lon="5.85045">
        <ele>361.04034890684</ele>
        <time>2015-11-07T15:59:33Z</time>
      </trkpt>
      <trkpt lat="45.65915" lon="5.85045">
        <ele>361.04034890684</ele>
        <time>2015-11-07T15:59:43Z</time>
      </trkpt>
      <trkpt lat="45.65915" lon="5.85045">
        <ele>361.04034890684</ele>
        <time>2015-11-07T15:59:48Z</time>
      </trkpt>
      <trkpt lat="45.65915" lon="5.85045">
        <ele>361.04034890684</ele>
        <time>2015-11-07T15:59:58Z</time>
      </trkpt>
      <trkpt lat="45.65915" lon="5.85045">
        <ele>361.04034890684</ele>
        <time>2015-11-07T16:00:03Z</time>
      </trkpt>
      <trkpt lat="45.65913" lon="5.85043">
        <ele>361.04034890684</ele>
        <time>2015-11-07T16:00:13Z</time>
      </trkpt>
      <trkpt lat="45.65906" lon="5.85042">
        <ele>359.53248451343</ele>
        <time>2015-11-07T16:00:18Z</time>
      </trkpt>
      <trkpt lat="45.65892" lon="5.85045">
        <ele>358.27119668596</ele>
        <time>2015-11-07T16:00:28Z</time>
      </trkpt>
      <trkpt lat="45.65886" lon="5.85046">
        <ele>358.27119668596</ele>
        <time>2015-11-07T16:00:33Z</time>
      </trkpt>
      <trkpt lat="45.65865" lon="5.85047">
        <ele>356.66458769696</ele>
        <time>2015-11-07T16:00:48Z</time>
      </trkpt>
      <trkpt lat="45.6586" lon="5.85049">
        <ele>356.66458769696</ele>
        <time>2015-11-07T16:00:53Z</time>
      </trkpt>
      <trkpt lat="45.65847" lon="5.85053">
        <ele>354.91453854379</ele>
        <time>2015-11-07T16:01:03Z</time>
      </trkpt>
      <trkpt lat="45.65841" lon="5.85055">
        <ele>354.91453854379</ele>
        <time>2015-11-07T16:01:08Z</time>
      </trkpt>
      <trkpt lat="45.65829" lon="5.8506">
        <ele>353.04992479192</ele>
        <time>2015-11-07T16:01:18Z</time>
      </trkpt>
      <trkpt lat="45.65822" lon="5.85063">
        <ele>353.04992479192</ele>
        <time>2015-11-07T16:01:23Z</time>
      </trkpt>
      <trkpt lat="45.65807" lon="5.85062">
        <ele>351.25628208007</ele>
        <time>2015-11-07T16:01:33Z</time>
      </trkpt>
      <trkpt lat="45.658" lon="5.85059">
        <ele>351.25628208007</ele>
        <time>2015-11-07T16:01:38Z</time>
      </trkpt>
      <trkpt lat="45.65786" lon="5.85056">
        <ele>349.57554823245</ele>
        <time>2015-11-07T16:01:48Z</time>
      </trkpt>
      <trkpt lat="45.6578" lon="5.85052">
        <ele>349.57554823245</ele>
        <time>2015-11-07T16:01:53Z</time>
      </trkpt>
      <trkpt lat="45.65767" lon="5.85046">
        <ele>348.0605993724</ele>
        <time>2015-11-07T16:02:03Z</time>
      </trkpt>
      <trkpt lat="45.65759" lon="5.85042">
        <ele>348.0605993724</ele>
        <time>2015-11-07T16:02:08Z</time>
      </trkpt>
      <trkpt lat="45.65745" lon="5.85039">
        <ele>346.39960389273</ele>
        <time>2015-11-07T16:02:18Z</time>
      </trkpt>
      <trkpt lat="45.65739" lon="5.85039">
        <ele>346.39960389273</ele>
        <time>2015-11-07T16:02:23Z</time>
      </trkpt>
      <trkpt lat="45.65726" lon="5.85041">
        <ele>344.30396157113</ele>
        <time>2015-11-07T16:02:33Z</time>
      </trkpt>
      <trkpt lat="45.65721" lon="5.8504">
        <ele>344.30396157113</ele>
        <time>2015-11-07T16:02:38Z</time>
      </trkpt>
      <trkpt lat="45.65711" lon="5.85039">
        <ele>343.04939298722</ele>
        <time>2015-11-07T16:02:48Z</time>
      </trkpt>
      <trkpt lat="45.65706" lon="5.85038">
        <ele>343.04939298722</ele>
        <time>2015-11-07T16:02:53Z</time>
      </trkpt>
      <trkpt lat="45.65695" lon="5.85034">
        <ele>341.97083211981</ele>
        <time>2015-11-07T16:03:03Z</time>
      </trkpt>
      <trkpt lat="45.65692" lon="5.85033">
        <ele>341.97083211981</ele>
        <time>2015-11-07T16:03:08Z</time>
      </trkpt>
      <trkpt lat="45.65665" lon="5.85024">
        <ele>340.42266018503</ele>
        <time>2015-11-07T16:03:23Z</time>
      </trkpt>
      <trkpt lat="45.65661" lon="5.85023">
        <ele>340.42266018503</ele>
        <time>2015-11-07T16:03:28Z</time>
      </trkpt>
      <trkpt lat="45.65648" lon="5.85021">
        <ele>338.94638838927</ele>
        <time>2015-11-07T16:03:38Z</time>
      </trkpt>
      <trkpt lat="45.65636" lon="5.85019">
        <ele>338.04345639985</ele>
        <time>2015-11-07T16:03:43Z</time>
      </trkpt>
      <trkpt lat="45.65623" lon="5.85026">
        <ele>336.98064835495</ele>
        <time>2015-11-07T16:03:53Z</time>
      </trkpt>
      <trkpt lat="45.65616" lon="5.8503">
        <ele>336.98064835495</ele>
        <time>2015-11-07T16:03:58Z</time>
      </trkpt>
      <trkpt lat="45.65606" lon="5.85042">
        <ele>336.00128346557</ele>
        <time>2015-11-07T16:04:08Z</time>
      </trkpt>
      <trkpt lat="45.65599" lon="5.85045">
        <ele>336.00128346557</ele>
        <time>2015-11-07T16:04:13Z</time>
      </trkpt>
      <trkpt lat="45.65584" lon="5.85047">
        <ele>335.46019068018</ele>
        <time>2015-11-07T16:04:23Z</time>
      </trkpt>
      <trkpt lat="45.6558" lon="5.85048">
        <ele>335.46019068018</ele>
        <time>2015-11-07T16:04:28Z</time>
      </trkpt>
      <trkpt lat="45.6556" lon="5.85046">
        <ele>334.61840413146</ele>
        <time>2015-11-07T16:04:43Z</time>
      </trkpt>
      <trkpt lat="45.65554" lon="5.85047">
        <ele>334.61840413146</ele>
        <time>2015-11-07T16:04:48Z</time>
      </trkpt>
      <trkpt lat="45.65555" lon="5.85045">
        <ele>334.61840413146</ele>
        <time>2015-11-07T16:04:58Z</time>
      </trkpt>
      <trkpt lat="45.65555" lon="5.85045">
        <ele>334.61840413146</ele>
        <time>2015-11-07T16:05:03Z</time>
      </trkpt>
      <trkpt lat="45.65551" lon="5.85047">
        <ele>333.46933552884</ele>
        <time>2015-11-07T16:05:13Z</time>
      </trkpt>
      <trkpt lat="45.65545" lon="5.8505">
        <ele>333.46933552884</ele>
        <time>2015-11-07T16:05:18Z</time>
      </trkpt>
      <trkpt lat="45.65533" lon="5.85054">
        <ele>332.35354153959</ele>
        <time>2015-11-07T16:05:28Z</time>
      </trkpt>
      <trkpt lat="45.65528" lon="5.85053">
        <ele>332.35354153959</ele>
        <time>2015-11-07T16:05:33Z</time>
      </trkpt>
      <trkpt lat="45.65516" lon="5.85055">
        <ele>331.16848193009</ele>
        <time>2015-11-07T16:05:43Z</time>
      </trkpt>
      <trkpt lat="45.6551" lon="5.85056">
        <ele>331.16848193009</ele>
        <time>2015-11-07T16:05:48Z</time>
      </trkpt>
      <trkpt lat="45.65504" lon="5.85061">
        <ele>330.17956011213</ele>
        <time>2015-11-07T16:05:58Z</time>
      </trkpt>
      <trkpt lat="45.65504" lon="5.85061">
        <ele>330.17956011213</ele>
        <time>2015-11-07T16:06:03Z</time>
      </trkpt>
      <trkpt lat="45.65504" lon="5.85061">
        <ele>330.17956011213</ele>
        <time>2015-11-07T16:06:18Z</time>
      </trkpt>
      <trkpt lat="45.65504" lon="5.85061">
        <ele>330.17956011213</ele>
        <time>2015-11-07T16:06:23Z</time>
      </trkpt>
      <trkpt lat="45.65497" lon="5.8507">
        <ele>328.50800616519</ele>
        <time>2015-11-07T16:06:33Z</time>
      </trkpt>
      <trkpt lat="45.65493" lon="5.85077">
        <ele>328.50800616519</ele>
        <time>2015-11-07T16:06:38Z</time>
      </trkpt>
      <trkpt lat="45.65485" lon="5.8509">
        <ele>326.76816083146</ele>
        <time>2015-11-07T16:06:48Z</time>
      </trkpt>
      <trkpt lat="45.65482" lon="5.85097">
        <ele>326.76816083146</ele>
        <time>2015-11-07T16:06:53Z</time>
      </trkpt>
      <trkpt lat="45.65472" lon="5.85109">
        <ele>325.54378029519</ele>
        <time>2015-11-07T16:07:03Z</time>
      </trkpt>
      <trkpt lat="45.65466" lon="5.85112">
        <ele>325.54378029519</ele>
        <time>2015-11-07T16:07:08Z</time>
      </trkpt>
      <trkpt lat="45.65453" lon="5.85116">
        <ele>324.76896829651</ele>
        <time>2015-11-07T16:07:18Z</time>
      </trkpt>
      <trkpt lat="45.65446" lon="5.85119">
        <ele>324.76896829651</ele>
        <time>2015-11-07T16:07:23Z</time>
      </trkpt>
      <trkpt lat="45.65435" lon="5.85121">
        <ele>324.17959737532</ele>
        <time>2015-11-07T16:07:33Z</time>
      </trkpt>
      <trkpt lat="45.65428" lon="5.85123">
        <ele>324.17959737532</ele>
        <time>2015-11-07T16:07:38Z</time>
      </trkpt>
      <trkpt lat="45.65415" lon="5.85126">
        <ele>323.38626003894</ele>
        <time>2015-11-07T16:07:48Z</time>
      </trkpt>
      <trkpt lat="45.65408" lon="5.85125">
        <ele>323.38626003894</ele>
        <time>2015-11-07T16:07:53Z</time>
      </trkpt>
      <trkpt lat="45.65386" lon="5.85122">
        <ele>322.41778054208</ele>
        <time>2015-11-07T16:08:08Z</time>
      </trkpt>
      <trkpt lat="45.65381" lon="5.85122">
        <ele>322.41778054208</ele>
        <time>2015-11-07T16:08:13Z</time>
      </trkpt>
      <trkpt lat="45.6537" lon="5.85127">
        <ele>321.11397086194</ele>
        <time>2015-11-07T16:08:23Z</time>
      </trkpt>
      <trkpt lat="45.65365" lon="5.85134">
        <ele>321.11397086194</ele>
        <time>2015-11-07T16:08:28Z</time>
      </trkpt>
      <trkpt lat="45.65355" lon="5.85151">
        <ele>320.20639149826</ele>
        <time>2015-11-07T16:08:38Z</time>
      </trkpt>
      <trkpt lat="45.65349" lon="5.85157">
        <ele>320.20639149826</ele>
        <time>2015-11-07T16:08:43Z</time>
      </trkpt>
      <trkpt lat="45.65337" lon="5.85167">
        <ele>319.24764968661</ele>
        <time>2015-11-07T16:08:53Z</time>
      </trkpt>
      <trkpt lat="45.65333" lon="5.85174">
        <ele>319.24764968661</ele>
        <time>2015-11-07T16:08:58Z</time>
      </trkpt>
      <trkpt lat="45.65326" lon="5.85192">
        <ele>318.5150634818</ele>
        <time>2015-11-07T16:09:08Z</time>
      </trkpt>
      <trkpt lat="45.65323" lon="5.85201">
        <ele>318.5150634818</ele>
        <time>2015-11-07T16:09:13Z</time>
      </trkpt>
      <trkpt lat="45.65316" lon="5.8522">
        <ele>318.04875057628</ele>
        <time>2015-11-07T16:09:23Z</time>
      </trkpt>
      <trkpt lat="45.65311" lon="5.85229">
        <ele>318.04875057628</ele>
        <time>2015-11-07T16:09:28Z</time>
      </trkpt>
      <trkpt lat="45.65303" lon="5.85244">
        <ele>317.7410012139</ele>
        <time>2015-11-07T16:09:38Z</time>
      </trkpt>
      <trkpt lat="45.65299" lon="5.85252">
        <ele>317.7410012139</ele>
        <time>2015-11-07T16:09:43Z</time>
      </trkpt>
      <trkpt lat="45.65289" lon="5.85265">
        <ele>317.20333417912</ele>
        <time>2015-11-07T16:09:53Z</time>
      </trkpt>
      <trkpt lat="45.65283" lon="5.8527">
        <ele>317.20333417912</ele>
        <time>2015-11-07T16:09:58Z</time>
      </trkpt>
      <trkpt lat="45.65271" lon="5.85281">
        <ele>316.40789562913</ele>
        <time>2015-11-07T16:10:08Z</time>
      </trkpt>
      <trkpt lat="45.65265" lon="5.85285">
        <ele>316.40789562913</ele>
        <time>2015-11-07T16:10:13Z</time>
      </trkpt>
      <trkpt lat="45.6525" lon="5.85292">
        <ele>315.01254962706</ele>
        <time>2015-11-07T16:10:28Z</time>
      </trkpt>
      <trkpt lat="45.65248" lon="5.85291">
        <ele>315.01254962706</ele>
        <time>2015-11-07T16:10:33Z</time>
      </trkpt>
      <trkpt lat="45.65232" lon="5.85285">
        <ele>313.37929379487</ele>
        <time>2015-11-07T16:10:43Z</time>
      </trkpt>
      <trkpt lat="45.65225" lon="5.85283">
        <ele>313.37929379487</ele>
        <time>2015-11-07T16:10:48Z</time>
      </trkpt>
      <trkpt lat="45.65211" lon="5.85277">
        <ele>311.65685074127</ele>
        <time>2015-11-07T16:10:58Z</time>
      </trkpt>
      <trkpt lat="45.65205" lon="5.85276">
        <ele>311.65685074127</ele>
        <time>2015-11-07T16:11:03Z</time>
      </trkpt>
      <trkpt lat="45.65194" lon="5.85279">
        <ele>309.21946909857</ele>
        <time>2015-11-07T16:11:13Z</time>
      </trkpt>
      <trkpt lat="45.65189" lon="5.85286">
        <ele>309.21946909857</ele>
        <time>2015-11-07T16:11:18Z</time>
      </trkpt>
      <trkpt lat="45.65183" lon="5.85302">
        <ele>307.00252192787</ele>
        <time>2015-11-07T16:11:28Z</time>
      </trkpt>
      <trkpt lat="45.65182" lon="5.85311">
        <ele>307.00252192787</ele>
        <time>2015-11-07T16:11:33Z</time>
      </trkpt>
      <trkpt lat="45.65185" lon="5.85328">
        <ele>305.22352967418</ele>
        <time>2015-11-07T16:11:43Z</time>
      </trkpt>
      <trkpt lat="45.65186" lon="5.85338">
        <ele>305.22352967418</ele>
        <time>2015-11-07T16:11:48Z</time>
      </trkpt>
      <trkpt lat="45.65183" lon="5.85366">
        <ele>303.13164276709</ele>
        <time>2015-11-07T16:12:03Z</time>
      </trkpt>
      <trkpt lat="45.65181" lon="5.85375">
        <ele>303.13164276709</ele>
        <time>2015-11-07T16:12:08Z</time>
      </trkpt>
      <trkpt lat="45.65176" lon="5.85392">
        <ele>301.02637837327</ele>
        <time>2015-11-07T16:12:18Z</time>
      </trkpt>
      <trkpt lat="45.65172" lon="5.854">
        <ele>301.02637837327</ele>
        <time>2015-11-07T16:12:23Z</time>
      </trkpt>
      <trkpt lat="45.65164" lon="5.85417">
        <ele>298.85379284123</ele>
        <time>2015-11-07T16:12:33Z</time>
      </trkpt>
      <trkpt lat="45.65158" lon="5.85423">
        <ele>298.85379284123</ele>
        <time>2015-11-07T16:12:38Z</time>
      </trkpt>
      <trkpt lat="45.65148" lon="5.85427">
        <ele>297.01079403591</ele>
        <time>2015-11-07T16:12:48Z</time>
      </trkpt>
      <trkpt lat="45.65143" lon="5.85429">
        <ele>297.01079403591</ele>
        <time>2015-11-07T16:12:53Z</time>
      </trkpt>
      <trkpt lat="45.6513" lon="5.85432">
        <ele>295.31653781724</ele>
        <time>2015-11-07T16:13:03Z</time>
      </trkpt>
      <trkpt lat="45.65125" lon="5.85433">
        <ele>295.31653781724</ele>
        <time>2015-11-07T16:13:08Z</time>
      </trkpt>
      <trkpt lat="45.65104" lon="5.8544">
        <ele>293.27154023915</ele>
        <time>2015-11-07T16:13:23Z</time>
      </trkpt>
      <trkpt lat="45.65102" lon="5.85442">
        <ele>293.27154023915</ele>
        <time>2015-11-07T16:13:28Z</time>
      </trkpt>
      <trkpt lat="45.65093" lon="5.85452">
        <ele>290.25541515978</ele>
        <time>2015-11-07T16:13:38Z</time>
      </trkpt>
      <trkpt lat="45.6509" lon="5.85458">
        <ele>290.25541515978</ele>
        <time>2015-11-07T16:13:43Z</time>
      </trkpt>
      <trkpt lat="45.65078" lon="5.85466">
        <ele>288.05943796878</ele>
        <time>2015-11-07T16:13:53Z</time>
      </trkpt>
      <trkpt lat="45.65073" lon="5.85472">
        <ele>288.05943796878</ele>
        <time>2015-11-07T16:13:58Z</time>
      </trkpt>
      <trkpt lat="45.65061" lon="5.85484">
        <ele>286.5395453473</ele>
        <time>2015-11-07T16:14:08Z</time>
      </trkpt>
      <trkpt lat="45.65055" lon="5.8549">
        <ele>286.5395453473</ele>
        <time>2015-11-07T16:14:13Z</time>
      </trkpt>
      <trkpt lat="45.65045" lon="5.85497">
        <ele>285.51706273173</ele>
        <time>2015-11-07T16:14:23Z</time>
      </trkpt>
      <trkpt lat="45.65039" lon="5.85501">
        <ele>285.51706273173</ele>
        <time>2015-11-07T16:14:28Z</time>
      </trkpt>
      <trkpt lat="45.65026" lon="5.85508">
        <ele>283.70091389139</ele>
        <time>2015-11-07T16:14:38Z</time>
      </trkpt>
      <trkpt lat="45.65021" lon="5.85511">
        <ele>283.70091389139</ele>
        <time>2015-11-07T16:14:43Z</time>
      </trkpt>
      <trkpt lat="45.65008" lon="5.85517">
        <ele>281.97222941755</ele>
        <time>2015-11-07T16:14:53Z</time>
      </trkpt>
      <trkpt lat="45.65002" lon="5.8552">
        <ele>281.97222941755</ele>
        <time>2015-11-07T16:14:58Z</time>
      </trkpt>
      <trkpt lat="45.64982" lon="5.85527">
        <ele>280.44096345771</ele>
        <time>2015-11-07T16:15:13Z</time>
      </trkpt>
      <trkpt lat="45.64978" lon="5.85527">
        <ele>280.44096345771</ele>
        <time>2015-11-07T16:15:18Z</time>
      </trkpt>
      <trkpt lat="45.64966" lon="5.85532">
        <ele>278.08431420687</ele>
        <time>2015-11-07T16:15:28Z</time>
      </trkpt>
      <trkpt lat="45.64959" lon="5.85533">
        <ele>278.08431420687</ele>
        <time>2015-11-07T16:15:33Z</time>
      </trkpt>
      <trkpt lat="45.64944" lon="5.85536">
        <ele>275.59973857071</ele>
        <time>2015-11-07T16:15:43Z</time>
      </trkpt>
      <trkpt lat="45.64938" lon="5.85539">
        <ele>275.59973857071</ele>
        <time>2015-11-07T16:15:48Z</time>
      </trkpt>
      <trkpt lat="45.64924" lon="5.85542">
        <ele>272.66821179154</ele>
        <time>2015-11-07T16:15:58Z</time>
      </trkpt>
      <trkpt lat="45.64917" lon="5.85546">
        <ele>272.66821179154</ele>
        <time>2015-11-07T16:16:03Z</time>
      </trkpt>
      <trkpt lat="45.64905" lon="5.85555">
        <ele>269.97528935557</ele>
        <time>2015-11-07T16:16:13Z</time>
      </trkpt>
      <trkpt lat="45.64898" lon="5.85559">
        <ele>269.97528935557</ele>
        <time>2015-11-07T16:16:18Z</time>
      </trkpt>
      <trkpt lat="45.64885" lon="5.85566">
        <ele>267.73750498648</ele>
        <time>2015-11-07T16:16:28Z</time>
      </trkpt>
      <trkpt lat="45.6488" lon="5.85567">
        <ele>267.73750498648</ele>
        <time>2015-11-07T16:16:33Z</time>
      </trkpt>
      <trkpt lat="45.64867" lon="5.85565">
        <ele>265.07330112855</ele>
        <time>2015-11-07T16:16:43Z</time>
      </trkpt>
      <trkpt lat="45.64862" lon="5.85563">
        <ele>265.07330112855</ele>
        <time>2015-11-07T16:16:48Z</time>
      </trkpt>
      <trkpt lat="45.64843" lon="5.85557">
        <ele>262.89633175845</ele>
        <time>2015-11-07T16:17:03Z</time>
      </trkpt>
      <trkpt lat="45.64836" lon="5.85554">
        <ele>262.89633175845</ele>
        <time>2015-11-07T16:17:08Z</time>
      </trkpt>
      <trkpt lat="45.6482" lon="5.85555">
        <ele>261.18702232288</ele>
        <time>2015-11-07T16:17:18Z</time>
      </trkpt>
      <trkpt lat="45.64814" lon="5.8556">
        <ele>261.18702232288</ele>
        <time>2015-11-07T16:17:23Z</time>
      </trkpt>
      <trkpt lat="45.648" lon="5.8557">
        <ele>259.78173631575</ele>
        <time>2015-11-07T16:17:33Z</time>
      </trkpt>
      <trkpt lat="45.64794" lon="5.85575">
        <ele>259.78173631575</ele>
        <time>2015-11-07T16:17:38Z</time>
      </trkpt>
      <trkpt lat="45.64784" lon="5.85589">
        <ele>258.87379916359</ele>
        <time>2015-11-07T16:17:48Z</time>
      </trkpt>
      <trkpt lat="45.64784" lon="5.85599">
        <ele>258.87379916359</ele>
        <time>2015-11-07T16:17:53Z</time>
      </trkpt>
      <trkpt lat="45.64791" lon="5.85616">
        <ele>257.40151681756</ele>
        <time>2015-11-07T16:18:03Z</time>
      </trkpt>
      <trkpt lat="45.64796" lon="5.85625">
        <ele>257.40151681756</ele>
        <time>2015-11-07T16:18:08Z</time>
      </trkpt>
      <trkpt lat="45.64805" lon="5.85641">
        <ele>255.49236559165</ele>
        <time>2015-11-07T16:18:18Z</time>
      </trkpt>
      <trkpt lat="45.64808" lon="5.85651">
        <ele>255.49236559165</ele>
        <time>2015-11-07T16:18:23Z</time>
      </trkpt>
      <trkpt lat="45.64813" lon="5.8567">
        <ele>253.61149547755</ele>
        <time>2015-11-07T16:18:33Z</time>
      </trkpt>
      <trkpt lat="45.64815" lon="5.85681">
        <ele>253.61149547755</ele>
        <time>2015-11-07T16:18:38Z</time>
      </trkpt>
      <trkpt lat="45.64823" lon="5.85702">
        <ele>251.5844902678</ele>
        <time>2015-11-07T16:18:53Z</time>
      </trkpt>
      <trkpt lat="45.64828" lon="5.85708">
        <ele>251.5844902678</ele>
        <time>2015-11-07T16:18:58Z</time>
      </trkpt>
      <trkpt lat="45.64835" lon="5.85722">
        <ele>249.07717375188</ele>
        <time>2015-11-07T16:19:08Z</time>
      </trkpt>
      <trkpt lat="45.64837" lon="5.8573">
        <ele>249.07717375188</ele>
        <time>2015-11-07T16:19:13Z</time>
      </trkpt>
      <trkpt lat="45.64836" lon="5.85748">
        <ele>247.13586222579</ele>
        <time>2015-11-07T16:19:23Z</time>
      </trkpt>
      <trkpt lat="45.64837" lon="5.85759">
        <ele>247.13586222579</ele>
        <time>2015-11-07T16:19:28Z</time>
      </trkpt>
      <trkpt lat="45.6484" lon="5.85781">
        <ele>245.58989701364</ele>
        <time>2015-11-07T16:19:38Z</time>
      </trkpt>
      <trkpt lat="45.64841" lon="5.85794">
        <ele>245.58989701364</ele>
        <time>2015-11-07T16:19:43Z</time>
      </trkpt>
      <trkpt lat="45.64843" lon="5.85814">
        <ele>244.46734664379</ele>
        <time>2015-11-07T16:19:53Z</time>
      </trkpt>
      <trkpt lat="45.64844" lon="5.85825">
        <ele>244.46734664379</ele>
        <time>2015-11-07T16:19:58Z</time>
      </trkpt>
      <trkpt lat="45.64847" lon="5.8585">
        <ele>244.0091573508</ele>
        <time>2015-11-07T16:20:08Z</time>
      </trkpt>
      <trkpt lat="45.64847" lon="5.85861">
        <ele>244.0091573508</ele>
        <time>2015-11-07T16:20:13Z</time>
      </trkpt>
      <trkpt lat="45.64844" lon="5.85878">
        <ele>243.00997945995</ele>
        <time>2015-11-07T16:20:23Z</time>
      </trkpt>
      <trkpt lat="45.64845" lon="5.85885">
        <ele>243.00997945995</ele>
        <time>2015-11-07T16:20:28Z</time>
      </trkpt>
      <trkpt lat="45.6486" lon="5.85902">
        <ele>241.78120252109</ele>
        <time>2015-11-07T16:20:38Z</time>
      </trkpt>
      <trkpt lat="45.6486" lon="5.85912">
        <ele>241.78120252109</ele>
        <time>2015-11-07T16:20:43Z</time>
      </trkpt>
      <trkpt lat="45.64858" lon="5.85931">
        <ele>240.4534485126</ele>
        <time>2015-11-07T16:20:53Z</time>
      </trkpt>
      <trkpt lat="45.64861" lon="5.85934">
        <ele>240.4534485126</ele>
        <time>2015-11-07T16:20:58Z</time>
      </trkpt>
      <trkpt lat="45.64863" lon="5.85956">
        <ele>239.63799260229</ele>
        <time>2015-11-07T16:21:13Z</time>
      </trkpt>
      <trkpt lat="45.64864" lon="5.85964">
        <ele>239.63799260229</ele>
        <time>2015-11-07T16:21:18Z</time>
      </trkpt>
      <trkpt lat="45.64868" lon="5.8597">
        <ele>238.35777816139</ele>
        <time>2015-11-07T16:21:28Z</time>
      </trkpt>
      <trkpt lat="45.64869" lon="5.8597">
        <ele>238.35777816139</ele>
        <time>2015-11-07T16:21:33Z</time>
      </trkpt>
      <trkpt lat="45.64866" lon="5.85986">
        <ele>236.76084131806</ele>
        <time>2015-11-07T16:21:43Z</time>
      </trkpt>
      <trkpt lat="45.64859" lon="5.85989">
        <ele>236.76084131806</ele>
        <time>2015-11-07T16:21:48Z</time>
      </trkpt>
      <trkpt lat="45.64846" lon="5.85992">
        <ele>235.63374041118</ele>
        <time>2015-11-07T16:21:58Z</time>
      </trkpt>
      <trkpt lat="45.64838" lon="5.85994">
        <ele>235.63374041118</ele>
        <time>2015-11-07T16:22:03Z</time>
      </trkpt>
      <trkpt lat="45.64825" lon="5.85996">
        <ele>234.85369249376</ele>
        <time>2015-11-07T16:22:13Z</time>
      </trkpt>
      <trkpt lat="45.64818" lon="5.85995">
        <ele>234.85369249376</ele>
        <time>2015-11-07T16:22:18Z</time>
      </trkpt>
      <trkpt lat="45.648" lon="5.85998">
        <ele>234.66625668815</ele>
        <time>2015-11-07T16:22:28Z</time>
      </trkpt>
      <trkpt lat="45.64794" lon="5.86">
        <ele>234.66625668815</ele>
        <time>2015-11-07T16:22:33Z</time>
      </trkpt>
      <trkpt lat="45.64788" lon="5.86002">
        <ele>233.64003632234</ele>
        <time>2015-11-07T16:22:43Z</time>
      </trkpt>
      <trkpt lat="45.64786" lon="5.86007">
        <ele>233.64003632234</ele>
        <time>2015-11-07T16:22:48Z</time>
      </trkpt>
      <trkpt lat="45.64776" lon="5.86021">
        <ele>232.43990127312</ele>
        <time>2015-11-07T16:22:58Z</time>
      </trkpt>
      <trkpt lat="45.64775" lon="5.86031">
        <ele>232.43990127312</ele>
        <time>2015-11-07T16:23:03Z</time>
      </trkpt>
      <trkpt lat="45.64782" lon="5.86053">
        <ele>231.62475969431</ele>
        <time>2015-11-07T16:23:18Z</time>
      </trkpt>
      <trkpt lat="45.64783" lon="5.86062">
        <ele>231.62475969431</ele>
        <time>2015-11-07T16:23:23Z</time>
      </trkpt>
      <trkpt lat="45.64779" lon="5.86084">
        <ele>231.48084645391</ele>
        <time>2015-11-07T16:23:33Z</time>
      </trkpt>
      <trkpt lat="45.64779" lon="5.86094">
        <ele>231.48084645391</ele>
        <time>2015-11-07T16:23:38Z</time>
      </trkpt>
      <trkpt lat="45.64776" lon="5.86115">
        <ele>231.24834449771</ele>
        <time>2015-11-07T16:23:48Z</time>
      </trkpt>
      <trkpt lat="45.64776" lon="5.86124">
        <ele>231.24834449771</ele>
        <time>2015-11-07T16:23:53Z</time>
      </trkpt>
      <trkpt lat="45.64778" lon="5.86143">
        <ele>230.59824288632</ele>
        <time>2015-11-07T16:24:03Z</time>
      </trkpt>
      <trkpt lat="45.64778" lon="5.86153">
        <ele>230.59824288632</ele>
        <time>2015-11-07T16:24:08Z</time>
      </trkpt>
      <trkpt lat="45.64781" lon="5.8617">
        <ele>229.57279648204</ele>
        <time>2015-11-07T16:24:18Z</time>
      </trkpt>
      <trkpt lat="45.6478" lon="5.86176">
        <ele>229.57279648204</ele>
        <time>2015-11-07T16:24:23Z</time>
      </trkpt>
      <trkpt lat="45.64776" lon="5.86182">
        <ele>229.23546259408</ele>
        <time>2015-11-07T16:24:33Z</time>
      </trkpt>
      <trkpt lat="45.64776" lon="5.86182">
        <ele>229.23546259408</ele>
        <time>2015-11-07T16:24:38Z</time>
      </trkpt>
      <trkpt lat="45.64776" lon="5.86182">
        <ele>229.23546259408</ele>
        <time>2015-11-07T16:24:48Z</time>
      </trkpt>
      <trkpt lat="45.64776" lon="5.86183">
        <ele>229.23546259408</ele>
        <time>2015-11-07T16:24:53Z</time>
      </trkpt>
      <trkpt lat="45.64778" lon="5.8618">
        <ele>229.23546259408</ele>
        <time>2015-11-07T16:25:03Z</time>
      </trkpt>
      <trkpt lat="45.64778" lon="5.8618">
        <ele>229.23546259408</ele>
        <time>2015-11-07T16:25:08Z</time>
      </trkpt>
      <trkpt lat="45.64778" lon="5.86181">
        <ele>229.23546259408</ele>
        <time>2015-11-07T16:25:18Z</time>
      </trkpt>
      <trkpt lat="45.64778" lon="5.86182">
        <ele>229.23546259408</ele>
        <time>2015-11-07T16:25:23Z</time>
      </trkpt>
      <trkpt lat="45.64777" lon="5.86199">
        <ele>229.86357265542</ele>
        <time>2015-11-07T16:25:33Z</time>
      </trkpt>
      <trkpt lat="45.64777" lon="5.86214">
        <ele>230.51533129576</ele>
        <time>2015-11-07T16:25:38Z</time>
      </trkpt>
      <trkpt lat="45.64778" lon="5.86241">
        <ele>230.79371240374</ele>
        <time>2015-11-07T16:25:53Z</time>
      </trkpt>
      <trkpt lat="45.64779" lon="5.86249">
        <ele>230.79371240374</ele>
        <time>2015-11-07T16:25:58Z</time>
      </trkpt>
      <trkpt lat="45.6478" lon="5.86268">
        <ele>231.84516592055</ele>
        <time>2015-11-07T16:26:08Z</time>
      </trkpt>
      <trkpt lat="45.6478" lon="5.86278">
        <ele>231.84516592055</ele>
        <time>2015-11-07T16:26:13Z</time>
      </trkpt>
      <trkpt lat="45.64783" lon="5.86295">
        <ele>232.30879454149</ele>
        <time>2015-11-07T16:26:23Z</time>
      </trkpt>
      <trkpt lat="45.64783" lon="5.86305">
        <ele>232.30879454149</ele>
        <time>2015-11-07T16:26:28Z</time>
      </trkpt>
      <trkpt lat="45.64777" lon="5.86318">
        <ele>232.39537001525</ele>
        <time>2015-11-07T16:26:38Z</time>
      </trkpt>
      <trkpt lat="45.64773" lon="5.86326">
        <ele>232.39537001525</ele>
        <time>2015-11-07T16:26:43Z</time>
      </trkpt>
      <trkpt lat="45.64766" lon="5.8634">
        <ele>232.64722829724</ele>
        <time>2015-11-07T16:26:53Z</time>
      </trkpt>
      <trkpt lat="45.64764" lon="5.8634">
        <ele>232.64722829724</ele>
        <time>2015-11-07T16:26:58Z</time>
      </trkpt>
      <trkpt lat="45.64758" lon="5.86347">
        <ele>232.91803041072</ele>
        <time>2015-11-07T16:27:08Z</time>
      </trkpt>
      <trkpt lat="45.64749" lon="5.86354">
        <ele>233.05785534657</ele>
        <time>2015-11-07T16:27:13Z</time>
      </trkpt>
      <trkpt lat="45.64735" lon="5.86369">
        <ele>232.52478504464</ele>
        <time>2015-11-07T16:27:23Z</time>
      </trkpt>
      <trkpt lat="45.64728" lon="5.86378">
        <ele>232.52478504464</ele>
        <time>2015-11-07T16:27:28Z</time>
      </trkpt>
      <trkpt lat="45.64714" lon="5.86395">
        <ele>232.96598984915</ele>
        <time>2015-11-07T16:27:38Z</time>
      </trkpt>
      <trkpt lat="45.64709" lon="5.86402">
        <ele>232.96598984915</ele>
        <time>2015-11-07T16:27:43Z</time>
      </trkpt>
      <trkpt lat="45.64695" lon="5.86418">
        <ele>233.78660953725</ele>
        <time>2015-11-07T16:27:53Z</time>
      </trkpt>
      <trkpt lat="45.64688" lon="5.86422">
        <ele>233.78660953725</ele>
        <time>2015-11-07T16:27:58Z</time>
      </trkpt>
      <trkpt lat="45.64679" lon="5.86433">
        <ele>234.27603358222</ele>
        <time>2015-11-07T16:28:08Z</time>
      </trkpt>
      <trkpt lat="45.64674" lon="5.86438">
        <ele>234.27603358222</ele>
        <time>2015-11-07T16:28:13Z</time>
      </trkpt>
      <trkpt lat="45.64665" lon="5.86446">
        <ele>233.90662064707</ele>
        <time>2015-11-07T16:28:23Z</time>
      </trkpt>
      <trkpt lat="45.64661" lon="5.86459">
        <ele>233.43139427152</ele>
        <time>2015-11-07T16:28:28Z</time>
      </trkpt>
      <trkpt lat="45.64647" lon="5.86482">
        <ele>233.33232922646</ele>
        <time>2015-11-07T16:28:38Z</time>
      </trkpt>
      <trkpt lat="45.64642" lon="5.86487">
        <ele>233.33232922646</ele>
        <time>2015-11-07T16:28:43Z</time>
      </trkpt>
      <trkpt lat="45.64624" lon="5.86507">
        <ele>233.01747279392</ele>
        <time>2015-11-07T16:28:58Z</time>
      </trkpt>
      <trkpt lat="45.6462" lon="5.86515">
        <ele>233.01747279392</ele>
        <time>2015-11-07T16:29:03Z</time>
      </trkpt>
      <trkpt lat="45.64608" lon="5.86529">
        <ele>233.39461477476</ele>
        <time>2015-11-07T16:29:13Z</time>
      </trkpt>
      <trkpt lat="45.64603" lon="5.86534">
        <ele>233.39461477476</ele>
        <time>2015-11-07T16:29:18Z</time>
      </trkpt>
      <trkpt lat="45.64588" lon="5.86546">
        <ele>233.71782209429</ele>
        <time>2015-11-07T16:29:28Z</time>
      </trkpt>
      <trkpt lat="45.64582" lon="5.86554">
        <ele>233.71782209429</ele>
        <time>2015-11-07T16:29:33Z</time>
      </trkpt>
      <trkpt lat="45.64573" lon="5.86562">
        <ele>234.30501264555</ele>
        <time>2015-11-07T16:29:43Z</time>
      </trkpt>
      <trkpt lat="45.6457" lon="5.86567">
        <ele>234.30501264555</ele>
        <time>2015-11-07T16:29:48Z</time>
      </trkpt>
      <trkpt lat="45.64564" lon="5.86571">
        <ele>234.68634567933</ele>
        <time>2015-11-07T16:29:58Z</time>
      </trkpt>
      <trkpt lat="45.64558" lon="5.86576">
        <ele>234.68634567933</ele>
        <time>2015-11-07T16:30:03Z</time>
      </trkpt>
      <trkpt lat="45.64538" lon="5.8659">
        <ele>235.17657579078</ele>
        <time>2015-11-07T16:30:13Z</time>
      </trkpt>
      <trkpt lat="45.6453" lon="5.86595">
        <ele>235.82216742229</ele>
        <time>2015-11-07T16:30:18Z</time>
      </trkpt>
      <trkpt lat="45.64523" lon="5.86601">
        <ele>235.82216742229</ele>
        <time>2015-11-07T16:30:33Z</time>
      </trkpt>
      <trkpt lat="45.64522" lon="5.86602">
        <ele>236.80997410803</ele>
        <time>2015-11-07T16:30:38Z</time>
      </trkpt>
      <trkpt lat="45.64508" lon="5.86606">
        <ele>237.34674588798</ele>
        <time>2015-11-07T16:30:48Z</time>
      </trkpt>
      <trkpt lat="45.64501" lon="5.86608">
        <ele>237.34674588798</ele>
        <time>2015-11-07T16:30:53Z</time>
      </trkpt>
      <trkpt lat="45.64486" lon="5.86611">
        <ele>237.23210804374</ele>
        <time>2015-11-07T16:31:03Z</time>
      </trkpt>
      <trkpt lat="45.64479" lon="5.86613">
        <ele>237.23210804374</ele>
        <time>2015-11-07T16:31:08Z</time>
      </trkpt>
      <trkpt lat="45.64465" lon="5.86618">
        <ele>236.8732132084</ele>
        <time>2015-11-07T16:31:18Z</time>
      </trkpt>
      <trkpt lat="45.64457" lon="5.86617">
        <ele>236.8732132084</ele>
        <time>2015-11-07T16:31:23Z</time>
      </trkpt>
      <trkpt lat="45.64444" lon="5.86617">
        <ele>236.86427764468</ele>
        <time>2015-11-07T16:31:33Z</time>
      </trkpt>
      <trkpt lat="45.64436" lon="5.86619">
        <ele>236.86427764468</ele>
        <time>2015-11-07T16:31:38Z</time>
      </trkpt>
      <trkpt lat="45.6442" lon="5.86619">
        <ele>237.13532251389</ele>
        <time>2015-11-07T16:31:48Z</time>
      </trkpt>
      <trkpt lat="45.64411" lon="5.8662">
        <ele>237.46231175851</ele>
        <time>2015-11-07T16:31:53Z</time>
      </trkpt>
      <trkpt lat="45.6441" lon="5.86643">
        <ele>237.36380343281</ele>
        <time>2015-11-07T16:32:08Z</time>
      </trkpt>
      <trkpt lat="45.64411" lon="5.86651">
        <ele>237.36380343281</ele>
        <time>2015-11-07T16:32:13Z</time>
      </trkpt>
      <trkpt lat="45.64413" lon="5.86668">
        <ele>237.50467226892</ele>
        <time>2015-11-07T16:32:23Z</time>
      </trkpt>
      <trkpt lat="45.64416" lon="5.86676">
        <ele>237.50467226892</ele>
        <time>2015-11-07T16:32:28Z</time>
      </trkpt>
      <trkpt lat="45.64421" lon="5.86695">
        <ele>237.89511015208</ele>
        <time>2015-11-07T16:32:38Z</time>
      </trkpt>
      <trkpt lat="45.64422" lon="5.86706">
        <ele>237.89511015208</ele>
        <time>2015-11-07T16:32:43Z</time>
      </trkpt>
      <trkpt lat="45.64425" lon="5.86728">
        <ele>238.76012094229</ele>
        <time>2015-11-07T16:32:53Z</time>
      </trkpt>
      <trkpt lat="45.64426" lon="5.86741">
        <ele>239.7016739238</ele>
        <time>2015-11-07T16:32:58Z</time>
      </trkpt>
      <trkpt lat="45.64429" lon="5.86764">
        <ele>240.35085456044</ele>
        <time>2015-11-07T16:33:08Z</time>
      </trkpt>
      <trkpt lat="45.64429" lon="5.86776">
        <ele>240.35085456044</ele>
        <time>2015-11-07T16:33:13Z</time>
      </trkpt>
      <trkpt lat="45.64435" lon="5.86795">
        <ele>240.84232744613</ele>
        <time>2015-11-07T16:33:23Z</time>
      </trkpt>
      <trkpt lat="45.64439" lon="5.86803">
        <ele>240.84232744613</ele>
        <time>2015-11-07T16:33:28Z</time>
      </trkpt>
      <trkpt lat="45.64442" lon="5.86819">
        <ele>241.77696642194</ele>
        <time>2015-11-07T16:33:38Z</time>
      </trkpt>
      <trkpt lat="45.64445" lon="5.86828">
        <ele>241.77696642194</ele>
        <time>2015-11-07T16:33:43Z</time>
      </trkpt>
      <trkpt lat="45.64451" lon="5.86844">
        <ele>242.75922101479</ele>
        <time>2015-11-07T16:33:53Z</time>
      </trkpt>
      <trkpt lat="45.64453" lon="5.86853">
        <ele>242.75922101479</ele>
        <time>2015-11-07T16:33:58Z</time>
      </trkpt>
      <trkpt lat="45.64455" lon="5.86871">
        <ele>242.87493262884</ele>
        <time>2015-11-07T16:34:08Z</time>
      </trkpt>
      <trkpt lat="45.64458" lon="5.8688">
        <ele>242.87493262884</ele>
        <time>2015-11-07T16:34:13Z</time>
      </trkpt>
      <trkpt lat="45.64465" lon="5.86912">
        <ele>242.50456016591</ele>
        <time>2015-11-07T16:34:28Z</time>
      </trkpt>
      <trkpt lat="45.64468" lon="5.86921">
        <ele>242.50456016591</ele>
        <time>2015-11-07T16:34:33Z</time>
      </trkpt>
      <trkpt lat="45.64483" lon="5.86928">
        <ele>242.53527333736</ele>
        <time>2015-11-07T16:34:43Z</time>
      </trkpt>
      <trkpt lat="45.64491" lon="5.86935">
        <ele>242.53527333736</ele>
        <time>2015-11-07T16:34:48Z</time>
      </trkpt>
      <trkpt lat="45.64497" lon="5.86952">
        <ele>242.66395694129</ele>
        <time>2015-11-07T16:34:58Z</time>
      </trkpt>
      <trkpt lat="45.64498" lon="5.86962">
        <ele>242.66395694129</ele>
        <time>2015-11-07T16:35:03Z</time>
      </trkpt>
      <trkpt lat="45.64499" lon="5.86983">
        <ele>242.06193537883</ele>
        <time>2015-11-07T16:35:13Z</time>
      </trkpt>
      <trkpt lat="45.64503" lon="5.86995">
        <ele>242.06193537883</ele>
        <time>2015-11-07T16:35:18Z</time>
      </trkpt>
      <trkpt lat="45.64512" lon="5.87009">
        <ele>241.75049775319</ele>
        <time>2015-11-07T16:35:28Z</time>
      </trkpt>
      <trkpt lat="45.64516" lon="5.87017">
        <ele>241.75049775319</ele>
        <time>2015-11-07T16:35:33Z</time>
      </trkpt>
      <trkpt lat="45.64527" lon="5.87029">
        <ele>241.76724948935</ele>
        <time>2015-11-07T16:35:43Z</time>
      </trkpt>
      <trkpt lat="45.64532" lon="5.87036">
        <ele>241.76724948935</ele>
        <time>2015-11-07T16:35:48Z</time>
      </trkpt>
      <trkpt lat="45.6454" lon="5.87048">
        <ele>241.91558324526</ele>
        <time>2015-11-07T16:35:58Z</time>
      </trkpt>
      <trkpt lat="45.64543" lon="5.87054">
        <ele>241.91558324526</ele>
        <time>2015-11-07T16:36:03Z</time>
      </trkpt>
      <trkpt lat="45.64552" lon="5.87067">
        <ele>242.45975267315</ele>
        <time>2015-11-07T16:36:13Z</time>
      </trkpt>
      <trkpt lat="45.64558" lon="5.87071">
        <ele>242.45975267315</ele>
        <time>2015-11-07T16:36:18Z</time>
      </trkpt>
      <trkpt lat="45.64574" lon="5.87092">
        <ele>242.60592756276</ele>
        <time>2015-11-07T16:36:33Z</time>
      </trkpt>
      <trkpt lat="45.64579" lon="5.87097">
        <ele>242.60592756276</ele>
        <time>2015-11-07T16:36:38Z</time>
      </trkpt>
      <trkpt lat="45.6459" lon="5.8711">
        <ele>243.19055708176</ele>
        <time>2015-11-07T16:36:48Z</time>
      </trkpt>
      <trkpt lat="45.64595" lon="5.87119">
        <ele>243.19055708176</ele>
        <time>2015-11-07T16:36:53Z</time>
      </trkpt>
      <trkpt lat="45.64606" lon="5.87135">
        <ele>244.05072886598</ele>
        <time>2015-11-07T16:37:03Z</time>
      </trkpt>
      <trkpt lat="45.64612" lon="5.8714">
        <ele>244.05072886598</ele>
        <time>2015-11-07T16:37:08Z</time>
      </trkpt>
      <trkpt lat="45.64622" lon="5.8714">
        <ele>245.20769524909</ele>
        <time>2015-11-07T16:37:18Z</time>
      </trkpt>
      <trkpt lat="45.64629" lon="5.87145">
        <ele>245.20769524909</ele>
        <time>2015-11-07T16:37:23Z</time>
      </trkpt>
      <trkpt lat="45.64638" lon="5.87163">
        <ele>245.9742080704</ele>
        <time>2015-11-07T16:37:33Z</time>
      </trkpt>
      <trkpt lat="45.64644" lon="5.87188">
        <ele>246.43519485577</ele>
        <time>2015-11-07T16:37:38Z</time>
      </trkpt>
      <trkpt lat="45.64666" lon="5.87206">
        <ele>245.56058403632</ele>
        <time>2015-11-07T16:37:53Z</time>
      </trkpt>
      <trkpt lat="45.64669" lon="5.87214">
        <ele>245.56058403632</ele>
        <time>2015-11-07T16:37:58Z</time>
      </trkpt>
      <trkpt lat="45.64679" lon="5.87231">
        <ele>245.23874473217</ele>
        <time>2015-11-07T16:38:08Z</time>
      </trkpt>
      <trkpt lat="45.64682" lon="5.87238">
        <ele>245.23874473217</ele>
        <time>2015-11-07T16:38:13Z</time>
      </trkpt>
      <trkpt lat="45.64691" lon="5.8725">
        <ele>245.2723062376</ele>
        <time>2015-11-07T16:38:23Z</time>
      </trkpt>
      <trkpt lat="45.64697" lon="5.87254">
        <ele>245.2723062376</ele>
        <time>2015-11-07T16:38:28Z</time>
      </trkpt>
      <trkpt lat="45.6471" lon="5.87267">
        <ele>245.05950030414</ele>
        <time>2015-11-07T16:38:38Z</time>
      </trkpt>
      <trkpt lat="45.64714" lon="5.87274">
        <ele>245.05950030414</ele>
        <time>2015-11-07T16:38:43Z</time>
      </trkpt>
      <trkpt lat="45.64723" lon="5.87286">
        <ele>244.73520503659</ele>
        <time>2015-11-07T16:38:53Z</time>
      </trkpt>
      <trkpt lat="45.64728" lon="5.87293">
        <ele>244.73520503659</ele>
        <time>2015-11-07T16:38:58Z</time>
      </trkpt>
      <trkpt lat="45.64738" lon="5.87311">
        <ele>244.91469241589</ele>
        <time>2015-11-07T16:39:08Z</time>
      </trkpt>
      <trkpt lat="45.64743" lon="5.87318">
        <ele>244.91469241589</ele>
        <time>2015-11-07T16:39:13Z</time>
      </trkpt>
      <trkpt lat="45.6475" lon="5.87339">
        <ele>245.02815244347</ele>
        <time>2015-11-07T16:39:23Z</time>
      </trkpt>
      <trkpt lat="45.64754" lon="5.87348">
        <ele>245.02815244347</ele>
        <time>2015-11-07T16:39:28Z</time>
      </trkpt>
      <trkpt lat="45.64755" lon="5.87361">
        <ele>244.3748870219</ele>
        <time>2015-11-07T16:39:38Z</time>
      </trkpt>
      <trkpt lat="45.64755" lon="5.87362">
        <ele>244.3748870219</ele>
        <time>2015-11-07T16:39:43Z</time>
      </trkpt>
      <trkpt lat="45.64755" lon="5.87362">
        <ele>244.3748870219</ele>
        <time>2015-11-07T16:39:53Z</time>
      </trkpt>
      <trkpt lat="45.64754" lon="5.87362">
        <ele>244.3748870219</ele>
        <time>2015-11-07T16:39:58Z</time>
      </trkpt>
      <trkpt lat="45.64739" lon="5.87363">
        <ele>243.48953034964</ele>
        <time>2015-11-07T16:40:13Z</time>
      </trkpt>
      <trkpt lat="45.64733" lon="5.87368">
        <ele>243.48953034964</ele>
        <time>2015-11-07T16:40:18Z</time>
      </trkpt>
      <trkpt lat="45.64722" lon="5.87382">
        <ele>242.29163942687</ele>
        <time>2015-11-07T16:40:28Z</time>
      </trkpt>
      <trkpt lat="45.64718" lon="5.8739">
        <ele>242.29163942687</ele>
        <time>2015-11-07T16:40:33Z</time>
      </trkpt>
      <trkpt lat="45.64712" lon="5.87408">
        <ele>240.77959398561</ele>
        <time>2015-11-07T16:40:43Z</time>
      </trkpt>
      <trkpt lat="45.64711" lon="5.87419">
        <ele>240.77959398561</ele>
        <time>2015-11-07T16:40:48Z</time>
      </trkpt>
      <trkpt lat="45.64708" lon="5.87439">
        <ele>239.42831130423</ele>
        <time>2015-11-07T16:40:58Z</time>
      </trkpt>
      <trkpt lat="45.64703" lon="5.87445">
        <ele>239.42831130423</ele>
        <time>2015-11-07T16:41:03Z</time>
      </trkpt>
      <trkpt lat="45.64687" lon="5.87449">
        <ele>238.61968619672</ele>
        <time>2015-11-07T16:41:13Z</time>
      </trkpt>
      <trkpt lat="45.64678" lon="5.87452">
        <ele>238.61968619672</ele>
        <time>2015-11-07T16:41:18Z</time>
      </trkpt>
      <trkpt lat="45.64663" lon="5.87456">
        <ele>237.91337695563</ele>
        <time>2015-11-07T16:41:28Z</time>
      </trkpt>
      <trkpt lat="45.64655" lon="5.87457">
        <ele>237.91337695563</ele>
        <time>2015-11-07T16:41:33Z</time>
      </trkpt>
      <trkpt lat="45.64641" lon="5.87459">
        <ele>237.33337962498</ele>
        <time>2015-11-07T16:41:43Z</time>
      </trkpt>
      <trkpt lat="45.64633" lon="5.87459">
        <ele>237.33337962498</ele>
        <time>2015-11-07T16:41:48Z</time>
      </trkpt>
      <trkpt lat="45.6461" lon="5.8746">
        <ele>236.93033518391</ele>
        <time>2015-11-07T16:42:03Z</time>
      </trkpt>
      <trkpt lat="45.64602" lon="5.87461">
        <ele>236.93033518391</ele>
        <time>2015-11-07T16:42:08Z</time>
      </trkpt>
      <trkpt lat="45.64589" lon="5.8746">
        <ele>236.3038606138</ele>
        <time>2015-11-07T16:42:18Z</time>
      </trkpt>
      <trkpt lat="45.6458" lon="5.8746">
        <ele>236.3038606138</ele>
        <time>2015-11-07T16:42:23Z</time>
      </trkpt>
      <trkpt lat="45.64565" lon="5.87463">
        <ele>236.00585885357</ele>
        <time>2015-11-07T16:42:33Z</time>
      </trkpt>
      <trkpt lat="45.64558" lon="5.87467">
        <ele>236.00585885357</ele>
        <time>2015-11-07T16:42:38Z</time>
      </trkpt>
      <trkpt lat="45.64544" lon="5.87474">
        <ele>235.72527061808</ele>
        <time>2015-11-07T16:42:48Z</time>
      </trkpt>
      <trkpt lat="45.64537" lon="5.87477">
        <ele>235.72527061808</ele>
        <time>2015-11-07T16:42:53Z</time>
      </trkpt>
      <trkpt lat="45.64525" lon="5.87488">
        <ele>235.54846284585</ele>
        <time>2015-11-07T16:43:03Z</time>
      </trkpt>
      <trkpt lat="45.64519" lon="5.87497">
        <ele>235.54846284585</ele>
        <time>2015-11-07T16:43:08Z</time>
      </trkpt>
      <trkpt lat="45.64515" lon="5.87514">
        <ele>235.26688131022</ele>
        <time>2015-11-07T16:43:18Z</time>
      </trkpt>
      <trkpt lat="45.64513" lon="5.87522">
        <ele>235.26688131022</ele>
        <time>2015-11-07T16:43:23Z</time>
      </trkpt>
      <trkpt lat="45.64506" lon="5.8754">
        <ele>234.68752385688</ele>
        <time>2015-11-07T16:43:33Z</time>
      </trkpt>
      <trkpt lat="45.64503" lon="5.87548">
        <ele>234.68752385688</ele>
        <time>2015-11-07T16:43:38Z</time>
      </trkpt>
      <trkpt lat="45.64505" lon="5.87552">
        <ele>234.68752385688</ele>
        <time>2015-11-07T16:43:48Z</time>
      </trkpt>
      <trkpt lat="45.64502" lon="5.87559">
        <ele>233.97820679101</ele>
        <time>2015-11-07T16:43:53Z</time>
      </trkpt>
      <trkpt lat="45.64433" lon="5.8758">
        <ele>233.39559971913</ele>
        <time>2015-11-07T16:44:08Z</time>
      </trkpt>
      <trkpt lat="45.64409" lon="5.87588">
        <ele>232.91770012473</ele>
        <time>2015-11-07T16:44:13Z</time>
      </trkpt>
      <trkpt lat="45.64393" lon="5.8759">
        <ele>232.30759889166</ele>
        <time>2015-11-07T16:44:23Z</time>
      </trkpt>
      <trkpt lat="45.64388" lon="5.87587">
        <ele>232.30759889166</ele>
        <time>2015-11-07T16:44:28Z</time>
      </trkpt>
      <trkpt lat="45.64374" lon="5.8759">
        <ele>231.77843191786</ele>
        <time>2015-11-07T16:44:38Z</time>
      </trkpt>
      <trkpt lat="45.64367" lon="5.87591">
        <ele>231.77843191786</ele>
        <time>2015-11-07T16:44:43Z</time>
      </trkpt>
      <trkpt lat="45.64353" lon="5.87594">
        <ele>231.54180055995</ele>
        <time>2015-11-07T16:44:53Z</time>
      </trkpt>
      <trkpt lat="45.6435" lon="5.87595">
        <ele>231.54180055995</ele>
        <time>2015-11-07T16:44:58Z</time>
      </trkpt>
      <trkpt lat="45.64352" lon="5.87596">
        <ele>231.54180055995</ele>
        <time>2015-11-07T16:45:08Z</time>
      </trkpt>
      <trkpt lat="45.64357" lon="5.87594">
        <ele>231.61994813023</ele>
        <time>2015-11-07T16:45:13Z</time>
      </trkpt>
      <trkpt lat="45.64367" lon="5.87591">
        <ele>231.83078855984</ele>
        <time>2015-11-07T16:45:23Z</time>
      </trkpt>
      <trkpt lat="45.6437" lon="5.87589">
        <ele>231.83078855984</ele>
        <time>2015-11-07T16:45:28Z</time>
      </trkpt>
      <trkpt lat="45.6437" lon="5.87596">
        <ele>231.83078855984</ele>
        <time>2015-11-07T16:45:38Z</time>
      </trkpt>
      <trkpt lat="45.64366" lon="5.87604">
        <ele>231.58726419411</ele>
        <time>2015-11-07T16:45:43Z</time>
      </trkpt>
      <trkpt lat="45.64366" lon="5.87622">
        <ele>231.29780201973</ele>
        <time>2015-11-07T16:45:53Z</time>
      </trkpt>
      <trkpt lat="45.64367" lon="5.87631">
        <ele>231.29780201973</ele>
        <time>2015-11-07T16:45:58Z</time>
      </trkpt>
      <trkpt lat="45.64374" lon="5.87661">
        <ele>231.67236714407</ele>
        <time>2015-11-07T16:46:08Z</time>
      </trkpt>
      <trkpt lat="45.64375" lon="5.87671">
        <ele>231.67236714407</ele>
        <time>2015-11-07T16:46:13Z</time>
      </trkpt>
      <trkpt lat="45.64364" lon="5.87696">
        <ele>232.53102550748</ele>
        <time>2015-11-07T16:46:28Z</time>
      </trkpt>
      <trkpt lat="45.64357" lon="5.877">
        <ele>232.53102550748</ele>
        <time>2015-11-07T16:46:33Z</time>
      </trkpt>
      <trkpt lat="45.64341" lon="5.87709">
        <ele>233.40303808808</ele>
        <time>2015-11-07T16:46:43Z</time>
      </trkpt>
      <trkpt lat="45.64327" lon="5.87715">
        <ele>233.6071956442</ele>
        <time>2015-11-07T16:46:48Z</time>
      </trkpt>
      <trkpt lat="45.64277" lon="5.87734">
        <ele>233.63825436963</ele>
        <time>2015-11-07T16:46:58Z</time>
      </trkpt>
      <trkpt lat="45.64249" lon="5.87742">
        <ele>233.83981260444</ele>
        <time>2015-11-07T16:47:03Z</time>
      </trkpt>
      <trkpt lat="45.64192" lon="5.87758">
        <ele>234.0397663821</ele>
        <time>2015-11-07T16:47:13Z</time>
      </trkpt>
      <trkpt lat="45.64161" lon="5.87766">
        <ele>234.49657949277</ele>
        <time>2015-11-07T16:47:18Z</time>
      </trkpt>
      <trkpt lat="45.64102" lon="5.87772">
        <ele>234.54110960419</ele>
        <time>2015-11-07T16:47:28Z</time>
      </trkpt>
      <trkpt lat="45.64072" lon="5.87774">
        <ele>234.5056638444</ele>
        <time>2015-11-07T16:47:33Z</time>
      </trkpt>
      <trkpt lat="45.64012" lon="5.8778">
        <ele>234.75601426366</ele>
        <time>2015-11-07T16:47:43Z</time>
      </trkpt>
      <trkpt lat="45.63985" lon="5.87782">
        <ele>234.60708129242</ele>
        <time>2015-11-07T16:47:48Z</time>
      </trkpt>
      <trkpt lat="45.63926" lon="5.87787">
        <ele>234.49166330794</ele>
        <time>2015-11-07T16:47:58Z</time>
      </trkpt>
      <trkpt lat="45.63897" lon="5.87789">
        <ele>234.21982561314</ele>
        <time>2015-11-07T16:48:03Z</time>
      </trkpt>
      <trkpt lat="45.63844" lon="5.87795">
        <ele>234.03395676567</ele>
        <time>2015-11-07T16:48:13Z</time>
      </trkpt>
      <trkpt lat="45.63815" lon="5.87797">
        <ele>233.75489562756</ele>
        <time>2015-11-07T16:48:18Z</time>
      </trkpt>
      <trkpt lat="45.63727" lon="5.87803">
        <ele>234.22569022091</ele>
        <time>2015-11-07T16:48:33Z</time>
      </trkpt>
      <trkpt lat="45.637" lon="5.87805">
        <ele>234.76984180203</ele>
        <time>2015-11-07T16:48:38Z</time>
      </trkpt>
      <trkpt lat="45.63646" lon="5.87812">
        <ele>235.00534125893</ele>
        <time>2015-11-07T16:48:48Z</time>
      </trkpt>
      <trkpt lat="45.63617" lon="5.87816">
        <ele>235.4870222908</ele>
        <time>2015-11-07T16:48:53Z</time>
      </trkpt>
      <trkpt lat="45.63558" lon="5.87818">
        <ele>236.5265337743</ele>
        <time>2015-11-07T16:49:03Z</time>
      </trkpt>
      <trkpt lat="45.63545" lon="5.8782">
        <ele>237.09967797991</ele>
        <time>2015-11-07T16:49:08Z</time>
      </trkpt>
      <trkpt lat="45.63532" lon="5.87821">
        <ele>237.671119749</ele>
        <time>2015-11-07T16:49:18Z</time>
      </trkpt>
      <trkpt lat="45.63526" lon="5.8782">
        <ele>237.671119749</ele>
        <time>2015-11-07T16:49:23Z</time>
      </trkpt>
      <trkpt lat="45.63511" lon="5.87822">
        <ele>238.59937211598</ele>
        <time>2015-11-07T16:49:33Z</time>
      </trkpt>
      <trkpt lat="45.63503" lon="5.87823">
        <ele>238.59937211598</ele>
        <time>2015-11-07T16:49:38Z</time>
      </trkpt>
      <trkpt lat="45.6349" lon="5.87823">
        <ele>239.26451479032</ele>
        <time>2015-11-07T16:49:48Z</time>
      </trkpt>
      <trkpt lat="45.63482" lon="5.87823">
        <ele>239.26451479032</ele>
        <time>2015-11-07T16:49:53Z</time>
      </trkpt>
      <trkpt lat="45.63467" lon="5.87824">
        <ele>240.04407972179</ele>
        <time>2015-11-07T16:50:03Z</time>
      </trkpt>
      <trkpt lat="45.6346" lon="5.87825">
        <ele>240.04407972179</ele>
        <time>2015-11-07T16:50:08Z</time>
      </trkpt>
      <trkpt lat="45.63446" lon="5.87825">
        <ele>240.36527765906</ele>
        <time>2015-11-07T16:50:18Z</time>
      </trkpt>
      <trkpt lat="45.6344" lon="5.87827">
        <ele>240.36527765906</ele>
        <time>2015-11-07T16:50:23Z</time>
      </trkpt>
      <trkpt lat="45.63438" lon="5.87829">
        <ele>240.36527765906</ele>
        <time>2015-11-07T16:50:33Z</time>
      </trkpt>
      <trkpt lat="45.63435" lon="5.87828">
        <ele>240.41928414201</ele>
        <time>2015-11-07T16:50:38Z</time>
      </trkpt>
      <trkpt lat="45.63429" lon="5.87814">
        <ele>240.39843805258</ele>
        <time>2015-11-07T16:50:48Z</time>
      </trkpt>
      <trkpt lat="45.6343" lon="5.87806">
        <ele>240.39843805258</ele>
        <time>2015-11-07T16:50:53Z</time>
      </trkpt>
      <trkpt lat="45.63441" lon="5.87784">
        <ele>239.06891219348</ele>
        <time>2015-11-07T16:51:08Z</time>
      </trkpt>
      <trkpt lat="45.6344" lon="5.87785">
        <ele>239.06891219348</ele>
        <time>2015-11-07T16:51:13Z</time>
      </trkpt>
      <trkpt lat="45.63441" lon="5.87778">
        <ele>239.06891219348</ele>
        <time>2015-11-07T16:51:23Z</time>
      </trkpt>
      <trkpt lat="45.6344" lon="5.87772">
        <ele>238.37520261269</ele>
        <time>2015-11-07T16:51:28Z</time>
      </trkpt>
      <trkpt lat="45.63443" lon="5.87752">
        <ele>238.02759801084</ele>
        <time>2015-11-07T16:51:38Z</time>
      </trkpt>
      <trkpt lat="45.63443" lon="5.87742">
        <ele>238.02759801084</ele>
        <time>2015-11-07T16:51:43Z</time>
      </trkpt>
      <trkpt lat="45.63444" lon="5.87719">
        <ele>238.0593544875</ele>
        <time>2015-11-07T16:51:53Z</time>
      </trkpt>
      <trkpt lat="45.6344" lon="5.87708">
        <ele>238.0593544875</ele>
        <time>2015-11-07T16:51:58Z</time>
      </trkpt>
      <trkpt lat="45.63405" lon="5.87708">
        <ele>238.48582763874</ele>
        <time>2015-11-07T16:52:08Z</time>
      </trkpt>
      <trkpt lat="45.63375" lon="5.87712">
        <ele>239.10398728774</ele>
        <time>2015-11-07T16:52:13Z</time>
      </trkpt>
      <trkpt lat="45.63313" lon="5.87715">
        <ele>239.63873028209</ele>
        <time>2015-11-07T16:52:23Z</time>
      </trkpt>
      <trkpt lat="45.63284" lon="5.87717">
        <ele>240.02275980938</ele>
        <time>2015-11-07T16:52:28Z</time>
      </trkpt>
      <trkpt lat="45.63219" lon="5.87721">
        <ele>240.74178960837</ele>
        <time>2015-11-07T16:52:38Z</time>
      </trkpt>
      <trkpt lat="45.63186" lon="5.87726">
        <ele>241.32262622019</ele>
        <time>2015-11-07T16:52:43Z</time>
      </trkpt>
      <trkpt lat="45.63128" lon="5.87733">
        <ele>241.87487341542</ele>
        <time>2015-11-07T16:52:53Z</time>
      </trkpt>
      <trkpt lat="45.63102" lon="5.87719">
        <ele>242.29843669686</ele>
        <time>2015-11-07T16:52:58Z</time>
      </trkpt>
      <trkpt lat="45.63034" lon="5.87693">
        <ele>242.78918818042</ele>
        <time>2015-11-07T16:53:13Z</time>
      </trkpt>
      <trkpt lat="45.63026" lon="5.87692">
        <ele>242.78918818042</ele>
        <time>2015-11-07T16:53:18Z</time>
      </trkpt>
      <trkpt lat="45.63015" lon="5.8769">
        <ele>243.18258744029</ele>
        <time>2015-11-07T16:53:28Z</time>
      </trkpt>
      <trkpt lat="45.63009" lon="5.8769">
        <ele>243.18258744029</ele>
        <time>2015-11-07T16:53:33Z</time>
      </trkpt>
      <trkpt lat="45.62993" lon="5.87684">
        <ele>243.54265281021</ele>
        <time>2015-11-07T16:53:43Z</time>
      </trkpt>
      <trkpt lat="45.62988" lon="5.87677">
        <ele>243.54265281021</ele>
        <time>2015-11-07T16:53:48Z</time>
      </trkpt>
      <trkpt lat="45.62979" lon="5.8766">
        <ele>243.46766881764</ele>
        <time>2015-11-07T16:53:58Z</time>
      </trkpt>
      <trkpt lat="45.62976" lon="5.87653">
        <ele>243.46766881764</ele>
        <time>2015-11-07T16:54:03Z</time>
      </trkpt>
      <trkpt lat="45.62969" lon="5.87639">
        <ele>243.5666361166</ele>
        <time>2015-11-07T16:54:13Z</time>
      </trkpt>
      <trkpt lat="45.62967" lon="5.87629">
        <ele>243.5666361166</ele>
        <time>2015-11-07T16:54:18Z</time>
      </trkpt>
      <trkpt lat="45.62953" lon="5.87614">
        <ele>243.62515809273</ele>
        <time>2015-11-07T16:54:33Z</time>
      </trkpt>
      <trkpt lat="45.62947" lon="5.87606">
        <ele>243.62515809273</ele>
        <time>2015-11-07T16:54:38Z</time>
      </trkpt>
      <trkpt lat="45.62944" lon="5.87591">
        <ele>243.74735979212</ele>
        <time>2015-11-07T16:54:48Z</time>
      </trkpt>
      <trkpt lat="45.62943" lon="5.87584">
        <ele>243.74735979212</ele>
        <time>2015-11-07T16:54:53Z</time>
      </trkpt>
      <trkpt lat="45.62944" lon="5.8758">
        <ele>243.74735979212</ele>
        <time>2015-11-07T16:55:03Z</time>
      </trkpt>
      <trkpt lat="45.62944" lon="5.87578">
        <ele>243.13607077911</ele>
        <time>2015-11-07T16:55:08Z</time>
      </trkpt>
      <trkpt lat="45.62943" lon="5.8756">
        <ele>242.51027765368</ele>
        <time>2015-11-07T16:55:18Z</time>
      </trkpt>
      <trkpt lat="45.62943" lon="5.87555">
        <ele>242.51027765368</ele>
        <time>2015-11-07T16:55:23Z</time>
      </trkpt>
      <trkpt lat="45.62943" lon="5.87543">
        <ele>241.97416930117</ele>
        <time>2015-11-07T16:55:33Z</time>
      </trkpt>
      <trkpt lat="45.62943" lon="5.87535">
        <ele>241.97416930117</ele>
        <time>2015-11-07T16:55:38Z</time>
      </trkpt>
      <trkpt lat="45.62951" lon="5.87514">
        <ele>241.4943345381</ele>
        <time>2015-11-07T16:55:48Z</time>
      </trkpt>
      <trkpt lat="45.62956" lon="5.87505">
        <ele>241.4943345381</ele>
        <time>2015-11-07T16:55:53Z</time>
      </trkpt>
      <trkpt lat="45.62966" lon="5.87483">
        <ele>241.52963621597</ele>
        <time>2015-11-07T16:56:03Z</time>
      </trkpt>
      <trkpt lat="45.62969" lon="5.87474">
        <ele>241.52963621597</ele>
        <time>2015-11-07T16:56:08Z</time>
      </trkpt>
      <trkpt lat="45.62972" lon="5.87446">
        <ele>241.5814681496</ele>
        <time>2015-11-07T16:56:23Z</time>
      </trkpt>
      <trkpt lat="45.6297" lon="5.87431">
        <ele>241.69218703792</ele>
        <time>2015-11-07T16:56:28Z</time>
      </trkpt>
      <trkpt lat="45.62966" lon="5.87405">
        <ele>241.48294175264</ele>
        <time>2015-11-07T16:56:38Z</time>
      </trkpt>
      <trkpt lat="45.62963" lon="5.87395">
        <ele>241.48294175264</ele>
        <time>2015-11-07T16:56:43Z</time>
      </trkpt>
      <trkpt lat="45.62957" lon="5.87377">
        <ele>241.68443361912</ele>
        <time>2015-11-07T16:56:53Z</time>
      </trkpt>
      <trkpt lat="45.62952" lon="5.87366">
        <ele>241.89169179005</ele>
        <time>2015-11-07T16:56:58Z</time>
      </trkpt>
      <trkpt lat="45.62941" lon="5.87349">
        <ele>242.00328003243</ele>
        <time>2015-11-07T16:57:08Z</time>
      </trkpt>
      <trkpt lat="45.62938" lon="5.87338">
        <ele>242.00328003243</ele>
        <time>2015-11-07T16:57:13Z</time>
      </trkpt>
      <trkpt lat="45.62933" lon="5.87315">
        <ele>242.32898448268</ele>
        <time>2015-11-07T16:57:23Z</time>
      </trkpt>
      <trkpt lat="45.62933" lon="5.87303">
        <ele>242.32898448268</ele>
        <time>2015-11-07T16:57:28Z</time>
      </trkpt>
      <trkpt lat="45.62931" lon="5.87298">
        <ele>242.66524849758</ele>
        <time>2015-11-07T16:57:38Z</time>
      </trkpt>
      <trkpt lat="45.62929" lon="5.87299">
        <ele>242.66524849758</ele>
        <time>2015-11-07T16:57:43Z</time>
      </trkpt>
      <trkpt lat="45.62926" lon="5.87302">
        <ele>242.66524849758</ele>
        <time>2015-11-07T16:57:53Z</time>
      </trkpt>
      <trkpt lat="45.62923" lon="5.87307">
        <ele>242.37668728822</ele>
        <time>2015-11-07T16:57:58Z</time>
      </trkpt>
      <trkpt lat="45.62921" lon="5.87314">
        <ele>242.37668728822</ele>
        <time>2015-11-07T16:58:08Z</time>
      </trkpt>
      <trkpt lat="45.62919" lon="5.8732">
        <ele>242.11569276042</ele>
        <time>2015-11-07T16:58:13Z</time>
      </trkpt>
      <trkpt lat="45.62904" lon="5.87339">
        <ele>242.18401413572</ele>
        <time>2015-11-07T16:58:28Z</time>
      </trkpt>
      <trkpt lat="45.62903" lon="5.87338">
        <ele>242.18401413572</ele>
        <time>2015-11-07T16:58:33Z</time>
      </trkpt>
      <trkpt lat="45.62902" lon="5.87337">
        <ele>242.18401413572</ele>
        <time>2015-11-07T16:58:43Z</time>
      </trkpt>
      <trkpt lat="45.629" lon="5.87339">
        <ele>242.18401413572</ele>
        <time>2015-11-07T16:58:48Z</time>
      </trkpt>
      <trkpt lat="45.62888" lon="5.87347">
        <ele>242.38473518779</ele>
        <time>2015-11-07T16:58:58Z</time>
      </trkpt>
      <trkpt lat="45.62885" lon="5.87355">
        <ele>242.38473518779</ele>
        <time>2015-11-07T16:59:03Z</time>
      </trkpt>
      <trkpt lat="45.62875" lon="5.87367">
        <ele>242.27562381216</ele>
        <time>2015-11-07T16:59:13Z</time>
      </trkpt>
      <trkpt lat="45.62868" lon="5.87371">
        <ele>242.27562381216</ele>
        <time>2015-11-07T16:59:18Z</time>
      </trkpt>
      <trkpt lat="45.62854" lon="5.87372">
        <ele>242.29804900588</ele>
        <time>2015-11-07T16:59:28Z</time>
      </trkpt>
      <trkpt lat="45.62846" lon="5.87374">
        <ele>242.29804900588</ele>
        <time>2015-11-07T16:59:33Z</time>
      </trkpt>
      <trkpt lat="45.62832" lon="5.87376">
        <ele>242.15443294641</ele>
        <time>2015-11-07T16:59:43Z</time>
      </trkpt>
      <trkpt lat="45.62826" lon="5.87376">
        <ele>242.15443294641</ele>
        <time>2015-11-07T16:59:48Z</time>
      </trkpt>
      <trkpt lat="45.62822" lon="5.8736">
        <ele>241.56951166484</ele>
        <time>2015-11-07T16:59:58Z</time>
      </trkpt>
      <trkpt lat="45.62815" lon="5.87354">
        <ele>241.56951166484</ele>
        <time>2015-11-07T17:00:03Z</time>
      </trkpt>
      <trkpt lat="45.62804" lon="5.87349">
        <ele>242.00439035221</ele>
        <time>2015-11-07T17:00:18Z</time>
      </trkpt>
      <trkpt lat="45.62803" lon="5.87349">
        <ele>242.00439035221</ele>
        <time>2015-11-07T17:00:23Z</time>
      </trkpt>
      <trkpt lat="45.62801" lon="5.87336">
        <ele>242.67712392126</ele>
        <time>2015-11-07T17:00:33Z</time>
      </trkpt>
      <trkpt lat="45.62801" lon="5.87328">
        <ele>242.67712392126</ele>
        <time>2015-11-07T17:00:38Z</time>
      </trkpt>
      <trkpt lat="45.628" lon="5.87312">
        <ele>243.53985335562</ele>
        <time>2015-11-07T17:00:48Z</time>
      </trkpt>
      <trkpt lat="45.62801" lon="5.87304">
        <ele>243.53985335562</ele>
        <time>2015-11-07T17:00:53Z</time>
      </trkpt>
      <trkpt lat="45.62802" lon="5.87287">
        <ele>244.04330617504</ele>
        <time>2015-11-07T17:01:03Z</time>
      </trkpt>
      <trkpt lat="45.62802" lon="5.87281">
        <ele>244.04330617504</ele>
        <time>2015-11-07T17:01:08Z</time>
      </trkpt>
      <trkpt lat="45.62801" lon="5.8726">
        <ele>244.50099833843</ele>
        <time>2015-11-07T17:01:18Z</time>
      </trkpt>
      <trkpt lat="45.62799" lon="5.87249">
        <ele>244.50099833843</ele>
        <time>2015-11-07T17:01:23Z</time>
      </trkpt>
      <trkpt lat="45.62787" lon="5.8724">
        <ele>243.79125400356</ele>
        <time>2015-11-07T17:01:38Z</time>
      </trkpt>
      <trkpt lat="45.62786" lon="5.87239">
        <ele>243.79125400356</ele>
        <time>2015-11-07T17:01:43Z</time>
      </trkpt>
      <trkpt lat="45.62785" lon="5.87239">
        <ele>243.79125400356</ele>
        <time>2015-11-07T17:01:53Z</time>
      </trkpt>
      <trkpt lat="45.62784" lon="5.87238">
        <ele>243.79125400356</ele>
        <time>2015-11-07T17:01:58Z</time>
      </trkpt>
      <trkpt lat="45.62771" lon="5.87232">
        <ele>243.05414848825</ele>
        <time>2015-11-07T17:02:08Z</time>
      </trkpt>
      <trkpt lat="45.62762" lon="5.87236">
        <ele>242.88492667717</ele>
        <time>2015-11-07T17:02:13Z</time>
      </trkpt>
      <trkpt lat="45.62718" lon="5.87251">
        <ele>242.26269573217</ele>
        <time>2015-11-07T17:02:23Z</time>
      </trkpt>
      <trkpt lat="45.627" lon="5.87248">
        <ele>241.62628329551</ele>
        <time>2015-11-07T17:02:28Z</time>
      </trkpt>
      <trkpt lat="45.62681" lon="5.87247">
        <ele>241.0508488936</ele>
        <time>2015-11-07T17:02:38Z</time>
      </trkpt>
      <trkpt lat="45.62675" lon="5.87247">
        <ele>241.0508488936</ele>
        <time>2015-11-07T17:02:43Z</time>
      </trkpt>
      <trkpt lat="45.62658" lon="5.87256">
        <ele>240.02939402497</ele>
        <time>2015-11-07T17:02:53Z</time>
      </trkpt>
      <trkpt lat="45.62655" lon="5.87256">
        <ele>240.02939402497</ele>
        <time>2015-11-07T17:02:58Z</time>
      </trkpt>
      <trkpt lat="45.62616" lon="5.87266">
        <ele>240.0821244517</ele>
        <time>2015-11-07T17:03:08Z</time>
      </trkpt>
      <trkpt lat="45.62595" lon="5.87271">
        <ele>240.42404226118</ele>
        <time>2015-11-07T17:03:13Z</time>
      </trkpt>
      <trkpt lat="45.62546" lon="5.8729">
        <ele>240.44226481996</ele>
        <time>2015-11-07T17:03:23Z</time>
      </trkpt>
      <trkpt lat="45.62523" lon="5.873">
        <ele>240.59300225361</ele>
        <time>2015-11-07T17:03:28Z</time>
      </trkpt>
      <trkpt lat="45.6251" lon="5.87303">
        <ele>240.18889931837</ele>
        <time>2015-11-07T17:03:38Z</time>
      </trkpt>
      <trkpt lat="45.62505" lon="5.87304">
        <ele>240.18889931837</ele>
        <time>2015-11-07T17:03:43Z</time>
      </trkpt>
      <trkpt lat="45.62493" lon="5.87303">
        <ele>240.25190555812</ele>
        <time>2015-11-07T17:03:53Z</time>
      </trkpt>
      <trkpt lat="45.62482" lon="5.87299">
        <ele>240.37292175139</ele>
        <time>2015-11-07T17:03:58Z</time>
      </trkpt>
      <trkpt lat="45.62458" lon="5.87303">
        <ele>240.04301699455</ele>
        <time>2015-11-07T17:04:13Z</time>
      </trkpt>
      <trkpt lat="45.62452" lon="5.87306">
        <ele>240.04301699455</ele>
        <time>2015-11-07T17:04:18Z</time>
      </trkpt>
      <trkpt lat="45.62419" lon="5.873">
        <ele>240.18976941221</ele>
        <time>2015-11-07T17:04:28Z</time>
      </trkpt>
      <trkpt lat="45.62396" lon="5.87304">
        <ele>240.21573911981</ele>
        <time>2015-11-07T17:04:33Z</time>
      </trkpt>
      <trkpt lat="45.62379" lon="5.873">
        <ele>240.28825109506</ele>
        <time>2015-11-07T17:04:43Z</time>
      </trkpt>
      <trkpt lat="45.62372" lon="5.87299">
        <ele>240.28825109506</ele>
        <time>2015-11-07T17:04:48Z</time>
      </trkpt>
      <trkpt lat="45.62357" lon="5.87299">
        <ele>240.38925886</ele>
        <time>2015-11-07T17:04:58Z</time>
      </trkpt>
      <trkpt lat="45.62349" lon="5.87299">
        <ele>240.38925886</ele>
        <time>2015-11-07T17:05:03Z</time>
      </trkpt>
      <trkpt lat="45.62339" lon="5.87302">
        <ele>241.40984969537</ele>
        <time>2015-11-07T17:05:13Z</time>
      </trkpt>
      <trkpt lat="45.62334" lon="5.87301">
        <ele>241.40984969537</ele>
        <time>2015-11-07T17:05:18Z</time>
      </trkpt>
      <trkpt lat="45.62317" lon="5.87307">
        <ele>241.2908393343</ele>
        <time>2015-11-07T17:05:28Z</time>
      </trkpt>
      <trkpt lat="45.62307" lon="5.87307">
        <ele>240.649444515</ele>
        <time>2015-11-07T17:05:33Z</time>
      </trkpt>
      <trkpt lat="45.6229" lon="5.87311">
        <ele>239.59784347624</ele>
        <time>2015-11-07T17:05:43Z</time>
      </trkpt>
      <trkpt lat="45.62284" lon="5.87314">
        <ele>239.59784347624</ele>
        <time>2015-11-07T17:05:48Z</time>
      </trkpt>
      <trkpt lat="45.62278" lon="5.87315">
        <ele>239.07695985781</ele>
        <time>2015-11-07T17:05:58Z</time>
      </trkpt>
      <trkpt lat="45.62277" lon="5.87314">
        <ele>239.07695985781</ele>
        <time>2015-11-07T17:06:03Z</time>
      </trkpt>
      <trkpt lat="45.62277" lon="5.87314">
        <ele>239.07695985781</ele>
        <time>2015-11-07T17:06:13Z</time>
      </trkpt>
      <trkpt lat="45.62277" lon="5.87314">
        <ele>239.07695985781</ele>
        <time>2015-11-07T17:06:18Z</time>
      </trkpt>
      <trkpt lat="45.62269" lon="5.87318">
        <ele>239.26536255422</ele>
        <time>2015-11-07T17:06:33Z</time>
      </trkpt>
      <trkpt lat="45.62268" lon="5.8732">
        <ele>239.26536255422</ele>
        <time>2015-11-07T17:06:38Z</time>
      </trkpt>
      <trkpt lat="45.62263" lon="5.87321">
        <ele>239.26536255422</ele>
        <time>2015-11-07T17:06:48Z</time>
      </trkpt>
      <trkpt lat="45.62256" lon="5.87327">
        <ele>239.36095325474</ele>
        <time>2015-11-07T17:06:53Z</time>
      </trkpt>
      <trkpt lat="45.62237" lon="5.87327">
        <ele>239.54311186438</ele>
        <time>2015-11-07T17:07:03Z</time>
      </trkpt>
      <trkpt lat="45.62233" lon="5.87332">
        <ele>239.54311186438</ele>
        <time>2015-11-07T17:07:08Z</time>
      </trkpt>
      <trkpt lat="45.62227" lon="5.87334">
        <ele>240.30924161396</ele>
        <time>2015-11-07T17:07:18Z</time>
      </trkpt>
      <trkpt lat="45.62219" lon="5.87337">
        <ele>240.64862604135</ele>
        <time>2015-11-07T17:07:23Z</time>
      </trkpt>
      <trkpt lat="45.62212" lon="5.87352">
        <ele>241.21121120241</ele>
        <time>2015-11-07T17:07:33Z</time>
      </trkpt>
      <trkpt lat="45.6221" lon="5.87361">
        <ele>241.21121120241</ele>
        <time>2015-11-07T17:07:38Z</time>
      </trkpt>
      <trkpt lat="45.62176" lon="5.87381">
        <ele>242.18065148775</ele>
        <time>2015-11-07T17:07:48Z</time>
      </trkpt>
      <trkpt lat="45.6217" lon="5.87381">
        <ele>242.18065148775</ele>
        <time>2015-11-07T17:07:53Z</time>
      </trkpt>
      <trkpt lat="45.62155" lon="5.87387">
        <ele>242.52985268096</ele>
        <time>2015-11-07T17:08:03Z</time>
      </trkpt>
      <trkpt lat="45.62148" lon="5.87389">
        <ele>242.52985268096</ele>
        <time>2015-11-07T17:08:08Z</time>
      </trkpt>
      <trkpt lat="45.62134" lon="5.87393">
        <ele>242.89414419734</ele>
        <time>2015-11-07T17:08:18Z</time>
      </trkpt>
      <trkpt lat="45.62128" lon="5.87395">
        <ele>242.89414419734</ele>
        <time>2015-11-07T17:08:23Z</time>
      </trkpt>
      <trkpt lat="45.62104" lon="5.87396">
        <ele>244.03509207378</ele>
        <time>2015-11-07T17:08:38Z</time>
      </trkpt>
      <trkpt lat="45.62096" lon="5.87396">
        <ele>244.03509207378</ele>
        <time>2015-11-07T17:08:43Z</time>
      </trkpt>
      <trkpt lat="45.62084" lon="5.87395">
        <ele>244.76830419397</ele>
        <time>2015-11-07T17:08:53Z</time>
      </trkpt>
      <trkpt lat="45.62077" lon="5.87394">
        <ele>244.76830419397</ele>
        <time>2015-11-07T17:08:58Z</time>
      </trkpt>
      <trkpt lat="45.62044" lon="5.87394">
        <ele>244.96310637659</ele>
        <time>2015-11-07T17:09:08Z</time>
      </trkpt>
      <trkpt lat="45.62034" lon="5.87397">
        <ele>245.6672631215</ele>
        <time>2015-11-07T17:09:13Z</time>
      </trkpt>
      <trkpt lat="45.62022" lon="5.87401">
        <ele>246.3370066089</ele>
        <time>2015-11-07T17:09:23Z</time>
      </trkpt>
      <trkpt lat="45.62016" lon="5.87402">
        <ele>246.3370066089</ele>
        <time>2015-11-07T17:09:28Z</time>
      </trkpt>
      <trkpt lat="45.62003" lon="5.87406">
        <ele>246.80010014533</ele>
        <time>2015-11-07T17:09:38Z</time>
      </trkpt>
      <trkpt lat="45.61997" lon="5.87408">
        <ele>246.80010014533</ele>
        <time>2015-11-07T17:09:43Z</time>
      </trkpt>
      <trkpt lat="45.61986" lon="5.87413">
        <ele>246.45082890171</ele>
        <time>2015-11-07T17:09:53Z</time>
      </trkpt>
      <trkpt lat="45.61979" lon="5.87415">
        <ele>246.45082890171</ele>
        <time>2015-11-07T17:09:58Z</time>
      </trkpt>
      <trkpt lat="45.61964" lon="5.87422">
        <ele>246.41638728331</ele>
        <time>2015-11-07T17:10:08Z</time>
      </trkpt>
      <trkpt lat="45.61957" lon="5.87426">
        <ele>246.41638728331</ele>
        <time>2015-11-07T17:10:13Z</time>
      </trkpt>
      <trkpt lat="45.61935" lon="5.87433">
        <ele>246.18391478081</ele>
        <time>2015-11-07T17:10:28Z</time>
      </trkpt>
      <trkpt lat="45.61926" lon="5.87437">
        <ele>246.21553206957</ele>
        <time>2015-11-07T17:10:33Z</time>
      </trkpt>
      <trkpt lat="45.61904" lon="5.87451">
        <ele>246.98193148308</ele>
        <time>2015-11-07T17:10:43Z</time>
      </trkpt>
      <trkpt lat="45.61889" lon="5.87456">
        <ele>247.73548127367</ele>
        <time>2015-11-07T17:10:48Z</time>
      </trkpt>
      <trkpt lat="45.61872" lon="5.87454">
        <ele>248.02852106423</ele>
        <time>2015-11-07T17:10:58Z</time>
      </trkpt>
      <trkpt lat="45.61864" lon="5.87454">
        <ele>248.02852106423</ele>
        <time>2015-11-07T17:11:03Z</time>
      </trkpt>
      <trkpt lat="45.61849" lon="5.87453">
        <ele>248.44196151284</ele>
        <time>2015-11-07T17:11:13Z</time>
      </trkpt>
      <trkpt lat="45.61841" lon="5.87454">
        <ele>248.44196151284</ele>
        <time>2015-11-07T17:11:18Z</time>
      </trkpt>
      <trkpt lat="45.61826" lon="5.87455">
        <ele>248.46171870409</ele>
        <time>2015-11-07T17:11:28Z</time>
      </trkpt>
      <trkpt lat="45.6182" lon="5.87454">
        <ele>248.46171870409</ele>
        <time>2015-11-07T17:11:33Z</time>
      </trkpt>
      <trkpt lat="45.61782" lon="5.87464">
        <ele>248.62138333118</ele>
        <time>2015-11-07T17:11:43Z</time>
      </trkpt>
      <trkpt lat="45.6176" lon="5.8747">
        <ele>248.49267074148</ele>
        <time>2015-11-07T17:11:48Z</time>
      </trkpt>
      <trkpt lat="45.61727" lon="5.87481">
        <ele>248.42896830548</ele>
        <time>2015-11-07T17:11:58Z</time>
      </trkpt>
      <trkpt lat="45.61711" lon="5.87493">
        <ele>247.9937519265</ele>
        <time>2015-11-07T17:12:03Z</time>
      </trkpt>
      <trkpt lat="45.61681" lon="5.87514">
        <ele>248.03738997097</ele>
        <time>2015-11-07T17:12:13Z</time>
      </trkpt>
      <trkpt lat="45.61665" lon="5.8752">
        <ele>247.74681810752</ele>
        <time>2015-11-07T17:12:18Z</time>
      </trkpt>
      <trkpt lat="45.61629" lon="5.87541">
        <ele>247.98369091004</ele>
        <time>2015-11-07T17:12:28Z</time>
      </trkpt>
      <trkpt lat="45.61599" lon="5.87561">
        <ele>247.77232519787</ele>
        <time>2015-11-07T17:12:33Z</time>
      </trkpt>
      <trkpt lat="45.61532" lon="5.87597">
        <ele>247.59343897733</ele>
        <time>2015-11-07T17:12:48Z</time>
      </trkpt>
      <trkpt lat="45.61511" lon="5.87611">
        <ele>247.46001335033</ele>
        <time>2015-11-07T17:12:53Z</time>
      </trkpt>
      <trkpt lat="45.61473" lon="5.8764">
        <ele>247.19660220686</ele>
        <time>2015-11-07T17:13:03Z</time>
      </trkpt>
      <trkpt lat="45.61453" lon="5.87657">
        <ele>246.46807348492</ele>
        <time>2015-11-07T17:13:08Z</time>
      </trkpt>
      <trkpt lat="45.61415" lon="5.87684">
        <ele>246.06045433545</ele>
        <time>2015-11-07T17:13:18Z</time>
      </trkpt>
      <trkpt lat="45.61394" lon="5.87691">
        <ele>245.93732873787</ele>
        <time>2015-11-07T17:13:23Z</time>
      </trkpt>
      <trkpt lat="45.61352" lon="5.87718">
        <ele>246.00649754923</ele>
        <time>2015-11-07T17:13:33Z</time>
      </trkpt>
      <trkpt lat="45.61323" lon="5.87734">
        <ele>246.19638885075</ele>
        <time>2015-11-07T17:13:38Z</time>
      </trkpt>
      <trkpt lat="45.61274" lon="5.87757">
        <ele>245.7630088446</ele>
        <time>2015-11-07T17:13:48Z</time>
      </trkpt>
      <trkpt lat="45.61246" lon="5.87764">
        <ele>245.56073635284</ele>
        <time>2015-11-07T17:13:53Z</time>
      </trkpt>
      <trkpt lat="45.612" lon="5.87775">
        <ele>245.16998621761</ele>
        <time>2015-11-07T17:14:03Z</time>
      </trkpt>
      <trkpt lat="45.61176" lon="5.87784">
        <ele>244.62042517169</ele>
        <time>2015-11-07T17:14:08Z</time>
      </trkpt>
      <trkpt lat="45.61135" lon="5.87798">
        <ele>244.05525057434</ele>
        <time>2015-11-07T17:14:18Z</time>
      </trkpt>
      <trkpt lat="45.61112" lon="5.87807">
        <ele>243.62156828786</ele>
        <time>2015-11-07T17:14:23Z</time>
      </trkpt>
      <trkpt lat="45.61045" lon="5.8784">
        <ele>243.10941199034</ele>
        <time>2015-11-07T17:14:38Z</time>
      </trkpt>
      <trkpt lat="45.61019" lon="5.87848">
        <ele>242.91528289883</ele>
        <time>2015-11-07T17:14:43Z</time>
      </trkpt>
      <trkpt lat="45.60966" lon="5.87877">
        <ele>242.20950594496</ele>
        <time>2015-11-07T17:14:53Z</time>
      </trkpt>
      <trkpt lat="45.60942" lon="5.87886">
        <ele>241.19029636322</ele>
        <time>2015-11-07T17:14:58Z</time>
      </trkpt>
      <trkpt lat="45.60897" lon="5.87918">
        <ele>239.69627976264</ele>
        <time>2015-11-07T17:15:08Z</time>
      </trkpt>
      <trkpt lat="45.60875" lon="5.87931">
        <ele>238.48712223626</ele>
        <time>2015-11-07T17:15:13Z</time>
      </trkpt>
      <trkpt lat="45.60823" lon="5.87972">
        <ele>237.9632011951</ele>
        <time>2015-11-07T17:15:23Z</time>
      </trkpt>
      <trkpt lat="45.60799" lon="5.87988">
        <ele>237.64324874586</ele>
        <time>2015-11-07T17:15:28Z</time>
      </trkpt>
      <trkpt lat="45.60752" lon="5.88022">
        <ele>237.06630919681</ele>
        <time>2015-11-07T17:15:38Z</time>
      </trkpt>
      <trkpt lat="45.60739" lon="5.88033">
        <ele>236.20946163881</ele>
        <time>2015-11-07T17:15:43Z</time>
      </trkpt>
      <trkpt lat="45.60732" lon="5.88045">
        <ele>235.28277282257</ele>
        <time>2015-11-07T17:15:53Z</time>
      </trkpt>
      <trkpt lat="45.60727" lon="5.88049">
        <ele>235.28277282257</ele>
        <time>2015-11-07T17:15:58Z</time>
      </trkpt>
      <trkpt lat="45.60718" lon="5.88059">
        <ele>234.04867987021</ele>
        <time>2015-11-07T17:16:08Z</time>
      </trkpt>
      <trkpt lat="45.60713" lon="5.88062">
        <ele>234.04867987021</ele>
        <time>2015-11-07T17:16:13Z</time>
      </trkpt>
      <trkpt lat="45.607" lon="5.8807">
        <ele>232.97960405147</ele>
        <time>2015-11-07T17:16:23Z</time>
      </trkpt>
      <trkpt lat="45.60694" lon="5.88075">
        <ele>232.97960405147</ele>
        <time>2015-11-07T17:16:28Z</time>
      </trkpt>
      <trkpt lat="45.6068" lon="5.88084">
        <ele>232.1956898895</ele>
        <time>2015-11-07T17:16:38Z</time>
      </trkpt>
      <trkpt lat="45.60671" lon="5.88087">
        <ele>232.2541347783</ele>
        <time>2015-11-07T17:16:43Z</time>
      </trkpt>
      <trkpt lat="45.60636" lon="5.88112">
        <ele>232.97704447664</ele>
        <time>2015-11-07T17:16:58Z</time>
      </trkpt>
      <trkpt lat="45.60629" lon="5.88115">
        <ele>232.97704447664</ele>
        <time>2015-11-07T17:17:03Z</time>
      </trkpt>
      <trkpt lat="45.60616" lon="5.88122">
        <ele>233.31859225514</ele>
        <time>2015-11-07T17:17:13Z</time>
      </trkpt>
      <trkpt lat="45.60608" lon="5.88124">
        <ele>233.31859225514</ele>
        <time>2015-11-07T17:17:18Z</time>
      </trkpt>
      <trkpt lat="45.60589" lon="5.88127">
        <ele>234.86156632974</ele>
        <time>2015-11-07T17:17:28Z</time>
      </trkpt>
      <trkpt lat="45.60582" lon="5.88128">
        <ele>234.86156632974</ele>
        <time>2015-11-07T17:17:33Z</time>
      </trkpt>
      <trkpt lat="45.60569" lon="5.8813">
        <ele>236.23008792138</ele>
        <time>2015-11-07T17:17:43Z</time>
      </trkpt>
      <trkpt lat="45.60561" lon="5.88133">
        <ele>236.23008792138</ele>
        <time>2015-11-07T17:17:48Z</time>
      </trkpt>
      <trkpt lat="45.60534" lon="5.8814">
        <ele>237.56210621682</ele>
        <time>2015-11-07T17:17:58Z</time>
      </trkpt>
      <trkpt lat="45.60526" lon="5.8814">
        <ele>237.56210621682</ele>
        <time>2015-11-07T17:18:03Z</time>
      </trkpt>
      <trkpt lat="45.60513" lon="5.88139">
        <ele>238.35144130341</ele>
        <time>2015-11-07T17:18:13Z</time>
      </trkpt>
      <trkpt lat="45.60506" lon="5.8814">
        <ele>238.35144130341</ele>
        <time>2015-11-07T17:18:18Z</time>
      </trkpt>
      <trkpt lat="45.60493" lon="5.88137">
        <ele>239.51409136377</ele>
        <time>2015-11-07T17:18:28Z</time>
      </trkpt>
      <trkpt lat="45.60487" lon="5.88136">
        <ele>239.51409136377</ele>
        <time>2015-11-07T17:18:33Z</time>
      </trkpt>
      <trkpt lat="45.60468" lon="5.88131">
        <ele>241.09071321512</ele>
        <time>2015-11-07T17:18:43Z</time>
      </trkpt>
      <trkpt lat="45.6046" lon="5.8813">
        <ele>241.09071321512</ele>
        <time>2015-11-07T17:18:48Z</time>
      </trkpt>
      <trkpt lat="45.60443" lon="5.88124">
        <ele>242.69992200932</ele>
        <time>2015-11-07T17:19:03Z</time>
      </trkpt>
      <trkpt lat="45.60438" lon="5.88121">
        <ele>242.69992200932</ele>
        <time>2015-11-07T17:19:08Z</time>
      </trkpt>
      <trkpt lat="45.60422" lon="5.88118">
        <ele>243.94506394048</ele>
        <time>2015-11-07T17:19:18Z</time>
      </trkpt>
      <trkpt lat="45.60414" lon="5.88115">
        <ele>243.94506394048</ele>
        <time>2015-11-07T17:19:23Z</time>
      </trkpt>
      <trkpt lat="45.60401" lon="5.88108">
        <ele>245.54052914198</ele>
        <time>2015-11-07T17:19:33Z</time>
      </trkpt>
      <trkpt lat="45.60396" lon="5.88107">
        <ele>245.54052914198</ele>
        <time>2015-11-07T17:19:38Z</time>
      </trkpt>
      <trkpt lat="45.60388" lon="5.88094">
        <ele>247.32587465102</ele>
        <time>2015-11-07T17:19:48Z</time>
      </trkpt>
      <trkpt lat="45.60385" lon="5.88088">
        <ele>247.32587465102</ele>
        <time>2015-11-07T17:19:53Z</time>
      </trkpt>
      <trkpt lat="45.60384" lon="5.88084">
        <ele>247.32587465102</ele>
        <time>2015-11-07T17:20:03Z</time>
      </trkpt>
      <trkpt lat="45.60385" lon="5.88085">
        <ele>248.97904957734</ele>
        <time>2015-11-07T17:20:08Z</time>
      </trkpt>
      <trkpt lat="45.60385" lon="5.88085">
        <ele>248.97904957734</ele>
        <time>2015-11-07T17:20:18Z</time>
      </trkpt>
      <trkpt lat="45.60385" lon="5.88085">
        <ele>248.97904957734</ele>
        <time>2015-11-07T17:20:23Z</time>
      </trkpt>
      <trkpt lat="45.60385" lon="5.88085">
        <ele>248.97904957734</ele>
        <time>2015-11-07T17:20:33Z</time>
      </trkpt>
      <trkpt lat="45.60385" lon="5.88085">
        <ele>248.97904957734</ele>
        <time>2015-11-07T17:20:38Z</time>
      </trkpt>
      <trkpt lat="45.60385" lon="5.88085">
        <ele>248.97904957734</ele>
        <time>2015-11-07T17:20:53Z</time>
      </trkpt>
      <trkpt lat="45.60385" lon="5.88085">
        <ele>248.97904957734</ele>
        <time>2015-11-07T17:20:58Z</time>
      </trkpt>
      <trkpt lat="45.60385" lon="5.88085">
        <ele>248.97904957734</ele>
        <time>2015-11-07T17:21:08Z</time>
      </trkpt>
      <trkpt lat="45.60385" lon="5.88085">
        <ele>248.97904957734</ele>
        <time>2015-11-07T17:21:13Z</time>
      </trkpt>
      <trkpt lat="45.60385" lon="5.88085">
        <ele>248.97904957734</ele>
        <time>2015-11-07T17:21:23Z</time>
      </trkpt>
      <trkpt lat="45.60385" lon="5.88085">
        <ele>248.97904957734</ele>
        <time>2015-11-07T17:21:28Z</time>
      </trkpt>
      <trkpt lat="45.60385" lon="5.88085">
        <ele>248.97904957734</ele>
        <time>2015-11-07T17:21:38Z</time>
      </trkpt>
      <trkpt lat="45.60385" lon="5.88085">
        <ele>248.97904957734</ele>
        <time>2015-11-07T17:21:43Z</time>
      </trkpt>
      <trkpt lat="45.60385" lon="5.88085">
        <ele>248.97904957734</ele>
        <time>2015-11-07T17:21:53Z</time>
      </trkpt>
      <trkpt lat="45.60385" lon="5.88085">
        <ele>248.97904957734</ele>
        <time>2015-11-07T17:21:58Z</time>
      </trkpt>
      <trkpt lat="45.60385" lon="5.88085">
        <ele>248.97904957734</ele>
        <time>2015-11-07T17:22:08Z</time>
      </trkpt>
      <trkpt lat="45.60385" lon="5.88085">
        <ele>248.97904957734</ele>
        <time>2015-11-07T17:22:13Z</time>
      </trkpt>
      <trkpt lat="45.60385" lon="5.88085">
        <ele>248.97904957734</ele>
        <time>2015-11-07T17:22:28Z</time>
      </trkpt>
      <trkpt lat="45.60383" lon="5.88084">
        <ele>248.97904957734</ele>
        <time>2015-11-07T17:22:33Z</time>
      </trkpt>
      <trkpt lat="45.60374" lon="5.88068">
        <ele>250.30299035111</ele>
        <time>2015-11-07T17:22:43Z</time>
      </trkpt>
      <trkpt lat="45.60371" lon="5.88057">
        <ele>250.30299035111</ele>
        <time>2015-11-07T17:22:48Z</time>
      </trkpt>
      <trkpt lat="45.60367" lon="5.88041">
        <ele>251.8655008862</ele>
        <time>2015-11-07T17:22:58Z</time>
      </trkpt>
      <trkpt lat="45.60363" lon="5.88034">
        <ele>251.8655008862</ele>
        <time>2015-11-07T17:23:03Z</time>
      </trkpt>
      <trkpt lat="45.60359" lon="5.88016">
        <ele>253.02480108987</ele>
        <time>2015-11-07T17:23:13Z</time>
      </trkpt>
      <trkpt lat="45.60359" lon="5.88008">
        <ele>253.02480108987</ele>
        <time>2015-11-07T17:23:18Z</time>
      </trkpt>
      <trkpt lat="45.60353" lon="5.8799">
        <ele>253.74952073509</ele>
        <time>2015-11-07T17:23:28Z</time>
      </trkpt>
      <trkpt lat="45.60349" lon="5.87978">
        <ele>254.81893885207</ele>
        <time>2015-11-07T17:23:33Z</time>
      </trkpt>
      <trkpt lat="45.60344" lon="5.87954">
        <ele>255.72928140034</ele>
        <time>2015-11-07T17:23:43Z</time>
      </trkpt>
      <trkpt lat="45.60342" lon="5.87945">
        <ele>255.72928140034</ele>
        <time>2015-11-07T17:23:48Z</time>
      </trkpt>
      <trkpt lat="45.60339" lon="5.87926">
        <ele>257.08075487446</ele>
        <time>2015-11-07T17:23:58Z</time>
      </trkpt>
      <trkpt lat="45.60337" lon="5.87917">
        <ele>257.08075487446</ele>
        <time>2015-11-07T17:24:03Z</time>
      </trkpt>
      <trkpt lat="45.60333" lon="5.87899">
        <ele>257.84311880406</ele>
        <time>2015-11-07T17:24:13Z</time>
      </trkpt>
      <trkpt lat="45.60329" lon="5.87886">
        <ele>258.259691944</ele>
        <time>2015-11-07T17:24:18Z</time>
      </trkpt>
      <trkpt lat="45.60318" lon="5.8784">
        <ele>259.01814606085</ele>
        <time>2015-11-07T17:24:33Z</time>
      </trkpt>
      <trkpt lat="45.60316" lon="5.87828">
        <ele>259.01814606085</ele>
        <time>2015-11-07T17:24:38Z</time>
      </trkpt>
      <trkpt lat="45.60314" lon="5.87809">
        <ele>259.5154199099</ele>
        <time>2015-11-07T17:24:48Z</time>
      </trkpt>
      <trkpt lat="45.60313" lon="5.87799">
        <ele>259.5154199099</ele>
        <time>2015-11-07T17:24:53Z</time>
      </trkpt>
      <trkpt lat="45.60312" lon="5.87774">
        <ele>259.58267850978</ele>
        <time>2015-11-07T17:25:03Z</time>
      </trkpt>
      <trkpt lat="45.60312" lon="5.87762">
        <ele>259.58267850978</ele>
        <time>2015-11-07T17:25:08Z</time>
      </trkpt>
      <trkpt lat="45.60309" lon="5.8774">
        <ele>259.85739444515</ele>
        <time>2015-11-07T17:25:18Z</time>
      </trkpt>
      <trkpt lat="45.60308" lon="5.8773">
        <ele>259.85739444515</ele>
        <time>2015-11-07T17:25:23Z</time>
      </trkpt>
      <trkpt lat="45.60305" lon="5.87694">
        <ele>260.38208918437</ele>
        <time>2015-11-07T17:25:33Z</time>
      </trkpt>
      <trkpt lat="45.60304" lon="5.87675">
        <ele>260.76320131611</ele>
        <time>2015-11-07T17:25:38Z</time>
      </trkpt>
      <trkpt lat="45.603" lon="5.87659">
        <ele>261.04006380417</ele>
        <time>2015-11-07T17:25:48Z</time>
      </trkpt>
      <trkpt lat="45.60298" lon="5.87652">
        <ele>261.04006380417</ele>
        <time>2015-11-07T17:25:53Z</time>
      </trkpt>
      <trkpt lat="45.60288" lon="5.87639">
        <ele>262.20061207994</ele>
        <time>2015-11-07T17:26:08Z</time>
      </trkpt>
      <trkpt lat="45.6024" lon="5.87658">
        <ele>263.84638162637</ele>
        <time>2015-11-07T17:26:23Z</time>
      </trkpt>
      <trkpt lat="45.60238" lon="5.87656">
        <ele>263.84638162637</ele>
        <time>2015-11-07T17:26:28Z</time>
      </trkpt>
      <trkpt lat="45.60227" lon="5.87625">
        <ele>264.12253427636</ele>
        <time>2015-11-07T17:26:43Z</time>
      </trkpt>
      <trkpt lat="45.60222" lon="5.87617">
        <ele>264.12253427636</ele>
        <time>2015-11-07T17:26:48Z</time>
      </trkpt>
      <trkpt lat="45.60213" lon="5.87618">
        <ele>263.66340021142</ele>
        <time>2015-11-07T17:26:58Z</time>
      </trkpt>
      <trkpt lat="45.60209" lon="5.87624">
        <ele>263.66340021142</ele>
        <time>2015-11-07T17:27:03Z</time>
      </trkpt>
      <trkpt lat="45.60198" lon="5.87631">
        <ele>263.20294042902</ele>
        <time>2015-11-07T17:27:13Z</time>
      </trkpt>
      <trkpt lat="45.60191" lon="5.87636">
        <ele>263.20294042902</ele>
        <time>2015-11-07T17:27:18Z</time>
      </trkpt>
      <trkpt lat="45.60179" lon="5.87639">
        <ele>263.26272862306</ele>
        <time>2015-11-07T17:27:28Z</time>
      </trkpt>
      <trkpt lat="45.60171" lon="5.8764">
        <ele>263.26272862306</ele>
        <time>2015-11-07T17:27:33Z</time>
      </trkpt>
      <trkpt lat="45.60154" lon="5.87642">
        <ele>264.10843763955</ele>
        <time>2015-11-07T17:27:43Z</time>
      </trkpt>
      <trkpt lat="45.60146" lon="5.87643">
        <ele>264.10843763955</ele>
        <time>2015-11-07T17:27:48Z</time>
      </trkpt>
      <trkpt lat="45.60128" lon="5.87639">
        <ele>265.55172063892</ele>
        <time>2015-11-07T17:27:58Z</time>
      </trkpt>
      <trkpt lat="45.60115" lon="5.87635">
        <ele>266.83997866393</ele>
        <time>2015-11-07T17:28:03Z</time>
      </trkpt>
      <trkpt lat="45.60102" lon="5.87629">
        <ele>267.03137697399</ele>
        <time>2015-11-07T17:28:13Z</time>
      </trkpt>
      <trkpt lat="45.60101" lon="5.87621">
        <ele>267.03137697399</ele>
        <time>2015-11-07T17:28:18Z</time>
      </trkpt>
      <trkpt lat="45.60103" lon="5.87591">
        <ele>266.98571103551</ele>
        <time>2015-11-07T17:28:33Z</time>
      </trkpt>
      <trkpt lat="45.60102" lon="5.8758">
        <ele>266.98571103551</ele>
        <time>2015-11-07T17:28:38Z</time>
      </trkpt>
      <trkpt lat="45.60103" lon="5.87561">
        <ele>266.66446618817</ele>
        <time>2015-11-07T17:28:48Z</time>
      </trkpt>
      <trkpt lat="45.60103" lon="5.87551">
        <ele>266.66446618817</ele>
        <time>2015-11-07T17:28:53Z</time>
      </trkpt>
      <trkpt lat="45.60106" lon="5.87495">
        <ele>266.03275323221</ele>
        <time>2015-11-07T17:29:03Z</time>
      </trkpt>
      <trkpt lat="45.60108" lon="5.87471">
        <ele>265.49146456213</ele>
        <time>2015-11-07T17:29:08Z</time>
      </trkpt>
      <trkpt lat="45.60109" lon="5.87431">
        <ele>265.02269409462</ele>
        <time>2015-11-07T17:29:18Z</time>
      </trkpt>
      <trkpt lat="45.6011" lon="5.87423">
        <ele>265.02269409462</ele>
        <time>2015-11-07T17:29:23Z</time>
      </trkpt>
      <trkpt lat="45.6011" lon="5.87391">
        <ele>264.91227687449</ele>
        <time>2015-11-07T17:29:33Z</time>
      </trkpt>
      <trkpt lat="45.60109" lon="5.87381">
        <ele>264.91227687449</ele>
        <time>2015-11-07T17:29:38Z</time>
      </trkpt>
      <trkpt lat="45.60109" lon="5.8736">
        <ele>264.76112185784</ele>
        <time>2015-11-07T17:29:48Z</time>
      </trkpt>
      <trkpt lat="45.60108" lon="5.87349">
        <ele>264.76112185784</ele>
        <time>2015-11-07T17:29:53Z</time>
      </trkpt>
      <trkpt lat="45.60104" lon="5.87323">
        <ele>264.64629547804</ele>
        <time>2015-11-07T17:30:08Z</time>
      </trkpt>
      <trkpt lat="45.60105" lon="5.87315">
        <ele>264.64629547804</ele>
        <time>2015-11-07T17:30:13Z</time>
      </trkpt>
      <trkpt lat="45.60112" lon="5.87295">
        <ele>264.92730066647</ele>
        <time>2015-11-07T17:30:23Z</time>
      </trkpt>
      <trkpt lat="45.60113" lon="5.87287">
        <ele>264.92730066647</ele>
        <time>2015-11-07T17:30:28Z</time>
      </trkpt>
      <trkpt lat="45.60106" lon="5.8727">
        <ele>265.38847341976</ele>
        <time>2015-11-07T17:30:38Z</time>
      </trkpt>
      <trkpt lat="45.60099" lon="5.87265">
        <ele>265.38847341976</ele>
        <time>2015-11-07T17:30:43Z</time>
      </trkpt>
      <trkpt lat="45.60083" lon="5.87268">
        <ele>265.12331448658</ele>
        <time>2015-11-07T17:30:53Z</time>
      </trkpt>
      <trkpt lat="45.60076" lon="5.87276">
        <ele>264.96561320029</ele>
        <time>2015-11-07T17:30:58Z</time>
      </trkpt>
      <trkpt lat="45.60064" lon="5.87283">
        <ele>264.98143193833</ele>
        <time>2015-11-07T17:31:08Z</time>
      </trkpt>
      <trkpt lat="45.60058" lon="5.87288">
        <ele>264.98143193833</ele>
        <time>2015-11-07T17:31:13Z</time>
      </trkpt>
      <trkpt lat="45.60045" lon="5.87299">
        <ele>265.10176019858</ele>
        <time>2015-11-07T17:31:23Z</time>
      </trkpt>
      <trkpt lat="45.60039" lon="5.87302">
        <ele>265.10176019858</ele>
        <time>2015-11-07T17:31:28Z</time>
      </trkpt>
      <trkpt lat="45.60029" lon="5.8731">
        <ele>264.2823709963</ele>
        <time>2015-11-07T17:31:38Z</time>
      </trkpt>
      <trkpt lat="45.60022" lon="5.87314">
        <ele>264.2823709963</ele>
        <time>2015-11-07T17:31:43Z</time>
      </trkpt>
      <trkpt lat="45.60001" lon="5.87327">
        <ele>264.67114443733</ele>
        <time>2015-11-07T17:31:58Z</time>
      </trkpt>
      <trkpt lat="45.59994" lon="5.87329">
        <ele>264.67114443733</ele>
        <time>2015-11-07T17:32:03Z</time>
      </trkpt>
      <trkpt lat="45.59981" lon="5.87336">
        <ele>265.12753720978</ele>
        <time>2015-11-07T17:32:13Z</time>
      </trkpt>
      <trkpt lat="45.59975" lon="5.8734">
        <ele>265.12753720978</ele>
        <time>2015-11-07T17:32:18Z</time>
      </trkpt>
      <trkpt lat="45.59948" lon="5.87352">
        <ele>264.96924788338</ele>
        <time>2015-11-07T17:32:28Z</time>
      </trkpt>
      <trkpt lat="45.59942" lon="5.87356">
        <ele>264.96924788338</ele>
        <time>2015-11-07T17:32:33Z</time>
      </trkpt>
      <trkpt lat="45.59929" lon="5.87365">
        <ele>264.93483545956</ele>
        <time>2015-11-07T17:32:43Z</time>
      </trkpt>
      <trkpt lat="45.59925" lon="5.87369">
        <ele>264.93483545956</ele>
        <time>2015-11-07T17:32:48Z</time>
      </trkpt>
      <trkpt lat="45.59913" lon="5.87379">
        <ele>265.04530518291</ele>
        <time>2015-11-07T17:32:58Z</time>
      </trkpt>
      <trkpt lat="45.59906" lon="5.87383">
        <ele>265.04530518291</ele>
        <time>2015-11-07T17:33:03Z</time>
      </trkpt>
      <trkpt lat="45.59893" lon="5.87387">
        <ele>264.9738050349</ele>
        <time>2015-11-07T17:33:13Z</time>
      </trkpt>
      <trkpt lat="45.59888" lon="5.8739">
        <ele>264.9738050349</ele>
        <time>2015-11-07T17:33:18Z</time>
      </trkpt>
      <trkpt lat="45.59873" lon="5.87399">
        <ele>264.72059535668</ele>
        <time>2015-11-07T17:33:28Z</time>
      </trkpt>
      <trkpt lat="45.59866" lon="5.87404">
        <ele>264.72059535668</ele>
        <time>2015-11-07T17:33:33Z</time>
      </trkpt>
      <trkpt lat="45.59853" lon="5.87412">
        <ele>264.7331293698</ele>
        <time>2015-11-07T17:33:43Z</time>
      </trkpt>
      <trkpt lat="45.59846" lon="5.87416">
        <ele>264.7331293698</ele>
        <time>2015-11-07T17:33:48Z</time>
      </trkpt>
      <trkpt lat="45.59824" lon="5.87428">
        <ele>264.35877903498</ele>
        <time>2015-11-07T17:34:03Z</time>
      </trkpt>
      <trkpt lat="45.59818" lon="5.8743">
        <ele>264.35877903498</ele>
        <time>2015-11-07T17:34:08Z</time>
      </trkpt>
      <trkpt lat="45.59803" lon="5.87433">
        <ele>264.08914337616</ele>
        <time>2015-11-07T17:34:18Z</time>
      </trkpt>
      <trkpt lat="45.59798" lon="5.8744">
        <ele>264.08914337616</ele>
        <time>2015-11-07T17:34:23Z</time>
      </trkpt>
      <trkpt lat="45.59786" lon="5.87452">
        <ele>264.39378095492</ele>
        <time>2015-11-07T17:34:33Z</time>
      </trkpt>
      <trkpt lat="45.59777" lon="5.87462">
        <ele>265.41787979861</ele>
        <time>2015-11-07T17:34:38Z</time>
      </trkpt>
      <trkpt lat="45.59764" lon="5.87468">
        <ele>265.66544636786</ele>
        <time>2015-11-07T17:34:48Z</time>
      </trkpt>
      <trkpt lat="45.59759" lon="5.87469">
        <ele>265.66544636786</ele>
        <time>2015-11-07T17:34:53Z</time>
      </trkpt>
      <trkpt lat="45.59747" lon="5.8747">
        <ele>265.49626680282</ele>
        <time>2015-11-07T17:35:03Z</time>
      </trkpt>
      <trkpt lat="45.5974" lon="5.8747">
        <ele>265.49626680282</ele>
        <time>2015-11-07T17:35:08Z</time>
      </trkpt>
      <trkpt lat="45.59726" lon="5.87474">
        <ele>264.91337457381</ele>
        <time>2015-11-07T17:35:23Z</time>
      </trkpt>
      <trkpt lat="45.59719" lon="5.87476">
        <ele>264.91337457381</ele>
        <time>2015-11-07T17:35:28Z</time>
      </trkpt>
      <trkpt lat="45.59702" lon="5.87487">
        <ele>265.46269614167</ele>
        <time>2015-11-07T17:35:38Z</time>
      </trkpt>
      <trkpt lat="45.59692" lon="5.87496">
        <ele>266.38289648292</ele>
        <time>2015-11-07T17:35:43Z</time>
      </trkpt>
      <trkpt lat="45.59677" lon="5.87502">
        <ele>266.56398505924</ele>
        <time>2015-11-07T17:35:53Z</time>
      </trkpt>
      <trkpt lat="45.59672" lon="5.87504">
        <ele>266.56398505924</ele>
        <time>2015-11-07T17:35:58Z</time>
      </trkpt>
      <trkpt lat="45.59658" lon="5.87502">
        <ele>266.13244432721</ele>
        <time>2015-11-07T17:36:08Z</time>
      </trkpt>
      <trkpt lat="45.59651" lon="5.875">
        <ele>266.13244432721</ele>
        <time>2015-11-07T17:36:13Z</time>
      </trkpt>
      <trkpt lat="45.59635" lon="5.87496">
        <ele>265.71154600666</ele>
        <time>2015-11-07T17:36:23Z</time>
      </trkpt>
      <trkpt lat="45.5963" lon="5.87495">
        <ele>265.71154600666</ele>
        <time>2015-11-07T17:36:28Z</time>
      </trkpt>
      <trkpt lat="45.59611" lon="5.87482">
        <ele>265.34550810675</ele>
        <time>2015-11-07T17:36:43Z</time>
      </trkpt>
      <trkpt lat="45.59604" lon="5.87483">
        <ele>265.34550810675</ele>
        <time>2015-11-07T17:36:48Z</time>
      </trkpt>
      <trkpt lat="45.59583" lon="5.87493">
        <ele>265.01747244873</ele>
        <time>2015-11-07T17:36:58Z</time>
      </trkpt>
      <trkpt lat="45.59571" lon="5.875">
        <ele>264.74050275268</ele>
        <time>2015-11-07T17:37:03Z</time>
      </trkpt>
      <trkpt lat="45.59555" lon="5.8751">
        <ele>264.78592640583</ele>
        <time>2015-11-07T17:37:13Z</time>
      </trkpt>
      <trkpt lat="45.59548" lon="5.87514">
        <ele>264.78592640583</ele>
        <time>2015-11-07T17:37:18Z</time>
      </trkpt>
      <trkpt lat="45.59539" lon="5.87517">
        <ele>265.02951211506</ele>
        <time>2015-11-07T17:37:28Z</time>
      </trkpt>
      <trkpt lat="45.59533" lon="5.87517">
        <ele>265.02951211506</ele>
        <time>2015-11-07T17:37:33Z</time>
      </trkpt>
      <trkpt lat="45.59522" lon="5.87516">
        <ele>264.82235388622</ele>
        <time>2015-11-07T17:37:43Z</time>
      </trkpt>
      <trkpt lat="45.59515" lon="5.87514">
        <ele>264.82235388622</ele>
        <time>2015-11-07T17:37:48Z</time>
      </trkpt>
      <trkpt lat="45.595" lon="5.87508">
        <ele>264.7893910724</ele>
        <time>2015-11-07T17:37:58Z</time>
      </trkpt>
      <trkpt lat="45.59492" lon="5.87504">
        <ele>264.7893910724</ele>
        <time>2015-11-07T17:38:03Z</time>
      </trkpt>
      <trkpt lat="45.5948" lon="5.87497">
        <ele>265.09121388668</ele>
        <time>2015-11-07T17:38:13Z</time>
      </trkpt>
      <trkpt lat="45.59471" lon="5.87493">
        <ele>265.15509185797</ele>
        <time>2015-11-07T17:38:18Z</time>
      </trkpt>
      <trkpt lat="45.59457" lon="5.87483">
        <ele>265.38773018748</ele>
        <time>2015-11-07T17:38:28Z</time>
      </trkpt>
      <trkpt lat="45.59452" lon="5.87478">
        <ele>265.38773018748</ele>
        <time>2015-11-07T17:38:33Z</time>
      </trkpt>
      <trkpt lat="45.59431" lon="5.87463">
        <ele>265.83400468817</ele>
        <time>2015-11-07T17:38:48Z</time>
      </trkpt>
      <trkpt lat="45.59425" lon="5.8746">
        <ele>265.83400468817</ele>
        <time>2015-11-07T17:38:53Z</time>
      </trkpt>
      <trkpt lat="45.59414" lon="5.87451">
        <ele>266.30429689443</ele>
        <time>2015-11-07T17:39:03Z</time>
      </trkpt>
      <trkpt lat="45.59407" lon="5.87446">
        <ele>266.30429689443</ele>
        <time>2015-11-07T17:39:08Z</time>
      </trkpt>
      <trkpt lat="45.59396" lon="5.87441">
        <ele>266.52195511626</ele>
        <time>2015-11-07T17:39:18Z</time>
      </trkpt>
      <trkpt lat="45.5939" lon="5.87439">
        <ele>266.52195511626</ele>
        <time>2015-11-07T17:39:23Z</time>
      </trkpt>
      <trkpt lat="45.59381" lon="5.87433">
        <ele>267.78774760199</ele>
        <time>2015-11-07T17:39:33Z</time>
      </trkpt>
      <trkpt lat="45.59377" lon="5.87427">
        <ele>267.78774760199</ele>
        <time>2015-11-07T17:39:38Z</time>
      </trkpt>
      <trkpt lat="45.59366" lon="5.87417">
        <ele>268.21996225662</ele>
        <time>2015-11-07T17:39:48Z</time>
      </trkpt>
      <trkpt lat="45.59359" lon="5.87413">
        <ele>268.21996225662</ele>
        <time>2015-11-07T17:39:53Z</time>
      </trkpt>
      <trkpt lat="45.59346" lon="5.87407">
        <ele>268.33999716344</ele>
        <time>2015-11-07T17:40:03Z</time>
      </trkpt>
      <trkpt lat="45.59339" lon="5.87398">
        <ele>268.38683606409</ele>
        <time>2015-11-07T17:40:08Z</time>
      </trkpt>
      <trkpt lat="45.59324" lon="5.87397">
        <ele>267.87596949388</ele>
        <time>2015-11-07T17:40:18Z</time>
      </trkpt>
      <trkpt lat="45.59316" lon="5.87392">
        <ele>267.87596949388</ele>
        <time>2015-11-07T17:40:23Z</time>
      </trkpt>
      <trkpt lat="45.59298" lon="5.874">
        <ele>266.83561054289</ele>
        <time>2015-11-07T17:40:38Z</time>
      </trkpt>
      <trkpt lat="45.59293" lon="5.87402">
        <ele>266.83561054289</ele>
        <time>2015-11-07T17:40:43Z</time>
      </trkpt>
      <trkpt lat="45.59279" lon="5.87382">
        <ele>266.70567095173</ele>
        <time>2015-11-07T17:40:53Z</time>
      </trkpt>
      <trkpt lat="45.59279" lon="5.87381">
        <ele>266.70567095173</ele>
        <time>2015-11-07T17:40:58Z</time>
      </trkpt>
      <trkpt lat="45.59271" lon="5.8737">
        <ele>266.95869248827</ele>
        <time>2015-11-07T17:41:08Z</time>
      </trkpt>
      <trkpt lat="45.59267" lon="5.87361">
        <ele>266.95869248827</ele>
        <time>2015-11-07T17:41:13Z</time>
      </trkpt>
      <trkpt lat="45.59263" lon="5.8735">
        <ele>267.96954845627</ele>
        <time>2015-11-07T17:41:23Z</time>
      </trkpt>
      <trkpt lat="45.5926" lon="5.87339">
        <ele>267.96954845627</ele>
        <time>2015-11-07T17:41:28Z</time>
      </trkpt>
      <trkpt lat="45.59252" lon="5.87316">
        <ele>269.13230883547</ele>
        <time>2015-11-07T17:41:38Z</time>
      </trkpt>
      <trkpt lat="45.59248" lon="5.87305">
        <ele>269.13230883547</ele>
        <time>2015-11-07T17:41:43Z</time>
      </trkpt>
      <trkpt lat="45.59244" lon="5.87287">
        <ele>270.86508577621</ele>
        <time>2015-11-07T17:41:53Z</time>
      </trkpt>
      <trkpt lat="45.59241" lon="5.87275">
        <ele>270.86508577621</ele>
        <time>2015-11-07T17:41:58Z</time>
      </trkpt>
      <trkpt lat="45.59237" lon="5.87252">
        <ele>271.8243532605</ele>
        <time>2015-11-07T17:42:08Z</time>
      </trkpt>
      <trkpt lat="45.59231" lon="5.8723">
        <ele>272.71296849691</ele>
        <time>2015-11-07T17:42:13Z</time>
      </trkpt>
      <trkpt lat="45.59193" lon="5.87178">
        <ele>273.30330239978</ele>
        <time>2015-11-07T17:42:28Z</time>
      </trkpt>
      <trkpt lat="45.59183" lon="5.87169">
        <ele>274.32203781255</ele>
        <time>2015-11-07T17:42:33Z</time>
      </trkpt>
      <trkpt lat="45.59171" lon="5.87156">
        <ele>275.50458707645</ele>
        <time>2015-11-07T17:42:43Z</time>
      </trkpt>
      <trkpt lat="45.59164" lon="5.8715">
        <ele>275.50458707645</ele>
        <time>2015-11-07T17:42:48Z</time>
      </trkpt>
      <trkpt lat="45.59153" lon="5.87136">
        <ele>276.43244561225</ele>
        <time>2015-11-07T17:42:58Z</time>
      </trkpt>
      <trkpt lat="45.59147" lon="5.87129">
        <ele>276.43244561225</ele>
        <time>2015-11-07T17:43:03Z</time>
      </trkpt>
      <trkpt lat="45.59135" lon="5.87116">
        <ele>277.55445512212</ele>
        <time>2015-11-07T17:43:13Z</time>
      </trkpt>
      <trkpt lat="45.59132" lon="5.87109">
        <ele>277.55445512212</ele>
        <time>2015-11-07T17:43:18Z</time>
      </trkpt>
      <trkpt lat="45.59121" lon="5.87097">
        <ele>278.27721062326</ele>
        <time>2015-11-07T17:43:28Z</time>
      </trkpt>
      <trkpt lat="45.59115" lon="5.87094">
        <ele>278.27721062326</ele>
        <time>2015-11-07T17:43:33Z</time>
      </trkpt>
      <trkpt lat="45.59097" lon="5.87093">
        <ele>278.71497997576</ele>
        <time>2015-11-07T17:43:43Z</time>
      </trkpt>
      <trkpt lat="45.59091" lon="5.87096">
        <ele>278.71497997576</ele>
        <time>2015-11-07T17:43:48Z</time>
      </trkpt>
      <trkpt lat="45.59081" lon="5.87114">
        <ele>278.72949799832</ele>
        <time>2015-11-07T17:43:58Z</time>
      </trkpt>
      <trkpt lat="45.59076" lon="5.87122">
        <ele>278.72949799832</ele>
        <time>2015-11-07T17:44:03Z</time>
      </trkpt>
      <trkpt lat="45.59068" lon="5.87133">
        <ele>279.40442759427</ele>
        <time>2015-11-07T17:44:13Z</time>
      </trkpt>
      <trkpt lat="45.59063" lon="5.87139">
        <ele>279.40442759427</ele>
        <time>2015-11-07T17:44:18Z</time>
      </trkpt>
      <trkpt lat="45.59056" lon="5.87144">
        <ele>279.76769864602</ele>
        <time>2015-11-07T17:44:28Z</time>
      </trkpt>
      <trkpt lat="45.59052" lon="5.87145">
        <ele>279.76769864602</ele>
        <time>2015-11-07T17:44:33Z</time>
      </trkpt>
      <trkpt lat="45.59029" lon="5.87153">
        <ele>279.76982365437</ele>
        <time>2015-11-07T17:44:48Z</time>
      </trkpt>
      <trkpt lat="45.59021" lon="5.87153">
        <ele>279.76982365437</ele>
        <time>2015-11-07T17:44:53Z</time>
      </trkpt>
      <trkpt lat="45.59004" lon="5.87159">
        <ele>279.7983384621</ele>
        <time>2015-11-07T17:45:03Z</time>
      </trkpt>
      <trkpt lat="45.58996" lon="5.87161">
        <ele>279.7983384621</ele>
        <time>2015-11-07T17:45:08Z</time>
      </trkpt>
      <trkpt lat="45.58976" lon="5.87167">
        <ele>280.05375258983</ele>
        <time>2015-11-07T17:45:18Z</time>
      </trkpt>
      <trkpt lat="45.5896" lon="5.87173">
        <ele>280.44743299515</ele>
        <time>2015-11-07T17:45:23Z</time>
      </trkpt>
      <trkpt lat="45.58948" lon="5.87179">
        <ele>280.53662245418</ele>
        <time>2015-11-07T17:45:33Z</time>
      </trkpt>
      <trkpt lat="45.58942" lon="5.87182">
        <ele>280.53662245418</ele>
        <time>2015-11-07T17:45:38Z</time>
      </trkpt>
      <trkpt lat="45.5893" lon="5.8719">
        <ele>280.96398215828</ele>
        <time>2015-11-07T17:45:48Z</time>
      </trkpt>
      <trkpt lat="45.58926" lon="5.87199">
        <ele>280.96398215828</ele>
        <time>2015-11-07T17:45:53Z</time>
      </trkpt>
      <trkpt lat="45.58918" lon="5.87216">
        <ele>281.61789669839</ele>
        <time>2015-11-07T17:46:03Z</time>
      </trkpt>
      <trkpt lat="45.58916" lon="5.87227">
        <ele>281.61789669839</ele>
        <time>2015-11-07T17:46:08Z</time>
      </trkpt>
      <trkpt lat="45.58915" lon="5.8725">
        <ele>281.37114866415</ele>
        <time>2015-11-07T17:46:18Z</time>
      </trkpt>
      <trkpt lat="45.58915" lon="5.87259">
        <ele>281.37114866415</ele>
        <time>2015-11-07T17:46:23Z</time>
      </trkpt>
      <trkpt lat="45.58915" lon="5.87276">
        <ele>281.18501793492</ele>
        <time>2015-11-07T17:46:33Z</time>
      </trkpt>
      <trkpt lat="45.58916" lon="5.87286">
        <ele>281.18501793492</ele>
        <time>2015-11-07T17:46:38Z</time>
      </trkpt>
      <trkpt lat="45.58914" lon="5.87304">
        <ele>281.41680580847</ele>
        <time>2015-11-07T17:46:48Z</time>
      </trkpt>
      <trkpt lat="45.58912" lon="5.87314">
        <ele>281.41680580847</ele>
        <time>2015-11-07T17:46:53Z</time>
      </trkpt>
      <trkpt lat="45.58905" lon="5.87342">
        <ele>282.48287652338</ele>
        <time>2015-11-07T17:47:08Z</time>
      </trkpt>
      <trkpt lat="45.58899" lon="5.87348">
        <ele>282.48287652338</ele>
        <time>2015-11-07T17:47:13Z</time>
      </trkpt>
      <trkpt lat="45.58887" lon="5.87355">
        <ele>283.61379350315</ele>
        <time>2015-11-07T17:47:23Z</time>
      </trkpt>
      <trkpt lat="45.58879" lon="5.87358">
        <ele>283.61379350315</ele>
        <time>2015-11-07T17:47:28Z</time>
      </trkpt>
      <trkpt lat="45.58867" lon="5.87354">
        <ele>284.90350000186</ele>
        <time>2015-11-07T17:47:38Z</time>
      </trkpt>
      <trkpt lat="45.58859" lon="5.87351">
        <ele>284.90350000186</ele>
        <time>2015-11-07T17:47:43Z</time>
      </trkpt>
      <trkpt lat="45.58845" lon="5.87345">
        <ele>286.36655879974</ele>
        <time>2015-11-07T17:47:53Z</time>
      </trkpt>
      <trkpt lat="45.58837" lon="5.87341">
        <ele>286.36655879974</ele>
        <time>2015-11-07T17:47:58Z</time>
      </trkpt>
      <trkpt lat="45.58824" lon="5.87334">
        <ele>287.97277119631</ele>
        <time>2015-11-07T17:48:08Z</time>
      </trkpt>
      <trkpt lat="45.58818" lon="5.8733">
        <ele>287.97277119631</ele>
        <time>2015-11-07T17:48:13Z</time>
      </trkpt>
      <trkpt lat="45.58802" lon="5.87325">
        <ele>289.7802570313</ele>
        <time>2015-11-07T17:48:23Z</time>
      </trkpt>
      <trkpt lat="45.58796" lon="5.87328">
        <ele>289.7802570313</ele>
        <time>2015-11-07T17:48:28Z</time>
      </trkpt>
      <trkpt lat="45.58785" lon="5.87331">
        <ele>291.69823371987</ele>
        <time>2015-11-07T17:48:38Z</time>
      </trkpt>
      <trkpt lat="45.58785" lon="5.87331">
        <ele>291.69823371987</ele>
        <time>2015-11-07T17:48:43Z</time>
      </trkpt>
      <trkpt lat="45.58771" lon="5.87339">
        <ele>293.29646115386</ele>
        <time>2015-11-07T17:48:53Z</time>
      </trkpt>
      <trkpt lat="45.58765" lon="5.87343">
        <ele>293.29646115386</ele>
        <time>2015-11-07T17:48:58Z</time>
      </trkpt>
      <trkpt lat="45.58751" lon="5.87353">
        <ele>295.11398200708</ele>
        <time>2015-11-07T17:49:08Z</time>
      </trkpt>
      <trkpt lat="45.58745" lon="5.87359">
        <ele>295.11398200708</ele>
        <time>2015-11-07T17:49:13Z</time>
      </trkpt>
      <trkpt lat="45.58734" lon="5.87369">
        <ele>296.43915637715</ele>
        <time>2015-11-07T17:49:23Z</time>
      </trkpt>
      <trkpt lat="45.58726" lon="5.87374">
        <ele>296.43915637715</ele>
        <time>2015-11-07T17:49:28Z</time>
      </trkpt>
      <trkpt lat="45.58707" lon="5.87376">
        <ele>297.13287023333</ele>
        <time>2015-11-07T17:49:43Z</time>
      </trkpt>
      <trkpt lat="45.58701" lon="5.87377">
        <ele>297.13287023333</ele>
        <time>2015-11-07T17:49:48Z</time>
      </trkpt>
      <trkpt lat="45.58687" lon="5.87375">
        <ele>298.73976051783</ele>
        <time>2015-11-07T17:49:58Z</time>
      </trkpt>
      <trkpt lat="45.5868" lon="5.87375">
        <ele>298.73976051783</ele>
        <time>2015-11-07T17:50:03Z</time>
      </trkpt>
      <trkpt lat="45.58666" lon="5.87373">
        <ele>300.69977334383</ele>
        <time>2015-11-07T17:50:13Z</time>
      </trkpt>
      <trkpt lat="45.58659" lon="5.87375">
        <ele>300.69977334383</ele>
        <time>2015-11-07T17:50:18Z</time>
      </trkpt>
      <trkpt lat="45.58657" lon="5.87408">
        <ele>301.97427954049</ele>
        <time>2015-11-07T17:50:28Z</time>
      </trkpt>
      <trkpt lat="45.58659" lon="5.8743">
        <ele>302.97200160693</ele>
        <time>2015-11-07T17:50:33Z</time>
      </trkpt>
      <trkpt lat="45.58657" lon="5.87473">
        <ele>304.01484605123</ele>
        <time>2015-11-07T17:50:43Z</time>
      </trkpt>
      <trkpt lat="45.58655" lon="5.87484">
        <ele>304.01484605123</ele>
        <time>2015-11-07T17:50:48Z</time>
      </trkpt>
      <trkpt lat="45.58643" lon="5.87505">
        <ele>305.94864561593</ele>
        <time>2015-11-07T17:50:58Z</time>
      </trkpt>
      <trkpt lat="45.58636" lon="5.87504">
        <ele>305.94864561593</ele>
        <time>2015-11-07T17:51:03Z</time>
      </trkpt>
      <trkpt lat="45.58614" lon="5.875">
        <ele>308.20003272667</ele>
        <time>2015-11-07T17:51:18Z</time>
      </trkpt>
      <trkpt lat="45.58608" lon="5.87498">
        <ele>308.20003272667</ele>
        <time>2015-11-07T17:51:23Z</time>
      </trkpt>
      <trkpt lat="45.58594" lon="5.87489">
        <ele>310.95750588807</ele>
        <time>2015-11-07T17:51:33Z</time>
      </trkpt>
      <trkpt lat="45.58586" lon="5.87484">
        <ele>313.44325081727</ele>
        <time>2015-11-07T17:51:38Z</time>
      </trkpt>
      <trkpt lat="45.58574" lon="5.8747">
        <ele>315.98946004539</ele>
        <time>2015-11-07T17:51:48Z</time>
      </trkpt>
      <trkpt lat="45.58571" lon="5.87463">
        <ele>315.98946004539</ele>
        <time>2015-11-07T17:51:53Z</time>
      </trkpt>
      <trkpt lat="45.5856" lon="5.87449">
        <ele>318.29858945656</ele>
        <time>2015-11-07T17:52:03Z</time>
      </trkpt>
      <trkpt lat="45.58557" lon="5.87455">
        <ele>318.29858945656</ele>
        <time>2015-11-07T17:52:08Z</time>
      </trkpt>
      <trkpt lat="45.58564" lon="5.87474">
        <ele>320.21101459887</ele>
        <time>2015-11-07T17:52:18Z</time>
      </trkpt>
      <trkpt lat="45.58568" lon="5.87486">
        <ele>322.67530753747</ele>
        <time>2015-11-07T17:52:23Z</time>
      </trkpt>
      <trkpt lat="45.58573" lon="5.87508">
        <ele>324.49372504338</ele>
        <time>2015-11-07T17:52:33Z</time>
      </trkpt>
      <trkpt lat="45.58575" lon="5.87517">
        <ele>324.49372504338</ele>
        <time>2015-11-07T17:52:38Z</time>
      </trkpt>
      <trkpt lat="45.5857" lon="5.87541">
        <ele>326.38864939196</ele>
        <time>2015-11-07T17:52:53Z</time>
      </trkpt>
      <trkpt lat="45.58567" lon="5.87547">
        <ele>326.38864939196</ele>
        <time>2015-11-07T17:52:58Z</time>
      </trkpt>
      <trkpt lat="45.58549" lon="5.87551">
        <ele>328.46726553414</ele>
        <time>2015-11-07T17:53:08Z</time>
      </trkpt>
      <trkpt lat="45.58538" lon="5.87545">
        <ele>330.71319716204</ele>
        <time>2015-11-07T17:53:13Z</time>
      </trkpt>
      <trkpt lat="45.58533" lon="5.87533">
        <ele>331.9724380065</ele>
        <time>2015-11-07T17:53:23Z</time>
      </trkpt>
      <trkpt lat="45.58527" lon="5.87527">
        <ele>331.9724380065</ele>
        <time>2015-11-07T17:53:28Z</time>
      </trkpt>
      <trkpt lat="45.58507" lon="5.87517">
        <ele>333.64293587688</ele>
        <time>2015-11-07T17:53:38Z</time>
      </trkpt>
      <trkpt lat="45.58499" lon="5.87514">
        <ele>333.64293587688</ele>
        <time>2015-11-07T17:53:43Z</time>
      </trkpt>
      <trkpt lat="45.58484" lon="5.87508">
        <ele>335.67866864133</ele>
        <time>2015-11-07T17:53:53Z</time>
      </trkpt>
      <trkpt lat="45.58482" lon="5.87502">
        <ele>335.67866864133</ele>
        <time>2015-11-07T17:53:58Z</time>
      </trkpt>
      <trkpt lat="45.58469" lon="5.87498">
        <ele>337.53168789795</ele>
        <time>2015-11-07T17:54:08Z</time>
      </trkpt>
      <trkpt lat="45.58463" lon="5.87497">
        <ele>337.53168789795</ele>
        <time>2015-11-07T17:54:13Z</time>
      </trkpt>
      <trkpt lat="45.5844" lon="5.87492">
        <ele>339.99191451534</ele>
        <time>2015-11-07T17:54:28Z</time>
      </trkpt>
      <trkpt lat="45.58434" lon="5.87486">
        <ele>339.99191451534</ele>
        <time>2015-11-07T17:54:33Z</time>
      </trkpt>
      <trkpt lat="45.58421" lon="5.87479">
        <ele>341.71444018933</ele>
        <time>2015-11-07T17:54:43Z</time>
      </trkpt>
      <trkpt lat="45.58415" lon="5.87474">
        <ele>341.71444018933</ele>
        <time>2015-11-07T17:54:48Z</time>
      </trkpt>
      <trkpt lat="45.58398" lon="5.87462">
        <ele>344.33754744385</ele>
        <time>2015-11-07T17:54:58Z</time>
      </trkpt>
      <trkpt lat="45.5839" lon="5.87456">
        <ele>344.33754744385</ele>
        <time>2015-11-07T17:55:03Z</time>
      </trkpt>
      <trkpt lat="45.58378" lon="5.87448">
        <ele>346.5233452119</ele>
        <time>2015-11-07T17:55:13Z</time>
      </trkpt>
      <trkpt lat="45.58374" lon="5.87443">
        <ele>346.5233452119</ele>
        <time>2015-11-07T17:55:18Z</time>
      </trkpt>
      <trkpt lat="45.58363" lon="5.87434">
        <ele>348.28731717372</ele>
        <time>2015-11-07T17:55:28Z</time>
      </trkpt>
      <trkpt lat="45.58356" lon="5.87431">
        <ele>348.28731717372</ele>
        <time>2015-11-07T17:55:33Z</time>
      </trkpt>
      <trkpt lat="45.58346" lon="5.87424">
        <ele>350.59622576069</ele>
        <time>2015-11-07T17:55:43Z</time>
      </trkpt>
      <trkpt lat="45.58345" lon="5.87425">
        <ele>350.59622576069</ele>
        <time>2015-11-07T17:55:48Z</time>
      </trkpt>
      <trkpt lat="45.58335" lon="5.87418">
        <ele>352.64387279958</ele>
        <time>2015-11-07T17:55:58Z</time>
      </trkpt>
      <trkpt lat="45.58326" lon="5.87411">
        <ele>354.57760027048</ele>
        <time>2015-11-07T17:56:03Z</time>
      </trkpt>
      <trkpt lat="45.58309" lon="5.87401">
        <ele>355.61202542755</ele>
        <time>2015-11-07T17:56:13Z</time>
      </trkpt>
      <trkpt lat="45.58302" lon="5.87396">
        <ele>355.61202542755</ele>
        <time>2015-11-07T17:56:18Z</time>
      </trkpt>
      <trkpt lat="45.58282" lon="5.87378">
        <ele>355.12294256343</ele>
        <time>2015-11-07T17:56:33Z</time>
      </trkpt>
      <trkpt lat="45.58273" lon="5.8737">
        <ele>354.40978881609</ele>
        <time>2015-11-07T17:56:38Z</time>
      </trkpt>
      <trkpt lat="45.58261" lon="5.87363">
        <ele>353.42345912221</ele>
        <time>2015-11-07T17:56:48Z</time>
      </trkpt>
      <trkpt lat="45.58254" lon="5.87358">
        <ele>353.42345912221</ele>
        <time>2015-11-07T17:56:53Z</time>
      </trkpt>
      <trkpt lat="45.5824" lon="5.87349">
        <ele>351.77338463734</ele>
        <time>2015-11-07T17:57:03Z</time>
      </trkpt>
      <trkpt lat="45.58234" lon="5.87347">
        <ele>351.77338463734</ele>
        <time>2015-11-07T17:57:08Z</time>
      </trkpt>
      <trkpt lat="45.58223" lon="5.87346">
        <ele>351.63591296596</ele>
        <time>2015-11-07T17:57:18Z</time>
      </trkpt>
      <trkpt lat="45.58218" lon="5.87342">
        <ele>351.63591296596</ele>
        <time>2015-11-07T17:57:23Z</time>
      </trkpt>
      <trkpt lat="45.58207" lon="5.87334">
        <ele>351.89604955756</ele>
        <time>2015-11-07T17:57:33Z</time>
      </trkpt>
      <trkpt lat="45.58202" lon="5.87337">
        <ele>351.89604955756</ele>
        <time>2015-11-07T17:57:38Z</time>
      </trkpt>
      <trkpt lat="45.58188" lon="5.87331">
        <ele>353.22007483208</ele>
        <time>2015-11-07T17:57:48Z</time>
      </trkpt>
      <trkpt lat="45.58181" lon="5.87327">
        <ele>353.22007483208</ele>
        <time>2015-11-07T17:57:53Z</time>
      </trkpt>
      <trkpt lat="45.58164" lon="5.8732">
        <ele>354.52179076546</ele>
        <time>2015-11-07T17:58:08Z</time>
      </trkpt>
      <trkpt lat="45.58157" lon="5.87319">
        <ele>354.52179076546</ele>
        <time>2015-11-07T17:58:13Z</time>
      </trkpt>
      <trkpt lat="45.58144" lon="5.87317">
        <ele>355.08303331629</ele>
        <time>2015-11-07T17:58:23Z</time>
      </trkpt>
      <trkpt lat="45.58139" lon="5.87316">
        <ele>355.08303331629</ele>
        <time>2015-11-07T17:58:28Z</time>
      </trkpt>
      <trkpt lat="45.58128" lon="5.87312">
        <ele>354.68716945034</ele>
        <time>2015-11-07T17:58:38Z</time>
      </trkpt>
      <trkpt lat="45.58121" lon="5.87313">
        <ele>354.68716945034</ele>
        <time>2015-11-07T17:58:43Z</time>
      </trkpt>
      <trkpt lat="45.58106" lon="5.87315">
        <ele>354.96632576606</ele>
        <time>2015-11-07T17:58:53Z</time>
      </trkpt>
      <trkpt lat="45.58099" lon="5.87313">
        <ele>354.96632576606</ele>
        <time>2015-11-07T17:58:58Z</time>
      </trkpt>
      <trkpt lat="45.58089" lon="5.87311">
        <ele>355.9464392699</ele>
        <time>2015-11-07T17:59:08Z</time>
      </trkpt>
      <trkpt lat="45.58083" lon="5.87309">
        <ele>355.9464392699</ele>
        <time>2015-11-07T17:59:13Z</time>
      </trkpt>
      <trkpt lat="45.5807" lon="5.87308">
        <ele>357.15953677601</ele>
        <time>2015-11-07T17:59:23Z</time>
      </trkpt>
      <trkpt lat="45.58064" lon="5.8731">
        <ele>357.15953677601</ele>
        <time>2015-11-07T17:59:28Z</time>
      </trkpt>
      <trkpt lat="45.58049" lon="5.87302">
        <ele>357.46515943874</ele>
        <time>2015-11-07T17:59:38Z</time>
      </trkpt>
      <trkpt lat="45.5804" lon="5.87299">
        <ele>357.3655052803</ele>
        <time>2015-11-07T17:59:43Z</time>
      </trkpt>
      <trkpt lat="45.58027" lon="5.87294">
        <ele>357.58634871646</ele>
        <time>2015-11-07T17:59:53Z</time>
      </trkpt>
      <trkpt lat="45.58024" lon="5.87291">
        <ele>357.58634871646</ele>
        <time>2015-11-07T17:59:58Z</time>
      </trkpt>
      <trkpt lat="45.58013" lon="5.87283">
        <ele>357.38688644708</ele>
        <time>2015-11-07T18:00:08Z</time>
      </trkpt>
      <trkpt lat="45.58004" lon="5.87284">
        <ele>356.96091058585</ele>
        <time>2015-11-07T18:00:13Z</time>
      </trkpt>
      <trkpt lat="45.57983" lon="5.87281">
        <ele>356.57499197593</ele>
        <time>2015-11-07T18:00:28Z</time>
      </trkpt>
      <trkpt lat="45.57977" lon="5.87279">
        <ele>356.57499197593</ele>
        <time>2015-11-07T18:00:33Z</time>
      </trkpt>
      <trkpt lat="45.57968" lon="5.87276">
        <ele>356.82178047064</ele>
        <time>2015-11-07T18:00:43Z</time>
      </trkpt>
      <trkpt lat="45.57962" lon="5.87273">
        <ele>356.82178047064</ele>
        <time>2015-11-07T18:00:48Z</time>
      </trkpt>
      <trkpt lat="45.57953" lon="5.87266">
        <ele>358.11881868131</ele>
        <time>2015-11-07T18:00:58Z</time>
      </trkpt>
      <trkpt lat="45.57947" lon="5.87261">
        <ele>358.11881868131</ele>
        <time>2015-11-07T18:01:03Z</time>
      </trkpt>
      <trkpt lat="45.57935" lon="5.87254">
        <ele>360.3023128324</ele>
        <time>2015-11-07T18:01:13Z</time>
      </trkpt>
      <trkpt lat="45.57929" lon="5.87249">
        <ele>360.3023128324</ele>
        <time>2015-11-07T18:01:18Z</time>
      </trkpt>
      <trkpt lat="45.57917" lon="5.87241">
        <ele>362.91529275879</ele>
        <time>2015-11-07T18:01:28Z</time>
      </trkpt>
      <trkpt lat="45.57908" lon="5.87238">
        <ele>365.37455329609</ele>
        <time>2015-11-07T18:01:33Z</time>
      </trkpt>
      <trkpt lat="45.57887" lon="5.87224">
        <ele>368.62444709631</ele>
        <time>2015-11-07T18:01:48Z</time>
      </trkpt>
      <trkpt lat="45.57881" lon="5.87221">
        <ele>368.62444709631</ele>
        <time>2015-11-07T18:01:53Z</time>
      </trkpt>
      <trkpt lat="45.57866" lon="5.87211">
        <ele>372.2839285395</ele>
        <time>2015-11-07T18:02:03Z</time>
      </trkpt>
      <trkpt lat="45.57859" lon="5.87209">
        <ele>372.2839285395</ele>
        <time>2015-11-07T18:02:08Z</time>
      </trkpt>
      <trkpt lat="45.57847" lon="5.87202">
        <ele>375.98436167053</ele>
        <time>2015-11-07T18:02:18Z</time>
      </trkpt>
      <trkpt lat="45.57841" lon="5.87199">
        <ele>375.98436167053</ele>
        <time>2015-11-07T18:02:23Z</time>
      </trkpt>
      <trkpt lat="45.5783" lon="5.87187">
        <ele>379.93169749185</ele>
        <time>2015-11-07T18:02:33Z</time>
      </trkpt>
      <trkpt lat="45.57824" lon="5.87183">
        <ele>379.93169749185</ele>
        <time>2015-11-07T18:02:38Z</time>
      </trkpt>
      <trkpt lat="45.57813" lon="5.87177">
        <ele>383.4802414046</ele>
        <time>2015-11-07T18:02:48Z</time>
      </trkpt>
      <trkpt lat="45.57808" lon="5.87175">
        <ele>383.4802414046</ele>
        <time>2015-11-07T18:02:53Z</time>
      </trkpt>
      <trkpt lat="45.57793" lon="5.87169">
        <ele>386.47963452832</ele>
        <time>2015-11-07T18:03:03Z</time>
      </trkpt>
      <trkpt lat="45.57786" lon="5.87165">
        <ele>386.47963452832</ele>
        <time>2015-11-07T18:03:08Z</time>
      </trkpt>
      <trkpt lat="45.57764" lon="5.87156">
        <ele>389.29654917554</ele>
        <time>2015-11-07T18:03:23Z</time>
      </trkpt>
      <trkpt lat="45.57757" lon="5.87154">
        <ele>389.29654917554</ele>
        <time>2015-11-07T18:03:28Z</time>
      </trkpt>
      <trkpt lat="45.57741" lon="5.87146">
        <ele>392.28571478556</ele>
        <time>2015-11-07T18:03:38Z</time>
      </trkpt>
      <trkpt lat="45.57731" lon="5.87143">
        <ele>394.76662027765</ele>
        <time>2015-11-07T18:03:43Z</time>
      </trkpt>
      <trkpt lat="45.57715" lon="5.87138">
        <ele>396.90286727092</ele>
        <time>2015-11-07T18:03:53Z</time>
      </trkpt>
      <trkpt lat="45.57708" lon="5.87136">
        <ele>396.90286727092</ele>
        <time>2015-11-07T18:03:58Z</time>
      </trkpt>
      <trkpt lat="45.57695" lon="5.87132">
        <ele>398.90474020936</ele>
        <time>2015-11-07T18:04:08Z</time>
      </trkpt>
      <trkpt lat="45.57686" lon="5.87126">
        <ele>401.01077802305</ele>
        <time>2015-11-07T18:04:13Z</time>
      </trkpt>
      <trkpt lat="45.57663" lon="5.87115">
        <ele>402.73565070802</ele>
        <time>2015-11-07T18:04:23Z</time>
      </trkpt>
      <trkpt lat="45.57653" lon="5.87108">
        <ele>404.62520597261</ele>
        <time>2015-11-07T18:04:28Z</time>
      </trkpt>
      <trkpt lat="45.57629" lon="5.87104">
        <ele>405.57077222477</ele>
        <time>2015-11-07T18:04:43Z</time>
      </trkpt>
      <trkpt lat="45.57621" lon="5.871">
        <ele>405.57077222477</ele>
        <time>2015-11-07T18:04:48Z</time>
      </trkpt>
      <trkpt lat="45.57604" lon="5.871">
        <ele>406.3780599458</ele>
        <time>2015-11-07T18:04:58Z</time>
      </trkpt>
      <trkpt lat="45.57591" lon="5.87095">
        <ele>407.20319668904</ele>
        <time>2015-11-07T18:05:03Z</time>
      </trkpt>
      <trkpt lat="45.57573" lon="5.87089">
        <ele>408.01792012999</ele>
        <time>2015-11-07T18:05:13Z</time>
      </trkpt>
      <trkpt lat="45.57559" lon="5.87082">
        <ele>408.7528920915</ele>
        <time>2015-11-07T18:05:18Z</time>
      </trkpt>
      <trkpt lat="45.57535" lon="5.87067">
        <ele>409.25766659538</ele>
        <time>2015-11-07T18:05:28Z</time>
      </trkpt>
      <trkpt lat="45.57526" lon="5.87061">
        <ele>409.63851519305</ele>
        <time>2015-11-07T18:05:33Z</time>
      </trkpt>
      <trkpt lat="45.5751" lon="5.87052">
        <ele>409.93662629682</ele>
        <time>2015-11-07T18:05:43Z</time>
      </trkpt>
      <trkpt lat="45.57503" lon="5.87053">
        <ele>409.93662629682</ele>
        <time>2015-11-07T18:05:48Z</time>
      </trkpt>
      <trkpt lat="45.57481" lon="5.87044">
        <ele>410.43539345202</ele>
        <time>2015-11-07T18:06:03Z</time>
      </trkpt>
      <trkpt lat="45.57474" lon="5.8704">
        <ele>410.43539345202</ele>
        <time>2015-11-07T18:06:08Z</time>
      </trkpt>
      <trkpt lat="45.57462" lon="5.87031">
        <ele>410.80597281615</ele>
        <time>2015-11-07T18:06:18Z</time>
      </trkpt>
      <trkpt lat="45.57461" lon="5.87029">
        <ele>410.80597281615</ele>
        <time>2015-11-07T18:06:23Z</time>
      </trkpt>
      <trkpt lat="45.57455" lon="5.87019">
        <ele>411.17635974872</ele>
        <time>2015-11-07T18:06:33Z</time>
      </trkpt>
      <trkpt lat="45.57451" lon="5.8701">
        <ele>411.17635974872</ele>
        <time>2015-11-07T18:06:38Z</time>
      </trkpt>
      <trkpt lat="45.5744" lon="5.86996">
        <ele>410.84369324357</ele>
        <time>2015-11-07T18:06:48Z</time>
      </trkpt>
      <trkpt lat="45.57434" lon="5.86991">
        <ele>410.84369324357</ele>
        <time>2015-11-07T18:06:53Z</time>
      </trkpt>
      <trkpt lat="45.57419" lon="5.86983">
        <ele>411.08977586858</ele>
        <time>2015-11-07T18:07:03Z</time>
      </trkpt>
      <trkpt lat="45.57412" lon="5.86979">
        <ele>411.08977586858</ele>
        <time>2015-11-07T18:07:08Z</time>
      </trkpt>
      <trkpt lat="45.57391" lon="5.86971">
        <ele>410.88127398783</ele>
        <time>2015-11-07T18:07:23Z</time>
      </trkpt>
      <trkpt lat="45.57384" lon="5.86969">
        <ele>410.88127398783</ele>
        <time>2015-11-07T18:07:28Z</time>
      </trkpt>
      <trkpt lat="45.57371" lon="5.86965">
        <ele>410.67427645506</ele>
        <time>2015-11-07T18:07:38Z</time>
      </trkpt>
      <trkpt lat="45.57364" lon="5.86963">
        <ele>410.67427645506</ele>
        <time>2015-11-07T18:07:43Z</time>
      </trkpt>
      <trkpt lat="45.5735" lon="5.86961">
        <ele>410.83365991938</ele>
        <time>2015-11-07T18:07:53Z</time>
      </trkpt>
      <trkpt lat="45.57343" lon="5.86961">
        <ele>410.83365991938</ele>
        <time>2015-11-07T18:07:58Z</time>
      </trkpt>
      <trkpt lat="45.57329" lon="5.86965">
        <ele>410.39940059634</ele>
        <time>2015-11-07T18:08:08Z</time>
      </trkpt>
      <trkpt lat="45.57322" lon="5.86967">
        <ele>410.39940059634</ele>
        <time>2015-11-07T18:08:13Z</time>
      </trkpt>
      <trkpt lat="45.57309" lon="5.86968">
        <ele>409.1609066394</ele>
        <time>2015-11-07T18:08:23Z</time>
      </trkpt>
      <trkpt lat="45.57306" lon="5.86967">
        <ele>409.1609066394</ele>
        <time>2015-11-07T18:08:28Z</time>
      </trkpt>
      <trkpt lat="45.57284" lon="5.86963">
        <ele>408.07811248151</ele>
        <time>2015-11-07T18:08:38Z</time>
      </trkpt>
      <trkpt lat="45.57263" lon="5.86965">
        <ele>407.2040545133</ele>
        <time>2015-11-07T18:08:43Z</time>
      </trkpt>
      <trkpt lat="45.57238" lon="5.8696">
        <ele>406.70246503635</ele>
        <time>2015-11-07T18:08:53Z</time>
      </trkpt>
      <trkpt lat="45.57229" lon="5.86956">
        <ele>406.20508233912</ele>
        <time>2015-11-07T18:08:58Z</time>
      </trkpt>
      <trkpt lat="45.57213" lon="5.86947">
        <ele>405.73083460062</ele>
        <time>2015-11-07T18:09:08Z</time>
      </trkpt>
      <trkpt lat="45.57207" lon="5.86946">
        <ele>405.73083460062</ele>
        <time>2015-11-07T18:09:13Z</time>
      </trkpt>
      <trkpt lat="45.57193" lon="5.86947">
        <ele>404.87913784032</ele>
        <time>2015-11-07T18:09:23Z</time>
      </trkpt>
      <trkpt lat="45.57185" lon="5.86947">
        <ele>404.87913784032</ele>
        <time>2015-11-07T18:09:28Z</time>
      </trkpt>
      <trkpt lat="45.57162" lon="5.86944">
        <ele>403.92825425363</ele>
        <time>2015-11-07T18:09:43Z</time>
      </trkpt>
      <trkpt lat="45.57149" lon="5.86938">
        <ele>403.30907247995</ele>
        <time>2015-11-07T18:09:48Z</time>
      </trkpt>
      <trkpt lat="45.57131" lon="5.86932">
        <ele>402.98741627787</ele>
        <time>2015-11-07T18:09:58Z</time>
      </trkpt>
      <trkpt lat="45.57123" lon="5.86929">
        <ele>402.98741627787</ele>
        <time>2015-11-07T18:10:03Z</time>
      </trkpt>
      <trkpt lat="45.57115" lon="5.86926">
        <ele>403.33414702279</ele>
        <time>2015-11-07T18:10:13Z</time>
      </trkpt>
      <trkpt lat="45.57115" lon="5.86926">
        <ele>403.33414702279</ele>
        <time>2015-11-07T18:10:18Z</time>
      </trkpt>
      <trkpt lat="45.57115" lon="5.86926">
        <ele>403.33414702279</ele>
        <time>2015-11-07T18:10:28Z</time>
      </trkpt>
      <trkpt lat="45.57115" lon="5.86925">
        <ele>403.33414702279</ele>
        <time>2015-11-07T18:10:33Z</time>
      </trkpt>
      <trkpt lat="45.57116" lon="5.86925">
        <ele>403.33414702279</ele>
        <time>2015-11-07T18:10:43Z</time>
      </trkpt>
      <trkpt lat="45.57115" lon="5.86925">
        <ele>403.33414702279</ele>
        <time>2015-11-07T18:10:48Z</time>
      </trkpt>
      <trkpt lat="45.57115" lon="5.86925">
        <ele>403.33414702279</ele>
        <time>2015-11-07T18:10:58Z</time>
      </trkpt>
      <trkpt lat="45.57115" lon="5.86925">
        <ele>403.33414702279</ele>
        <time>2015-11-07T18:11:03Z</time>
      </trkpt>
      <trkpt lat="45.57113" lon="5.86926">
        <ele>403.33414702279</ele>
        <time>2015-11-07T18:11:13Z</time>
      </trkpt>
      <trkpt lat="45.57113" lon="5.86926">
        <ele>403.33414702279</ele>
        <time>2015-11-07T18:11:18Z</time>
      </trkpt>
      <trkpt lat="45.57113" lon="5.8692">
        <ele>403.89824827171</ele>
        <time>2015-11-07T18:11:28Z</time>
      </trkpt>
      <trkpt lat="45.57115" lon="5.86911">
        <ele>403.89824827171</ele>
        <time>2015-11-07T18:11:33Z</time>
      </trkpt>
      <trkpt lat="45.5712" lon="5.86887">
        <ele>403.84315811088</ele>
        <time>2015-11-07T18:11:48Z</time>
      </trkpt>
      <trkpt lat="45.57122" lon="5.86878">
        <ele>403.84315811088</ele>
        <time>2015-11-07T18:11:53Z</time>
      </trkpt>
      <trkpt lat="45.57125" lon="5.86861">
        <ele>403.31767588242</ele>
        <time>2015-11-07T18:12:03Z</time>
      </trkpt>
      <trkpt lat="45.57126" lon="5.86851">
        <ele>403.31767588242</ele>
        <time>2015-11-07T18:12:08Z</time>
      </trkpt>
      <trkpt lat="45.57128" lon="5.86834">
        <ele>402.44644119439</ele>
        <time>2015-11-07T18:12:18Z</time>
      </trkpt>
      <trkpt lat="45.57129" lon="5.86826">
        <ele>402.44644119439</ele>
        <time>2015-11-07T18:12:23Z</time>
      </trkpt>
      <trkpt lat="45.57132" lon="5.8681">
        <ele>401.47547091069</ele>
        <time>2015-11-07T18:12:33Z</time>
      </trkpt>
      <trkpt lat="45.57132" lon="5.86801">
        <ele>401.47547091069</ele>
        <time>2015-11-07T18:12:38Z</time>
      </trkpt>
      <trkpt lat="45.57133" lon="5.86784">
        <ele>400.3878619136</ele>
        <time>2015-11-07T18:12:48Z</time>
      </trkpt>
      <trkpt lat="45.57132" lon="5.86775">
        <ele>400.3878619136</ele>
        <time>2015-11-07T18:12:53Z</time>
      </trkpt>
      <trkpt lat="45.57129" lon="5.86758">
        <ele>399.22578289971</ele>
        <time>2015-11-07T18:13:03Z</time>
      </trkpt>
      <trkpt lat="45.57128" lon="5.8675">
        <ele>399.22578289971</ele>
        <time>2015-11-07T18:13:08Z</time>
      </trkpt>
      <trkpt lat="45.57125" lon="5.86734">
        <ele>397.89866853109</ele>
        <time>2015-11-07T18:13:18Z</time>
      </trkpt>
      <trkpt lat="45.57124" lon="5.86726">
        <ele>397.89866853109</ele>
        <time>2015-11-07T18:13:23Z</time>
      </trkpt>
      <trkpt lat="45.57123" lon="5.86721">
        <ele>396.82730995891</ele>
        <time>2015-11-07T18:13:33Z</time>
      </trkpt>
      <trkpt lat="45.57123" lon="5.86721">
        <ele>396.82730995891</ele>
        <time>2015-11-07T18:13:38Z</time>
      </trkpt>
      <trkpt lat="45.57122" lon="5.86714">
        <ele>396.82730995891</ele>
        <time>2015-11-07T18:13:48Z</time>
      </trkpt>
      <trkpt lat="45.57121" lon="5.86708">
        <ele>395.60810683437</ele>
        <time>2015-11-07T18:13:53Z</time>
      </trkpt>
      <trkpt lat="45.5712" lon="5.86687">
        <ele>393.89618912667</ele>
        <time>2015-11-07T18:14:08Z</time>
      </trkpt>
      <trkpt lat="45.57119" lon="5.86679">
        <ele>393.89618912667</ele>
        <time>2015-11-07T18:14:13Z</time>
      </trkpt>
      <trkpt lat="45.57121" lon="5.86665">
        <ele>392.81435749962</ele>
        <time>2015-11-07T18:14:23Z</time>
      </trkpt>
      <trkpt lat="45.57121" lon="5.86659">
        <ele>392.81435749962</ele>
        <time>2015-11-07T18:14:28Z</time>
      </trkpt>
      <trkpt lat="45.5712" lon="5.86647">
        <ele>391.85901667777</ele>
        <time>2015-11-07T18:14:38Z</time>
      </trkpt>
      <trkpt lat="45.5712" lon="5.86641">
        <ele>391.85901667777</ele>
        <time>2015-11-07T18:14:43Z</time>
      </trkpt>
      <trkpt lat="45.57117" lon="5.86627">
        <ele>390.72157311933</ele>
        <time>2015-11-07T18:14:53Z</time>
      </trkpt>
      <trkpt lat="45.57114" lon="5.86622">
        <ele>390.72157311933</ele>
        <time>2015-11-07T18:14:58Z</time>
      </trkpt>
      <trkpt lat="45.57107" lon="5.86615">
        <ele>389.67848766995</ele>
        <time>2015-11-07T18:15:08Z</time>
      </trkpt>
      <trkpt lat="45.57104" lon="5.86612">
        <ele>389.67848766995</ele>
        <time>2015-11-07T18:15:13Z</time>
      </trkpt>
      <trkpt lat="45.57097" lon="5.86606">
        <ele>389.04313559824</ele>
        <time>2015-11-07T18:15:28Z</time>
      </trkpt>
      <trkpt lat="45.57096" lon="5.86603">
        <ele>389.04313559824</ele>
        <time>2015-11-07T18:15:33Z</time>
      </trkpt>
      <trkpt lat="45.57092" lon="5.86595">
        <ele>389.04313559824</ele>
        <time>2015-11-07T18:15:43Z</time>
      </trkpt>
      <trkpt lat="45.57089" lon="5.86591">
        <ele>387.70669503642</ele>
        <time>2015-11-07T18:15:48Z</time>
      </trkpt>
      <trkpt lat="45.57084" lon="5.86582">
        <ele>387.70669503642</ele>
        <time>2015-11-07T18:15:58Z</time>
      </trkpt>
      <trkpt lat="45.57082" lon="5.86577">
        <ele>385.88296701353</ele>
        <time>2015-11-07T18:16:03Z</time>
      </trkpt>
      <trkpt lat="45.57078" lon="5.8657">
        <ele>385.88296701353</ele>
        <time>2015-11-07T18:16:13Z</time>
      </trkpt>
      <trkpt lat="45.57075" lon="5.86566">
        <ele>384.30447284458</ele>
        <time>2015-11-07T18:16:18Z</time>
      </trkpt>
      <trkpt lat="45.57072" lon="5.86558">
        <ele>384.30447284458</ele>
        <time>2015-11-07T18:16:28Z</time>
      </trkpt>
      <trkpt lat="45.57069" lon="5.86556">
        <ele>382.82764936591</ele>
        <time>2015-11-07T18:16:33Z</time>
      </trkpt>
      <trkpt lat="45.57063" lon="5.86547">
        <ele>382.82764936591</ele>
        <time>2015-11-07T18:16:43Z</time>
      </trkpt>
      <trkpt lat="45.5706" lon="5.86541">
        <ele>381.13169627698</ele>
        <time>2015-11-07T18:16:48Z</time>
      </trkpt>
      <trkpt lat="45.5706" lon="5.86527">
        <ele>379.46746193781</ele>
        <time>2015-11-07T18:16:58Z</time>
      </trkpt>
      <trkpt lat="45.57062" lon="5.86523">
        <ele>379.46746193781</ele>
        <time>2015-11-07T18:17:03Z</time>
      </trkpt>
      <trkpt lat="45.57064" lon="5.86519">
        <ele>379.46746193781</ele>
        <time>2015-11-07T18:17:13Z</time>
      </trkpt>
      <trkpt lat="45.57068" lon="5.86522">
        <ele>377.49067887897</ele>
        <time>2015-11-07T18:17:18Z</time>
      </trkpt>
      <trkpt lat="45.57078" lon="5.86526">
        <ele>375.84863565375</ele>
        <time>2015-11-07T18:17:28Z</time>
      </trkpt>
      <trkpt lat="45.57083" lon="5.86525">
        <ele>375.84863565375</ele>
        <time>2015-11-07T18:17:33Z</time>
      </trkpt>
      <trkpt lat="45.57103" lon="5.86518">
        <ele>374.30413226956</ele>
        <time>2015-11-07T18:17:48Z</time>
      </trkpt>
      <trkpt lat="45.57106" lon="5.86517">
        <ele>374.30413226956</ele>
        <time>2015-11-07T18:17:53Z</time>
      </trkpt>
    </trkseg>
  </trk>
</gpx>